GFSSGP_prec_precacc12_012.txt.gz
Total_Precipitation_Accumulation
0.00 0.01 0.09 0.37 0.72 0.22 0.20 0.08 0.07 0.14 0.06 0.02 0.02 0.09 0.08 0.05 0.13 0.10 0.09 0.08 0.03 0.02 0.04 0.12 0.18 0.19 0.20 0.07 0.06 0.05 0.04 0.03 0.00 0.00 0.01 0.00 0.00 0.00 0.00 0.00 0.00 0.00 0.00 0.00 0.00 0.00 0.00 0.00 0.00
0.00 0.11 0.59 1.46 0.78 0.26 0.46 0.08 0.08 0.08 0.04 0.03 0.03 0.05 0.00 0.00 0.00 0.01 0.06 0.03 0.00 0.00 0.00 0.02 0.19 0.14 0.13 0.04 0.04 0.03 0.03 0.00 0.00 0.00 0.00 0.00 0.00 0.00 0.00 0.00 0.00 0.00 0.00 0.00 0.00 0.00 0.00 0.00 0.00
0.06 0.63 1.23 1.05 0.11 0.14 0.29 0.22 0.05 0.01 0.04 0.05 0.03 0.04 0.01 0.00 0.00 0.00 0.00 0.00 0.01 0.00 0.00 0.01 0.07 0.12 0.09 0.03 0.03 0.02 0.02 0.00 0.00 0.00 0.00 0.00 0.00 0.00 0.00 0.00 0.00 0.00 0.00 0.00 0.00 0.00 0.00 0.00 0.00
0.23 2.37 2.59 0.96 0.08 0.05 0.08 0.05 0.11 0.01 0.00 0.01 0.02 0.01 0.00 0.00 0.00 0.00 0.00 0.00 0.01 0.01 0.01 0.00 0.01 0.03 0.01 0.01 0.01 0.02 0.03 0.00 0.00 0.00 0.00 0.00 0.00 0.00 0.00 0.00 0.00 0.00 0.00 0.00 0.00 0.00 0.00 0.00 0.00
0.34 1.25 0.60 0.45 0.01 0.04 0.03 0.13 0.37 0.07 0.04 0.02 0.00 0.00 0.00 0.00 0.00 0.00 0.00 0.01 0.03 0.01 0.00 0.00 0.01 0.03 0.02 0.02 0.01 0.02 0.02 0.00 0.00 0.00 0.00 0.00 0.00 0.00 0.00 0.00 0.00 0.00 0.00 0.03 0.02 0.01 0.00 0.00 0.01
0.73 0.14 0.09 0.02 0.01 0.01 0.03 0.02 0.04 0.07 0.02 0.02 0.00 0.00 0.01 0.00 0.00 0.00 0.00 0.01 0.03 0.01 0.00 0.00 0.02 0.02 0.04 0.02 0.00 0.01 0.00 0.00 0.00 0.00 0.00 0.00 0.00 0.00 0.00 0.00 0.00 0.00 0.01 0.06 0.01 0.00 0.00 0.00 0.00
0.57 0.01 0.00 0.00 0.00 0.01 0.01 0.02 0.01 0.00 0.00 0.01 0.00 0.00 0.01 0.00 0.00 0.00 0.00 0.00 0.01 0.00 0.00 0.00 0.00 0.00 0.03 0.03 0.00 0.00 0.00 0.00 0.00 0.00 0.00 0.00 0.00 0.00 0.00 0.00 0.00 0.01 0.03 0.05 0.00 0.00 0.00 0.00 0.02
0.06 0.01 0.01 0.01 0.00 0.00 0.00 0.00 0.00 0.00 0.00 0.00 0.02 0.00 0.00 0.00 0.00 0.00 0.00 0.00 0.01 0.00 0.00 0.00 0.00 0.00 0.01 0.00 0.00 0.00 0.01 0.00 0.00 0.00 0.00 0.00 0.00 0.00 0.01 0.01 0.04 0.00 0.00 0.00 0.00 0.00 0.00 0.00 0.03
0.05 0.00 0.03 0.00 0.00 0.00 0.00 0.00 0.00 0.00 0.00 0.01 0.07 0.00 0.00 0.00 0.00 0.00 0.00 0.00 0.01 0.00 0.00 0.00 0.00 0.05 0.05 0.00 0.01 0.00 0.00 0.00 0.00 0.00 0.00 0.00 0.04 0.05 0.07 0.12 0.08 0.00 0.00 0.00 0.00 0.00 0.00 0.00 0.03
0.02 0.01 0.00 0.00 0.00 0.00 0.00 0.00 0.00 0.00 0.00 0.00 0.01 0.00 0.00 0.00 0.00 0.00 0.00 0.00 0.00 0.00 0.00 0.00 0.00 0.00 0.00 0.00 0.00 0.00 0.00 0.00 0.00 0.00 0.00 0.00 0.12 0.10 0.14 0.16 0.08 0.07 0.05 0.01 0.02 0.03 0.01 0.00 0.01
0.00 0.01 0.00 0.00 0.00 0.00 0.00 0.00 0.00 0.00 0.00 0.00 0.00 0.00 0.00 0.00 0.00 0.00 0.00 0.00 0.00 0.00 0.00 0.00 0.00 0.01 0.01 0.01 0.00 0.00 0.00 0.00 0.00 0.00 0.01 0.02 0.13 0.24 0.30 0.30 0.69 0.24 0.14 0.23 0.09 0.05 0.01 0.00 0.00
0.00 0.00 0.00 0.00 0.00 0.00 0.00 0.00 0.00 0.00 0.00 0.00 0.00 0.00 0.00 0.00 0.00 0.00 0.00 0.00 0.00 0.00 0.00 0.00 0.00 0.00 0.02 0.01 0.00 0.00 0.00 0.00 0.00 0.00 0.00 0.02 0.04 0.10 0.32 0.46 0.32 0.17 0.21 0.09 0.09 0.04 0.01 0.00 0.00
0.00 0.00 0.00 0.00 0.00 0.00 0.00 0.00 0.00 0.00 0.00 0.00 0.00 0.00 0.00 0.00 0.00 0.00 0.00 0.00 0.00 0.00 0.00 0.00 0.00 0.00 0.01 0.01 0.00 0.00 0.00 0.00 0.00 0.00 0.00 0.01 0.01 0.12 0.27 0.17 0.10 0.06 0.08 0.06 0.04 0.02 0.00 0.00 0.00
0.00 0.00 0.00 0.00 0.00 0.00 0.00 0.00 0.00 0.00 0.00 0.00 0.00 0.00 0.00 0.00 0.00 0.00 0.00 0.00 0.00 0.00 0.00 0.00 0.00 0.00 0.01 0.01 0.01 0.00 0.00 0.00 0.00 0.00 0.00 0.00 0.01 0.07 0.08 0.10 0.03 0.03 0.02 0.01 0.00 0.00 0.00 0.00 0.00
0.00 0.00 0.00 0.00 0.00 0.00 0.01 0.01 0.00 0.00 0.00 0.00 0.00 0.00 0.00 0.00 0.00 0.00 0.00 0.00 0.00 0.00 0.00 0.00 0.00 0.00 0.00 0.02 0.02 0.00 0.00 0.00 0.00 0.00 0.00 0.00 0.01 0.02 0.01 0.08 0.04 0.09 0.09 0.05 0.01 0.02 0.01 0.00 0.00
0.00 0.00 0.00 0.00 0.00 0.00 0.00 0.00 0.00 0.00 0.00 0.00 0.00 0.00 0.00 0.00 0.00 0.00 0.00 0.00 0.00 0.00 0.00 0.00 0.00 0.00 0.00 0.02 0.02 0.00 0.00 0.00 0.00 0.00 0.00 0.00 0.00 0.01 0.03 0.09 0.07 0.12 0.01 0.03 0.02 0.04 0.01 0.00 0.00
0.00 0.00 0.00 0.00 0.00 0.00 0.00 0.00 0.01 0.00 0.00 0.00 0.00 0.00 0.00 0.00 0.00 0.00 0.00 0.00 0.00 0.00 0.00 0.00 0.00 0.00 0.00 0.00 0.01 0.00 0.01 0.03 0.01 0.01 0.00 0.03 0.07 0.06 0.05 0.07 0.07 0.06 0.03 0.04 0.02 0.01 0.01 0.00 0.00
0.00 0.00 0.00 0.00 0.00 0.00 0.00 0.06 0.09 0.00 0.00 0.00 0.00 0.00 0.00 0.00 0.00 0.00 0.00 0.00 0.00 0.00 0.00 0.00 0.00 0.00 0.00 0.07 0.11 0.07 0.04 0.00 0.00 0.00 0.02 0.06 0.04 0.05 0.09 0.05 0.07 0.01 0.03 0.04 0.05 0.01 0.00 0.00 0.00
0.00 0.00 0.00 0.00 0.00 0.00 0.00 0.01 0.08 0.00 0.00 0.00 0.00 0.00 0.00 0.00 0.00 0.00 0.00 0.00 0.00 0.00 0.00 0.00 0.00 0.00 0.01 0.06 0.03 0.03 0.01 0.00 0.00 0.00 0.01 0.02 0.02 0.11 0.09 0.03 0.08 0.04 0.04 0.03 0.00 0.00 0.00 0.00 0.00
0.00 0.00 0.00 0.00 0.00 0.00 0.00 0.00 0.00 0.00 0.00 0.00 0.00 0.00 0.00 0.00 0.00 0.00 0.00 0.00 0.00 0.00 0.00 0.00 0.00 0.00 0.00 0.01 0.01 0.01 0.01 0.00 0.00 0.00 0.01 0.01 0.02 0.04 0.03 0.04 0.04 0.03 0.01 0.00 0.00 0.00 0.00 0.00 0.00
0.00 0.00 0.00 0.00 0.00 0.00 0.00 0.00 0.00 0.00 0.00 0.00 0.00 0.00 0.00 0.00 0.00 0.00 0.00 0.00 0.00 0.00 0.00 0.00 0.00 0.00 0.01 0.02 0.02 0.07 0.08 0.03 0.01 0.00 0.03 0.01 0.02 0.02 0.04 0.06 0.03 0.04 0.00 0.00 0.00 0.00 0.00 0.00 0.00
0.00 0.00 0.00 0.00 0.00 0.00 0.00 0.00 0.00 0.01 0.03 0.01 0.00 0.00 0.00 0.00 0.00 0.00 0.00 0.00 0.00 0.00 0.00 0.00 0.00 0.00 0.01 0.03 0.01 0.05 0.02 0.01 0.00 0.00 0.00 0.01 0.01 0.01 0.01 0.02 0.02 0.01 0.00 0.00 0.00 0.00 0.00 0.00 0.00
0.00 0.00 0.00 0.00 0.00 0.00 0.00 0.00 0.00 0.00 0.00 0.00 0.00 0.00 0.00 0.00 0.00 0.00 0.00 0.00 0.00 0.00 0.00 0.00 0.00 0.00 0.01 0.02 0.01 0.04 0.01 0.00 0.00 0.00 0.00 0.01 0.03 0.00 0.00 0.01 0.01 0.00 0.00 0.00 0.00 0.00 0.00 0.00 0.00
0.00 0.00 0.00 0.00 0.00 0.00 0.00 0.00 0.00 0.00 0.00 0.00 0.00 0.00 0.00 0.00 0.00 0.00 0.00 0.00 0.00 0.00 0.00 0.00 0.00 0.00 0.00 0.01 0.01 0.04 0.03 0.00 0.00 0.00 0.00 0.00 0.00 0.00 0.00 0.00 0.01 0.00 0.00 0.00 0.00 0.00 0.00 0.00 0.00
0.00 0.00 0.00 0.00 0.00 0.00 0.00 0.00 0.00 0.00 0.00 0.00 0.00 0.01 0.00 0.00 0.00 0.00 0.00 0.00 0.00 0.00 0.00 0.00 0.00 0.00 0.00 0.00 0.00 0.01 0.01 0.01 0.01 0.01 0.00 0.00 0.00 0.00 0.00 0.00 0.01 0.00 0.00 0.00 0.00 0.00 0.00 0.00 0.00
0.00 0.00 0.00 0.00 0.00 0.00 0.00 0.00 0.00 0.00 0.00 0.00 0.00 0.00 0.00 0.00 0.00 0.00 0.00 0.00 0.00 0.00 0.00 0.00 0.00 0.00 0.00 0.00 0.00 0.00 0.00 0.00 0.00 0.00 0.00 0.00 0.00 0.00 0.00 0.00 0.00 0.00 0.00 0.00 0.00 0.00 0.00 0.00 0.00
0.00 0.00 0.00 0.00 0.00 0.00 0.00 0.00 0.00 0.00 0.00 0.00 0.00 0.00 0.00 0.00 0.00 0.00 0.00 0.00 0.00 0.00 0.00 0.00 0.00 0.00 0.00 0.00 0.00 0.00 0.00 0.00 0.00 0.00 0.00 0.00 0.00 0.00 0.00 0.00 0.00 0.00 0.00 0.00 0.00 0.00 0.00 0.00 0.00
0.00 0.00 0.00 0.00 0.00 0.00 0.00 0.00 0.00 0.00 0.00 0.00 0.00 0.00 0.00 0.00 0.00 0.00 0.00 0.00 0.00 0.00 0.00 0.00 0.00 0.00 0.00 0.00 0.00 0.00 0.00 0.00 0.00 0.00 0.00 0.00 0.00 0.00 0.00 0.00 0.00 0.00 0.00 0.00 0.00 0.00 0.00 0.00 0.00
0.00 0.00 0.00 0.00 0.00 0.00 0.00 0.00 0.00 0.00 0.00 0.00 0.00 0.00 0.00 0.00 0.00 0.00 0.00 0.00 0.00 0.00 0.00 0.00 0.00 0.00 0.00 0.00 0.00 0.00 0.00 0.00 0.00 0.00 0.00 0.00 0.00 0.00 0.00 0.00 0.00 0.00 0.00 0.00 0.00 0.00 0.00 0.00 0.00
0.00 0.00 0.00 0.00 0.00 0.00 0.00 0.00 0.00 0.00 0.00 0.00 0.00 0.00 0.00 0.00 0.00 0.00 0.00 0.00 0.00 0.00 0.00 0.00 0.00 0.00 0.00 0.00 0.00 0.00 0.00 0.00 0.00 0.00 0.00 0.00 0.00 0.00 0.00 0.00 0.00 0.00 0.00 0.00 0.00 0.00 0.00 0.00 0.00

GFSSGP_prec_precacc12_015.txt.gz
Total_Precipitation_Accumulation
0.00 0.01 0.12 0.48 0.51 0.23 0.20 0.13 0.11 0.11 0.05 0.01 0.02 0.05 0.02 0.03 0.06 0.02 0.04 0.06 0.02 0.01 0.04 0.16 0.21 0.15 0.05 0.03 0.01 0.01 0.01 0.01 0.00 0.00 0.01 0.00 0.00 0.00 0.00 0.00 0.00 0.00 0.00 0.00 0.00 0.00 0.01 0.01 0.00
0.01 0.14 0.60 1.45 0.76 0.26 0.48 0.14 0.10 0.08 0.04 0.03 0.03 0.01 0.00 0.00 0.00 0.00 0.04 0.03 0.00 0.00 0.00 0.04 0.22 0.11 0.04 0.01 0.00 0.00 0.01 0.00 0.00 0.00 0.00 0.00 0.00 0.00 0.00 0.00 0.00 0.00 0.00 0.00 0.00 0.00 0.00 0.00 0.04
0.06 0.69 1.21 1.06 0.12 0.16 0.35 0.23 0.05 0.01 0.04 0.05 0.02 0.03 0.00 0.00 0.00 0.00 0.00 0.00 0.00 0.00 0.00 0.02 0.05 0.07 0.03 0.01 0.00 0.00 0.01 0.00 0.00 0.00 0.00 0.00 0.00 0.00 0.00 0.00 0.00 0.00 0.00 0.00 0.00 0.00 0.00 0.05 0.11
0.23 2.41 2.67 1.00 0.14 0.06 0.11 0.05 0.12 0.01 0.00 0.01 0.02 0.01 0.00 0.00 0.00 0.00 0.00 0.00 0.01 0.01 0.00 0.02 0.02 0.01 0.01 0.01 0.01 0.02 0.03 0.00 0.00 0.00 0.00 0.00 0.00 0.00 0.00 0.00 0.00 0.00 0.00 0.00 0.00 0.00 0.00 0.07 0.13
0.34 1.25 0.62 0.47 0.02 0.04 0.04 0.15 0.38 0.07 0.04 0.02 0.00 0.00 0.00 0.00 0.00 0.00 0.00 0.00 0.02 0.01 0.00 0.00 0.03 0.03 0.02 0.02 0.01 0.02 0.02 0.00 0.00 0.00 0.00 0.00 0.00 0.00 0.00 0.00 0.00 0.00 0.00 0.00 0.00 0.00 0.01 0.03 0.10
0.73 0.14 0.12 0.03 0.01 0.02 0.03 0.04 0.04 0.07 0.02 0.02 0.00 0.00 0.01 0.00 0.00 0.00 0.00 0.00 0.02 0.00 0.00 0.00 0.02 0.01 0.02 0.02 0.00 0.01 0.00 0.00 0.00 0.00 0.00 0.00 0.00 0.00 0.00 0.00 0.00 0.00 0.00 0.00 0.00 0.00 0.04 0.07 0.07
0.58 0.01 0.00 0.00 0.00 0.01 0.02 0.02 0.01 0.00 0.00 0.01 0.00 0.00 0.01 0.00 0.00 0.00 0.00 0.00 0.01 0.00 0.00 0.00 0.00 0.00 0.01 0.03 0.00 0.00 0.00 0.00 0.00 0.00 0.00 0.00 0.00 0.01 0.00 0.00 0.00 0.00 0.00 0.00 0.00 0.00 0.01 0.05 0.08
0.10 0.02 0.01 0.01 0.00 0.00 0.01 0.00 0.00 0.00 0.00 0.00 0.02 0.00 0.00 0.00 0.00 0.00 0.00 0.00 0.00 0.00 0.01 0.00 0.00 0.00 0.00 0.00 0.00 0.00 0.00 0.00 0.00 0.00 0.00 0.00 0.00 0.02 0.00 0.00 0.00 0.00 0.00 0.00 0.00 0.00 0.01 0.03 0.08
0.12 0.01 0.03 0.00 0.00 0.01 0.00 0.00 0.00 0.00 0.00 0.01 0.06 0.00 0.00 0.00 0.00 0.00 0.00 0.00 0.01 0.00 0.01 0.00 0.00 0.00 0.02 0.00 0.00 0.00 0.00 0.00 0.00 0.00 0.00 0.00 0.04 0.05 0.06 0.11 0.07 0.00 0.00 0.00 0.00 0.00 0.01 0.04 0.07
0.04 0.00 0.00 0.00 0.00 0.00 0.00 0.00 0.00 0.00 0.00 0.00 0.01 0.00 0.00 0.00 0.00 0.00 0.00 0.00 0.00 0.00 0.00 0.00 0.00 0.00 0.00 0.00 0.00 0.00 0.00 0.00 0.00 0.00 0.00 0.00 0.12 0.10 0.13 0.16 0.08 0.07 0.05 0.01 0.04 0.05 0.05 0.02 0.01
0.00 0.00 0.00 0.00 0.00 0.00 0.00 0.00 0.00 0.00 0.00 0.00 0.00 0.00 0.00 0.00 0.00 0.00 0.00 0.00 0.00 0.00 0.00 0.00 0.00 0.00 0.01 0.00 0.00 0.00 0.00 0.00 0.00 0.00 0.01 0.02 0.13 0.24 0.29 0.28 0.69 0.24 0.13 0.21 0.09 0.06 0.02 0.00 0.00
0.00 0.00 0.00 0.00 0.00 0.00 0.00 0.00 0.00 0.00 0.00 0.00 0.00 0.00 0.00 0.00 0.00 0.00 0.00 0.00 0.00 0.00 0.00 0.00 0.00 0.00 0.01 0.00 0.00 0.00 0.00 0.00 0.00 0.00 0.00 0.02 0.05 0.10 0.32 0.46 0.31 0.17 0.21 0.09 0.09 0.04 0.01 0.00 0.00
0.00 0.00 0.00 0.00 0.00 0.00 0.00 0.00 0.00 0.00 0.00 0.00 0.00 0.00 0.00 0.00 0.00 0.00 0.00 0.00 0.00 0.00 0.00 0.00 0.00 0.00 0.01 0.00 0.00 0.00 0.00 0.00 0.00 0.00 0.00 0.01 0.02 0.09 0.25 0.14 0.10 0.05 0.08 0.06 0.04 0.03 0.01 0.00 0.00
0.00 0.00 0.00 0.00 0.00 0.00 0.00 0.00 0.00 0.00 0.00 0.00 0.00 0.00 0.00 0.00 0.00 0.00 0.00 0.00 0.00 0.00 0.00 0.00 0.00 0.00 0.00 0.00 0.01 0.00 0.00 0.00 0.00 0.00 0.00 0.00 0.01 0.02 0.08 0.09 0.03 0.03 0.02 0.00 0.00 0.00 0.00 0.00 0.00
0.00 0.00 0.00 0.00 0.00 0.00 0.01 0.01 0.00 0.00 0.00 0.00 0.00 0.00 0.00 0.00 0.00 0.00 0.00 0.00 0.00 0.00 0.00 0.00 0.00 0.00 0.00 0.01 0.01 0.00 0.00 0.00 0.00 0.00 0.00 0.00 0.00 0.01 0.01 0.06 0.03 0.09 0.08 0.06 0.01 0.02 0.01 0.00 0.00
0.00 0.00 0.00 0.00 0.00 0.00 0.00 0.00 0.00 0.00 0.00 0.00 0.00 0.00 0.00 0.00 0.00 0.00 0.00 0.00 0.00 0.00 0.00 0.00 0.00 0.00 0.00 0.00 0.01 0.00 0.00 0.00 0.00 0.00 0.00 0.00 0.00 0.01 0.03 0.08 0.07 0.12 0.01 0.03 0.01 0.03 0.01 0.00 0.00
0.00 0.00 0.00 0.00 0.00 0.00 0.00 0.00 0.01 0.00 0.00 0.00 0.00 0.00 0.00 0.00 0.00 0.00 0.00 0.00 0.00 0.00 0.00 0.00 0.00 0.00 0.00 0.00 0.01 0.00 0.00 0.00 0.00 0.00 0.00 0.03 0.07 0.07 0.09 0.07 0.07 0.04 0.02 0.01 0.01 0.01 0.01 0.00 0.00
0.00 0.00 0.00 0.00 0.00 0.00 0.00 0.05 0.09 0.00 0.00 0.00 0.00 0.00 0.00 0.00 0.00 0.00 0.00 0.00 0.00 0.00 0.00 0.00 0.00 0.00 0.00 0.01 0.03 0.02 0.01 0.00 0.00 0.00 0.00 0.02 0.01 0.06 0.10 0.03 0.05 0.01 0.02 0.03 0.02 0.01 0.00 0.00 0.00
0.00 0.00 0.00 0.00 0.00 0.00 0.00 0.01 0.08 0.00 0.00 0.00 0.00 0.00 0.00 0.00 0.00 0.00 0.00 0.00 0.00 0.00 0.00 0.00 0.00 0.00 0.00 0.00 0.00 0.02 0.00 0.00 0.00 0.00 0.00 0.00 0.01 0.06 0.03 0.03 0.07 0.01 0.03 0.02 0.00 0.00 0.00 0.00 0.00
0.00 0.00 0.00 0.00 0.00 0.00 0.00 0.00 0.00 0.00 0.00 0.00 0.00 0.00 0.00 0.00 0.00 0.00 0.00 0.00 0.00 0.00 0.00 0.00 0.00 0.00 0.00 0.00 0.00 0.01 0.01 0.00 0.00 0.00 0.00 0.01 0.02 0.02 0.01 0.03 0.03 0.01 0.01 0.00 0.00 0.00 0.00 0.00 0.00
0.00 0.00 0.00 0.00 0.00 0.00 0.00 0.00 0.00 0.00 0.00 0.00 0.00 0.00 0.00 0.00 0.00 0.00 0.00 0.00 0.00 0.00 0.00 0.00 0.00 0.00 0.00 0.00 0.00 0.03 0.05 0.01 0.01 0.00 0.01 0.00 0.00 0.01 0.01 0.03 0.02 0.03 0.00 0.00 0.00 0.00 0.00 0.00 0.00
0.00 0.00 0.00 0.00 0.00 0.00 0.00 0.00 0.00 0.01 0.03 0.01 0.00 0.00 0.00 0.00 0.00 0.00 0.00 0.00 0.00 0.00 0.00 0.00 0.00 0.00 0.00 0.00 0.00 0.01 0.00 0.01 0.00 0.00 0.00 0.00 0.00 0.00 0.00 0.00 0.02 0.01 0.00 0.00 0.00 0.00 0.00 0.00 0.00
0.00 0.00 0.00 0.00 0.00 0.00 0.00 0.00 0.00 0.00 0.00 0.00 0.00 0.00 0.00 0.00 0.00 0.00 0.00 0.00 0.00 0.00 0.00 0.00 0.00 0.00 0.00 0.00 0.00 0.02 0.00 0.00 0.00 0.00 0.00 0.01 0.02 0.00 0.00 0.01 0.00 0.00 0.00 0.00 0.00 0.00 0.00 0.00 0.00
0.00 0.00 0.00 0.00 0.00 0.00 0.00 0.00 0.00 0.00 0.00 0.00 0.00 0.00 0.00 0.00 0.00 0.00 0.00 0.00 0.00 0.00 0.00 0.00 0.00 0.00 0.00 0.01 0.00 0.02 0.01 0.00 0.00 0.00 0.00 0.00 0.00 0.00 0.00 0.00 0.00 0.00 0.00 0.00 0.00 0.00 0.00 0.00 0.00
0.00 0.00 0.00 0.00 0.00 0.00 0.00 0.00 0.00 0.00 0.00 0.00 0.00 0.01 0.00 0.00 0.00 0.00 0.00 0.00 0.00 0.00 0.00 0.00 0.00 0.00 0.00 0.00 0.00 0.00 0.00 0.00 0.01 0.01 0.00 0.00 0.00 0.00 0.00 0.00 0.00 0.00 0.00 0.00 0.00 0.00 0.00 0.00 0.00
0.00 0.00 0.00 0.00 0.00 0.00 0.00 0.00 0.00 0.00 0.00 0.00 0.00 0.00 0.00 0.00 0.00 0.00 0.00 0.00 0.00 0.00 0.00 0.00 0.00 0.00 0.00 0.00 0.00 0.00 0.00 0.00 0.00 0.00 0.00 0.00 0.00 0.00 0.00 0.00 0.00 0.00 0.00 0.00 0.00 0.00 0.00 0.00 0.00
0.00 0.00 0.00 0.00 0.00 0.00 0.00 0.00 0.00 0.00 0.00 0.00 0.00 0.00 0.00 0.00 0.00 0.00 0.00 0.00 0.00 0.00 0.00 0.00 0.00 0.00 0.00 0.00 0.00 0.00 0.00 0.00 0.00 0.00 0.00 0.00 0.00 0.00 0.00 0.00 0.00 0.00 0.00 0.00 0.00 0.00 0.00 0.00 0.00
0.00 0.00 0.00 0.00 0.00 0.00 0.00 0.00 0.00 0.00 0.00 0.00 0.00 0.00 0.00 0.00 0.00 0.00 0.00 0.00 0.00 0.00 0.00 0.00 0.00 0.00 0.00 0.00 0.00 0.00 0.00 0.00 0.00 0.00 0.00 0.00 0.00 0.00 0.00 0.00 0.00 0.00 0.00 0.00 0.00 0.00 0.00 0.00 0.00
0.00 0.00 0.00 0.00 0.00 0.00 0.00 0.00 0.00 0.00 0.00 0.00 0.00 0.00 0.00 0.00 0.00 0.00 0.00 0.00 0.00 0.00 0.00 0.00 0.00 0.00 0.00 0.00 0.00 0.00 0.00 0.00 0.00 0.00 0.00 0.00 0.00 0.00 0.00 0.00 0.00 0.00 0.00 0.00 0.00 0.00 0.00 0.00 0.00
0.00 0.00 0.00 0.00 0.00 0.00 0.00 0.00 0.00 0.00 0.00 0.00 0.00 0.00 0.00 0.00 0.00 0.00 0.00 0.00 0.00 0.00 0.00 0.00 0.00 0.00 0.00 0.00 0.00 0.00 0.00 0.00 0.00 0.00 0.00 0.00 0.00 0.00 0.00 0.00 0.00 0.00 0.00 0.00 0.00 0.00 0.00 0.00 0.00

GFSSGP_prec_precacc12_018.txt.gz
Total_Precipitation_Accumulation
0.01 0.04 0.11 0.33 0.22 0.24 0.16 0.15 0.12 0.05 0.02 0.01 0.00 0.00 0.00 0.01 0.01 0.00 0.02 0.03 0.01 0.01 0.04 0.21 0.38 0.31 0.09 0.03 0.01 0.00 0.00 0.00 0.00 0.00 0.00 0.00 0.00 0.00 0.00 0.00 0.00 0.00 0.00 0.02 0.00 0.00 0.01 0.02 0.02
0.01 0.14 0.41 0.39 0.05 0.16 0.41 0.14 0.07 0.05 0.04 0.02 0.00 0.00 0.00 0.00 0.00 0.00 0.02 0.01 0.00 0.00 0.01 0.06 0.38 0.18 0.02 0.01 0.00 0.00 0.00 0.00 0.00 0.00 0.00 0.00 0.00 0.00 0.00 0.00 0.00 0.00 0.00 0.02 0.04 0.05 0.04 0.07 0.09
0.06 0.67 1.05 0.80 0.06 0.11 0.29 0.14 0.04 0.01 0.02 0.01 0.00 0.00 0.00 0.00 0.00 0.00 0.00 0.00 0.00 0.00 0.00 0.06 0.10 0.06 0.00 0.00 0.00 0.00 0.00 0.00 0.00 0.00 0.00 0.00 0.00 0.00 0.00 0.00 0.00 0.00 0.00 0.00 0.00 0.02 0.07 0.10 0.11
0.23 2.38 2.62 1.02 0.15 0.04 0.08 0.05 0.12 0.01 0.00 0.00 0.01 0.01 0.00 0.00 0.00 0.00 0.00 0.00 0.01 0.00 0.01 0.04 0.02 0.00 0.00 0.00 0.00 0.00 0.00 0.00 0.00 0.00 0.00 0.00 0.00 0.00 0.00 0.00 0.00 0.00 0.00 0.00 0.00 0.00 0.01 0.10 0.13
0.34 1.23 0.60 0.47 0.02 0.04 0.04 0.15 0.37 0.05 0.03 0.01 0.00 0.00 0.00 0.00 0.00 0.00 0.00 0.00 0.02 0.00 0.00 0.01 0.03 0.01 0.00 0.00 0.00 0.00 0.00 0.00 0.00 0.00 0.00 0.00 0.00 0.00 0.00 0.00 0.00 0.00 0.01 0.02 0.00 0.00 0.02 0.03 0.11
0.43 0.13 0.13 0.03 0.02 0.02 0.03 0.04 0.04 0.06 0.01 0.00 0.00 0.00 0.00 0.00 0.00 0.00 0.00 0.00 0.01 0.00 0.00 0.00 0.01 0.01 0.01 0.01 0.00 0.00 0.00 0.00 0.00 0.00 0.00 0.00 0.00 0.00 0.00 0.00 0.00 0.00 0.00 0.00 0.00 0.01 0.04 0.07 0.08
0.03 0.02 0.01 0.01 0.01 0.01 0.02 0.02 0.01 0.03 0.00 0.00 0.00 0.00 0.00 0.00 0.00 0.00 0.00 0.00 0.00 0.00 0.00 0.00 0.00 0.00 0.01 0.02 0.00 0.00 0.00 0.00 0.00 0.00 0.00 0.00 0.00 0.01 0.00 0.00 0.00 0.00 0.00 0.01 0.01 0.02 0.03 0.05 0.09
0.09 0.04 0.00 0.01 0.01 0.00 0.01 0.00 0.00 0.00 0.00 0.00 0.00 0.00 0.00 0.00 0.00 0.00 0.00 0.00 0.00 0.00 0.01 0.00 0.00 0.00 0.00 0.00 0.00 0.00 0.00 0.00 0.00 0.00 0.00 0.00 0.01 0.02 0.01 0.00 0.00 0.00 0.00 0.01 0.03 0.04 0.06 0.05 0.08
0.13 0.02 0.03 0.00 0.00 0.01 0.00 0.00 0.00 0.00 0.00 0.00 0.05 0.00 0.00 0.00 0.00 0.00 0.00 0.00 0.01 0.00 0.00 0.00 0.00 0.00 0.00 0.00 0.00 0.00 0.00 0.00 0.00 0.00 0.00 0.01 0.07 0.10 0.15 0.13 0.06 0.00 0.00 0.00 0.03 0.03 0.04 0.06 0.07
0.06 0.00 0.00 0.00 0.00 0.00 0.00 0.00 0.00 0.00 0.00 0.00 0.01 0.00 0.00 0.00 0.00 0.00 0.00 0.00 0.00 0.00 0.00 0.00 0.00 0.00 0.00 0.00 0.00 0.00 0.00 0.00 0.00 0.00 0.00 0.00 0.08 0.11 0.14 0.13 0.05 0.07 0.04 0.01 0.06 0.08 0.06 0.04 0.01
0.01 0.00 0.00 0.00 0.00 0.00 0.00 0.00 0.00 0.00 0.00 0.00 0.00 0.00 0.00 0.00 0.00 0.00 0.00 0.00 0.00 0.00 0.00 0.00 0.00 0.00 0.01 0.00 0.00 0.00 0.00 0.00 0.00 0.00 0.01 0.02 0.13 0.21 0.16 0.09 0.06 0.10 0.01 0.02 0.06 0.05 0.01 0.00 0.00
0.00 0.00 0.00 0.00 0.00 0.00 0.00 0.00 0.00 0.00 0.00 0.00 0.00 0.00 0.00 0.00 0.00 0.00 0.00 0.00 0.00 0.00 0.00 0.00 0.00 0.00 0.00 0.00 0.00 0.00 0.00 0.00 0.00 0.00 0.00 0.01 0.05 0.07 0.12 0.30 0.18 0.09 0.04 0.03 0.06 0.02 0.01 0.01 0.00
0.00 0.00 0.00 0.00 0.00 0.00 0.00 0.00 0.00 0.00 0.00 0.00 0.00 0.00 0.00 0.00 0.00 0.00 0.00 0.00 0.00 0.00 0.00 0.00 0.00 0.00 0.00 0.00 0.00 0.00 0.00 0.00 0.00 0.00 0.00 0.01 0.01 0.08 0.10 0.12 0.09 0.05 0.08 0.05 0.04 0.03 0.01 0.00 0.00
0.00 0.00 0.00 0.00 0.00 0.00 0.00 0.00 0.00 0.00 0.00 0.00 0.00 0.00 0.00 0.00 0.00 0.00 0.00 0.00 0.00 0.00 0.00 0.00 0.00 0.00 0.00 0.00 0.00 0.00 0.00 0.00 0.00 0.00 0.00 0.00 0.01 0.01 0.06 0.07 0.02 0.04 0.06 0.02 0.00 0.01 0.00 0.00 0.00
0.00 0.00 0.00 0.00 0.00 0.00 0.01 0.01 0.00 0.00 0.00 0.00 0.00 0.00 0.00 0.00 0.00 0.00 0.00 0.00 0.00 0.00 0.00 0.00 0.00 0.00 0.00 0.00 0.00 0.00 0.00 0.00 0.00 0.00 0.00 0.00 0.01 0.02 0.01 0.04 0.03 0.10 0.09 0.07 0.00 0.00 0.00 0.00 0.00
0.00 0.00 0.00 0.00 0.00 0.00 0.00 0.00 0.00 0.00 0.00 0.00 0.00 0.00 0.00 0.00 0.00 0.00 0.00 0.00 0.00 0.00 0.00 0.00 0.00 0.00 0.00 0.00 0.00 0.00 0.00 0.00 0.00 0.00 0.00 0.00 0.00 0.00 0.03 0.07 0.02 0.08 0.01 0.02 0.00 0.00 0.00 0.00 0.00
0.00 0.00 0.00 0.00 0.00 0.00 0.00 0.00 0.00 0.00 0.00 0.00 0.00 0.00 0.00 0.00 0.00 0.00 0.00 0.00 0.00 0.00 0.00 0.00 0.00 0.00 0.00 0.00 0.00 0.00 0.00 0.00 0.00 0.00 0.00 0.01 0.00 0.05 0.18 0.09 0.01 0.00 0.02 0.00 0.00 0.00 0.00 0.00 0.00
0.00 0.00 0.00 0.00 0.00 0.00 0.00 0.00 0.00 0.00 0.00 0.00 0.00 0.00 0.00 0.00 0.00 0.00 0.00 0.00 0.00 0.00 0.00 0.00 0.00 0.00 0.00 0.00 0.00 0.00 0.00 0.00 0.00 0.00 0.01 0.01 0.00 0.08 0.04 0.03 0.02 0.00 0.00 0.00 0.00 0.00 0.00 0.00 0.00
0.00 0.00 0.00 0.00 0.00 0.00 0.00 0.00 0.00 0.00 0.00 0.00 0.00 0.00 0.00 0.00 0.00 0.00 0.00 0.00 0.00 0.00 0.00 0.00 0.00 0.00 0.00 0.00 0.00 0.00 0.00 0.00 0.00 0.00 0.00 0.00 0.01 0.02 0.00 0.01 0.01 0.00 0.00 0.00 0.00 0.00 0.00 0.00 0.00
0.00 0.00 0.00 0.00 0.00 0.00 0.00 0.00 0.00 0.00 0.00 0.00 0.00 0.00 0.00 0.00 0.00 0.00 0.00 0.00 0.00 0.00 0.00 0.00 0.00 0.00 0.00 0.00 0.00 0.00 0.00 0.00 0.00 0.00 0.00 0.00 0.00 0.00 0.00 0.00 0.00 0.00 0.00 0.00 0.00 0.00 0.00 0.00 0.00
0.00 0.00 0.00 0.00 0.00 0.00 0.00 0.00 0.00 0.00 0.00 0.00 0.00 0.00 0.00 0.00 0.00 0.00 0.00 0.00 0.00 0.00 0.00 0.00 0.00 0.00 0.00 0.00 0.00 0.00 0.00 0.00 0.00 0.00 0.01 0.00 0.00 0.00 0.00 0.00 0.00 0.00 0.00 0.00 0.00 0.00 0.00 0.00 0.00
0.00 0.00 0.00 0.00 0.00 0.00 0.00 0.00 0.00 0.00 0.03 0.01 0.00 0.00 0.00 0.00 0.00 0.00 0.00 0.00 0.00 0.00 0.00 0.00 0.00 0.00 0.00 0.00 0.00 0.00 0.00 0.00 0.00 0.00 0.00 0.00 0.00 0.00 0.00 0.00 0.00 0.00 0.00 0.00 0.00 0.00 0.00 0.00 0.00
0.00 0.00 0.00 0.00 0.00 0.00 0.00 0.00 0.00 0.00 0.00 0.00 0.00 0.00 0.00 0.00 0.00 0.00 0.00 0.00 0.00 0.00 0.00 0.00 0.00 0.00 0.00 0.00 0.00 0.00 0.00 0.00 0.00 0.00 0.00 0.00 0.00 0.00 0.00 0.00 0.00 0.00 0.00 0.00 0.00 0.00 0.00 0.00 0.00
0.00 0.00 0.00 0.00 0.00 0.00 0.00 0.00 0.00 0.00 0.00 0.00 0.00 0.00 0.00 0.00 0.00 0.00 0.00 0.00 0.00 0.00 0.00 0.00 0.00 0.00 0.00 0.00 0.00 0.00 0.00 0.00 0.00 0.00 0.00 0.00 0.00 0.00 0.00 0.00 0.00 0.00 0.00 0.00 0.00 0.00 0.00 0.00 0.00
0.00 0.00 0.00 0.00 0.00 0.00 0.00 0.00 0.00 0.00 0.00 0.00 0.00 0.00 0.00 0.00 0.00 0.00 0.00 0.00 0.00 0.00 0.00 0.00 0.00 0.00 0.00 0.00 0.00 0.00 0.00 0.00 0.00 0.00 0.00 0.00 0.00 0.00 0.00 0.00 0.00 0.00 0.00 0.00 0.00 0.00 0.00 0.00 0.00
0.00 0.00 0.00 0.00 0.00 0.00 0.00 0.00 0.00 0.00 0.00 0.00 0.00 0.00 0.00 0.00 0.00 0.00 0.00 0.00 0.00 0.00 0.00 0.00 0.00 0.00 0.00 0.00 0.00 0.00 0.00 0.00 0.00 0.00 0.00 0.00 0.00 0.00 0.00 0.00 0.00 0.00 0.00 0.00 0.00 0.00 0.00 0.00 0.00
0.00 0.00 0.00 0.00 0.00 0.00 0.00 0.00 0.00 0.00 0.00 0.00 0.00 0.00 0.00 0.00 0.00 0.00 0.00 0.00 0.00 0.00 0.00 0.00 0.00 0.00 0.00 0.00 0.00 0.00 0.00 0.00 0.00 0.00 0.00 0.00 0.00 0.00 0.00 0.00 0.00 0.00 0.00 0.00 0.00 0.00 0.00 0.00 0.00
0.00 0.00 0.00 0.00 0.00 0.00 0.00 0.00 0.00 0.00 0.00 0.00 0.00 0.00 0.00 0.00 0.00 0.00 0.00 0.00 0.00 0.00 0.00 0.00 0.00 0.00 0.00 0.00 0.00 0.00 0.00 0.00 0.00 0.00 0.00 0.00 0.00 0.00 0.00 0.00 0.00 0.00 0.00 0.00 0.00 0.00 0.00 0.00 0.00
0.00 0.00 0.00 0.00 0.00 0.00 0.00 0.00 0.00 0.00 0.00 0.00 0.00 0.00 0.00 0.00 0.00 0.00 0.00 0.00 0.00 0.00 0.00 0.00 0.00 0.00 0.00 0.00 0.00 0.00 0.00 0.00 0.00 0.00 0.00 0.00 0.00 0.00 0.00 0.00 0.00 0.00 0.00 0.00 0.00 0.00 0.00 0.00 0.00
0.00 0.00 0.00 0.00 0.00 0.00 0.00 0.00 0.00 0.00 0.00 0.00 0.00 0.00 0.00 0.00 0.00 0.00 0.00 0.00 0.00 0.00 0.00 0.00 0.00 0.00 0.00 0.00 0.00 0.00 0.00 0.00 0.00 0.00 0.00 0.00 0.00 0.00 0.00 0.00 0.00 0.00 0.00 0.00 0.00 0.00 0.00 0.00 0.00

GFSSGP_prec_precacc12_021.txt.gz
Total_Precipitation_Accumulation
0.01 0.06 0.10 0.27 0.23 0.14 0.05 0.15 0.09 0.02 0.00 0.00 0.00 0.00 0.00 0.00 0.00 0.00 0.00 0.00 0.00 0.00 0.02 0.21 0.41 0.35 0.07 0.02 0.01 0.00 0.00 0.00 0.00 0.00 0.00 0.00 0.00 0.00 0.00 0.00 0.01 0.02 0.01 0.02 0.01 0.00 0.02 0.02 0.02
0.02 0.10 0.09 0.01 0.01 0.07 0.11 0.12 0.06 0.03 0.02 0.00 0.00 0.00 0.00 0.00 0.00 0.00 0.01 0.00 0.00 0.00 0.01 0.06 0.47 0.22 0.02 0.01 0.00 0.00 0.00 0.00 0.00 0.00 0.00 0.00 0.00 0.00 0.00 0.00 0.00 0.00 0.00 0.02 0.07 0.06 0.04 0.06 0.09
0.06 0.55 0.67 0.44 0.01 0.03 0.08 0.03 0.02 0.01 0.00 0.00 0.00 0.00 0.00 0.00 0.00 0.00 0.00 0.00 0.00 0.00 0.00 0.08 0.15 0.07 0.00 0.00 0.00 0.00 0.00 0.00 0.00 0.00 0.00 0.00 0.00 0.00 0.00 0.00 0.00 0.01 0.01 0.02 0.00 0.02 0.07 0.10 0.11
0.11 1.32 1.20 0.56 0.13 0.02 0.05 0.04 0.07 0.01 0.00 0.00 0.00 0.00 0.00 0.00 0.00 0.00 0.00 0.00 0.00 0.00 0.01 0.05 0.04 0.00 0.00 0.00 0.00 0.00 0.00 0.00 0.00 0.00 0.00 0.00 0.00 0.00 0.01 0.05 0.02 0.01 0.01 0.00 0.00 0.00 0.01 0.10 0.14
0.04 0.48 0.30 0.36 0.02 0.04 0.03 0.14 0.28 0.03 0.01 0.00 0.00 0.00 0.00 0.00 0.00 0.00 0.00 0.00 0.00 0.00 0.00 0.01 0.05 0.01 0.00 0.00 0.00 0.00 0.00 0.00 0.00 0.00 0.00 0.00 0.00 0.00 0.00 0.01 0.03 0.02 0.01 0.02 0.00 0.00 0.02 0.06 0.17
0.01 0.01 0.08 0.03 0.02 0.02 0.03 0.03 0.04 0.06 0.01 0.00 0.00 0.00 0.01 0.00 0.00 0.00 0.00 0.00 0.01 0.00 0.00 0.00 0.01 0.00 0.00 0.00 0.00 0.00 0.00 0.00 0.00 0.00 0.00 0.00 0.00 0.00 0.00 0.00 0.01 0.02 0.00 0.00 0.00 0.01 0.04 0.08 0.10
0.02 0.02 0.01 0.01 0.01 0.01 0.01 0.01 0.00 0.03 0.01 0.00 0.00 0.00 0.00 0.00 0.00 0.00 0.00 0.00 0.00 0.00 0.00 0.00 0.00 0.00 0.00 0.00 0.00 0.00 0.00 0.00 0.00 0.00 0.00 0.00 0.00 0.01 0.00 0.00 0.00 0.00 0.00 0.01 0.01 0.02 0.03 0.05 0.09
0.09 0.05 0.00 0.00 0.01 0.00 0.01 0.00 0.00 0.00 0.00 0.00 0.00 0.00 0.00 0.00 0.00 0.00 0.00 0.00 0.00 0.00 0.01 0.00 0.00 0.00 0.00 0.00 0.00 0.00 0.00 0.00 0.00 0.00 0.00 0.02 0.05 0.02 0.01 0.00 0.00 0.02 0.00 0.02 0.03 0.04 0.06 0.05 0.08
0.13 0.02 0.01 0.00 0.00 0.01 0.00 0.00 0.00 0.00 0.00 0.00 0.00 0.00 0.00 0.00 0.00 0.00 0.00 0.00 0.00 0.00 0.00 0.00 0.00 0.00 0.00 0.00 0.00 0.00 0.00 0.00 0.00 0.00 0.00 0.02 0.09 0.09 0.12 0.04 0.00 0.05 0.05 0.02 0.04 0.04 0.05 0.06 0.07
0.07 0.00 0.00 0.00 0.00 0.00 0.00 0.00 0.00 0.00 0.00 0.00 0.00 0.00 0.00 0.00 0.00 0.00 0.00 0.00 0.00 0.00 0.00 0.00 0.00 0.00 0.00 0.00 0.00 0.00 0.00 0.00 0.00 0.00 0.00 0.00 0.05 0.03 0.01 0.01 0.00 0.01 0.04 0.05 0.08 0.08 0.08 0.04 0.01
0.01 0.00 0.00 0.00 0.00 0.00 0.00 0.00 0.00 0.00 0.00 0.00 0.00 0.00 0.00 0.00 0.00 0.00 0.00 0.00 0.00 0.00 0.00 0.00 0.00 0.00 0.00 0.00 0.00 0.00 0.00 0.00 0.00 0.00 0.00 0.01 0.03 0.00 0.00 0.00 0.00 0.04 0.00 0.00 0.00 0.01 0.00 0.00 0.00
0.00 0.00 0.00 0.00 0.00 0.00 0.00 0.00 0.00 0.00 0.00 0.00 0.00 0.00 0.00 0.00 0.00 0.00 0.00 0.00 0.00 0.00 0.00 0.00 0.00 0.00 0.00 0.00 0.00 0.00 0.00 0.00 0.00 0.00 0.00 0.01 0.02 0.00 0.00 0.00 0.00 0.02 0.00 0.00 0.00 0.00 0.03 0.02 0.00
0.00 0.00 0.00 0.00 0.00 0.00 0.00 0.00 0.00 0.00 0.00 0.00 0.00 0.00 0.00 0.00 0.00 0.00 0.00 0.00 0.00 0.00 0.00 0.00 0.00 0.00 0.00 0.00 0.00 0.00 0.00 0.00 0.00 0.00 0.00 0.01 0.01 0.00 0.00 0.00 0.00 0.00 0.00 0.00 0.00 0.00 0.05 0.01 0.00
0.00 0.00 0.00 0.00 0.00 0.00 0.00 0.00 0.00 0.00 0.00 0.00 0.00 0.00 0.00 0.00 0.00 0.00 0.00 0.00 0.00 0.00 0.00 0.00 0.00 0.00 0.00 0.00 0.00 0.00 0.00 0.00 0.00 0.00 0.00 0.00 0.01 0.01 0.00 0.03 0.02 0.04 0.06 0.02 0.00 0.01 0.00 0.00 0.00
0.00 0.00 0.00 0.00 0.00 0.00 0.00 0.00 0.00 0.00 0.00 0.00 0.00 0.00 0.00 0.00 0.00 0.00 0.00 0.00 0.00 0.00 0.00 0.00 0.00 0.00 0.00 0.00 0.00 0.00 0.00 0.00 0.00 0.00 0.00 0.00 0.01 0.02 0.00 0.01 0.00 0.05 0.08 0.09 0.04 0.01 0.00 0.00 0.00
0.00 0.00 0.00 0.00 0.00 0.00 0.00 0.00 0.00 0.00 0.00 0.00 0.00 0.00 0.00 0.00 0.00 0.00 0.00 0.00 0.00 0.00 0.00 0.00 0.00 0.00 0.00 0.00 0.00 0.00 0.00 0.00 0.00 0.00 0.00 0.00 0.00 0.00 0.01 0.00 0.00 0.00 0.01 0.10 0.08 0.05 0.02 0.00 0.00
0.00 0.00 0.00 0.00 0.00 0.00 0.00 0.00 0.00 0.00 0.00 0.00 0.00 0.00 0.00 0.00 0.00 0.00 0.00 0.00 0.00 0.00 0.00 0.00 0.00 0.00 0.00 0.00 0.00 0.00 0.00 0.00 0.00 0.00 0.00 0.00 0.00 0.05 0.20 0.05 0.00 0.00 0.00 0.03 0.04 0.01 0.00 0.00 0.00
0.00 0.00 0.00 0.00 0.00 0.00 0.00 0.00 0.00 0.00 0.00 0.00 0.00 0.00 0.00 0.00 0.00 0.00 0.00 0.00 0.00 0.00 0.00 0.00 0.00 0.00 0.00 0.00 0.00 0.00 0.00 0.00 0.00 0.00 0.02 0.01 0.00 0.07 0.04 0.01 0.01 0.02 0.00 0.00 0.00 0.01 0.00 0.00 0.00
0.00 0.00 0.00 0.00 0.00 0.00 0.00 0.00 0.00 0.00 0.00 0.00 0.00 0.00 0.00 0.00 0.00 0.00 0.00 0.00 0.00 0.00 0.00 0.00 0.00 0.00 0.00 0.00 0.00 0.00 0.00 0.00 0.00 0.00 0.00 0.00 0.00 0.00 0.00 0.00 0.02 0.03 0.00 0.01 0.01 0.00 0.00 0.00 0.00
0.00 0.00 0.00 0.00 0.00 0.00 0.00 0.00 0.00 0.00 0.00 0.00 0.00 0.00 0.00 0.00 0.00 0.00 0.00 0.00 0.00 0.00 0.00 0.00 0.00 0.00 0.00 0.00 0.00 0.00 0.00 0.00 0.00 0.00 0.00 0.00 0.00 0.00 0.00 0.00 0.01 0.01 0.00 0.00 0.00 0.00 0.00 0.00 0.00
0.00 0.00 0.00 0.00 0.00 0.00 0.00 0.00 0.00 0.00 0.00 0.00 0.00 0.00 0.00 0.00 0.00 0.00 0.00 0.00 0.00 0.00 0.00 0.00 0.00 0.00 0.00 0.00 0.00 0.00 0.00 0.00 0.00 0.00 0.00 0.00 0.00 0.00 0.00 0.00 0.00 0.00 0.00 0.00 0.00 0.00 0.00 0.00 0.00
0.00 0.00 0.00 0.00 0.00 0.00 0.00 0.00 0.00 0.00 0.00 0.00 0.00 0.00 0.00 0.00 0.00 0.00 0.00 0.00 0.00 0.00 0.00 0.00 0.00 0.00 0.00 0.00 0.00 0.00 0.00 0.00 0.00 0.00 0.00 0.00 0.00 0.00 0.00 0.00 0.00 0.00 0.00 0.00 0.00 0.00 0.00 0.00 0.00
0.00 0.00 0.00 0.00 0.00 0.00 0.00 0.00 0.00 0.00 0.00 0.00 0.00 0.00 0.00 0.00 0.00 0.00 0.00 0.00 0.00 0.00 0.00 0.00 0.00 0.00 0.00 0.00 0.00 0.00 0.00 0.00 0.00 0.00 0.00 0.00 0.00 0.00 0.00 0.00 0.00 0.00 0.00 0.00 0.00 0.00 0.00 0.00 0.00
0.00 0.00 0.00 0.00 0.00 0.00 0.00 0.00 0.00 0.00 0.00 0.00 0.00 0.00 0.00 0.00 0.00 0.00 0.00 0.00 0.00 0.00 0.00 0.00 0.00 0.00 0.00 0.00 0.00 0.00 0.00 0.00 0.00 0.00 0.00 0.00 0.00 0.00 0.00 0.00 0.00 0.00 0.00 0.00 0.00 0.00 0.00 0.00 0.00
0.00 0.00 0.00 0.00 0.00 0.00 0.00 0.00 0.00 0.00 0.00 0.00 0.00 0.00 0.00 0.00 0.00 0.00 0.00 0.00 0.00 0.00 0.00 0.00 0.00 0.00 0.00 0.00 0.00 0.00 0.00 0.00 0.00 0.00 0.00 0.00 0.00 0.00 0.00 0.00 0.00 0.00 0.00 0.00 0.00 0.00 0.00 0.00 0.00
0.00 0.00 0.00 0.00 0.00 0.00 0.00 0.00 0.00 0.00 0.00 0.00 0.00 0.00 0.00 0.00 0.00 0.00 0.00 0.00 0.00 0.00 0.00 0.00 0.00 0.00 0.00 0.00 0.00 0.00 0.00 0.00 0.00 0.00 0.00 0.00 0.00 0.00 0.00 0.00 0.00 0.00 0.00 0.00 0.00 0.00 0.00 0.00 0.00
0.00 0.00 0.00 0.00 0.00 0.00 0.00 0.00 0.00 0.00 0.00 0.00 0.00 0.00 0.00 0.00 0.00 0.00 0.00 0.00 0.00 0.00 0.00 0.00 0.00 0.00 0.00 0.00 0.00 0.00 0.00 0.00 0.00 0.00 0.00 0.00 0.00 0.00 0.00 0.00 0.00 0.00 0.00 0.00 0.00 0.00 0.00 0.00 0.00
0.00 0.00 0.00 0.00 0.00 0.00 0.00 0.00 0.00 0.00 0.00 0.00 0.00 0.00 0.00 0.00 0.00 0.00 0.00 0.00 0.00 0.00 0.00 0.00 0.00 0.00 0.00 0.00 0.00 0.00 0.00 0.00 0.00 0.00 0.00 0.00 0.00 0.00 0.00 0.00 0.00 0.00 0.00 0.00 0.00 0.00 0.00 0.00 0.00
0.00 0.00 0.00 0.00 0.00 0.00 0.00 0.00 0.00 0.00 0.00 0.00 0.00 0.00 0.00 0.00 0.00 0.00 0.00 0.00 0.00 0.00 0.00 0.00 0.00 0.00 0.00 0.00 0.00 0.00 0.00 0.00 0.00 0.00 0.00 0.00 0.00 0.00 0.00 0.00 0.00 0.00 0.00 0.00 0.00 0.00 0.00 0.00 0.00
0.00 0.00 0.00 0.00 0.00 0.00 0.00 0.00 0.00 0.00 0.00 0.00 0.00 0.00 0.00 0.00 0.00 0.00 0.00 0.00 0.00 0.00 0.00 0.00 0.00 0.00 0.00 0.00 0.00 0.00 0.00 0.00 0.00 0.00 0.00 0.00 0.00 0.00 0.00 0.00 0.00 0.00 0.00 0.00 0.00 0.00 0.00 0.00 0.00

GFSSGP_prec_precacc12_024.txt.gz
Total_Precipitation_Accumulation
0.01 0.07 0.13 0.22 0.26 0.15 0.13 0.15 0.08 0.00 0.00 0.00 0.00 0.00 0.00 0.01 0.00 0.02 0.01 0.01 0.04 0.04 0.03 0.20 0.37 0.35 0.08 0.02 0.02 0.00 0.00 0.00 0.00 0.00 0.00 0.00 0.01 0.00 0.01 0.03 0.02 0.02 0.02 0.03 0.01 0.01 0.02 0.02 0.04
0.02 0.06 0.06 0.01 0.02 0.11 0.15 0.12 0.05 0.01 0.00 0.00 0.00 0.00 0.00 0.00 0.00 0.01 0.02 0.03 0.02 0.00 0.01 0.04 0.43 0.24 0.03 0.01 0.00 0.00 0.00 0.00 0.00 0.00 0.00 0.00 0.02 0.03 0.00 0.00 0.01 0.01 0.01 0.02 0.07 0.05 0.04 0.06 0.09
0.02 0.07 0.04 0.03 0.03 0.06 0.12 0.03 0.00 0.00 0.00 0.00 0.00 0.00 0.00 0.01 0.00 0.01 0.00 0.00 0.00 0.00 0.00 0.07 0.16 0.08 0.00 0.00 0.00 0.00 0.00 0.00 0.00 0.00 0.00 0.01 0.02 0.00 0.00 0.01 0.04 0.05 0.01 0.02 0.00 0.02 0.07 0.10 0.11
0.00 0.05 0.07 0.15 0.14 0.01 0.03 0.00 0.01 0.00 0.00 0.00 0.00 0.00 0.00 0.00 0.00 0.00 0.00 0.00 0.00 0.00 0.01 0.05 0.05 0.00 0.00 0.00 0.00 0.00 0.00 0.00 0.00 0.00 0.00 0.00 0.00 0.00 0.02 0.07 0.08 0.07 0.02 0.00 0.00 0.00 0.01 0.10 0.15
0.00 0.00 0.05 0.07 0.01 0.01 0.01 0.02 0.00 0.00 0.00 0.00 0.00 0.00 0.01 0.01 0.00 0.00 0.00 0.00 0.00 0.00 0.00 0.01 0.06 0.01 0.00 0.00 0.00 0.00 0.00 0.00 0.00 0.00 0.00 0.00 0.00 0.01 0.05 0.06 0.05 0.06 0.02 0.02 0.00 0.00 0.02 0.06 0.18
0.01 0.01 0.04 0.01 0.00 0.00 0.00 0.01 0.00 0.00 0.00 0.00 0.00 0.00 0.02 0.01 0.00 0.00 0.00 0.00 0.00 0.00 0.00 0.00 0.01 0.00 0.02 0.02 0.00 0.00 0.00 0.00 0.00 0.00 0.00 0.00 0.00 0.00 0.00 0.01 0.01 0.02 0.00 0.00 0.00 0.01 0.04 0.08 0.10
0.02 0.02 0.01 0.01 0.01 0.01 0.00 0.01 0.00 0.03 0.01 0.00 0.00 0.00 0.01 0.00 0.00 0.00 0.00 0.00 0.00 0.00 0.00 0.00 0.00 0.00 0.02 0.01 0.00 0.00 0.00 0.00 0.00 0.00 0.00 0.00 0.00 0.01 0.00 0.00 0.00 0.00 0.00 0.01 0.01 0.02 0.03 0.06 0.09
0.05 0.04 0.00 0.00 0.01 0.00 0.00 0.00 0.00 0.00 0.00 0.00 0.00 0.00 0.00 0.00 0.00 0.00 0.00 0.00 0.00 0.00 0.01 0.00 0.00 0.00 0.00 0.00 0.00 0.00 0.00 0.00 0.00 0.00 0.00 0.02 0.05 0.02 0.01 0.01 0.01 0.03 0.00 0.02 0.03 0.04 0.06 0.05 0.06
0.08 0.02 0.00 0.00 0.00 0.01 0.00 0.00 0.00 0.00 0.00 0.00 0.00 0.00 0.00 0.00 0.00 0.00 0.00 0.00 0.00 0.00 0.00 0.00 0.00 0.00 0.00 0.00 0.00 0.00 0.00 0.00 0.00 0.00 0.00 0.02 0.10 0.08 0.11 0.04 0.00 0.05 0.05 0.02 0.04 0.04 0.05 0.06 0.05
0.05 0.00 0.00 0.00 0.00 0.00 0.00 0.00 0.00 0.00 0.00 0.00 0.00 0.00 0.00 0.00 0.00 0.00 0.00 0.00 0.00 0.00 0.00 0.00 0.00 0.00 0.00 0.00 0.00 0.00 0.00 0.00 0.00 0.00 0.00 0.00 0.04 0.02 0.01 0.00 0.00 0.00 0.04 0.06 0.07 0.08 0.07 0.04 0.00
0.01 0.00 0.00 0.00 0.00 0.00 0.00 0.00 0.00 0.00 0.00 0.00 0.00 0.00 0.00 0.00 0.00 0.00 0.00 0.00 0.00 0.00 0.00 0.00 0.00 0.00 0.00 0.00 0.00 0.00 0.00 0.00 0.00 0.00 0.00 0.00 0.00 0.00 0.00 0.00 0.00 0.00 0.00 0.00 0.00 0.01 0.01 0.00 0.00
0.00 0.00 0.00 0.00 0.00 0.00 0.00 0.00 0.00 0.00 0.00 0.00 0.00 0.00 0.00 0.00 0.00 0.00 0.00 0.00 0.00 0.00 0.00 0.00 0.00 0.00 0.00 0.00 0.00 0.00 0.00 0.00 0.00 0.00 0.00 0.00 0.01 0.00 0.00 0.00 0.00 0.00 0.00 0.00 0.00 0.01 0.06 0.04 0.00
0.00 0.00 0.00 0.00 0.00 0.00 0.00 0.00 0.00 0.00 0.00 0.00 0.00 0.00 0.00 0.00 0.00 0.00 0.00 0.00 0.00 0.00 0.00 0.00 0.00 0.00 0.00 0.00 0.00 0.00 0.00 0.00 0.00 0.00 0.00 0.00 0.00 0.01 0.00 0.00 0.00 0.00 0.00 0.00 0.04 0.08 0.09 0.02 0.00
0.00 0.00 0.00 0.00 0.00 0.00 0.00 0.00 0.00 0.00 0.00 0.00 0.00 0.00 0.00 0.00 0.00 0.00 0.00 0.00 0.00 0.00 0.00 0.00 0.00 0.00 0.00 0.00 0.00 0.00 0.00 0.00 0.00 0.00 0.00 0.00 0.01 0.00 0.00 0.00 0.00 0.01 0.05 0.06 0.09 0.08 0.03 0.00 0.00
0.00 0.00 0.00 0.00 0.00 0.00 0.00 0.00 0.00 0.00 0.00 0.00 0.00 0.00 0.00 0.00 0.00 0.00 0.00 0.00 0.00 0.00 0.00 0.00 0.00 0.00 0.00 0.00 0.00 0.00 0.00 0.00 0.00 0.00 0.00 0.00 0.01 0.02 0.02 0.01 0.00 0.01 0.10 0.12 0.10 0.06 0.02 0.00 0.00
0.00 0.00 0.00 0.00 0.00 0.00 0.00 0.00 0.00 0.00 0.00 0.00 0.00 0.00 0.00 0.00 0.00 0.00 0.00 0.00 0.00 0.00 0.00 0.00 0.00 0.00 0.00 0.00 0.00 0.00 0.00 0.00 0.00 0.00 0.00 0.00 0.00 0.00 0.00 0.08 0.07 0.02 0.11 0.12 0.10 0.08 0.06 0.00 0.00
0.00 0.00 0.00 0.00 0.00 0.00 0.00 0.00 0.00 0.00 0.00 0.00 0.00 0.00 0.00 0.00 0.00 0.00 0.00 0.00 0.00 0.00 0.00 0.00 0.00 0.00 0.00 0.00 0.00 0.00 0.00 0.00 0.00 0.00 0.00 0.00 0.00 0.05 0.19 0.13 0.09 0.04 0.03 0.08 0.08 0.07 0.03 0.00 0.00
0.00 0.00 0.00 0.00 0.00 0.00 0.00 0.00 0.00 0.00 0.00 0.00 0.00 0.00 0.00 0.00 0.00 0.00 0.00 0.00 0.00 0.00 0.00 0.00 0.00 0.00 0.00 0.00 0.00 0.00 0.00 0.00 0.00 0.00 0.02 0.01 0.00 0.07 0.04 0.05 0.14 0.05 0.02 0.04 0.08 0.06 0.00 0.00 0.00
0.00 0.00 0.00 0.00 0.00 0.00 0.00 0.00 0.00 0.00 0.00 0.00 0.00 0.00 0.00 0.00 0.00 0.00 0.00 0.00 0.00 0.00 0.00 0.00 0.00 0.00 0.00 0.00 0.00 0.00 0.00 0.00 0.00 0.00 0.00 0.00 0.00 0.00 0.00 0.02 0.13 0.05 0.04 0.07 0.08 0.04 0.00 0.00 0.00
0.00 0.00 0.00 0.00 0.00 0.00 0.00 0.00 0.00 0.00 0.00 0.00 0.00 0.00 0.00 0.00 0.00 0.00 0.00 0.00 0.00 0.00 0.00 0.00 0.00 0.00 0.00 0.00 0.00 0.00 0.00 0.00 0.00 0.00 0.00 0.00 0.00 0.00 0.00 0.08 0.11 0.02 0.05 0.07 0.06 0.05 0.00 0.00 0.00
0.00 0.00 0.00 0.00 0.00 0.00 0.00 0.00 0.00 0.00 0.00 0.00 0.00 0.00 0.00 0.00 0.00 0.00 0.00 0.00 0.00 0.00 0.00 0.00 0.00 0.00 0.00 0.00 0.00 0.00 0.00 0.00 0.00 0.00 0.00 0.00 0.00 0.00 0.00 0.04 0.07 0.07 0.02 0.06 0.04 0.03 0.01 0.00 0.00
0.00 0.00 0.00 0.00 0.00 0.00 0.00 0.00 0.00 0.00 0.00 0.00 0.00 0.00 0.00 0.00 0.00 0.00 0.00 0.00 0.00 0.00 0.00 0.00 0.00 0.00 0.00 0.00 0.00 0.00 0.00 0.00 0.00 0.00 0.00 0.00 0.00 0.00 0.00 0.00 0.04 0.03 0.01 0.04 0.04 0.01 0.00 0.00 0.00
0.00 0.00 0.00 0.00 0.00 0.00 0.00 0.00 0.00 0.00 0.00 0.00 0.00 0.00 0.00 0.00 0.00 0.00 0.00 0.00 0.00 0.00 0.00 0.00 0.00 0.00 0.00 0.00 0.00 0.00 0.00 0.00 0.00 0.00 0.00 0.00 0.00 0.00 0.00 0.01 0.06 0.01 0.01 0.00 0.00 0.00 0.00 0.00 0.00
0.00 0.00 0.00 0.00 0.00 0.00 0.00 0.00 0.00 0.00 0.00 0.00 0.00 0.00 0.00 0.00 0.00 0.00 0.00 0.00 0.00 0.00 0.00 0.00 0.00 0.00 0.00 0.00 0.00 0.00 0.00 0.00 0.00 0.00 0.00 0.00 0.00 0.00 0.00 0.01 0.02 0.02 0.00 0.00 0.00 0.00 0.00 0.00 0.00
0.00 0.00 0.00 0.00 0.00 0.00 0.00 0.00 0.00 0.00 0.00 0.00 0.00 0.00 0.00 0.00 0.00 0.00 0.00 0.00 0.00 0.00 0.00 0.00 0.00 0.00 0.00 0.00 0.00 0.00 0.00 0.00 0.00 0.00 0.00 0.00 0.00 0.00 0.00 0.00 0.00 0.00 0.00 0.00 0.00 0.00 0.00 0.00 0.00
0.00 0.00 0.00 0.00 0.00 0.00 0.00 0.00 0.00 0.00 0.00 0.00 0.00 0.00 0.00 0.00 0.00 0.00 0.00 0.00 0.00 0.00 0.00 0.00 0.00 0.00 0.00 0.00 0.00 0.00 0.00 0.00 0.00 0.00 0.00 0.00 0.00 0.00 0.00 0.00 0.00 0.00 0.00 0.00 0.00 0.00 0.00 0.00 0.00
0.00 0.00 0.00 0.00 0.00 0.00 0.00 0.00 0.00 0.00 0.00 0.00 0.00 0.00 0.00 0.00 0.00 0.00 0.00 0.00 0.00 0.00 0.00 0.00 0.00 0.00 0.00 0.00 0.00 0.00 0.00 0.00 0.00 0.00 0.00 0.00 0.00 0.00 0.00 0.00 0.00 0.00 0.00 0.00 0.00 0.00 0.00 0.00 0.00
0.00 0.00 0.00 0.00 0.00 0.00 0.00 0.00 0.00 0.00 0.00 0.00 0.00 0.00 0.00 0.00 0.00 0.00 0.00 0.00 0.00 0.00 0.00 0.00 0.00 0.00 0.00 0.00 0.00 0.00 0.00 0.00 0.00 0.00 0.00 0.00 0.00 0.00 0.00 0.00 0.00 0.00 0.00 0.00 0.00 0.00 0.00 0.00 0.00
0.00 0.00 0.00 0.00 0.00 0.00 0.00 0.00 0.00 0.00 0.00 0.00 0.00 0.00 0.00 0.00 0.00 0.00 0.00 0.00 0.00 0.00 0.00 0.00 0.00 0.00 0.00 0.00 0.00 0.00 0.00 0.00 0.00 0.00 0.00 0.00 0.00 0.00 0.00 0.00 0.00 0.00 0.00 0.00 0.00 0.00 0.00 0.00 0.00
0.00 0.00 0.00 0.00 0.00 0.00 0.00 0.00 0.00 0.00 0.00 0.00 0.00 0.00 0.00 0.00 0.00 0.00 0.00 0.00 0.00 0.00 0.00 0.00 0.00 0.00 0.00 0.00 0.00 0.00 0.00 0.00 0.00 0.00 0.00 0.00 0.00 0.00 0.00 0.00 0.00 0.00 0.00 0.00 0.00 0.00 0.00 0.00 0.00

GFSSGP_prec_precacc12_027.txt.gz
Total_Precipitation_Accumulation
0.01 0.08 0.21 0.16 0.28 0.19 0.26 0.18 0.05 0.00 0.01 0.00 0.00 0.02 0.04 0.04 0.05 0.12 0.03 0.09 0.13 0.22 0.03 0.15 0.29 0.28 0.08 0.02 0.02 0.01 0.00 0.00 0.00 0.00 0.00 0.01 0.03 0.02 0.06 0.07 0.04 0.03 0.02 0.03 0.03 0.01 0.01 0.01 0.05
0.02 0.11 0.18 0.09 0.09 0.36 0.18 0.07 0.02 0.01 0.00 0.00 0.00 0.01 0.00 0.00 0.00 0.02 0.06 0.13 0.04 0.01 0.01 0.03 0.38 0.19 0.02 0.01 0.01 0.00 0.00 0.00 0.00 0.00 0.00 0.02 0.04 0.05 0.01 0.01 0.02 0.01 0.01 0.02 0.07 0.05 0.04 0.06 0.05
0.02 0.05 0.12 0.05 0.15 0.11 0.07 0.03 0.03 0.00 0.00 0.01 0.00 0.02 0.01 0.01 0.00 0.04 0.04 0.05 0.01 0.01 0.00 0.06 0.15 0.06 0.00 0.01 0.00 0.00 0.00 0.00 0.00 0.00 0.01 0.03 0.02 0.03 0.02 0.02 0.04 0.05 0.02 0.02 0.00 0.02 0.07 0.05 0.01
0.01 0.01 0.00 0.16 0.16 0.00 0.01 0.01 0.01 0.00 0.00 0.00 0.00 0.01 0.00 0.00 0.00 0.00 0.00 0.01 0.01 0.01 0.01 0.04 0.04 0.01 0.00 0.00 0.00 0.00 0.00 0.00 0.00 0.00 0.02 0.02 0.01 0.01 0.02 0.07 0.08 0.07 0.02 0.00 0.00 0.00 0.01 0.03 0.02
0.00 0.00 0.08 0.08 0.01 0.00 0.00 0.00 0.01 0.03 0.00 0.00 0.00 0.00 0.01 0.01 0.00 0.00 0.00 0.00 0.00 0.01 0.00 0.01 0.06 0.01 0.00 0.00 0.00 0.00 0.00 0.00 0.00 0.00 0.00 0.00 0.01 0.02 0.06 0.06 0.05 0.06 0.02 0.02 0.00 0.00 0.01 0.03 0.09
0.00 0.10 0.31 0.02 0.00 0.00 0.00 0.00 0.01 0.04 0.00 0.00 0.00 0.00 0.03 0.01 0.00 0.00 0.00 0.00 0.00 0.00 0.00 0.00 0.01 0.00 0.02 0.03 0.00 0.00 0.00 0.00 0.00 0.00 0.00 0.00 0.00 0.01 0.02 0.01 0.01 0.02 0.00 0.00 0.00 0.01 0.00 0.01 0.04
0.00 0.16 0.15 0.01 0.01 0.00 0.00 0.00 0.01 0.03 0.02 0.00 0.00 0.00 0.01 0.01 0.00 0.00 0.00 0.00 0.00 0.01 0.00 0.00 0.00 0.00 0.03 0.02 0.00 0.00 0.00 0.00 0.00 0.00 0.00 0.00 0.00 0.00 0.00 0.00 0.00 0.00 0.00 0.01 0.01 0.02 0.02 0.02 0.03
0.00 0.03 0.00 0.02 0.03 0.00 0.00 0.00 0.00 0.01 0.00 0.00 0.00 0.00 0.00 0.00 0.00 0.00 0.00 0.00 0.00 0.00 0.00 0.00 0.00 0.00 0.00 0.00 0.00 0.00 0.00 0.00 0.00 0.00 0.00 0.02 0.05 0.01 0.01 0.01 0.01 0.03 0.00 0.02 0.03 0.04 0.05 0.02 0.01
0.02 0.01 0.00 0.00 0.01 0.00 0.00 0.00 0.00 0.00 0.00 0.00 0.00 0.00 0.00 0.00 0.00 0.00 0.00 0.00 0.00 0.00 0.00 0.00 0.00 0.00 0.00 0.00 0.00 0.00 0.00 0.00 0.00 0.00 0.00 0.02 0.14 0.11 0.18 0.05 0.00 0.05 0.05 0.02 0.04 0.04 0.03 0.02 0.01
0.03 0.11 0.09 0.00 0.00 0.00 0.00 0.01 0.00 0.00 0.00 0.00 0.00 0.00 0.00 0.00 0.00 0.00 0.00 0.00 0.00 0.00 0.00 0.00 0.00 0.00 0.00 0.00 0.00 0.00 0.00 0.00 0.00 0.00 0.00 0.11 0.05 0.04 0.05 0.00 0.00 0.00 0.04 0.06 0.06 0.06 0.05 0.03 0.02
0.01 0.06 0.05 0.00 0.00 0.00 0.00 0.00 0.00 0.00 0.00 0.00 0.00 0.00 0.00 0.00 0.00 0.00 0.00 0.00 0.00 0.00 0.00 0.00 0.00 0.00 0.00 0.00 0.00 0.00 0.00 0.00 0.00 0.00 0.00 0.02 0.01 0.02 0.04 0.00 0.01 0.00 0.00 0.01 0.02 0.03 0.01 0.00 0.00
0.00 0.01 0.02 0.00 0.00 0.00 0.00 0.00 0.00 0.00 0.00 0.00 0.00 0.00 0.00 0.00 0.00 0.00 0.00 0.00 0.00 0.00 0.00 0.00 0.00 0.00 0.00 0.00 0.00 0.00 0.00 0.00 0.00 0.00 0.00 0.00 0.03 0.01 0.00 0.00 0.00 0.00 0.00 0.01 0.02 0.01 0.06 0.04 0.00
0.00 0.00 0.00 0.00 0.00 0.00 0.00 0.00 0.00 0.00 0.00 0.00 0.00 0.00 0.00 0.00 0.00 0.00 0.00 0.00 0.00 0.00 0.00 0.00 0.00 0.00 0.00 0.00 0.00 0.00 0.00 0.00 0.00 0.00 0.00 0.00 0.01 0.02 0.00 0.00 0.00 0.00 0.01 0.08 0.04 0.08 0.08 0.02 0.01
0.00 0.00 0.00 0.00 0.00 0.00 0.00 0.00 0.00 0.00 0.00 0.00 0.00 0.00 0.00 0.00 0.00 0.00 0.00 0.00 0.00 0.00 0.00 0.00 0.00 0.00 0.00 0.00 0.00 0.00 0.00 0.00 0.00 0.00 0.00 0.00 0.01 0.00 0.00 0.00 0.00 0.01 0.05 0.12 0.09 0.08 0.09 0.00 0.00
0.00 0.00 0.00 0.00 0.00 0.00 0.00 0.00 0.00 0.00 0.00 0.00 0.00 0.00 0.00 0.00 0.00 0.00 0.00 0.00 0.00 0.00 0.00 0.00 0.00 0.00 0.00 0.00 0.00 0.00 0.00 0.00 0.00 0.00 0.00 0.00 0.01 0.02 0.04 0.02 0.01 0.01 0.10 0.12 0.10 0.06 0.19 0.02 0.00
0.00 0.00 0.00 0.00 0.00 0.00 0.00 0.00 0.00 0.00 0.00 0.00 0.00 0.00 0.00 0.00 0.00 0.00 0.00 0.00 0.00 0.00 0.00 0.00 0.00 0.00 0.00 0.00 0.00 0.00 0.00 0.00 0.00 0.00 0.00 0.00 0.00 0.00 0.00 0.11 0.07 0.04 0.12 0.12 0.10 0.08 0.06 0.00 0.00
0.00 0.00 0.00 0.00 0.00 0.00 0.00 0.00 0.00 0.00 0.00 0.00 0.00 0.00 0.00 0.00 0.00 0.00 0.00 0.00 0.00 0.00 0.00 0.00 0.00 0.00 0.00 0.00 0.00 0.00 0.00 0.00 0.00 0.00 0.00 0.00 0.00 0.03 0.16 0.15 0.12 0.05 0.06 0.08 0.08 0.07 0.03 0.00 0.00
0.00 0.00 0.00 0.00 0.00 0.00 0.00 0.00 0.00 0.00 0.00 0.00 0.00 0.00 0.00 0.00 0.00 0.00 0.00 0.00 0.00 0.00 0.00 0.00 0.00 0.00 0.00 0.00 0.00 0.00 0.00 0.00 0.00 0.00 0.02 0.01 0.00 0.06 0.03 0.08 0.14 0.05 0.05 0.06 0.08 0.06 0.00 0.00 0.00
0.00 0.00 0.00 0.00 0.00 0.00 0.00 0.00 0.00 0.00 0.00 0.00 0.00 0.00 0.00 0.00 0.00 0.00 0.00 0.00 0.00 0.00 0.00 0.00 0.00 0.00 0.00 0.00 0.00 0.00 0.00 0.00 0.00 0.00 0.00 0.00 0.00 0.00 0.01 0.10 0.17 0.05 0.06 0.10 0.09 0.04 0.00 0.00 0.00
0.00 0.00 0.00 0.00 0.00 0.00 0.00 0.00 0.00 0.00 0.00 0.00 0.00 0.00 0.00 0.00 0.00 0.00 0.00 0.00 0.00 0.00 0.00 0.00 0.00 0.00 0.00 0.00 0.00 0.00 0.00 0.00 0.00 0.00 0.00 0.00 0.00 0.00 0.07 0.21 0.12 0.02 0.08 0.10 0.07 0.05 0.01 0.00 0.00
0.00 0.00 0.00 0.00 0.00 0.00 0.00 0.00 0.00 0.00 0.00 0.00 0.00 0.00 0.00 0.00 0.00 0.00 0.00 0.00 0.00 0.00 0.00 0.00 0.00 0.00 0.00 0.00 0.00 0.00 0.00 0.00 0.00 0.00 0.00 0.00 0.00 0.00 0.04 0.15 0.07 0.07 0.05 0.18 0.11 0.04 0.02 0.01 0.00
0.00 0.00 0.00 0.00 0.00 0.00 0.00 0.00 0.00 0.00 0.00 0.00 0.00 0.00 0.00 0.00 0.00 0.00 0.00 0.00 0.00 0.00 0.00 0.00 0.00 0.00 0.00 0.00 0.00 0.00 0.00 0.00 0.00 0.00 0.00 0.00 0.00 0.00 0.01 0.06 0.06 0.04 0.01 0.13 0.13 0.01 0.00 0.00 0.00
0.00 0.00 0.00 0.00 0.00 0.00 0.00 0.00 0.00 0.00 0.00 0.00 0.00 0.00 0.00 0.00 0.00 0.00 0.00 0.00 0.00 0.00 0.00 0.00 0.00 0.00 0.00 0.00 0.00 0.00 0.00 0.00 0.00 0.00 0.00 0.00 0.00 0.00 0.00 0.01 0.11 0.02 0.02 0.03 0.08 0.03 0.00 0.00 0.00
0.00 0.00 0.00 0.00 0.00 0.00 0.00 0.00 0.00 0.00 0.00 0.00 0.00 0.00 0.00 0.00 0.00 0.00 0.00 0.00 0.00 0.00 0.00 0.00 0.00 0.00 0.00 0.00 0.00 0.00 0.00 0.00 0.00 0.00 0.00 0.00 0.00 0.00 0.00 0.01 0.02 0.02 0.00 0.00 0.03 0.01 0.00 0.00 0.00
0.00 0.00 0.00 0.00 0.00 0.00 0.00 0.00 0.00 0.00 0.00 0.00 0.00 0.00 0.00 0.00 0.00 0.00 0.00 0.00 0.00 0.00 0.00 0.00 0.00 0.00 0.00 0.00 0.00 0.00 0.00 0.00 0.00 0.00 0.00 0.00 0.00 0.00 0.00 0.00 0.01 0.00 0.00 0.00 0.00 0.01 0.00 0.00 0.00
0.00 0.00 0.00 0.00 0.00 0.00 0.00 0.00 0.00 0.00 0.00 0.00 0.00 0.00 0.00 0.00 0.00 0.00 0.00 0.00 0.00 0.00 0.00 0.00 0.00 0.00 0.00 0.00 0.00 0.00 0.00 0.00 0.00 0.00 0.00 0.00 0.00 0.00 0.00 0.00 0.00 0.00 0.00 0.00 0.00 0.00 0.00 0.00 0.00
0.00 0.00 0.00 0.00 0.00 0.00 0.00 0.00 0.00 0.00 0.00 0.00 0.00 0.00 0.00 0.00 0.00 0.00 0.00 0.00 0.00 0.00 0.00 0.00 0.00 0.00 0.00 0.00 0.00 0.00 0.00 0.00 0.00 0.00 0.00 0.00 0.00 0.00 0.00 0.00 0.00 0.00 0.00 0.00 0.00 0.00 0.00 0.00 0.00
0.00 0.00 0.00 0.00 0.00 0.00 0.00 0.00 0.00 0.00 0.00 0.00 0.00 0.00 0.00 0.00 0.00 0.00 0.00 0.00 0.00 0.00 0.00 0.00 0.00 0.00 0.00 0.00 0.00 0.00 0.00 0.00 0.00 0.00 0.00 0.00 0.00 0.00 0.00 0.00 0.00 0.00 0.00 0.00 0.00 0.00 0.00 0.00 0.00
0.00 0.00 0.00 0.00 0.00 0.00 0.00 0.00 0.00 0.00 0.00 0.00 0.00 0.00 0.00 0.00 0.00 0.00 0.00 0.00 0.00 0.00 0.00 0.00 0.00 0.00 0.00 0.00 0.00 0.00 0.00 0.00 0.00 0.00 0.00 0.00 0.00 0.00 0.00 0.00 0.00 0.00 0.00 0.00 0.00 0.00 0.00 0.00 0.00
0.00 0.00 0.00 0.00 0.00 0.00 0.00 0.00 0.00 0.00 0.00 0.00 0.00 0.00 0.00 0.00 0.00 0.00 0.00 0.00 0.00 0.00 0.00 0.00 0.00 0.00 0.00 0.00 0.00 0.00 0.00 0.00 0.00 0.00 0.00 0.00 0.00 0.00 0.00 0.00 0.00 0.00 0.00 0.00 0.00 0.00 0.00 0.00 0.00

GFSSGP_prec_precacc12_030.txt.gz
Total_Precipitation_Accumulation
0.00 0.06 0.24 0.23 0.34 0.37 0.44 0.30 0.16 0.02 0.01 0.01 0.00 0.03 0.09 0.08 0.15 0.16 0.03 0.09 0.13 0.22 0.03 0.08 0.11 0.11 0.03 0.01 0.02 0.01 0.00 0.00 0.00 0.00 0.04 0.02 0.03 0.02 0.06 0.07 0.04 0.03 0.02 0.02 0.03 0.01 0.00 0.00 0.03
0.01 0.15 0.31 0.25 0.28 0.84 0.44 0.08 0.04 0.02 0.01 0.00 0.00 0.01 0.00 0.00 0.00 0.02 0.07 0.13 0.04 0.01 0.01 0.00 0.18 0.12 0.02 0.01 0.01 0.00 0.00 0.00 0.00 0.01 0.04 0.04 0.05 0.05 0.01 0.01 0.02 0.01 0.00 0.00 0.02 0.01 0.00 0.00 0.00
0.02 0.11 0.33 0.21 0.35 0.25 0.15 0.06 0.07 0.00 0.00 0.02 0.01 0.02 0.01 0.01 0.01 0.05 0.06 0.05 0.01 0.01 0.00 0.01 0.09 0.06 0.01 0.01 0.00 0.00 0.00 0.00 0.00 0.01 0.01 0.03 0.02 0.03 0.02 0.02 0.04 0.05 0.02 0.02 0.00 0.00 0.00 0.00 0.00
0.02 0.12 0.08 0.30 0.28 0.05 0.02 0.03 0.02 0.01 0.00 0.02 0.02 0.01 0.00 0.00 0.00 0.01 0.01 0.02 0.01 0.01 0.01 0.01 0.04 0.01 0.01 0.00 0.00 0.00 0.00 0.00 0.00 0.00 0.02 0.02 0.01 0.01 0.02 0.07 0.08 0.07 0.02 0.00 0.00 0.00 0.00 0.00 0.02
0.02 0.05 0.16 0.16 0.04 0.03 0.00 0.00 0.03 0.06 0.02 0.01 0.01 0.00 0.02 0.01 0.00 0.00 0.00 0.01 0.01 0.01 0.00 0.01 0.06 0.03 0.01 0.00 0.00 0.00 0.00 0.00 0.00 0.00 0.00 0.00 0.01 0.02 0.06 0.06 0.05 0.06 0.01 0.00 0.00 0.00 0.00 0.03 0.08
0.06 0.28 0.41 0.06 0.00 0.00 0.00 0.00 0.01 0.06 0.02 0.00 0.00 0.00 0.03 0.01 0.00 0.00 0.00 0.01 0.01 0.01 0.00 0.00 0.02 0.01 0.02 0.03 0.00 0.00 0.00 0.00 0.00 0.00 0.00 0.00 0.00 0.01 0.02 0.01 0.01 0.01 0.00 0.00 0.00 0.00 0.00 0.01 0.03
0.08 1.16 0.66 0.08 0.01 0.00 0.00 0.00 0.01 0.01 0.02 0.00 0.00 0.00 0.02 0.01 0.00 0.00 0.00 0.01 0.01 0.01 0.00 0.00 0.00 0.00 0.03 0.02 0.00 0.00 0.00 0.00 0.00 0.00 0.00 0.00 0.00 0.00 0.00 0.00 0.00 0.00 0.00 0.00 0.00 0.00 0.00 0.01 0.03
0.00 0.22 0.57 0.26 0.06 0.01 0.00 0.00 0.00 0.01 0.01 0.00 0.00 0.00 0.01 0.00 0.00 0.00 0.00 0.00 0.00 0.00 0.00 0.00 0.00 0.00 0.00 0.00 0.00 0.00 0.00 0.00 0.00 0.00 0.00 0.02 0.06 0.02 0.01 0.01 0.01 0.03 0.00 0.01 0.00 0.00 0.00 0.00 0.01
0.00 0.06 0.12 0.06 0.02 0.01 0.00 0.00 0.00 0.01 0.00 0.00 0.00 0.00 0.00 0.00 0.00 0.00 0.00 0.00 0.00 0.00 0.00 0.00 0.00 0.00 0.00 0.00 0.00 0.00 0.00 0.00 0.00 0.00 0.02 0.21 0.20 0.21 0.19 0.02 0.00 0.05 0.05 0.02 0.01 0.01 0.00 0.01 0.00
0.00 0.29 0.20 0.01 0.00 0.01 0.00 0.01 0.00 0.00 0.00 0.00 0.00 0.00 0.00 0.00 0.00 0.00 0.00 0.00 0.00 0.00 0.00 0.00 0.00 0.00 0.00 0.00 0.00 0.00 0.00 0.00 0.00 0.00 0.18 0.70 0.16 0.09 0.08 0.00 0.00 0.00 0.04 0.05 0.03 0.03 0.03 0.06 0.03
0.00 0.14 0.16 0.00 0.00 0.00 0.00 0.00 0.00 0.00 0.00 0.00 0.00 0.00 0.00 0.00 0.00 0.00 0.00 0.00 0.00 0.00 0.00 0.00 0.00 0.00 0.00 0.00 0.00 0.00 0.00 0.00 0.00 0.01 0.20 0.63 0.19 0.06 0.05 0.01 0.01 0.00 0.02 0.02 0.06 0.03 0.00 0.00 0.00
0.00 0.03 0.07 0.00 0.00 0.00 0.00 0.05 0.00 0.00 0.00 0.00 0.00 0.00 0.00 0.00 0.00 0.00 0.00 0.00 0.00 0.00 0.00 0.00 0.00 0.00 0.00 0.00 0.00 0.00 0.00 0.00 0.00 0.00 0.01 0.09 0.21 0.09 0.00 0.00 0.01 0.01 0.03 0.08 0.03 0.02 0.05 0.04 0.00
0.00 0.00 0.00 0.05 0.00 0.00 0.00 0.04 0.07 0.00 0.00 0.00 0.00 0.00 0.00 0.00 0.00 0.00 0.00 0.00 0.00 0.00 0.00 0.00 0.00 0.00 0.00 0.00 0.00 0.00 0.00 0.00 0.00 0.00 0.00 0.06 0.15 0.05 0.01 0.01 0.01 0.03 0.14 0.71 0.08 0.08 0.08 0.02 0.02
0.00 0.00 0.00 0.00 0.00 0.00 0.00 0.00 0.00 0.01 0.00 0.00 0.00 0.00 0.00 0.00 0.00 0.00 0.00 0.00 0.00 0.00 0.00 0.00 0.00 0.00 0.00 0.00 0.00 0.00 0.00 0.00 0.00 0.00 0.00 0.00 0.03 0.03 0.01 0.01 0.00 0.02 0.04 0.20 0.12 0.09 0.23 0.01 0.00
0.00 0.00 0.00 0.00 0.00 0.00 0.00 0.00 0.00 0.01 0.00 0.00 0.00 0.00 0.00 0.00 0.00 0.00 0.00 0.00 0.00 0.00 0.00 0.00 0.00 0.00 0.00 0.00 0.00 0.00 0.00 0.00 0.00 0.00 0.00 0.00 0.00 0.01 0.04 0.03 0.02 0.03 0.11 0.11 0.10 0.07 0.26 0.02 0.00
0.00 0.00 0.00 0.00 0.00 0.00 0.00 0.00 0.00 0.00 0.00 0.00 0.00 0.00 0.00 0.00 0.00 0.00 0.00 0.00 0.00 0.00 0.00 0.00 0.00 0.00 0.00 0.00 0.00 0.00 0.00 0.00 0.00 0.00 0.00 0.00 0.00 0.01 0.01 0.12 0.09 0.09 0.13 0.12 0.10 0.08 0.06 0.00 0.00
0.00 0.00 0.00 0.00 0.00 0.00 0.00 0.00 0.00 0.00 0.00 0.00 0.00 0.00 0.00 0.00 0.00 0.00 0.00 0.00 0.00 0.00 0.00 0.00 0.00 0.00 0.00 0.00 0.00 0.00 0.00 0.00 0.00 0.00 0.00 0.00 0.00 0.00 0.05 0.12 0.12 0.07 0.14 0.09 0.08 0.07 0.03 0.00 0.00
0.00 0.00 0.00 0.00 0.00 0.00 0.00 0.00 0.00 0.00 0.00 0.00 0.00 0.00 0.00 0.00 0.00 0.00 0.00 0.00 0.00 0.00 0.00 0.00 0.00 0.00 0.00 0.00 0.00 0.00 0.00 0.00 0.00 0.00 0.01 0.01 0.00 0.01 0.00 0.08 0.17 0.07 0.07 0.06 0.08 0.06 0.00 0.00 0.00
0.00 0.00 0.00 0.00 0.00 0.00 0.00 0.00 0.00 0.00 0.14 0.03 0.00 0.00 0.00 0.00 0.00 0.00 0.00 0.00 0.00 0.00 0.00 0.00 0.00 0.01 0.01 0.00 0.00 0.00 0.00 0.00 0.00 0.00 0.00 0.00 0.00 0.00 0.04 0.16 0.21 0.09 0.08 0.11 0.09 0.04 0.00 0.00 0.00
0.00 0.00 0.00 0.00 0.00 0.00 0.00 0.00 0.00 0.00 0.03 0.01 0.00 0.01 0.00 0.00 0.00 0.00 0.00 0.00 0.00 0.00 0.00 0.00 0.00 0.00 0.00 0.00 0.00 0.00 0.00 0.00 0.00 0.00 0.00 0.00 0.00 0.01 0.10 0.25 0.13 0.07 0.11 0.13 0.07 0.06 0.04 0.00 0.00
0.00 0.00 0.00 0.00 0.00 0.00 0.00 0.00 0.00 0.00 0.00 0.00 0.00 0.00 0.00 0.00 0.00 0.00 0.00 0.00 0.00 0.00 0.00 0.00 0.00 0.00 0.00 0.00 0.00 0.00 0.00 0.00 0.00 0.00 0.00 0.00 0.00 0.00 0.09 0.18 0.08 0.13 0.10 0.23 0.14 0.04 0.02 0.01 0.00
0.00 0.00 0.00 0.00 0.00 0.00 0.00 0.00 0.00 0.00 0.00 0.00 0.00 0.00 0.02 0.00 0.00 0.00 0.00 0.00 0.00 0.00 0.00 0.00 0.00 0.00 0.00 0.00 0.00 0.00 0.00 0.00 0.00 0.00 0.00 0.00 0.00 0.00 0.02 0.07 0.07 0.06 0.04 0.15 0.16 0.02 0.01 0.00 0.00
0.00 0.00 0.00 0.00 0.00 0.00 0.00 0.00 0.00 0.00 0.00 0.00 0.00 0.00 0.01 0.00 0.00 0.00 0.00 0.00 0.00 0.00 0.00 0.00 0.00 0.00 0.00 0.00 0.00 0.00 0.00 0.00 0.00 0.00 0.00 0.00 0.00 0.00 0.00 0.02 0.11 0.03 0.03 0.06 0.11 0.03 0.00 0.00 0.00
0.00 0.00 0.00 0.00 0.00 0.00 0.00 0.00 0.00 0.00 0.00 0.00 0.00 0.00 0.00 0.00 0.00 0.00 0.00 0.00 0.00 0.00 0.00 0.00 0.00 0.00 0.00 0.00 0.00 0.00 0.00 0.00 0.00 0.00 0.00 0.00 0.00 0.00 0.00 0.01 0.03 0.04 0.01 0.03 0.07 0.03 0.00 0.00 0.00
0.00 0.00 0.00 0.00 0.00 0.00 0.00 0.00 0.00 0.00 0.00 0.00 0.00 0.00 0.00 0.00 0.00 0.00 0.00 0.00 0.00 0.00 0.00 0.00 0.00 0.00 0.00 0.00 0.00 0.00 0.00 0.00 0.00 0.00 0.00 0.00 0.00 0.00 0.00 0.00 0.03 0.01 0.00 0.01 0.01 0.02 0.00 0.00 0.00
0.00 0.00 0.00 0.00 0.00 0.00 0.00 0.00 0.00 0.00 0.00 0.00 0.00 0.00 0.00 0.00 0.00 0.00 0.00 0.00 0.00 0.00 0.00 0.00 0.00 0.00 0.00 0.00 0.00 0.00 0.00 0.00 0.00 0.00 0.00 0.00 0.00 0.00 0.00 0.00 0.00 0.00 0.00 0.00 0.00 0.00 0.00 0.00 0.00
0.00 0.00 0.00 0.00 0.00 0.00 0.00 0.00 0.00 0.00 0.00 0.00 0.00 0.00 0.00 0.00 0.00 0.00 0.00 0.00 0.00 0.00 0.00 0.00 0.00 0.00 0.00 0.00 0.00 0.00 0.00 0.00 0.00 0.00 0.00 0.00 0.00 0.00 0.00 0.00 0.00 0.00 0.00 0.00 0.00 0.00 0.00 0.00 0.00
0.00 0.00 0.00 0.00 0.00 0.00 0.00 0.00 0.00 0.00 0.00 0.00 0.00 0.00 0.00 0.00 0.00 0.00 0.00 0.00 0.00 0.00 0.00 0.00 0.00 0.00 0.00 0.00 0.00 0.00 0.00 0.00 0.00 0.00 0.00 0.00 0.00 0.00 0.00 0.00 0.00 0.00 0.00 0.00 0.00 0.00 0.00 0.00 0.00
0.00 0.00 0.00 0.00 0.00 0.00 0.00 0.00 0.00 0.00 0.00 0.00 0.00 0.00 0.00 0.00 0.00 0.00 0.00 0.00 0.00 0.00 0.00 0.00 0.00 0.00 0.00 0.00 0.00 0.00 0.00 0.00 0.00 0.00 0.00 0.00 0.00 0.00 0.00 0.00 0.00 0.00 0.00 0.00 0.00 0.00 0.00 0.00 0.00
0.00 0.00 0.00 0.00 0.00 0.00 0.00 0.00 0.00 0.00 0.00 0.00 0.00 0.00 0.00 0.00 0.00 0.00 0.00 0.00 0.00 0.00 0.00 0.00 0.00 0.00 0.00 0.00 0.00 0.00 0.00 0.00 0.00 0.00 0.00 0.00 0.00 0.00 0.00 0.00 0.00 0.00 0.00 0.00 0.00 0.00 0.00 0.00 0.00

GFSSGP_prec_precacc12_033.txt.gz
Total_Precipitation_Accumulation
0.00 0.04 0.22 0.29 0.41 0.46 0.50 0.32 0.19 0.05 0.05 0.03 0.01 0.04 0.14 0.14 0.20 0.17 0.02 0.09 0.13 0.22 0.03 0.05 0.05 0.04 0.05 0.04 0.03 0.01 0.01 0.00 0.00 0.00 0.04 0.02 0.03 0.03 0.06 0.07 0.04 0.01 0.01 0.01 0.02 0.01 0.00 0.00 0.03
0.00 0.17 0.39 0.37 0.40 1.22 0.86 0.16 0.10 0.02 0.02 0.01 0.00 0.01 0.00 0.01 0.03 0.02 0.06 0.13 0.04 0.01 0.01 0.00 0.08 0.07 0.05 0.04 0.03 0.00 0.00 0.00 0.00 0.01 0.04 0.04 0.05 0.06 0.01 0.01 0.02 0.01 0.00 0.00 0.00 0.00 0.00 0.00 0.00
0.02 0.20 0.46 0.35 0.50 0.71 0.24 0.12 0.11 0.01 0.01 0.02 0.01 0.03 0.01 0.01 0.01 0.05 0.06 0.05 0.01 0.01 0.00 0.00 0.03 0.05 0.04 0.04 0.01 0.00 0.00 0.00 0.00 0.01 0.01 0.03 0.02 0.03 0.02 0.01 0.03 0.05 0.01 0.00 0.00 0.00 0.00 0.00 0.00
0.03 0.20 0.19 0.39 0.42 0.11 0.06 0.07 0.07 0.02 0.01 0.02 0.03 0.01 0.00 0.00 0.00 0.01 0.01 0.02 0.01 0.01 0.01 0.00 0.02 0.01 0.04 0.01 0.00 0.00 0.00 0.00 0.00 0.00 0.02 0.02 0.01 0.01 0.01 0.02 0.05 0.05 0.01 0.00 0.00 0.00 0.00 0.00 0.00
0.03 0.13 0.22 0.31 0.31 0.27 0.05 0.03 0.07 0.12 0.03 0.02 0.01 0.01 0.02 0.01 0.00 0.00 0.00 0.01 0.01 0.01 0.00 0.00 0.05 0.04 0.02 0.00 0.00 0.00 0.00 0.00 0.00 0.00 0.00 0.00 0.01 0.02 0.06 0.05 0.02 0.04 0.01 0.00 0.00 0.00 0.00 0.00 0.01
0.12 0.31 0.43 0.11 0.06 0.09 0.04 0.01 0.02 0.08 0.02 0.00 0.00 0.00 0.03 0.01 0.00 0.00 0.00 0.01 0.01 0.01 0.00 0.00 0.02 0.02 0.02 0.02 0.00 0.00 0.00 0.00 0.00 0.00 0.00 0.00 0.00 0.01 0.02 0.01 0.00 0.00 0.00 0.00 0.00 0.00 0.00 0.01 0.01
0.12 1.18 0.84 0.14 0.15 0.07 0.02 0.01 0.02 0.02 0.01 0.00 0.00 0.00 0.02 0.01 0.00 0.00 0.00 0.01 0.01 0.01 0.00 0.00 0.00 0.00 0.03 0.02 0.00 0.00 0.00 0.00 0.00 0.00 0.00 0.00 0.00 0.00 0.00 0.00 0.00 0.00 0.00 0.00 0.00 0.00 0.00 0.01 0.02
0.04 0.43 1.86 0.62 0.08 0.15 0.10 0.01 0.01 0.02 0.03 0.00 0.00 0.00 0.01 0.00 0.00 0.00 0.01 0.00 0.00 0.00 0.00 0.00 0.00 0.00 0.00 0.00 0.00 0.00 0.00 0.00 0.00 0.00 0.01 0.02 0.02 0.01 0.01 0.01 0.00 0.01 0.00 0.00 0.00 0.00 0.00 0.00 0.01
0.04 0.92 1.35 0.40 0.02 0.04 0.11 0.04 0.02 0.02 0.00 0.02 0.01 0.00 0.00 0.00 0.00 0.00 0.00 0.00 0.00 0.00 0.00 0.00 0.00 0.00 0.00 0.00 0.00 0.00 0.00 0.00 0.00 0.01 0.06 0.28 0.21 0.22 0.22 0.03 0.00 0.00 0.00 0.00 0.00 0.00 0.00 0.00 0.00
0.10 0.47 0.33 0.02 0.01 0.05 0.05 0.05 0.01 0.00 0.00 0.01 0.00 0.00 0.00 0.00 0.00 0.00 0.00 0.00 0.00 0.00 0.00 0.00 0.00 0.00 0.00 0.00 0.00 0.00 0.00 0.00 0.00 0.01 0.19 0.79 0.16 0.09 0.11 0.00 0.00 0.00 0.00 0.01 0.00 0.00 0.00 0.06 0.03
0.03 0.17 0.17 0.00 0.00 0.02 0.01 0.02 0.03 0.01 0.00 0.00 0.00 0.00 0.00 0.00 0.00 0.00 0.00 0.00 0.00 0.00 0.00 0.00 0.00 0.00 0.00 0.00 0.00 0.00 0.00 0.00 0.00 0.03 0.26 0.81 0.23 0.10 0.12 0.01 0.01 0.00 0.02 0.02 0.06 0.03 0.01 0.00 0.00
0.00 0.03 0.09 0.00 0.00 0.00 0.01 0.07 0.05 0.00 0.00 0.00 0.00 0.00 0.00 0.00 0.00 0.00 0.00 0.00 0.00 0.00 0.00 0.00 0.00 0.00 0.00 0.00 0.00 0.00 0.00 0.00 0.00 0.01 0.05 0.16 0.25 0.14 0.03 0.03 0.01 0.01 0.05 0.09 0.03 0.02 0.04 0.03 0.00
0.00 0.00 0.00 0.05 0.00 0.00 0.00 0.14 0.10 0.00 0.00 0.00 0.00 0.00 0.00 0.00 0.00 0.00 0.00 0.00 0.00 0.00 0.00 0.00 0.00 0.00 0.00 0.00 0.00 0.00 0.00 0.00 0.00 0.00 0.00 0.10 0.21 0.09 0.04 0.04 0.06 0.04 0.14 0.72 0.09 0.10 0.05 0.01 0.02
0.00 0.00 0.00 0.02 0.00 0.00 0.00 0.00 0.00 0.01 0.00 0.00 0.00 0.00 0.00 0.00 0.00 0.00 0.00 0.00 0.00 0.00 0.00 0.00 0.00 0.00 0.00 0.00 0.00 0.00 0.00 0.00 0.00 0.00 0.00 0.01 0.07 0.07 0.07 0.09 0.07 0.04 0.05 0.20 0.13 0.09 0.23 0.01 0.00
0.00 0.00 0.00 0.00 0.00 0.00 0.00 0.00 0.00 0.01 0.00 0.00 0.00 0.00 0.00 0.00 0.00 0.00 0.00 0.00 0.00 0.00 0.00 0.00 0.00 0.00 0.00 0.00 0.00 0.00 0.00 0.00 0.00 0.00 0.00 0.00 0.00 0.02 0.06 0.06 0.03 0.05 0.12 0.09 0.06 0.08 0.25 0.02 0.00
0.00 0.00 0.00 0.00 0.00 0.00 0.00 0.00 0.00 0.00 0.00 0.00 0.00 0.00 0.00 0.00 0.00 0.00 0.00 0.00 0.00 0.00 0.00 0.00 0.00 0.00 0.00 0.00 0.00 0.00 0.00 0.00 0.00 0.00 0.00 0.00 0.00 0.01 0.05 0.17 0.12 0.11 0.14 0.05 0.03 0.04 0.04 0.00 0.00
0.00 0.00 0.00 0.00 0.00 0.00 0.00 0.00 0.00 0.00 0.00 0.01 0.00 0.00 0.00 0.00 0.00 0.00 0.00 0.00 0.00 0.00 0.00 0.00 0.00 0.00 0.00 0.00 0.00 0.00 0.00 0.00 0.00 0.00 0.00 0.00 0.00 0.00 0.03 0.16 0.17 0.08 0.15 0.06 0.04 0.06 0.02 0.00 0.00
0.00 0.00 0.00 0.00 0.00 0.00 0.00 0.00 0.00 0.00 0.02 0.15 0.08 0.03 0.00 0.00 0.00 0.00 0.00 0.00 0.00 0.00 0.00 0.00 0.00 0.00 0.00 0.00 0.00 0.00 0.00 0.00 0.00 0.00 0.00 0.00 0.00 0.00 0.01 0.14 0.23 0.09 0.07 0.07 0.08 0.05 0.00 0.00 0.00
0.00 0.00 0.00 0.00 0.00 0.00 0.00 0.00 0.00 0.00 0.18 0.47 0.22 0.10 0.02 0.00 0.00 0.00 0.00 0.00 0.00 0.00 0.00 0.00 0.00 0.01 0.01 0.00 0.00 0.00 0.00 0.00 0.00 0.00 0.00 0.00 0.00 0.00 0.05 0.16 0.24 0.07 0.08 0.11 0.08 0.04 0.00 0.00 0.00
0.00 0.00 0.00 0.00 0.00 0.00 0.00 0.00 0.00 0.00 0.06 0.22 0.14 0.08 0.03 0.00 0.00 0.00 0.00 0.00 0.00 0.00 0.00 0.00 0.00 0.00 0.00 0.00 0.00 0.00 0.00 0.00 0.00 0.00 0.00 0.00 0.00 0.01 0.10 0.26 0.14 0.06 0.12 0.13 0.08 0.07 0.04 0.00 0.00
0.00 0.00 0.00 0.00 0.00 0.00 0.00 0.00 0.00 0.00 0.00 0.01 0.06 0.04 0.09 0.00 0.00 0.00 0.00 0.00 0.00 0.00 0.00 0.00 0.00 0.00 0.00 0.00 0.00 0.00 0.00 0.00 0.00 0.00 0.00 0.00 0.00 0.00 0.09 0.18 0.10 0.14 0.11 0.23 0.15 0.04 0.02 0.01 0.00
0.00 0.00 0.00 0.00 0.00 0.00 0.00 0.00 0.00 0.00 0.00 0.00 0.00 0.00 0.07 0.01 0.01 0.00 0.00 0.00 0.00 0.00 0.00 0.00 0.00 0.00 0.00 0.00 0.00 0.00 0.00 0.00 0.00 0.00 0.00 0.00 0.00 0.00 0.02 0.07 0.08 0.06 0.04 0.15 0.17 0.02 0.01 0.00 0.00
0.00 0.00 0.00 0.00 0.00 0.00 0.00 0.00 0.00 0.00 0.00 0.00 0.00 0.00 0.10 0.15 0.01 0.01 0.00 0.00 0.00 0.00 0.00 0.00 0.00 0.00 0.00 0.00 0.00 0.00 0.00 0.00 0.00 0.00 0.00 0.00 0.00 0.00 0.00 0.02 0.11 0.03 0.04 0.06 0.11 0.03 0.00 0.00 0.00
0.00 0.00 0.00 0.00 0.00 0.00 0.00 0.00 0.00 0.00 0.00 0.00 0.00 0.00 0.00 0.00 0.00 0.01 0.00 0.00 0.00 0.00 0.00 0.00 0.00 0.00 0.00 0.00 0.00 0.00 0.00 0.00 0.00 0.00 0.00 0.00 0.00 0.00 0.00 0.01 0.03 0.04 0.01 0.03 0.07 0.03 0.00 0.00 0.00
0.00 0.00 0.00 0.00 0.00 0.00 0.00 0.00 0.00 0.00 0.00 0.00 0.00 0.00 0.00 0.00 0.00 0.01 0.00 0.00 0.00 0.00 0.00 0.00 0.00 0.00 0.00 0.00 0.00 0.00 0.00 0.00 0.00 0.00 0.00 0.00 0.00 0.00 0.00 0.00 0.03 0.01 0.00 0.01 0.01 0.02 0.00 0.00 0.00
0.00 0.00 0.00 0.00 0.00 0.00 0.00 0.00 0.00 0.00 0.00 0.00 0.00 0.00 0.00 0.00 0.00 0.00 0.00 0.00 0.00 0.00 0.00 0.00 0.00 0.00 0.00 0.00 0.00 0.00 0.00 0.00 0.00 0.00 0.00 0.00 0.00 0.00 0.00 0.00 0.00 0.00 0.00 0.00 0.00 0.00 0.00 0.00 0.00
0.00 0.00 0.00 0.00 0.00 0.00 0.00 0.00 0.00 0.00 0.00 0.00 0.00 0.00 0.00 0.00 0.00 0.00 0.00 0.00 0.00 0.00 0.00 0.00 0.00 0.00 0.00 0.00 0.00 0.00 0.00 0.00 0.00 0.00 0.00 0.00 0.00 0.00 0.00 0.00 0.00 0.00 0.00 0.00 0.00 0.00 0.00 0.00 0.00
0.00 0.00 0.00 0.00 0.00 0.00 0.00 0.00 0.00 0.00 0.00 0.00 0.00 0.00 0.00 0.00 0.00 0.00 0.00 0.00 0.00 0.00 0.00 0.00 0.00 0.00 0.00 0.00 0.00 0.00 0.00 0.00 0.00 0.00 0.00 0.00 0.00 0.00 0.00 0.00 0.00 0.00 0.00 0.00 0.00 0.00 0.00 0.00 0.00
0.00 0.00 0.00 0.00 0.00 0.00 0.00 0.00 0.00 0.00 0.00 0.00 0.00 0.00 0.00 0.00 0.00 0.00 0.00 0.00 0.00 0.00 0.00 0.00 0.00 0.00 0.00 0.00 0.00 0.00 0.00 0.00 0.00 0.00 0.00 0.00 0.00 0.00 0.00 0.00 0.00 0.00 0.00 0.00 0.00 0.00 0.00 0.00 0.00
0.00 0.00 0.00 0.00 0.00 0.00 0.00 0.00 0.00 0.00 0.00 0.00 0.00 0.00 0.00 0.00 0.00 0.00 0.00 0.00 0.00 0.00 0.00 0.00 0.00 0.00 0.00 0.00 0.00 0.00 0.00 0.00 0.00 0.00 0.00 0.00 0.00 0.00 0.00 0.00 0.00 0.00 0.00 0.00 0.00 0.00 0.00 0.00 0.00

GFSSGP_prec_precacc12_036.txt.gz
Total_Precipitation_Accumulation
0.00 0.02 0.16 0.25 0.48 0.43 0.41 0.29 0.23 0.08 0.08 0.07 0.02 0.06 0.16 0.13 0.20 0.15 0.01 0.08 0.09 0.18 0.01 0.01 0.03 0.01 0.03 0.03 0.02 0.01 0.01 0.00 0.00 0.00 0.04 0.02 0.03 0.02 0.06 0.04 0.03 0.01 0.01 0.00 0.02 0.00 0.00 0.00 0.01
0.00 0.16 0.38 0.46 0.44 1.32 0.82 0.30 0.19 0.05 0.05 0.03 0.01 0.01 0.00 0.01 0.03 0.01 0.05 0.10 0.02 0.01 0.00 0.00 0.04 0.03 0.03 0.04 0.02 0.01 0.00 0.00 0.00 0.01 0.03 0.04 0.03 0.03 0.01 0.01 0.01 0.00 0.00 0.00 0.00 0.00 0.00 0.00 0.00
0.01 0.29 0.58 0.41 0.64 0.78 0.28 0.31 0.13 0.03 0.01 0.02 0.01 0.02 0.01 0.01 0.01 0.05 0.05 0.05 0.01 0.00 0.00 0.00 0.02 0.04 0.04 0.04 0.01 0.00 0.00 0.00 0.00 0.00 0.01 0.03 0.00 0.03 0.02 0.01 0.00 0.00 0.01 0.00 0.00 0.00 0.00 0.00 0.00
0.03 0.27 0.31 0.41 0.45 0.13 0.06 0.11 0.10 0.05 0.04 0.04 0.03 0.01 0.00 0.00 0.00 0.01 0.01 0.02 0.01 0.01 0.00 0.00 0.01 0.01 0.04 0.01 0.00 0.00 0.00 0.00 0.00 0.00 0.02 0.02 0.01 0.01 0.00 0.00 0.00 0.00 0.00 0.00 0.00 0.00 0.00 0.00 0.01
0.05 0.26 0.28 0.50 0.43 0.28 0.06 0.05 0.14 0.19 0.12 0.05 0.02 0.01 0.01 0.00 0.00 0.00 0.00 0.01 0.01 0.01 0.00 0.00 0.04 0.04 0.03 0.00 0.00 0.00 0.00 0.00 0.00 0.00 0.00 0.00 0.01 0.01 0.00 0.00 0.00 0.00 0.00 0.00 0.00 0.00 0.00 0.01 0.05
0.22 0.37 0.44 0.13 0.09 0.15 0.08 0.09 0.15 0.19 0.14 0.07 0.01 0.00 0.02 0.00 0.00 0.00 0.00 0.01 0.01 0.01 0.00 0.00 0.01 0.02 0.01 0.00 0.00 0.00 0.00 0.00 0.01 0.01 0.00 0.00 0.00 0.01 0.01 0.00 0.00 0.00 0.00 0.00 0.00 0.00 0.00 0.00 0.01
0.17 1.18 0.85 0.15 0.29 0.14 0.12 0.17 0.08 0.06 0.07 0.01 0.00 0.00 0.02 0.00 0.00 0.00 0.00 0.01 0.01 0.01 0.00 0.00 0.00 0.00 0.00 0.01 0.00 0.00 0.00 0.00 0.01 0.00 0.00 0.00 0.00 0.00 0.00 0.00 0.00 0.00 0.00 0.00 0.00 0.00 0.00 0.00 0.00
0.08 0.44 1.88 0.63 0.17 0.95 0.49 0.18 0.10 0.04 0.10 0.01 0.00 0.00 0.01 0.00 0.00 0.00 0.01 0.00 0.00 0.00 0.00 0.00 0.00 0.00 0.00 0.00 0.00 0.00 0.00 0.00 0.00 0.00 0.01 0.02 0.02 0.01 0.00 0.01 0.00 0.00 0.00 0.00 0.00 0.00 0.00 0.00 0.00
0.19 1.13 1.59 0.42 0.14 0.82 0.39 0.18 0.14 0.09 0.02 0.02 0.01 0.00 0.00 0.00 0.00 0.00 0.00 0.01 0.00 0.00 0.00 0.00 0.00 0.00 0.00 0.00 0.00 0.00 0.00 0.00 0.00 0.01 0.06 0.28 0.21 0.22 0.20 0.02 0.00 0.00 0.00 0.00 0.00 0.00 0.00 0.01 0.01
0.18 0.78 0.51 0.03 0.01 0.07 0.21 0.19 0.23 0.07 0.02 0.02 0.00 0.00 0.00 0.00 0.00 0.00 0.00 0.00 0.00 0.00 0.00 0.00 0.00 0.00 0.00 0.00 0.00 0.00 0.00 0.00 0.00 0.01 0.19 0.79 0.16 0.09 0.11 0.00 0.00 0.00 0.00 0.00 0.00 0.00 0.01 0.07 0.03
0.07 0.21 0.17 0.00 0.00 0.02 0.01 0.03 0.12 0.07 0.01 0.00 0.00 0.00 0.00 0.00 0.00 0.00 0.00 0.00 0.00 0.00 0.00 0.00 0.00 0.00 0.00 0.00 0.00 0.00 0.00 0.00 0.00 0.03 0.26 0.81 0.23 0.10 0.12 0.01 0.01 0.00 0.02 0.02 0.06 0.03 0.00 0.00 0.00
0.00 0.03 0.09 0.00 0.00 0.00 0.01 0.07 0.06 0.01 0.00 0.00 0.00 0.00 0.00 0.00 0.00 0.00 0.00 0.00 0.00 0.00 0.00 0.00 0.00 0.00 0.00 0.00 0.00 0.00 0.00 0.00 0.00 0.01 0.05 0.16 0.25 0.14 0.03 0.04 0.02 0.02 0.05 0.09 0.04 0.01 0.01 0.01 0.00
0.00 0.00 0.00 0.05 0.00 0.00 0.00 0.14 0.10 0.00 0.00 0.00 0.00 0.00 0.00 0.00 0.00 0.00 0.00 0.00 0.00 0.00 0.00 0.00 0.00 0.00 0.00 0.00 0.00 0.00 0.00 0.00 0.00 0.00 0.00 0.10 0.21 0.08 0.04 0.04 0.06 0.05 0.15 0.72 0.05 0.02 0.01 0.00 0.02
0.00 0.00 0.00 0.02 0.00 0.01 0.00 0.00 0.00 0.01 0.00 0.00 0.00 0.00 0.00 0.00 0.00 0.00 0.00 0.00 0.00 0.00 0.00 0.00 0.00 0.00 0.00 0.00 0.00 0.00 0.00 0.00 0.00 0.00 0.00 0.01 0.07 0.07 0.07 0.10 0.07 0.05 0.04 0.16 0.05 0.02 0.20 0.01 0.00
0.00 0.00 0.00 0.00 0.01 0.01 0.01 0.00 0.00 0.01 0.00 0.00 0.00 0.00 0.00 0.00 0.00 0.00 0.00 0.00 0.00 0.00 0.00 0.00 0.00 0.00 0.00 0.00 0.00 0.00 0.00 0.00 0.00 0.00 0.00 0.00 0.00 0.02 0.06 0.05 0.03 0.06 0.05 0.00 0.02 0.04 0.24 0.02 0.00
0.00 0.00 0.00 0.00 0.00 0.00 0.01 0.00 0.00 0.02 0.01 0.00 0.00 0.00 0.00 0.00 0.00 0.00 0.00 0.00 0.00 0.00 0.00 0.00 0.00 0.00 0.00 0.00 0.00 0.00 0.00 0.00 0.00 0.00 0.00 0.00 0.00 0.01 0.05 0.10 0.05 0.10 0.08 0.03 0.04 0.01 0.01 0.00 0.00
0.00 0.00 0.00 0.00 0.00 0.00 0.00 0.00 0.00 0.04 0.02 0.01 0.01 0.01 0.00 0.00 0.00 0.00 0.00 0.00 0.00 0.00 0.00 0.00 0.00 0.00 0.00 0.00 0.00 0.00 0.00 0.00 0.00 0.00 0.00 0.00 0.00 0.00 0.03 0.08 0.09 0.05 0.13 0.03 0.01 0.02 0.01 0.00 0.00
0.00 0.00 0.00 0.00 0.00 0.00 0.00 0.00 0.00 0.01 0.02 0.15 0.10 0.05 0.00 0.00 0.00 0.00 0.00 0.00 0.00 0.00 0.00 0.00 0.00 0.00 0.00 0.00 0.00 0.00 0.00 0.00 0.00 0.00 0.00 0.00 0.00 0.00 0.01 0.11 0.12 0.06 0.06 0.03 0.01 0.00 0.00 0.00 0.00
0.00 0.00 0.00 0.00 0.00 0.00 0.00 0.00 0.00 0.00 0.18 0.47 0.22 0.10 0.04 0.00 0.00 0.00 0.00 0.00 0.00 0.00 0.00 0.00 0.00 0.01 0.01 0.00 0.00 0.00 0.00 0.00 0.00 0.00 0.00 0.00 0.00 0.00 0.05 0.14 0.17 0.07 0.05 0.05 0.02 0.00 0.00 0.00 0.00
0.00 0.00 0.00 0.00 0.00 0.00 0.00 0.00 0.00 0.00 0.06 0.22 0.14 0.08 0.03 0.00 0.00 0.00 0.00 0.00 0.00 0.00 0.00 0.00 0.00 0.00 0.00 0.00 0.00 0.00 0.00 0.00 0.00 0.00 0.00 0.00 0.00 0.01 0.10 0.19 0.05 0.05 0.07 0.09 0.02 0.01 0.03 0.00 0.00
0.00 0.00 0.00 0.00 0.00 0.00 0.00 0.00 0.00 0.00 0.00 0.01 0.07 0.05 0.09 0.00 0.00 0.00 0.00 0.00 0.00 0.00 0.00 0.00 0.00 0.00 0.00 0.00 0.00 0.00 0.00 0.00 0.00 0.00 0.00 0.00 0.00 0.00 0.09 0.14 0.03 0.08 0.08 0.18 0.10 0.01 0.01 0.01 0.00
0.00 0.00 0.00 0.00 0.00 0.00 0.00 0.00 0.00 0.00 0.00 0.00 0.00 0.00 0.07 0.01 0.01 0.00 0.00 0.00 0.00 0.00 0.00 0.00 0.00 0.00 0.00 0.00 0.00 0.00 0.00 0.00 0.00 0.00 0.00 0.00 0.00 0.00 0.02 0.06 0.04 0.03 0.04 0.12 0.13 0.01 0.01 0.00 0.00
0.00 0.00 0.00 0.00 0.00 0.00 0.00 0.00 0.00 0.00 0.00 0.00 0.00 0.00 0.10 0.15 0.01 0.01 0.00 0.00 0.00 0.00 0.00 0.00 0.00 0.00 0.00 0.00 0.00 0.00 0.00 0.00 0.00 0.00 0.00 0.00 0.00 0.00 0.00 0.01 0.05 0.02 0.02 0.06 0.10 0.03 0.00 0.00 0.00
0.00 0.00 0.00 0.00 0.00 0.00 0.00 0.00 0.00 0.00 0.00 0.00 0.00 0.00 0.00 0.00 0.00 0.01 0.00 0.00 0.00 0.00 0.00 0.00 0.00 0.00 0.00 0.00 0.00 0.00 0.00 0.00 0.00 0.00 0.00 0.00 0.00 0.00 0.00 0.00 0.01 0.02 0.01 0.03 0.06 0.03 0.00 0.00 0.00
0.00 0.00 0.00 0.00 0.00 0.00 0.00 0.00 0.00 0.00 0.00 0.00 0.00 0.00 0.00 0.00 0.00 0.01 0.00 0.00 0.00 0.00 0.00 0.00 0.00 0.00 0.00 0.00 0.00 0.00 0.00 0.00 0.00 0.00 0.00 0.00 0.00 0.00 0.00 0.00 0.03 0.00 0.00 0.01 0.01 0.02 0.00 0.00 0.00
0.00 0.00 0.00 0.00 0.00 0.00 0.00 0.00 0.00 0.00 0.00 0.00 0.00 0.00 0.00 0.00 0.00 0.00 0.00 0.00 0.00 0.00 0.00 0.00 0.00 0.00 0.00 0.00 0.00 0.00 0.00 0.00 0.00 0.00 0.00 0.00 0.00 0.00 0.00 0.00 0.00 0.00 0.00 0.00 0.00 0.00 0.00 0.00 0.00
0.00 0.00 0.00 0.00 0.00 0.00 0.00 0.00 0.00 0.00 0.00 0.00 0.00 0.00 0.00 0.00 0.00 0.00 0.00 0.00 0.00 0.00 0.00 0.00 0.00 0.00 0.00 0.00 0.00 0.00 0.00 0.00 0.00 0.00 0.00 0.00 0.00 0.00 0.00 0.00 0.00 0.00 0.00 0.00 0.00 0.00 0.00 0.00 0.00
0.00 0.00 0.00 0.00 0.00 0.00 0.00 0.00 0.00 0.00 0.00 0.00 0.00 0.00 0.00 0.00 0.00 0.00 0.00 0.00 0.00 0.00 0.00 0.00 0.00 0.00 0.00 0.00 0.00 0.00 0.00 0.00 0.00 0.00 0.00 0.00 0.00 0.00 0.00 0.00 0.00 0.00 0.00 0.00 0.00 0.00 0.00 0.00 0.00
0.00 0.00 0.00 0.00 0.00 0.00 0.00 0.00 0.00 0.00 0.00 0.00 0.00 0.00 0.00 0.00 0.00 0.00 0.00 0.00 0.00 0.00 0.00 0.00 0.00 0.00 0.00 0.00 0.00 0.00 0.00 0.00 0.00 0.00 0.00 0.00 0.00 0.00 0.00 0.00 0.00 0.00 0.00 0.00 0.00 0.00 0.00 0.00 0.00
0.00 0.00 0.00 0.00 0.00 0.00 0.00 0.00 0.00 0.00 0.00 0.00 0.00 0.00 0.00 0.00 0.00 0.00 0.00 0.00 0.00 0.00 0.00 0.00 0.00 0.00 0.00 0.00 0.00 0.00 0.00 0.00 0.00 0.00 0.00 0.00 0.00 0.00 0.00 0.00 0.00 0.00 0.00 0.00 0.00 0.00 0.00 0.00 0.00

GFSSGP_prec_precacc12_039.txt.gz
Total_Precipitation_Accumulation
0.00 0.01 0.04 0.17 0.66 0.38 0.27 0.25 0.22 0.10 0.09 0.09 0.05 0.05 0.12 0.09 0.14 0.05 0.00 0.01 0.00 0.00 0.01 0.02 0.04 0.01 0.03 0.03 0.02 0.01 0.01 0.00 0.00 0.00 0.03 0.01 0.02 0.00 0.01 0.01 0.00 0.00 0.01 0.00 0.01 0.02 0.00 0.00 0.00
0.00 0.09 0.26 0.54 0.44 1.05 0.74 0.35 0.21 0.08 0.10 0.07 0.04 0.02 0.00 0.01 0.03 0.01 0.00 0.00 0.00 0.00 0.00 0.00 0.02 0.02 0.03 0.04 0.02 0.01 0.00 0.00 0.00 0.01 0.03 0.02 0.03 0.01 0.01 0.00 0.01 0.00 0.00 0.05 0.12 0.11 0.00 0.00 0.02
0.00 0.34 0.76 0.49 0.54 0.73 0.39 0.37 0.17 0.05 0.02 0.02 0.04 0.01 0.00 0.00 0.01 0.01 0.02 0.00 0.00 0.00 0.00 0.00 0.01 0.03 0.04 0.04 0.00 0.00 0.00 0.00 0.00 0.01 0.02 0.04 0.01 0.01 0.00 0.00 0.00 0.00 0.00 0.00 0.01 0.01 0.00 0.00 0.02
0.02 0.36 0.48 0.40 0.45 0.20 0.08 0.15 0.18 0.08 0.16 0.11 0.04 0.01 0.00 0.00 0.00 0.01 0.00 0.00 0.00 0.00 0.00 0.00 0.00 0.01 0.04 0.01 0.00 0.00 0.01 0.01 0.01 0.01 0.00 0.00 0.00 0.00 0.00 0.00 0.00 0.00 0.00 0.00 0.00 0.00 0.00 0.01 0.07
0.05 0.36 0.30 0.49 0.47 0.37 0.10 0.14 0.16 0.29 0.28 0.13 0.02 0.00 0.01 0.00 0.00 0.00 0.00 0.00 0.00 0.00 0.00 0.00 0.03 0.04 0.03 0.01 0.00 0.00 0.01 0.00 0.00 0.00 0.00 0.00 0.00 0.00 0.00 0.00 0.00 0.00 0.00 0.00 0.00 0.00 0.00 0.01 0.07
0.27 0.28 0.14 0.12 0.11 0.17 0.15 0.18 0.20 0.28 0.31 0.16 0.02 0.00 0.01 0.00 0.00 0.00 0.00 0.01 0.00 0.00 0.00 0.01 0.02 0.02 0.00 0.00 0.00 0.00 0.00 0.00 0.01 0.01 0.01 0.01 0.00 0.00 0.00 0.00 0.00 0.00 0.00 0.00 0.00 0.00 0.00 0.00 0.01
0.20 1.03 0.72 0.15 0.29 0.16 0.19 0.21 0.18 0.28 0.19 0.10 0.01 0.00 0.01 0.00 0.00 0.00 0.00 0.01 0.00 0.00 0.00 0.00 0.00 0.00 0.00 0.00 0.00 0.00 0.00 0.00 0.01 0.01 0.01 0.00 0.00 0.00 0.00 0.00 0.00 0.00 0.00 0.00 0.00 0.00 0.00 0.00 0.00
0.10 0.43 1.88 0.62 0.17 0.98 0.51 0.29 0.22 0.18 0.17 0.04 0.00 0.00 0.01 0.00 0.00 0.00 0.01 0.00 0.00 0.00 0.00 0.00 0.00 0.00 0.00 0.00 0.00 0.00 0.00 0.00 0.00 0.00 0.01 0.02 0.02 0.01 0.00 0.01 0.00 0.00 0.00 0.00 0.00 0.00 0.00 0.02 0.03
0.19 1.13 1.59 0.41 0.25 0.94 0.45 0.29 0.20 0.24 0.07 0.02 0.01 0.00 0.00 0.00 0.00 0.00 0.00 0.01 0.00 0.00 0.00 0.00 0.00 0.00 0.00 0.00 0.00 0.00 0.00 0.00 0.00 0.01 0.06 0.28 0.16 0.19 0.13 0.01 0.00 0.00 0.00 0.00 0.00 0.00 0.03 0.02 0.02
0.19 0.67 0.42 0.03 0.03 0.10 0.33 0.44 0.37 0.17 0.03 0.02 0.00 0.00 0.00 0.00 0.00 0.00 0.00 0.00 0.00 0.00 0.00 0.00 0.00 0.00 0.00 0.00 0.00 0.00 0.00 0.00 0.00 0.01 0.19 0.68 0.16 0.07 0.07 0.00 0.00 0.00 0.00 0.00 0.00 0.00 0.01 0.05 0.01
0.08 0.18 0.12 0.00 0.00 0.03 0.05 0.06 0.20 0.09 0.01 0.00 0.00 0.00 0.00 0.00 0.00 0.00 0.00 0.00 0.00 0.00 0.00 0.00 0.00 0.00 0.00 0.00 0.00 0.00 0.00 0.00 0.00 0.03 0.26 0.80 0.21 0.07 0.07 0.01 0.00 0.00 0.01 0.00 0.04 0.02 0.00 0.00 0.00
0.00 0.02 0.06 0.00 0.00 0.00 0.01 0.07 0.07 0.03 0.00 0.00 0.00 0.00 0.00 0.00 0.00 0.00 0.00 0.00 0.00 0.00 0.00 0.00 0.00 0.00 0.00 0.00 0.00 0.00 0.00 0.00 0.00 0.01 0.05 0.16 0.22 0.13 0.03 0.04 0.02 0.02 0.05 0.08 0.03 0.02 0.02 0.01 0.00
0.00 0.00 0.00 0.05 0.00 0.00 0.00 0.14 0.10 0.01 0.00 0.00 0.00 0.00 0.00 0.00 0.00 0.00 0.00 0.00 0.00 0.00 0.00 0.00 0.00 0.00 0.00 0.00 0.00 0.00 0.00 0.00 0.00 0.00 0.00 0.10 0.19 0.07 0.04 0.05 0.06 0.05 0.14 0.64 0.07 0.03 0.01 0.00 0.01
0.00 0.00 0.00 0.02 0.00 0.01 0.00 0.00 0.00 0.01 0.00 0.00 0.00 0.00 0.00 0.00 0.00 0.00 0.00 0.00 0.00 0.00 0.00 0.00 0.00 0.00 0.00 0.00 0.00 0.00 0.00 0.00 0.00 0.00 0.00 0.01 0.07 0.11 0.11 0.11 0.07 0.05 0.03 0.09 0.05 0.02 0.15 0.01 0.00
0.00 0.00 0.00 0.00 0.01 0.01 0.01 0.00 0.00 0.01 0.00 0.00 0.00 0.00 0.00 0.00 0.00 0.00 0.00 0.00 0.00 0.00 0.00 0.00 0.00 0.00 0.00 0.00 0.00 0.00 0.00 0.00 0.00 0.00 0.00 0.00 0.01 0.04 0.05 0.04 0.03 0.06 0.05 0.01 0.04 0.04 0.07 0.00 0.00
0.00 0.00 0.00 0.00 0.00 0.00 0.01 0.00 0.00 0.02 0.01 0.00 0.00 0.00 0.00 0.00 0.00 0.00 0.00 0.00 0.00 0.00 0.00 0.00 0.00 0.00 0.00 0.00 0.00 0.00 0.00 0.00 0.00 0.00 0.00 0.00 0.00 0.00 0.06 0.06 0.05 0.08 0.07 0.05 0.05 0.01 0.01 0.00 0.00
0.00 0.00 0.00 0.00 0.00 0.00 0.00 0.00 0.00 0.04 0.02 0.01 0.01 0.01 0.00 0.00 0.00 0.00 0.00 0.00 0.00 0.00 0.00 0.00 0.00 0.00 0.00 0.00 0.00 0.00 0.00 0.00 0.00 0.00 0.00 0.00 0.00 0.00 0.02 0.06 0.06 0.04 0.11 0.05 0.02 0.02 0.01 0.00 0.00
0.00 0.00 0.00 0.00 0.00 0.00 0.00 0.00 0.00 0.01 0.02 0.15 0.10 0.05 0.00 0.00 0.00 0.00 0.00 0.00 0.00 0.00 0.00 0.00 0.00 0.00 0.00 0.00 0.00 0.00 0.00 0.00 0.00 0.00 0.00 0.00 0.00 0.00 0.01 0.08 0.12 0.06 0.03 0.07 0.04 0.01 0.00 0.00 0.00
0.00 0.00 0.00 0.00 0.00 0.00 0.00 0.00 0.00 0.00 0.18 0.47 0.22 0.10 0.04 0.00 0.00 0.00 0.00 0.00 0.00 0.00 0.00 0.00 0.00 0.00 0.00 0.00 0.00 0.00 0.00 0.00 0.00 0.00 0.00 0.00 0.00 0.00 0.03 0.07 0.13 0.07 0.04 0.04 0.01 0.00 0.00 0.00 0.00
0.00 0.00 0.00 0.00 0.00 0.00 0.00 0.00 0.00 0.00 0.06 0.22 0.14 0.08 0.03 0.00 0.00 0.00 0.00 0.00 0.00 0.00 0.00 0.00 0.00 0.00 0.00 0.00 0.00 0.00 0.00 0.00 0.00 0.00 0.00 0.00 0.00 0.01 0.03 0.05 0.04 0.05 0.04 0.06 0.00 0.01 0.02 0.00 0.00
0.00 0.00 0.00 0.00 0.00 0.00 0.00 0.01 0.02 0.01 0.03 0.01 0.07 0.05 0.09 0.00 0.00 0.00 0.00 0.00 0.00 0.00 0.00 0.00 0.00 0.00 0.00 0.00 0.00 0.00 0.00 0.00 0.00 0.00 0.00 0.00 0.00 0.00 0.05 0.03 0.03 0.07 0.06 0.06 0.04 0.00 0.01 0.00 0.00
0.00 0.00 0.00 0.00 0.00 0.00 0.00 0.00 0.01 0.01 0.00 0.00 0.00 0.00 0.07 0.01 0.01 0.00 0.00 0.00 0.00 0.00 0.00 0.00 0.00 0.00 0.00 0.00 0.00 0.00 0.00 0.00 0.00 0.00 0.00 0.00 0.00 0.00 0.01 0.01 0.02 0.02 0.04 0.03 0.04 0.00 0.01 0.00 0.00
0.00 0.00 0.00 0.00 0.00 0.00 0.00 0.00 0.00 0.00 0.00 0.00 0.00 0.00 0.10 0.15 0.01 0.01 0.00 0.00 0.00 0.00 0.00 0.00 0.00 0.00 0.00 0.00 0.00 0.00 0.00 0.00 0.00 0.00 0.00 0.00 0.00 0.00 0.00 0.00 0.00 0.01 0.01 0.04 0.03 0.01 0.00 0.00 0.00
0.00 0.00 0.00 0.00 0.00 0.00 0.00 0.00 0.00 0.00 0.00 0.00 0.00 0.00 0.00 0.00 0.00 0.01 0.00 0.00 0.00 0.00 0.00 0.00 0.00 0.00 0.00 0.00 0.00 0.00 0.00 0.00 0.00 0.00 0.00 0.00 0.00 0.00 0.00 0.00 0.00 0.01 0.01 0.03 0.04 0.01 0.00 0.00 0.00
0.00 0.00 0.00 0.00 0.00 0.00 0.00 0.00 0.00 0.00 0.00 0.00 0.00 0.00 0.00 0.00 0.00 0.01 0.00 0.00 0.00 0.00 0.00 0.00 0.00 0.00 0.00 0.00 0.00 0.00 0.00 0.00 0.00 0.00 0.00 0.00 0.00 0.00 0.00 0.00 0.02 0.00 0.00 0.01 0.01 0.01 0.00 0.00 0.00
0.00 0.00 0.00 0.00 0.00 0.00 0.00 0.00 0.00 0.00 0.00 0.00 0.00 0.00 0.00 0.00 0.00 0.00 0.00 0.00 0.00 0.00 0.00 0.00 0.00 0.00 0.00 0.00 0.00 0.00 0.00 0.00 0.00 0.00 0.00 0.00 0.00 0.00 0.00 0.00 0.00 0.00 0.00 0.00 0.00 0.00 0.00 0.00 0.00
0.00 0.00 0.00 0.00 0.00 0.00 0.00 0.00 0.00 0.00 0.00 0.00 0.00 0.00 0.00 0.00 0.00 0.00 0.00 0.00 0.00 0.00 0.00 0.00 0.00 0.00 0.00 0.00 0.00 0.00 0.00 0.00 0.00 0.00 0.00 0.00 0.00 0.00 0.00 0.00 0.00 0.00 0.00 0.00 0.00 0.00 0.00 0.00 0.00
0.00 0.00 0.00 0.00 0.00 0.00 0.00 0.00 0.00 0.00 0.00 0.00 0.00 0.00 0.00 0.00 0.00 0.00 0.00 0.00 0.00 0.00 0.00 0.00 0.00 0.00 0.00 0.00 0.00 0.00 0.00 0.00 0.00 0.00 0.00 0.00 0.00 0.00 0.00 0.00 0.00 0.00 0.00 0.00 0.00 0.00 0.00 0.00 0.00
0.00 0.00 0.00 0.00 0.00 0.00 0.00 0.00 0.00 0.00 0.00 0.00 0.00 0.00 0.00 0.00 0.00 0.00 0.00 0.00 0.00 0.00 0.00 0.00 0.00 0.00 0.00 0.00 0.00 0.00 0.00 0.00 0.00 0.00 0.00 0.00 0.00 0.00 0.00 0.00 0.00 0.00 0.00 0.00 0.00 0.00 0.00 0.00 0.00
0.00 0.00 0.00 0.00 0.00 0.00 0.00 0.00 0.00 0.00 0.00 0.00 0.00 0.00 0.00 0.00 0.00 0.00 0.00 0.00 0.00 0.00 0.00 0.00 0.00 0.00 0.00 0.00 0.00 0.00 0.00 0.00 0.00 0.00 0.00 0.00 0.00 0.00 0.00 0.00 0.00 0.00 0.00 0.00 0.00 0.00 0.00 0.00 0.00

GFSSGP_prec_precacc12_042.txt.gz
Total_Precipitation_Accumulation
0.00 0.00 0.01 0.16 0.76 0.21 0.09 0.12 0.13 0.09 0.15 0.10 0.06 0.04 0.07 0.06 0.05 0.01 0.00 0.00 0.00 0.00 0.05 0.03 0.07 0.02 0.04 0.04 0.03 0.01 0.01 0.01 0.01 0.01 0.01 0.02 0.05 0.05 0.01 0.01 0.00 0.00 0.01 0.01 0.01 0.02 0.00 0.00 0.01
0.00 0.04 0.16 0.74 0.56 0.57 0.49 0.36 0.26 0.09 0.12 0.17 0.08 0.03 0.01 0.01 0.02 0.01 0.00 0.00 0.00 0.00 0.03 0.01 0.02 0.03 0.04 0.05 0.02 0.01 0.01 0.01 0.01 0.01 0.01 0.02 0.12 0.07 0.02 0.01 0.01 0.02 0.07 0.12 0.17 0.12 0.01 0.01 0.04
0.00 0.30 0.73 0.94 0.44 0.60 0.34 0.41 0.23 0.13 0.12 0.08 0.10 0.02 0.02 0.00 0.00 0.00 0.00 0.00 0.00 0.00 0.01 0.00 0.01 0.02 0.04 0.04 0.01 0.01 0.01 0.00 0.01 0.01 0.03 0.06 0.07 0.03 0.00 0.00 0.00 0.00 0.01 0.01 0.02 0.01 0.00 0.05 0.13
0.01 0.30 0.52 0.31 0.36 0.18 0.07 0.17 0.24 0.19 0.32 0.26 0.12 0.04 0.02 0.00 0.00 0.00 0.00 0.00 0.00 0.01 0.00 0.00 0.00 0.01 0.03 0.01 0.01 0.01 0.01 0.01 0.02 0.03 0.03 0.07 0.03 0.00 0.00 0.00 0.00 0.00 0.00 0.00 0.00 0.00 0.00 0.01 0.08
0.04 0.39 0.31 0.42 0.46 0.35 0.10 0.22 0.25 0.43 0.42 0.22 0.07 0.02 0.01 0.00 0.00 0.00 0.00 0.00 0.00 0.00 0.00 0.00 0.03 0.03 0.02 0.01 0.00 0.01 0.01 0.03 0.02 0.01 0.03 0.02 0.00 0.00 0.00 0.00 0.00 0.00 0.00 0.00 0.00 0.00 0.00 0.02 0.13
0.23 0.11 0.04 0.08 0.11 0.17 0.17 0.22 0.31 0.37 0.47 0.20 0.03 0.00 0.01 0.00 0.00 0.00 0.00 0.00 0.00 0.00 0.00 0.01 0.02 0.01 0.02 0.01 0.01 0.01 0.00 0.01 0.03 0.05 0.03 0.01 0.00 0.00 0.00 0.00 0.00 0.00 0.00 0.00 0.00 0.01 0.01 0.00 0.07
0.13 0.02 0.20 0.07 0.29 0.17 0.21 0.23 0.25 0.48 0.32 0.12 0.01 0.00 0.01 0.01 0.00 0.00 0.00 0.00 0.00 0.00 0.00 0.01 0.01 0.01 0.01 0.02 0.02 0.01 0.01 0.02 0.01 0.01 0.01 0.00 0.00 0.00 0.00 0.01 0.00 0.00 0.00 0.00 0.00 0.00 0.00 0.02 0.02
0.11 0.22 1.31 0.38 0.13 0.98 0.54 0.35 0.35 0.33 0.18 0.04 0.00 0.00 0.01 0.00 0.00 0.00 0.00 0.00 0.00 0.00 0.00 0.00 0.00 0.00 0.00 0.00 0.01 0.00 0.01 0.00 0.00 0.00 0.01 0.01 0.01 0.03 0.02 0.02 0.01 0.00 0.00 0.00 0.02 0.03 0.02 0.03 0.07
0.20 1.07 1.47 0.36 0.25 0.94 0.49 0.32 0.22 0.28 0.08 0.02 0.01 0.00 0.00 0.00 0.00 0.00 0.00 0.00 0.00 0.00 0.00 0.00 0.00 0.00 0.00 0.00 0.00 0.00 0.00 0.00 0.00 0.01 0.04 0.08 0.05 0.04 0.04 0.02 0.01 0.00 0.00 0.00 0.01 0.01 0.03 0.02 0.03
0.20 0.49 0.31 0.03 0.02 0.10 0.33 0.45 0.42 0.20 0.04 0.02 0.00 0.00 0.00 0.00 0.00 0.00 0.00 0.00 0.00 0.00 0.00 0.00 0.00 0.00 0.00 0.00 0.00 0.00 0.00 0.00 0.00 0.01 0.00 0.09 0.04 0.02 0.03 0.02 0.05 0.02 0.01 0.01 0.00 0.01 0.02 0.01 0.00
0.09 0.11 0.01 0.00 0.00 0.03 0.05 0.06 0.22 0.10 0.01 0.00 0.00 0.00 0.00 0.00 0.00 0.00 0.00 0.00 0.00 0.00 0.00 0.00 0.00 0.00 0.00 0.00 0.00 0.00 0.00 0.00 0.00 0.02 0.06 0.18 0.04 0.04 0.07 0.01 0.04 0.01 0.00 0.00 0.01 0.02 0.00 0.00 0.00
0.01 0.01 0.02 0.00 0.00 0.00 0.01 0.03 0.07 0.03 0.00 0.00 0.00 0.00 0.00 0.00 0.00 0.00 0.00 0.00 0.00 0.00 0.00 0.00 0.00 0.00 0.00 0.00 0.00 0.00 0.00 0.00 0.00 0.01 0.04 0.07 0.03 0.06 0.02 0.03 0.01 0.00 0.02 0.02 0.02 0.01 0.02 0.01 0.00
0.00 0.00 0.00 0.00 0.00 0.00 0.00 0.11 0.03 0.01 0.00 0.00 0.00 0.00 0.00 0.00 0.00 0.00 0.00 0.00 0.00 0.00 0.00 0.00 0.00 0.00 0.00 0.00 0.00 0.00 0.00 0.00 0.00 0.00 0.00 0.04 0.07 0.06 0.04 0.04 0.07 0.02 0.01 0.03 0.04 0.03 0.01 0.00 0.00
0.00 0.00 0.00 0.01 0.00 0.01 0.00 0.00 0.00 0.00 0.00 0.00 0.00 0.00 0.00 0.00 0.00 0.00 0.00 0.00 0.00 0.00 0.00 0.00 0.00 0.00 0.00 0.00 0.00 0.00 0.00 0.00 0.00 0.00 0.00 0.01 0.05 0.14 0.17 0.13 0.07 0.04 0.04 0.02 0.02 0.01 0.00 0.00 0.00
0.00 0.00 0.00 0.00 0.01 0.01 0.01 0.00 0.00 0.00 0.00 0.00 0.00 0.00 0.00 0.00 0.00 0.00 0.00 0.00 0.00 0.00 0.00 0.00 0.00 0.00 0.00 0.00 0.00 0.00 0.00 0.00 0.00 0.00 0.00 0.00 0.00 0.07 0.08 0.08 0.05 0.05 0.04 0.00 0.03 0.02 0.00 0.00 0.00
0.00 0.00 0.00 0.00 0.00 0.00 0.01 0.00 0.00 0.02 0.01 0.00 0.00 0.00 0.00 0.00 0.00 0.00 0.00 0.00 0.00 0.00 0.00 0.00 0.00 0.00 0.00 0.00 0.00 0.00 0.00 0.00 0.00 0.00 0.00 0.00 0.00 0.02 0.09 0.10 0.06 0.04 0.07 0.05 0.05 0.02 0.00 0.00 0.00
0.00 0.00 0.00 0.00 0.00 0.00 0.00 0.00 0.00 0.03 0.02 0.01 0.01 0.01 0.00 0.00 0.00 0.00 0.00 0.00 0.00 0.00 0.00 0.00 0.00 0.00 0.00 0.00 0.00 0.00 0.00 0.00 0.00 0.00 0.00 0.00 0.00 0.00 0.04 0.14 0.13 0.02 0.04 0.04 0.02 0.04 0.01 0.00 0.00
0.00 0.00 0.00 0.00 0.00 0.00 0.00 0.00 0.00 0.01 0.01 0.15 0.10 0.05 0.00 0.00 0.00 0.00 0.00 0.00 0.00 0.00 0.00 0.00 0.00 0.00 0.00 0.00 0.00 0.00 0.00 0.00 0.00 0.00 0.00 0.00 0.00 0.00 0.01 0.16 0.19 0.09 0.05 0.07 0.05 0.02 0.00 0.00 0.00
0.00 0.00 0.00 0.00 0.00 0.00 0.00 0.00 0.00 0.00 0.04 0.43 0.22 0.10 0.04 0.00 0.00 0.00 0.00 0.00 0.00 0.00 0.00 0.00 0.00 0.00 0.00 0.00 0.00 0.00 0.00 0.00 0.00 0.00 0.00 0.00 0.00 0.00 0.00 0.03 0.13 0.07 0.05 0.03 0.02 0.00 0.00 0.00 0.00
0.00 0.00 0.00 0.00 0.00 0.00 0.00 0.00 0.00 0.00 0.02 0.21 0.14 0.07 0.03 0.00 0.00 0.00 0.00 0.00 0.00 0.00 0.00 0.00 0.00 0.00 0.00 0.00 0.00 0.00 0.00 0.00 0.00 0.00 0.00 0.00 0.00 0.00 0.00 0.01 0.04 0.05 0.03 0.04 0.00 0.00 0.00 0.00 0.00
0.00 0.00 0.00 0.00 0.00 0.00 0.00 0.01 0.02 0.01 0.03 0.01 0.07 0.05 0.09 0.00 0.00 0.00 0.00 0.00 0.00 0.00 0.00 0.00 0.00 0.00 0.00 0.00 0.00 0.00 0.00 0.00 0.00 0.00 0.00 0.00 0.00 0.00 0.00 0.00 0.03 0.02 0.03 0.00 0.01 0.00 0.00 0.00 0.00
0.00 0.00 0.00 0.00 0.00 0.00 0.00 0.00 0.01 0.01 0.00 0.00 0.00 0.00 0.05 0.01 0.01 0.00 0.00 0.00 0.00 0.00 0.00 0.00 0.00 0.00 0.00 0.00 0.00 0.00 0.00 0.00 0.00 0.00 0.00 0.00 0.00 0.00 0.00 0.00 0.01 0.00 0.03 0.01 0.00 0.00 0.00 0.00 0.00
0.00 0.00 0.00 0.00 0.00 0.00 0.00 0.00 0.00 0.00 0.00 0.00 0.00 0.00 0.09 0.15 0.01 0.01 0.00 0.00 0.00 0.00 0.00 0.00 0.00 0.00 0.00 0.00 0.00 0.00 0.00 0.00 0.00 0.00 0.00 0.00 0.00 0.00 0.00 0.00 0.00 0.00 0.01 0.04 0.00 0.00 0.00 0.00 0.00
0.00 0.00 0.00 0.00 0.00 0.00 0.00 0.00 0.00 0.00 0.00 0.00 0.00 0.00 0.00 0.00 0.00 0.01 0.00 0.00 0.00 0.00 0.00 0.00 0.00 0.00 0.00 0.00 0.00 0.00 0.00 0.00 0.00 0.00 0.00 0.00 0.00 0.00 0.00 0.00 0.00 0.00 0.00 0.00 0.00 0.00 0.00 0.00 0.00
0.00 0.00 0.00 0.00 0.00 0.00 0.00 0.00 0.00 0.00 0.00 0.00 0.00 0.00 0.00 0.00 0.00 0.01 0.00 0.00 0.00 0.00 0.00 0.00 0.00 0.00 0.00 0.00 0.00 0.00 0.00 0.00 0.00 0.00 0.00 0.00 0.00 0.00 0.00 0.00 0.00 0.00 0.00 0.00 0.00 0.00 0.00 0.00 0.00
0.00 0.00 0.00 0.00 0.00 0.00 0.00 0.00 0.00 0.00 0.00 0.00 0.00 0.00 0.00 0.00 0.00 0.00 0.00 0.00 0.00 0.00 0.00 0.00 0.00 0.00 0.00 0.00 0.00 0.00 0.00 0.00 0.00 0.00 0.00 0.00 0.00 0.00 0.00 0.00 0.00 0.00 0.00 0.00 0.00 0.00 0.00 0.00 0.00
0.00 0.00 0.00 0.00 0.00 0.00 0.00 0.00 0.00 0.00 0.00 0.00 0.00 0.00 0.00 0.00 0.00 0.00 0.00 0.00 0.00 0.00 0.00 0.00 0.00 0.00 0.00 0.00 0.00 0.00 0.00 0.00 0.00 0.00 0.00 0.00 0.00 0.00 0.00 0.00 0.00 0.00 0.00 0.00 0.00 0.00 0.00 0.00 0.00
0.00 0.00 0.00 0.00 0.00 0.00 0.00 0.00 0.00 0.00 0.00 0.00 0.00 0.00 0.00 0.00 0.00 0.00 0.00 0.00 0.00 0.00 0.00 0.00 0.00 0.00 0.00 0.00 0.00 0.00 0.00 0.00 0.00 0.00 0.00 0.00 0.00 0.00 0.00 0.00 0.00 0.00 0.00 0.00 0.00 0.00 0.00 0.00 0.00
0.00 0.00 0.00 0.00 0.00 0.00 0.00 0.00 0.00 0.00 0.00 0.00 0.00 0.00 0.00 0.00 0.00 0.00 0.00 0.00 0.00 0.00 0.00 0.00 0.00 0.00 0.00 0.00 0.00 0.00 0.00 0.00 0.00 0.00 0.00 0.00 0.00 0.00 0.00 0.00 0.00 0.00 0.00 0.00 0.00 0.00 0.00 0.00 0.00
0.00 0.00 0.00 0.00 0.00 0.00 0.00 0.00 0.00 0.00 0.00 0.00 0.00 0.00 0.00 0.00 0.00 0.00 0.00 0.00 0.00 0.00 0.00 0.00 0.00 0.00 0.00 0.00 0.00 0.00 0.00 0.00 0.00 0.00 0.00 0.00 0.00 0.00 0.00 0.00 0.00 0.00 0.00 0.00 0.00 0.00 0.00 0.00 0.00

GFSSGP_prec_precacc12_045.txt.gz
Total_Precipitation_Accumulation
0.01 0.00 0.00 0.12 0.66 0.11 0.01 0.09 0.13 0.07 0.13 0.08 0.06 0.02 0.02 0.00 0.00 0.00 0.00 0.00 0.00 0.00 0.05 0.04 0.09 0.04 0.01 0.02 0.02 0.01 0.00 0.01 0.02 0.05 0.05 0.03 0.05 0.07 0.06 0.02 0.01 0.02 0.04 0.05 0.02 0.02 0.00 0.01 0.02
0.00 0.01 0.10 0.71 0.76 0.23 0.05 0.31 0.23 0.10 0.14 0.18 0.08 0.03 0.01 0.00 0.00 0.01 0.00 0.00 0.00 0.00 0.03 0.01 0.05 0.03 0.02 0.04 0.01 0.01 0.01 0.06 0.09 0.06 0.03 0.03 0.15 0.08 0.04 0.04 0.05 0.06 0.07 0.13 0.17 0.12 0.01 0.01 0.06
0.00 0.21 0.79 1.17 0.53 0.15 0.25 0.37 0.21 0.16 0.19 0.11 0.10 0.02 0.02 0.00 0.00 0.00 0.00 0.00 0.00 0.00 0.02 0.00 0.02 0.02 0.02 0.01 0.01 0.02 0.01 0.01 0.02 0.03 0.07 0.08 0.12 0.10 0.07 0.08 0.02 0.01 0.01 0.02 0.02 0.01 0.00 0.05 0.19
0.01 0.25 0.53 0.50 0.29 0.14 0.06 0.18 0.23 0.23 0.40 0.38 0.18 0.05 0.03 0.00 0.00 0.00 0.00 0.00 0.00 0.01 0.00 0.01 0.02 0.01 0.01 0.01 0.03 0.01 0.01 0.02 0.05 0.05 0.04 0.08 0.08 0.03 0.01 0.00 0.00 0.00 0.01 0.00 0.00 0.00 0.00 0.01 0.10
0.04 0.37 0.36 0.30 0.21 0.12 0.06 0.22 0.23 0.41 0.52 0.40 0.17 0.04 0.03 0.00 0.00 0.00 0.00 0.00 0.00 0.00 0.00 0.01 0.05 0.01 0.01 0.01 0.01 0.01 0.02 0.05 0.05 0.02 0.03 0.02 0.01 0.00 0.00 0.00 0.00 0.00 0.00 0.00 0.00 0.00 0.01 0.07 0.17
0.19 0.10 0.03 0.02 0.04 0.08 0.13 0.21 0.31 0.41 0.61 0.27 0.08 0.01 0.01 0.01 0.00 0.00 0.00 0.00 0.00 0.00 0.00 0.02 0.02 0.01 0.03 0.01 0.02 0.01 0.02 0.02 0.03 0.05 0.03 0.02 0.01 0.00 0.00 0.00 0.00 0.00 0.00 0.00 0.02 0.05 0.05 0.02 0.16
0.10 0.00 0.01 0.01 0.15 0.10 0.20 0.23 0.33 0.56 0.34 0.12 0.02 0.00 0.02 0.02 0.00 0.00 0.00 0.00 0.00 0.00 0.00 0.01 0.01 0.03 0.03 0.04 0.03 0.01 0.02 0.02 0.02 0.01 0.01 0.00 0.00 0.00 0.00 0.01 0.00 0.00 0.00 0.00 0.01 0.02 0.03 0.06 0.08
0.08 0.00 0.03 0.01 0.11 0.85 0.46 0.34 0.46 0.37 0.18 0.04 0.00 0.00 0.01 0.01 0.00 0.00 0.00 0.00 0.00 0.00 0.00 0.00 0.00 0.01 0.01 0.03 0.03 0.02 0.02 0.03 0.01 0.00 0.00 0.00 0.00 0.04 0.03 0.02 0.02 0.00 0.00 0.00 0.02 0.03 0.03 0.05 0.08
0.16 0.21 0.24 0.02 0.24 0.91 0.41 0.29 0.22 0.32 0.09 0.00 0.00 0.00 0.00 0.00 0.00 0.00 0.00 0.01 0.01 0.01 0.00 0.00 0.00 0.00 0.00 0.01 0.02 0.06 0.03 0.00 0.00 0.00 0.00 0.00 0.00 0.02 0.02 0.05 0.02 0.00 0.01 0.03 0.04 0.01 0.03 0.02 0.03
0.11 0.31 0.18 0.01 0.01 0.05 0.30 0.42 0.43 0.23 0.04 0.00 0.00 0.00 0.00 0.00 0.00 0.00 0.00 0.01 0.01 0.00 0.01 0.00 0.00 0.00 0.00 0.00 0.00 0.01 0.00 0.00 0.00 0.00 0.00 0.00 0.00 0.00 0.01 0.06 0.08 0.03 0.05 0.06 0.05 0.04 0.02 0.01 0.00
0.06 0.08 0.00 0.00 0.00 0.01 0.04 0.05 0.18 0.11 0.01 0.00 0.00 0.00 0.00 0.00 0.00 0.00 0.00 0.00 0.00 0.00 0.00 0.00 0.00 0.00 0.00 0.00 0.00 0.00 0.00 0.00 0.00 0.00 0.00 0.00 0.00 0.00 0.00 0.00 0.04 0.01 0.00 0.00 0.00 0.02 0.00 0.00 0.00
0.01 0.00 0.00 0.00 0.00 0.00 0.00 0.00 0.02 0.03 0.00 0.00 0.00 0.00 0.00 0.00 0.00 0.00 0.00 0.00 0.00 0.00 0.00 0.00 0.00 0.00 0.00 0.00 0.00 0.00 0.00 0.00 0.00 0.00 0.00 0.00 0.00 0.00 0.00 0.00 0.01 0.00 0.00 0.01 0.02 0.01 0.01 0.00 0.00
0.00 0.00 0.00 0.00 0.00 0.00 0.00 0.00 0.01 0.01 0.00 0.00 0.00 0.00 0.00 0.00 0.00 0.00 0.00 0.00 0.00 0.00 0.00 0.00 0.00 0.00 0.00 0.00 0.00 0.00 0.00 0.00 0.00 0.00 0.00 0.00 0.01 0.01 0.01 0.01 0.01 0.01 0.01 0.04 0.03 0.00 0.00 0.00 0.00
0.00 0.00 0.00 0.00 0.00 0.00 0.00 0.00 0.00 0.00 0.00 0.00 0.00 0.00 0.00 0.00 0.00 0.00 0.00 0.00 0.00 0.00 0.00 0.00 0.00 0.00 0.00 0.00 0.00 0.00 0.00 0.00 0.00 0.00 0.00 0.00 0.02 0.10 0.14 0.11 0.04 0.03 0.03 0.03 0.01 0.01 0.00 0.00 0.00
0.00 0.00 0.00 0.00 0.00 0.01 0.01 0.00 0.00 0.00 0.00 0.00 0.00 0.00 0.00 0.00 0.00 0.00 0.00 0.00 0.00 0.00 0.00 0.00 0.00 0.00 0.00 0.00 0.00 0.00 0.00 0.00 0.00 0.00 0.00 0.00 0.01 0.07 0.06 0.10 0.12 0.06 0.03 0.00 0.03 0.00 0.00 0.00 0.00
0.00 0.00 0.00 0.00 0.00 0.00 0.01 0.00 0.00 0.02 0.01 0.00 0.00 0.00 0.00 0.00 0.00 0.00 0.00 0.00 0.00 0.00 0.00 0.00 0.00 0.00 0.00 0.00 0.00 0.00 0.00 0.00 0.00 0.00 0.00 0.00 0.00 0.03 0.06 0.05 0.03 0.02 0.05 0.04 0.05 0.01 0.00 0.00 0.00
0.00 0.00 0.00 0.00 0.00 0.00 0.00 0.00 0.00 0.03 0.02 0.00 0.00 0.01 0.00 0.00 0.00 0.00 0.00 0.00 0.00 0.00 0.00 0.00 0.00 0.00 0.00 0.00 0.00 0.00 0.00 0.00 0.00 0.00 0.00 0.00 0.00 0.01 0.04 0.10 0.08 0.02 0.03 0.04 0.02 0.04 0.01 0.00 0.00
0.00 0.00 0.00 0.00 0.00 0.00 0.00 0.00 0.00 0.00 0.00 0.00 0.01 0.03 0.00 0.00 0.00 0.00 0.00 0.00 0.00 0.00 0.00 0.00 0.00 0.00 0.00 0.00 0.00 0.00 0.00 0.00 0.00 0.00 0.00 0.00 0.00 0.00 0.02 0.11 0.13 0.07 0.07 0.06 0.06 0.02 0.00 0.00 0.00
0.00 0.00 0.00 0.00 0.00 0.00 0.00 0.00 0.00 0.00 0.00 0.00 0.00 0.01 0.02 0.00 0.00 0.00 0.00 0.00 0.00 0.00 0.00 0.00 0.00 0.00 0.00 0.00 0.00 0.00 0.00 0.00 0.00 0.00 0.00 0.00 0.00 0.00 0.00 0.03 0.10 0.07 0.06 0.03 0.04 0.00 0.00 0.00 0.00
0.00 0.00 0.00 0.00 0.00 0.00 0.00 0.00 0.00 0.00 0.00 0.00 0.00 0.00 0.00 0.00 0.00 0.00 0.00 0.00 0.00 0.00 0.00 0.00 0.00 0.00 0.00 0.00 0.00 0.00 0.00 0.00 0.00 0.00 0.00 0.00 0.00 0.00 0.00 0.00 0.05 0.08 0.03 0.07 0.01 0.00 0.00 0.00 0.00
0.00 0.00 0.00 0.00 0.00 0.00 0.00 0.01 0.02 0.01 0.03 0.00 0.00 0.00 0.00 0.00 0.00 0.00 0.00 0.00 0.00 0.00 0.00 0.00 0.00 0.00 0.00 0.00 0.00 0.00 0.00 0.00 0.00 0.00 0.00 0.00 0.00 0.00 0.00 0.01 0.01 0.02 0.08 0.08 0.04 0.00 0.00 0.00 0.00
0.00 0.00 0.00 0.00 0.00 0.00 0.00 0.00 0.01 0.01 0.00 0.00 0.00 0.00 0.00 0.00 0.00 0.00 0.00 0.00 0.00 0.00 0.00 0.00 0.00 0.00 0.00 0.00 0.00 0.00 0.00 0.00 0.00 0.00 0.00 0.00 0.00 0.00 0.00 0.00 0.03 0.08 0.05 0.08 0.01 0.00 0.00 0.00 0.00
0.00 0.00 0.00 0.00 0.00 0.00 0.00 0.00 0.00 0.00 0.00 0.00 0.00 0.00 0.00 0.00 0.00 0.00 0.00 0.00 0.00 0.00 0.00 0.00 0.00 0.00 0.00 0.00 0.00 0.00 0.00 0.00 0.00 0.00 0.00 0.00 0.00 0.00 0.00 0.00 0.03 0.06 0.05 0.09 0.02 0.02 0.00 0.00 0.00
0.00 0.00 0.00 0.00 0.00 0.00 0.00 0.00 0.00 0.00 0.00 0.00 0.00 0.00 0.00 0.00 0.00 0.00 0.00 0.00 0.00 0.00 0.00 0.00 0.00 0.00 0.00 0.00 0.00 0.00 0.00 0.00 0.00 0.00 0.00 0.00 0.00 0.00 0.00 0.00 0.00 0.01 0.00 0.00 0.00 0.03 0.01 0.00 0.00
0.00 0.00 0.00 0.00 0.00 0.00 0.00 0.00 0.00 0.00 0.00 0.00 0.00 0.00 0.00 0.00 0.00 0.00 0.00 0.00 0.00 0.00 0.00 0.00 0.00 0.00 0.00 0.00 0.00 0.00 0.00 0.00 0.00 0.00 0.00 0.00 0.00 0.00 0.00 0.00 0.00 0.00 0.00 0.00 0.00 0.00 0.01 0.00 0.00
0.00 0.00 0.00 0.00 0.00 0.00 0.00 0.00 0.00 0.00 0.00 0.00 0.00 0.00 0.00 0.00 0.00 0.00 0.00 0.00 0.00 0.00 0.00 0.00 0.00 0.00 0.00 0.00 0.00 0.00 0.00 0.00 0.00 0.00 0.00 0.00 0.00 0.00 0.00 0.00 0.00 0.00 0.00 0.00 0.00 0.00 0.00 0.00 0.00
0.00 0.00 0.00 0.00 0.00 0.00 0.00 0.00 0.00 0.00 0.00 0.00 0.00 0.00 0.00 0.00 0.00 0.00 0.00 0.00 0.00 0.00 0.00 0.00 0.00 0.00 0.00 0.00 0.00 0.00 0.00 0.00 0.00 0.00 0.00 0.00 0.00 0.00 0.00 0.00 0.00 0.00 0.00 0.00 0.00 0.00 0.00 0.00 0.00
0.00 0.00 0.00 0.00 0.00 0.00 0.00 0.00 0.00 0.00 0.00 0.00 0.00 0.00 0.00 0.00 0.00 0.00 0.00 0.00 0.00 0.00 0.00 0.00 0.00 0.00 0.00 0.00 0.00 0.00 0.00 0.00 0.00 0.00 0.00 0.00 0.00 0.00 0.00 0.00 0.00 0.00 0.00 0.00 0.00 0.00 0.00 0.00 0.00
0.00 0.00 0.00 0.00 0.00 0.00 0.00 0.00 0.00 0.00 0.00 0.00 0.00 0.00 0.00 0.00 0.00 0.00 0.00 0.00 0.00 0.00 0.00 0.00 0.00 0.00 0.00 0.00 0.00 0.00 0.00 0.00 0.00 0.00 0.00 0.00 0.00 0.00 0.00 0.00 0.00 0.00 0.00 0.00 0.00 0.00 0.00 0.00 0.00
0.00 0.00 0.00 0.00 0.00 0.00 0.00 0.00 0.00 0.00 0.00 0.00 0.00 0.00 0.00 0.00 0.00 0.00 0.00 0.00 0.00 0.00 0.00 0.00 0.00 0.00 0.00 0.00 0.00 0.00 0.00 0.00 0.00 0.00 0.00 0.00 0.00 0.00 0.00 0.00 0.00 0.00 0.00 0.00 0.00 0.00 0.00 0.00 0.00

GFSSGP_prec_precacc12_048.txt.gz
Total_Precipitation_Accumulation
0.01 0.00 0.00 0.12 0.54 0.11 0.02 0.12 0.19 0.11 0.10 0.04 0.04 0.00 0.00 0.00 0.01 0.04 0.00 0.00 0.00 0.00 0.05 0.03 0.09 0.04 0.02 0.03 0.02 0.02 0.01 0.01 0.02 0.05 0.06 0.05 0.06 0.07 0.08 0.02 0.03 0.04 0.06 0.05 0.02 0.02 0.01 0.04 0.03
0.00 0.00 0.09 0.66 0.78 0.10 0.06 0.21 0.24 0.09 0.12 0.16 0.07 0.03 0.01 0.00 0.00 0.01 0.00 0.00 0.00 0.00 0.03 0.01 0.05 0.04 0.03 0.04 0.02 0.04 0.02 0.06 0.11 0.11 0.08 0.04 0.15 0.11 0.12 0.05 0.05 0.07 0.10 0.13 0.17 0.12 0.04 0.03 0.09
0.00 0.13 0.72 1.19 0.41 0.04 0.22 0.20 0.22 0.16 0.21 0.12 0.09 0.02 0.02 0.00 0.00 0.00 0.00 0.00 0.00 0.00 0.02 0.01 0.03 0.03 0.03 0.02 0.01 0.03 0.01 0.03 0.06 0.08 0.08 0.09 0.14 0.11 0.09 0.08 0.02 0.01 0.03 0.03 0.02 0.01 0.01 0.07 0.22
0.00 0.21 0.58 0.59 0.26 0.13 0.06 0.15 0.20 0.25 0.40 0.38 0.19 0.05 0.03 0.00 0.00 0.00 0.00 0.00 0.00 0.01 0.00 0.01 0.02 0.02 0.01 0.06 0.03 0.02 0.03 0.04 0.06 0.06 0.04 0.13 0.10 0.09 0.02 0.01 0.00 0.00 0.01 0.00 0.00 0.00 0.00 0.01 0.10
0.03 0.38 0.42 0.22 0.18 0.16 0.04 0.20 0.23 0.47 0.48 0.42 0.20 0.06 0.05 0.01 0.00 0.00 0.00 0.00 0.00 0.00 0.00 0.01 0.07 0.03 0.03 0.04 0.01 0.03 0.03 0.07 0.06 0.03 0.06 0.08 0.05 0.03 0.01 0.00 0.01 0.00 0.00 0.00 0.01 0.00 0.02 0.07 0.15
0.14 0.08 0.06 0.02 0.03 0.04 0.09 0.14 0.23 0.36 0.58 0.26 0.10 0.04 0.03 0.02 0.01 0.00 0.00 0.00 0.00 0.00 0.00 0.01 0.04 0.02 0.06 0.02 0.04 0.02 0.03 0.02 0.03 0.07 0.06 0.04 0.02 0.02 0.00 0.00 0.00 0.00 0.00 0.00 0.02 0.08 0.07 0.04 0.18
0.09 0.03 0.01 0.00 0.00 0.06 0.12 0.07 0.43 0.67 0.29 0.13 0.04 0.01 0.03 0.04 0.01 0.00 0.00 0.00 0.00 0.00 0.00 0.01 0.01 0.04 0.05 0.05 0.04 0.02 0.02 0.02 0.04 0.05 0.04 0.01 0.01 0.00 0.00 0.00 0.00 0.00 0.00 0.00 0.02 0.03 0.03 0.06 0.09
0.05 0.00 0.00 0.00 0.02 0.12 0.06 0.17 0.46 0.46 0.12 0.04 0.01 0.00 0.02 0.02 0.01 0.00 0.00 0.00 0.00 0.00 0.01 0.00 0.01 0.01 0.02 0.04 0.04 0.02 0.03 0.05 0.06 0.01 0.00 0.01 0.00 0.04 0.03 0.02 0.02 0.00 0.00 0.00 0.02 0.03 0.03 0.05 0.12
0.01 0.00 0.02 0.00 0.13 0.15 0.13 0.15 0.11 0.27 0.09 0.00 0.00 0.00 0.00 0.00 0.00 0.01 0.01 0.01 0.01 0.01 0.00 0.00 0.02 0.01 0.08 0.02 0.04 0.07 0.05 0.02 0.01 0.00 0.00 0.01 0.00 0.02 0.02 0.06 0.02 0.01 0.02 0.05 0.05 0.01 0.03 0.01 0.03
0.03 0.01 0.00 0.00 0.01 0.04 0.15 0.29 0.20 0.17 0.02 0.00 0.00 0.00 0.00 0.01 0.01 0.01 0.00 0.00 0.01 0.00 0.01 0.00 0.00 0.00 0.06 0.02 0.03 0.05 0.02 0.00 0.00 0.00 0.00 0.00 0.00 0.00 0.01 0.06 0.10 0.05 0.05 0.06 0.07 0.05 0.02 0.02 0.00
0.03 0.04 0.00 0.00 0.00 0.01 0.05 0.04 0.10 0.05 0.01 0.00 0.00 0.00 0.00 0.00 0.00 0.00 0.00 0.00 0.00 0.00 0.00 0.00 0.00 0.00 0.01 0.02 0.01 0.01 0.00 0.00 0.00 0.00 0.00 0.00 0.00 0.00 0.00 0.00 0.05 0.01 0.00 0.00 0.00 0.02 0.00 0.00 0.00
0.01 0.00 0.00 0.00 0.00 0.00 0.00 0.00 0.01 0.03 0.01 0.00 0.00 0.00 0.00 0.00 0.00 0.00 0.00 0.00 0.00 0.00 0.00 0.00 0.00 0.00 0.00 0.00 0.00 0.00 0.00 0.00 0.00 0.00 0.00 0.00 0.00 0.00 0.00 0.00 0.00 0.00 0.00 0.01 0.01 0.01 0.01 0.00 0.00
0.00 0.00 0.00 0.00 0.00 0.00 0.00 0.00 0.01 0.01 0.00 0.00 0.00 0.00 0.00 0.00 0.00 0.00 0.00 0.00 0.00 0.00 0.00 0.00 0.00 0.00 0.00 0.00 0.00 0.00 0.00 0.00 0.00 0.00 0.00 0.00 0.01 0.01 0.02 0.03 0.01 0.00 0.01 0.04 0.03 0.00 0.00 0.00 0.00
0.00 0.00 0.00 0.00 0.00 0.00 0.00 0.00 0.00 0.00 0.00 0.00 0.00 0.00 0.00 0.00 0.00 0.00 0.00 0.00 0.00 0.00 0.00 0.00 0.00 0.00 0.00 0.00 0.00 0.00 0.00 0.00 0.00 0.00 0.00 0.00 0.03 0.16 0.19 0.15 0.08 0.04 0.03 0.03 0.01 0.00 0.00 0.00 0.00
0.00 0.00 0.00 0.00 0.00 0.00 0.00 0.00 0.00 0.00 0.00 0.00 0.00 0.00 0.00 0.00 0.00 0.00 0.00 0.00 0.00 0.00 0.00 0.00 0.00 0.00 0.00 0.00 0.00 0.00 0.00 0.00 0.00 0.00 0.00 0.00 0.02 0.14 0.14 0.16 0.18 0.06 0.00 0.00 0.01 0.00 0.00 0.00 0.00
0.00 0.00 0.00 0.00 0.00 0.00 0.00 0.00 0.00 0.00 0.00 0.00 0.00 0.00 0.00 0.00 0.00 0.00 0.00 0.00 0.00 0.00 0.00 0.00 0.00 0.00 0.00 0.00 0.00 0.00 0.00 0.00 0.00 0.00 0.00 0.00 0.00 0.09 0.12 0.10 0.08 0.03 0.01 0.01 0.01 0.01 0.00 0.00 0.00
0.00 0.00 0.00 0.00 0.00 0.00 0.00 0.00 0.00 0.00 0.00 0.00 0.00 0.00 0.00 0.00 0.00 0.00 0.00 0.00 0.00 0.00 0.00 0.00 0.00 0.00 0.00 0.00 0.00 0.00 0.00 0.00 0.00 0.00 0.00 0.00 0.00 0.01 0.04 0.10 0.14 0.08 0.07 0.05 0.02 0.02 0.00 0.00 0.00
0.00 0.00 0.00 0.00 0.00 0.01 0.00 0.00 0.00 0.00 0.00 0.00 0.00 0.00 0.00 0.00 0.00 0.00 0.00 0.00 0.00 0.00 0.00 0.00 0.00 0.00 0.00 0.00 0.00 0.00 0.00 0.00 0.00 0.00 0.00 0.00 0.00 0.00 0.02 0.14 0.23 0.14 0.11 0.13 0.06 0.01 0.00 0.00 0.00
0.00 0.00 0.00 0.00 0.00 0.01 0.00 0.00 0.00 0.00 0.00 0.00 0.00 0.00 0.00 0.00 0.00 0.00 0.00 0.00 0.00 0.00 0.00 0.00 0.00 0.00 0.00 0.00 0.00 0.00 0.00 0.00 0.00 0.00 0.00 0.00 0.00 0.00 0.01 0.06 0.13 0.11 0.08 0.05 0.04 0.00 0.00 0.00 0.00
0.00 0.00 0.00 0.00 0.00 0.00 0.00 0.00 0.00 0.00 0.00 0.00 0.00 0.00 0.00 0.00 0.00 0.00 0.00 0.00 0.00 0.00 0.00 0.00 0.00 0.00 0.00 0.00 0.00 0.00 0.00 0.00 0.00 0.00 0.00 0.00 0.00 0.00 0.01 0.05 0.08 0.11 0.11 0.10 0.09 0.03 0.00 0.00 0.00
0.00 0.00 0.00 0.00 0.00 0.00 0.00 0.01 0.02 0.01 0.03 0.00 0.00 0.00 0.00 0.00 0.00 0.00 0.00 0.00 0.00 0.00 0.00 0.00 0.00 0.00 0.00 0.00 0.00 0.00 0.00 0.00 0.00 0.00 0.00 0.00 0.00 0.00 0.00 0.05 0.06 0.11 0.15 0.10 0.05 0.01 0.00 0.00 0.00
0.00 0.00 0.00 0.00 0.00 0.00 0.00 0.00 0.01 0.01 0.00 0.00 0.00 0.00 0.00 0.00 0.00 0.00 0.00 0.00 0.00 0.00 0.00 0.00 0.00 0.00 0.00 0.00 0.00 0.00 0.00 0.00 0.00 0.00 0.00 0.00 0.00 0.00 0.00 0.07 0.12 0.14 0.14 0.12 0.05 0.00 0.00 0.00 0.00
0.00 0.00 0.00 0.00 0.00 0.00 0.00 0.00 0.00 0.00 0.00 0.00 0.00 0.00 0.00 0.00 0.00 0.00 0.00 0.00 0.00 0.00 0.00 0.00 0.00 0.00 0.00 0.00 0.00 0.00 0.00 0.00 0.00 0.00 0.00 0.00 0.00 0.00 0.00 0.05 0.09 0.08 0.09 0.11 0.08 0.07 0.00 0.00 0.00
0.00 0.00 0.00 0.00 0.00 0.00 0.00 0.00 0.00 0.00 0.00 0.00 0.00 0.00 0.00 0.00 0.00 0.00 0.00 0.00 0.00 0.00 0.00 0.00 0.00 0.00 0.00 0.00 0.00 0.00 0.00 0.00 0.00 0.00 0.00 0.00 0.00 0.00 0.00 0.00 0.01 0.04 0.03 0.02 0.05 0.11 0.03 0.00 0.00
0.00 0.00 0.00 0.00 0.00 0.00 0.00 0.00 0.00 0.00 0.00 0.00 0.00 0.00 0.00 0.00 0.00 0.00 0.00 0.00 0.00 0.00 0.00 0.00 0.00 0.00 0.00 0.00 0.00 0.00 0.00 0.00 0.00 0.00 0.00 0.00 0.00 0.00 0.00 0.00 0.00 0.00 0.01 0.00 0.02 0.06 0.06 0.02 0.00
0.00 0.00 0.00 0.00 0.00 0.00 0.00 0.00 0.00 0.00 0.00 0.00 0.00 0.00 0.00 0.00 0.00 0.00 0.00 0.00 0.00 0.00 0.00 0.00 0.00 0.00 0.00 0.00 0.00 0.00 0.00 0.00 0.00 0.00 0.00 0.00 0.00 0.00 0.00 0.00 0.00 0.00 0.00 0.00 0.00 0.01 0.01 0.01 0.00
0.00 0.00 0.00 0.00 0.00 0.00 0.00 0.00 0.00 0.00 0.00 0.00 0.00 0.00 0.00 0.00 0.00 0.00 0.00 0.00 0.00 0.00 0.00 0.00 0.00 0.00 0.00 0.00 0.00 0.00 0.00 0.00 0.00 0.00 0.00 0.00 0.00 0.00 0.00 0.00 0.00 0.00 0.00 0.00 0.00 0.00 0.00 0.00 0.00
0.00 0.00 0.00 0.00 0.00 0.00 0.00 0.00 0.00 0.00 0.00 0.00 0.00 0.00 0.00 0.00 0.00 0.00 0.00 0.00 0.00 0.00 0.00 0.00 0.00 0.00 0.00 0.00 0.00 0.00 0.00 0.00 0.00 0.00 0.00 0.00 0.00 0.00 0.00 0.00 0.00 0.00 0.00 0.00 0.00 0.00 0.00 0.00 0.00
0.00 0.00 0.00 0.00 0.00 0.00 0.00 0.00 0.00 0.00 0.00 0.00 0.00 0.00 0.00 0.00 0.00 0.00 0.00 0.00 0.00 0.00 0.00 0.00 0.00 0.00 0.00 0.00 0.00 0.00 0.00 0.00 0.00 0.00 0.00 0.00 0.00 0.00 0.00 0.00 0.00 0.00 0.00 0.00 0.00 0.00 0.00 0.00 0.00
0.00 0.00 0.00 0.00 0.00 0.00 0.00 0.00 0.00 0.00 0.00 0.00 0.00 0.00 0.00 0.00 0.00 0.00 0.00 0.00 0.00 0.00 0.00 0.00 0.00 0.00 0.00 0.00 0.00 0.00 0.00 0.00 0.00 0.00 0.00 0.00 0.00 0.00 0.00 0.00 0.00 0.00 0.00 0.00 0.00 0.00 0.00 0.00 0.00

GFSSGP_prec_precacc12_051.txt.gz
Total_Precipitation_Accumulation
0.01 0.00 0.00 0.11 0.31 0.11 0.06 0.13 0.20 0.13 0.08 0.02 0.01 0.00 0.00 0.01 0.05 0.11 0.00 0.00 0.00 0.00 0.04 0.03 0.10 0.05 0.03 0.03 0.02 0.02 0.02 0.02 0.02 0.05 0.08 0.08 0.05 0.07 0.08 0.02 0.03 0.05 0.07 0.05 0.01 0.02 0.07 0.05 0.04
0.00 0.00 0.06 0.56 0.76 0.12 0.16 0.17 0.29 0.09 0.07 0.12 0.04 0.01 0.02 0.00 0.00 0.00 0.00 0.00 0.00 0.00 0.03 0.01 0.06 0.05 0.04 0.04 0.02 0.04 0.02 0.06 0.12 0.14 0.09 0.05 0.13 0.11 0.14 0.07 0.07 0.10 0.11 0.08 0.05 0.03 0.08 0.08 0.11
0.00 0.04 0.49 1.16 0.40 0.07 0.22 0.23 0.21 0.16 0.20 0.11 0.06 0.03 0.04 0.01 0.00 0.00 0.00 0.00 0.00 0.00 0.02 0.01 0.03 0.03 0.03 0.03 0.03 0.04 0.01 0.04 0.09 0.13 0.10 0.05 0.13 0.11 0.10 0.09 0.02 0.03 0.04 0.03 0.01 0.00 0.02 0.10 0.21
0.00 0.15 0.48 0.60 0.26 0.07 0.06 0.15 0.16 0.24 0.29 0.31 0.17 0.06 0.04 0.01 0.00 0.00 0.00 0.00 0.00 0.01 0.00 0.01 0.02 0.02 0.01 0.07 0.04 0.02 0.03 0.05 0.07 0.06 0.05 0.13 0.13 0.14 0.04 0.02 0.03 0.01 0.01 0.00 0.01 0.01 0.03 0.00 0.04
0.03 0.44 0.44 0.25 0.28 0.15 0.01 0.13 0.22 0.52 0.37 0.34 0.21 0.07 0.06 0.02 0.00 0.00 0.00 0.00 0.00 0.00 0.00 0.00 0.07 0.03 0.03 0.04 0.01 0.03 0.05 0.08 0.06 0.04 0.06 0.08 0.07 0.07 0.02 0.01 0.01 0.00 0.00 0.00 0.05 0.04 0.04 0.07 0.13
0.16 0.18 0.17 0.11 0.07 0.05 0.07 0.06 0.22 0.55 0.64 0.19 0.10 0.08 0.09 0.03 0.01 0.00 0.00 0.00 0.00 0.00 0.00 0.01 0.04 0.04 0.07 0.02 0.03 0.02 0.03 0.03 0.08 0.09 0.06 0.06 0.04 0.04 0.01 0.00 0.00 0.00 0.00 0.00 0.02 0.13 0.08 0.03 0.18
0.11 0.16 0.07 0.03 0.01 0.09 0.13 0.05 0.39 0.66 0.21 0.04 0.11 0.04 0.06 0.04 0.01 0.00 0.00 0.00 0.00 0.00 0.00 0.01 0.01 0.06 0.08 0.06 0.05 0.04 0.04 0.06 0.07 0.06 0.08 0.04 0.02 0.00 0.00 0.00 0.00 0.00 0.00 0.00 0.02 0.04 0.04 0.07 0.10
0.03 0.02 0.03 0.01 0.03 0.23 0.09 0.08 0.35 0.41 0.11 0.03 0.02 0.02 0.03 0.02 0.01 0.00 0.00 0.00 0.00 0.00 0.01 0.00 0.01 0.01 0.03 0.05 0.06 0.03 0.04 0.06 0.09 0.03 0.02 0.01 0.01 0.04 0.03 0.02 0.02 0.00 0.00 0.00 0.02 0.03 0.02 0.05 0.10
0.01 0.04 0.07 0.02 0.03 0.09 0.07 0.04 0.05 0.13 0.05 0.00 0.00 0.00 0.00 0.00 0.00 0.01 0.01 0.01 0.01 0.01 0.00 0.00 0.02 0.01 0.10 0.02 0.06 0.07 0.07 0.07 0.02 0.00 0.01 0.01 0.01 0.02 0.03 0.06 0.02 0.01 0.02 0.05 0.05 0.00 0.00 0.01 0.02
0.02 0.02 0.02 0.02 0.00 0.04 0.03 0.04 0.06 0.07 0.01 0.00 0.00 0.00 0.00 0.01 0.01 0.01 0.00 0.00 0.01 0.00 0.01 0.00 0.00 0.00 0.07 0.02 0.06 0.08 0.02 0.00 0.00 0.00 0.00 0.00 0.00 0.00 0.01 0.06 0.10 0.05 0.05 0.06 0.07 0.05 0.07 0.22 0.05
0.01 0.01 0.00 0.00 0.00 0.00 0.02 0.02 0.02 0.05 0.02 0.00 0.00 0.00 0.00 0.00 0.00 0.00 0.00 0.00 0.00 0.00 0.00 0.00 0.00 0.00 0.01 0.02 0.01 0.01 0.00 0.00 0.00 0.00 0.00 0.00 0.00 0.00 0.00 0.00 0.05 0.01 0.02 0.00 0.00 0.02 0.07 0.28 0.15
0.01 0.00 0.00 0.01 0.01 0.02 0.10 0.12 0.02 0.01 0.15 0.00 0.00 0.00 0.00 0.00 0.00 0.00 0.00 0.00 0.00 0.00 0.00 0.00 0.00 0.00 0.00 0.00 0.00 0.00 0.00 0.00 0.00 0.00 0.00 0.00 0.00 0.00 0.00 0.00 0.00 0.00 0.00 0.00 0.01 0.00 0.00 0.00 0.00
0.00 0.00 0.01 0.01 0.00 0.01 0.01 0.05 0.03 0.00 0.02 0.00 0.00 0.00 0.00 0.00 0.00 0.00 0.00 0.00 0.00 0.00 0.00 0.00 0.00 0.00 0.00 0.00 0.00 0.00 0.00 0.00 0.00 0.00 0.00 0.00 0.01 0.01 0.02 0.02 0.02 0.00 0.01 0.03 0.01 0.00 0.00 0.00 0.00
0.00 0.00 0.00 0.00 0.01 0.02 0.00 0.02 0.00 0.00 0.00 0.00 0.00 0.00 0.00 0.00 0.00 0.00 0.00 0.00 0.00 0.00 0.00 0.00 0.00 0.00 0.00 0.00 0.00 0.00 0.00 0.00 0.00 0.00 0.00 0.00 0.06 0.13 0.16 0.14 0.08 0.04 0.05 0.03 0.01 0.00 0.00 0.00 0.00
0.00 0.00 0.00 0.00 0.01 0.03 0.00 0.03 0.00 0.01 0.00 0.00 0.00 0.00 0.00 0.00 0.00 0.00 0.00 0.00 0.00 0.00 0.00 0.00 0.00 0.00 0.00 0.00 0.00 0.00 0.00 0.00 0.00 0.00 0.00 0.00 0.07 0.14 0.14 0.16 0.18 0.07 0.00 0.00 0.00 0.00 0.00 0.00 0.00
0.00 0.00 0.00 0.00 0.00 0.00 0.00 0.01 0.00 0.00 0.00 0.00 0.00 0.00 0.00 0.00 0.00 0.00 0.00 0.00 0.00 0.00 0.00 0.00 0.00 0.00 0.00 0.00 0.00 0.00 0.00 0.00 0.00 0.00 0.00 0.00 0.07 0.13 0.12 0.10 0.08 0.03 0.01 0.00 0.00 0.01 0.00 0.00 0.00
0.00 0.00 0.00 0.00 0.00 0.00 0.00 0.10 0.13 0.00 0.00 0.00 0.00 0.00 0.00 0.00 0.00 0.00 0.00 0.00 0.00 0.00 0.00 0.00 0.00 0.00 0.00 0.00 0.00 0.00 0.00 0.00 0.00 0.00 0.00 0.00 0.00 0.02 0.15 0.14 0.16 0.08 0.05 0.03 0.00 0.02 0.00 0.00 0.00
0.00 0.00 0.00 0.00 0.00 0.01 0.00 0.04 0.16 0.00 0.00 0.00 0.00 0.00 0.00 0.00 0.00 0.00 0.00 0.00 0.00 0.00 0.00 0.00 0.00 0.00 0.00 0.00 0.00 0.00 0.00 0.00 0.00 0.00 0.00 0.00 0.00 0.00 0.07 0.16 0.23 0.14 0.11 0.12 0.08 0.00 0.00 0.00 0.00
0.00 0.00 0.00 0.00 0.00 0.01 0.01 0.01 0.14 0.00 0.00 0.00 0.00 0.00 0.00 0.00 0.00 0.00 0.00 0.00 0.00 0.00 0.00 0.00 0.00 0.00 0.00 0.00 0.00 0.00 0.00 0.00 0.00 0.00 0.00 0.00 0.00 0.00 0.04 0.09 0.13 0.11 0.08 0.05 0.04 0.00 0.00 0.00 0.00
0.00 0.00 0.00 0.00 0.00 0.00 0.01 0.01 0.01 0.00 0.00 0.00 0.00 0.00 0.00 0.00 0.00 0.00 0.00 0.00 0.00 0.00 0.00 0.00 0.00 0.00 0.00 0.00 0.00 0.00 0.00 0.00 0.00 0.00 0.00 0.00 0.00 0.00 0.01 0.05 0.08 0.15 0.12 0.10 0.09 0.03 0.00 0.00 0.00
0.00 0.00 0.00 0.00 0.00 0.00 0.01 0.01 0.00 0.01 0.00 0.00 0.00 0.00 0.00 0.00 0.00 0.00 0.00 0.00 0.00 0.00 0.00 0.00 0.00 0.00 0.00 0.00 0.00 0.00 0.00 0.00 0.00 0.00 0.00 0.00 0.00 0.00 0.00 0.05 0.07 0.11 0.15 0.10 0.05 0.01 0.00 0.00 0.00
0.00 0.00 0.00 0.00 0.00 0.00 0.00 0.00 0.00 0.01 0.01 0.00 0.00 0.00 0.00 0.00 0.00 0.00 0.00 0.00 0.00 0.00 0.00 0.00 0.00 0.00 0.00 0.00 0.00 0.00 0.00 0.00 0.00 0.00 0.00 0.00 0.00 0.00 0.00 0.07 0.12 0.14 0.15 0.12 0.05 0.01 0.00 0.00 0.00
0.00 0.00 0.00 0.00 0.00 0.00 0.00 0.00 0.00 0.00 0.01 0.00 0.00 0.00 0.00 0.00 0.00 0.00 0.00 0.00 0.00 0.00 0.00 0.00 0.00 0.00 0.00 0.00 0.00 0.00 0.00 0.00 0.00 0.00 0.00 0.00 0.00 0.00 0.00 0.05 0.09 0.08 0.09 0.10 0.10 0.08 0.00 0.00 0.00
0.00 0.00 0.00 0.00 0.00 0.00 0.00 0.00 0.00 0.00 0.00 0.00 0.00 0.00 0.00 0.00 0.00 0.00 0.00 0.00 0.00 0.00 0.00 0.00 0.00 0.00 0.00 0.00 0.00 0.00 0.00 0.00 0.00 0.00 0.00 0.00 0.00 0.00 0.00 0.00 0.01 0.04 0.03 0.04 0.07 0.11 0.03 0.00 0.00
0.00 0.00 0.00 0.00 0.00 0.00 0.00 0.00 0.00 0.00 0.00 0.00 0.00 0.00 0.00 0.00 0.00 0.00 0.00 0.00 0.00 0.00 0.00 0.00 0.00 0.00 0.00 0.00 0.00 0.00 0.00 0.00 0.00 0.00 0.00 0.00 0.00 0.00 0.00 0.00 0.01 0.00 0.01 0.00 0.04 0.08 0.06 0.02 0.00
0.00 0.00 0.00 0.00 0.00 0.00 0.00 0.00 0.00 0.00 0.00 0.01 0.01 0.00 0.00 0.00 0.00 0.00 0.00 0.00 0.00 0.00 0.00 0.00 0.00 0.00 0.00 0.00 0.00 0.00 0.00 0.00 0.00 0.00 0.00 0.00 0.00 0.00 0.00 0.00 0.00 0.00 0.00 0.00 0.00 0.02 0.01 0.01 0.00
0.00 0.00 0.00 0.00 0.00 0.00 0.00 0.00 0.00 0.00 0.00 0.00 0.00 0.00 0.00 0.00 0.00 0.00 0.00 0.00 0.00 0.00 0.00 0.00 0.00 0.00 0.00 0.00 0.00 0.00 0.00 0.00 0.00 0.00 0.00 0.00 0.00 0.00 0.00 0.00 0.00 0.00 0.00 0.00 0.00 0.01 0.01 0.01 0.00
0.00 0.00 0.00 0.00 0.00 0.00 0.00 0.00 0.00 0.00 0.00 0.00 0.00 0.00 0.00 0.00 0.00 0.00 0.00 0.00 0.00 0.00 0.00 0.00 0.00 0.00 0.00 0.00 0.00 0.00 0.00 0.00 0.00 0.00 0.00 0.00 0.00 0.00 0.00 0.00 0.00 0.00 0.00 0.00 0.00 0.00 0.00 0.00 0.00
0.00 0.00 0.00 0.00 0.00 0.00 0.00 0.00 0.00 0.00 0.00 0.00 0.00 0.00 0.00 0.00 0.00 0.00 0.00 0.00 0.00 0.00 0.00 0.00 0.00 0.00 0.00 0.00 0.00 0.00 0.00 0.00 0.00 0.00 0.00 0.00 0.00 0.00 0.00 0.00 0.00 0.00 0.00 0.00 0.00 0.00 0.00 0.00 0.00
0.00 0.00 0.00 0.00 0.00 0.00 0.00 0.00 0.00 0.00 0.00 0.00 0.00 0.00 0.00 0.00 0.00 0.00 0.00 0.00 0.00 0.00 0.00 0.00 0.00 0.00 0.00 0.00 0.00 0.00 0.00 0.00 0.00 0.00 0.00 0.00 0.00 0.00 0.00 0.00 0.00 0.00 0.00 0.00 0.00 0.00 0.00 0.00 0.00

GFSSGP_prec_precacc12_057.txt.gz
Total_Precipitation_Accumulation
0.00 0.00 0.00 0.03 0.10 0.06 0.20 0.24 0.38 0.16 0.02 0.03 0.01 0.00 0.00 0.02 0.09 0.23 0.00 0.00 0.00 0.00 0.00 0.01 0.15 0.12 0.11 0.05 0.02 0.02 0.01 0.00 0.00 0.00 0.04 0.05 0.01 0.01 0.06 0.01 0.06 0.06 0.04 0.01 0.01 0.02 0.07 0.04 0.02
0.00 0.00 0.01 0.18 0.19 0.09 0.32 0.33 0.37 0.16 0.05 0.01 0.00 0.00 0.01 0.01 0.01 0.00 0.00 0.00 0.00 0.00 0.00 0.00 0.06 0.09 0.06 0.01 0.02 0.04 0.01 0.01 0.03 0.09 0.08 0.05 0.01 0.05 0.14 0.05 0.05 0.07 0.05 0.02 0.02 0.02 0.07 0.07 0.07
0.00 0.02 0.15 0.25 0.07 0.15 0.47 0.67 0.82 0.13 0.04 0.00 0.01 0.05 0.03 0.02 0.00 0.00 0.00 0.00 0.00 0.00 0.00 0.00 0.02 0.03 0.01 0.02 0.04 0.03 0.01 0.04 0.08 0.12 0.05 0.01 0.02 0.02 0.04 0.01 0.02 0.03 0.03 0.01 0.00 0.00 0.02 0.05 0.04
0.00 0.12 0.38 0.25 0.28 0.17 0.14 0.44 0.28 0.42 0.07 0.04 0.02 0.02 0.01 0.02 0.00 0.00 0.00 0.00 0.00 0.00 0.00 0.00 0.01 0.01 0.02 0.09 0.03 0.02 0.03 0.04 0.03 0.05 0.01 0.05 0.06 0.16 0.03 0.02 0.04 0.01 0.01 0.01 0.01 0.01 0.03 0.00 0.00
0.01 0.43 0.40 0.34 0.55 0.44 0.20 0.29 0.19 0.49 0.20 0.24 0.06 0.04 0.05 0.02 0.01 0.00 0.00 0.00 0.00 0.00 0.00 0.00 0.04 0.03 0.03 0.04 0.02 0.03 0.04 0.03 0.03 0.05 0.06 0.12 0.07 0.07 0.02 0.02 0.01 0.00 0.00 0.02 0.05 0.04 0.02 0.01 0.03
0.14 0.28 0.42 0.94 0.30 0.20 0.35 0.60 0.16 0.47 0.45 0.14 0.11 0.09 0.08 0.03 0.01 0.00 0.00 0.00 0.00 0.00 0.00 0.00 0.03 0.03 0.05 0.02 0.04 0.03 0.01 0.03 0.07 0.06 0.06 0.07 0.04 0.05 0.01 0.01 0.00 0.00 0.00 0.00 0.00 0.08 0.04 0.01 0.03
0.11 0.37 0.28 0.45 0.14 0.33 0.38 0.38 0.26 0.55 0.26 0.14 0.28 0.06 0.03 0.03 0.01 0.00 0.00 0.00 0.00 0.00 0.00 0.00 0.01 0.03 0.05 0.04 0.05 0.03 0.04 0.04 0.07 0.06 0.08 0.04 0.02 0.00 0.00 0.00 0.00 0.00 0.00 0.00 0.01 0.03 0.00 0.01 0.02
0.01 0.07 0.06 0.11 0.07 0.54 0.20 0.18 0.16 0.26 0.18 0.13 0.07 0.05 0.02 0.01 0.00 0.00 0.00 0.00 0.00 0.00 0.00 0.00 0.00 0.01 0.02 0.03 0.10 0.02 0.03 0.03 0.08 0.03 0.02 0.03 0.01 0.00 0.00 0.03 0.01 0.00 0.00 0.00 0.00 0.00 0.00 0.02 0.05
0.00 0.04 0.11 0.10 0.08 0.56 0.37 0.10 0.01 0.05 0.03 0.01 0.03 0.06 0.00 0.00 0.00 0.00 0.00 0.00 0.00 0.00 0.00 0.00 0.02 0.01 0.10 0.02 0.07 0.02 0.03 0.06 0.02 0.01 0.05 0.10 0.01 0.00 0.01 0.02 0.00 0.01 0.01 0.01 0.01 0.00 0.00 0.02 0.01
0.00 0.02 0.03 0.03 0.04 0.29 1.25 0.23 0.00 0.00 0.00 0.02 0.03 0.04 0.01 0.01 0.00 0.00 0.00 0.00 0.00 0.00 0.00 0.00 0.00 0.00 0.07 0.02 0.06 0.07 0.02 0.02 0.02 0.04 0.05 0.07 0.04 0.02 0.00 0.00 0.03 0.02 0.02 0.03 0.07 0.04 0.24 0.47 0.16
0.00 0.00 0.00 0.02 0.03 0.10 0.65 0.38 0.01 0.12 0.06 0.04 0.04 0.03 0.00 0.00 0.00 0.00 0.00 0.00 0.00 0.00 0.00 0.00 0.00 0.00 0.01 0.02 0.01 0.03 0.01 0.00 0.01 0.04 0.11 0.05 0.02 0.01 0.00 0.01 0.02 0.06 0.06 0.12 0.33 0.07 0.27 0.88 0.36
0.00 0.00 0.00 0.01 0.03 0.11 0.46 1.03 0.17 0.57 1.17 0.19 0.05 0.01 0.00 0.00 0.00 0.00 0.00 0.00 0.00 0.00 0.00 0.00 0.00 0.01 0.15 0.01 0.00 0.09 0.05 0.01 0.00 0.01 0.03 0.04 0.02 0.00 0.01 0.05 0.07 0.15 0.05 0.06 0.22 0.03 0.03 0.16 0.20
0.00 0.00 0.01 0.01 0.02 0.10 0.09 0.33 0.31 0.49 0.46 0.13 0.05 0.00 0.00 0.00 0.00 0.00 0.00 0.00 0.00 0.00 0.00 0.00 0.00 0.05 0.16 0.03 0.03 0.06 0.03 0.05 0.00 0.00 0.04 0.14 0.02 0.01 0.03 0.08 0.04 0.09 0.06 0.04 0.02 0.02 0.02 0.01 0.00
0.00 0.00 0.00 0.00 0.02 0.04 0.05 0.16 0.02 0.09 0.05 0.03 0.04 0.00 0.00 0.00 0.00 0.00 0.00 0.00 0.00 0.00 0.00 0.00 0.00 0.02 0.05 0.03 0.02 0.01 0.01 0.01 0.00 0.00 0.04 0.21 0.10 0.11 0.13 0.12 0.07 0.07 0.07 0.01 0.01 0.01 0.04 0.01 0.00
0.00 0.00 0.00 0.00 0.01 0.06 0.04 0.13 0.08 0.11 0.10 0.04 0.01 0.00 0.00 0.00 0.00 0.00 0.00 0.00 0.00 0.00 0.00 0.00 0.00 0.00 0.01 0.02 0.03 0.01 0.00 0.00 0.00 0.00 0.00 0.02 0.17 0.18 0.16 0.10 0.10 0.11 0.02 0.01 0.00 0.00 0.00 0.00 0.00
0.00 0.00 0.00 0.00 0.00 0.00 0.01 0.08 0.04 0.45 1.23 0.06 0.00 0.00 0.00 0.00 0.00 0.00 0.00 0.00 0.00 0.00 0.00 0.00 0.00 0.00 0.00 0.00 0.01 0.03 0.00 0.00 0.00 0.00 0.01 0.01 0.08 0.12 0.15 0.10 0.10 0.04 0.00 0.00 0.00 0.00 0.00 0.00 0.00
0.00 0.00 0.00 0.00 0.00 0.00 0.02 0.16 0.25 0.26 0.52 0.08 0.00 0.00 0.00 0.00 0.00 0.00 0.00 0.00 0.00 0.00 0.00 0.00 0.00 0.00 0.00 0.00 0.00 0.01 0.00 0.00 0.01 0.00 0.00 0.00 0.00 0.05 0.35 0.22 0.15 0.08 0.09 0.04 0.00 0.00 0.00 0.00 0.00
0.00 0.00 0.00 0.00 0.00 0.00 0.02 0.08 0.43 0.29 0.63 0.18 0.00 0.00 0.00 0.00 0.00 0.00 0.00 0.00 0.00 0.00 0.00 0.00 0.00 0.00 0.00 0.00 0.00 0.00 0.00 0.00 0.00 0.01 0.00 0.00 0.01 0.07 0.26 0.18 0.16 0.12 0.07 0.16 0.08 0.00 0.00 0.00 0.00
0.00 0.00 0.00 0.00 0.00 0.00 0.01 0.05 0.45 0.28 0.21 0.38 0.08 0.02 0.00 0.00 0.00 0.00 0.00 0.00 0.00 0.00 0.00 0.00 0.00 0.00 0.00 0.00 0.00 0.00 0.00 0.00 0.01 0.00 0.00 0.00 0.01 0.01 0.16 0.19 0.11 0.08 0.04 0.06 0.02 0.00 0.00 0.00 0.00
0.00 0.00 0.00 0.00 0.00 0.00 0.01 0.03 0.09 0.07 0.05 0.29 0.39 0.02 0.00 0.00 0.00 0.00 0.00 0.00 0.00 0.00 0.00 0.00 0.00 0.01 0.00 0.00 0.00 0.00 0.00 0.00 0.00 0.02 0.04 0.00 0.00 0.00 0.04 0.09 0.08 0.10 0.09 0.07 0.08 0.04 0.01 0.00 0.00
0.00 0.00 0.00 0.00 0.00 0.00 0.01 0.02 0.05 0.08 0.11 0.28 0.22 0.08 0.03 0.00 0.00 0.00 0.00 0.00 0.00 0.00 0.00 0.00 0.00 0.00 0.00 0.00 0.00 0.00 0.00 0.00 0.00 0.02 0.01 0.00 0.00 0.00 0.02 0.05 0.10 0.13 0.10 0.03 0.02 0.01 0.00 0.00 0.00
0.00 0.00 0.00 0.00 0.00 0.00 0.00 0.00 0.00 0.04 0.31 1.07 0.83 0.15 0.04 0.02 0.00 0.00 0.00 0.00 0.00 0.00 0.00 0.00 0.00 0.00 0.00 0.00 0.00 0.00 0.00 0.00 0.00 0.00 0.00 0.01 0.00 0.00 0.00 0.07 0.11 0.08 0.13 0.07 0.05 0.01 0.00 0.00 0.00
0.00 0.00 0.00 0.00 0.00 0.00 0.00 0.00 0.00 0.00 0.07 0.63 0.91 0.23 0.02 0.01 0.00 0.00 0.00 0.00 0.00 0.00 0.00 0.00 0.00 0.00 0.00 0.00 0.00 0.00 0.00 0.00 0.00 0.00 0.00 0.02 0.01 0.00 0.00 0.05 0.08 0.04 0.07 0.06 0.09 0.06 0.00 0.01 0.00
0.00 0.00 0.00 0.00 0.00 0.00 0.00 0.00 0.00 0.00 0.00 0.07 0.27 0.22 0.11 0.00 0.00 0.00 0.00 0.00 0.00 0.00 0.00 0.00 0.00 0.00 0.00 0.00 0.00 0.00 0.00 0.00 0.00 0.00 0.00 0.00 0.00 0.00 0.01 0.01 0.02 0.06 0.07 0.09 0.10 0.08 0.02 0.01 0.01
0.00 0.00 0.00 0.00 0.00 0.00 0.00 0.00 0.00 0.00 0.00 0.01 0.07 0.21 0.10 0.05 0.00 0.00 0.00 0.00 0.00 0.00 0.00 0.00 0.00 0.00 0.00 0.00 0.00 0.00 0.00 0.00 0.00 0.00 0.00 0.00 0.00 0.00 0.00 0.01 0.04 0.02 0.03 0.06 0.07 0.10 0.08 0.01 0.00
0.00 0.00 0.00 0.00 0.00 0.00 0.00 0.00 0.00 0.00 0.00 0.01 0.04 0.04 0.07 0.06 0.04 0.01 0.00 0.00 0.00 0.00 0.00 0.00 0.00 0.00 0.00 0.00 0.00 0.00 0.00 0.00 0.00 0.00 0.00 0.00 0.00 0.00 0.00 0.00 0.00 0.01 0.02 0.02 0.04 0.04 0.02 0.02 0.00
0.00 0.00 0.00 0.00 0.00 0.00 0.00 0.00 0.00 0.00 0.00 0.00 0.05 0.08 0.12 0.17 0.13 0.05 0.01 0.00 0.00 0.00 0.00 0.00 0.00 0.00 0.00 0.00 0.00 0.00 0.00 0.00 0.00 0.00 0.00 0.00 0.00 0.00 0.00 0.00 0.00 0.00 0.01 0.01 0.03 0.02 0.03 0.04 0.01
0.00 0.00 0.00 0.00 0.00 0.00 0.00 0.00 0.00 0.00 0.00 0.00 0.00 0.04 0.03 0.30 0.45 0.20 0.07 0.02 0.03 0.00 0.00 0.00 0.00 0.00 0.00 0.00 0.00 0.00 0.00 0.00 0.00 0.00 0.00 0.00 0.00 0.00 0.00 0.00 0.00 0.00 0.00 0.00 0.01 0.00 0.01 0.01 0.01
0.00 0.00 0.00 0.00 0.00 0.00 0.00 0.00 0.00 0.00 0.00 0.00 0.00 0.00 0.00 0.03 0.49 0.82 0.32 0.11 0.03 0.02 0.00 0.00 0.00 0.00 0.00 0.00 0.00 0.00 0.00 0.00 0.00 0.00 0.00 0.00 0.00 0.00 0.00 0.00 0.00 0.00 0.00 0.00 0.00 0.00 0.01 0.01 0.00
0.00 0.00 0.00 0.00 0.00 0.00 0.00 0.00 0.00 0.00 0.00 0.00 0.01 0.01 0.00 0.00 0.08 0.59 0.63 0.15 0.01 0.00 0.00 0.00 0.00 0.00 0.00 0.00 0.00 0.00 0.00 0.00 0.00 0.00 0.00 0.00 0.00 0.00 0.00 0.00 0.00 0.00 0.00 0.00 0.00 0.00 0.00 0.00 0.00

GFSSGP_prec_precacc12_060.txt.gz
Total_Precipitation_Accumulation
0.00 0.00 0.00 0.01 0.06 0.05 0.22 0.33 0.45 0.28 0.03 0.03 0.01 0.00 0.01 0.02 0.09 0.19 0.00 0.00 0.00 0.00 0.00 0.01 0.14 0.12 0.10 0.04 0.05 0.02 0.00 0.00 0.00 0.00 0.03 0.03 0.02 0.02 0.05 0.01 0.04 0.05 0.02 0.00 0.01 0.04 0.06 0.01 0.01
0.00 0.00 0.00 0.14 0.12 0.04 0.33 0.64 0.66 0.20 0.05 0.01 0.00 0.00 0.03 0.01 0.01 0.00 0.00 0.00 0.00 0.00 0.00 0.00 0.05 0.10 0.06 0.02 0.02 0.01 0.00 0.01 0.02 0.04 0.04 0.04 0.04 0.03 0.07 0.05 0.06 0.07 0.04 0.03 0.02 0.02 0.05 0.05 0.04
0.00 0.01 0.08 0.16 0.04 0.14 0.48 0.92 1.09 0.16 0.04 0.00 0.01 0.04 0.03 0.01 0.00 0.00 0.00 0.00 0.00 0.00 0.00 0.00 0.01 0.04 0.01 0.01 0.03 0.01 0.01 0.02 0.04 0.07 0.05 0.02 0.01 0.01 0.02 0.02 0.02 0.03 0.01 0.00 0.00 0.00 0.01 0.02 0.01
0.00 0.09 0.21 0.09 0.22 0.23 0.26 0.50 0.28 0.70 0.16 0.09 0.05 0.02 0.01 0.02 0.00 0.00 0.00 0.00 0.00 0.00 0.00 0.00 0.01 0.01 0.01 0.04 0.03 0.00 0.00 0.01 0.02 0.04 0.02 0.01 0.04 0.10 0.02 0.02 0.04 0.00 0.00 0.01 0.01 0.01 0.03 0.00 0.00
0.00 0.29 0.26 0.23 0.58 0.45 0.45 0.40 0.20 0.79 0.39 0.41 0.09 0.03 0.03 0.01 0.01 0.00 0.00 0.00 0.00 0.00 0.00 0.00 0.02 0.02 0.01 0.01 0.02 0.02 0.02 0.03 0.02 0.03 0.02 0.07 0.03 0.05 0.02 0.02 0.01 0.00 0.00 0.02 0.04 0.04 0.01 0.00 0.01
0.09 0.24 0.40 0.96 0.36 0.31 0.99 0.94 0.30 0.46 0.42 0.12 0.09 0.06 0.06 0.02 0.01 0.00 0.00 0.00 0.00 0.00 0.00 0.00 0.01 0.02 0.02 0.01 0.03 0.02 0.01 0.03 0.06 0.04 0.04 0.04 0.03 0.03 0.01 0.00 0.00 0.00 0.00 0.00 0.00 0.05 0.02 0.03 0.00
0.07 0.34 0.28 0.53 0.22 0.54 0.73 0.61 0.32 0.48 0.30 0.13 0.26 0.06 0.02 0.01 0.00 0.00 0.00 0.00 0.00 0.00 0.00 0.00 0.00 0.02 0.03 0.03 0.05 0.02 0.04 0.04 0.04 0.01 0.04 0.03 0.01 0.00 0.00 0.00 0.00 0.00 0.00 0.00 0.00 0.01 0.01 0.01 0.01
0.00 0.07 0.06 0.18 0.09 0.68 0.54 0.41 0.31 0.28 0.27 0.12 0.06 0.05 0.01 0.00 0.00 0.00 0.00 0.00 0.00 0.00 0.00 0.00 0.00 0.00 0.00 0.02 0.08 0.02 0.02 0.01 0.03 0.02 0.01 0.02 0.00 0.01 0.00 0.03 0.01 0.00 0.00 0.00 0.00 0.00 0.02 0.04 0.05
0.00 0.04 0.09 0.11 0.08 0.64 0.52 0.36 0.19 0.07 0.04 0.02 0.04 0.07 0.00 0.00 0.00 0.00 0.00 0.00 0.00 0.00 0.00 0.00 0.00 0.00 0.02 0.00 0.04 0.01 0.02 0.05 0.01 0.01 0.05 0.11 0.01 0.00 0.01 0.02 0.01 0.00 0.00 0.00 0.00 0.01 0.03 0.04 0.03
0.00 0.02 0.03 0.04 0.04 0.32 1.26 0.33 0.02 0.02 0.07 0.03 0.08 0.05 0.01 0.00 0.00 0.00 0.00 0.00 0.00 0.00 0.00 0.00 0.00 0.00 0.00 0.00 0.03 0.04 0.01 0.02 0.03 0.05 0.06 0.07 0.04 0.02 0.00 0.00 0.00 0.00 0.02 0.03 0.04 0.02 0.24 0.46 0.16
0.00 0.00 0.00 0.02 0.04 0.20 0.80 0.51 0.02 0.13 0.06 0.04 0.06 0.05 0.00 0.00 0.00 0.00 0.00 0.00 0.00 0.00 0.00 0.00 0.00 0.00 0.00 0.00 0.00 0.02 0.01 0.01 0.02 0.04 0.12 0.05 0.02 0.01 0.01 0.01 0.01 0.06 0.06 0.12 0.33 0.07 0.27 0.88 0.36
0.00 0.00 0.00 0.01 0.05 0.18 0.64 1.59 0.22 0.58 1.17 0.22 0.13 0.02 0.00 0.00 0.00 0.00 0.00 0.00 0.00 0.00 0.00 0.00 0.00 0.01 0.15 0.01 0.00 0.09 0.05 0.02 0.00 0.01 0.03 0.04 0.02 0.01 0.02 0.05 0.07 0.15 0.05 0.06 0.22 0.03 0.03 0.17 0.21
0.00 0.00 0.01 0.01 0.03 0.14 0.24 0.44 0.33 0.54 0.47 0.21 0.16 0.02 0.00 0.00 0.00 0.00 0.00 0.00 0.00 0.00 0.00 0.00 0.00 0.05 0.16 0.03 0.05 0.07 0.03 0.05 0.00 0.00 0.04 0.14 0.03 0.01 0.03 0.07 0.05 0.10 0.07 0.04 0.02 0.02 0.02 0.01 0.00
0.00 0.00 0.00 0.00 0.02 0.07 0.10 0.20 0.04 0.10 0.06 0.12 0.10 0.01 0.00 0.00 0.00 0.00 0.00 0.00 0.00 0.00 0.00 0.00 0.00 0.02 0.05 0.03 0.03 0.02 0.01 0.01 0.00 0.00 0.04 0.21 0.10 0.07 0.09 0.07 0.05 0.05 0.07 0.01 0.01 0.01 0.04 0.01 0.00
0.00 0.00 0.00 0.00 0.02 0.07 0.14 0.35 0.15 0.12 0.12 0.10 0.04 0.00 0.00 0.00 0.00 0.00 0.00 0.00 0.00 0.00 0.00 0.00 0.00 0.00 0.01 0.02 0.03 0.01 0.00 0.00 0.00 0.00 0.00 0.02 0.16 0.14 0.09 0.04 0.05 0.09 0.03 0.01 0.00 0.00 0.00 0.00 0.00
0.00 0.00 0.00 0.00 0.01 0.01 0.04 0.20 0.10 0.47 1.28 0.11 0.01 0.00 0.00 0.00 0.00 0.00 0.00 0.00 0.00 0.00 0.00 0.00 0.00 0.00 0.00 0.00 0.01 0.03 0.00 0.00 0.00 0.00 0.01 0.02 0.10 0.11 0.10 0.05 0.05 0.02 0.01 0.00 0.00 0.00 0.00 0.00 0.00
0.00 0.00 0.00 0.00 0.00 0.01 0.06 0.18 0.25 0.27 0.58 0.09 0.02 0.00 0.00 0.00 0.00 0.00 0.00 0.00 0.00 0.00 0.00 0.00 0.00 0.00 0.00 0.00 0.01 0.01 0.00 0.00 0.01 0.00 0.00 0.01 0.01 0.05 0.35 0.23 0.09 0.02 0.05 0.02 0.00 0.00 0.00 0.00 0.00
0.00 0.00 0.00 0.00 0.00 0.00 0.02 0.08 0.45 0.30 0.63 0.19 0.02 0.00 0.00 0.00 0.00 0.00 0.00 0.00 0.00 0.00 0.00 0.00 0.00 0.00 0.00 0.00 0.00 0.00 0.00 0.00 0.01 0.01 0.00 0.00 0.02 0.08 0.26 0.15 0.05 0.04 0.02 0.10 0.08 0.00 0.00 0.00 0.00
0.00 0.00 0.00 0.00 0.00 0.00 0.01 0.06 0.45 0.30 0.22 0.38 0.08 0.04 0.00 0.00 0.00 0.00 0.00 0.00 0.00 0.00 0.00 0.00 0.00 0.00 0.00 0.00 0.00 0.00 0.00 0.00 0.01 0.02 0.00 0.00 0.03 0.03 0.15 0.15 0.04 0.03 0.01 0.02 0.00 0.00 0.00 0.00 0.00
0.00 0.00 0.00 0.00 0.00 0.00 0.01 0.04 0.11 0.11 0.07 0.30 0.49 0.04 0.03 0.00 0.00 0.00 0.00 0.00 0.00 0.00 0.00 0.00 0.00 0.01 0.00 0.00 0.00 0.00 0.00 0.00 0.00 0.04 0.07 0.00 0.00 0.01 0.03 0.04 0.05 0.06 0.02 0.00 0.00 0.00 0.01 0.00 0.00
0.00 0.00 0.00 0.00 0.00 0.00 0.01 0.10 0.14 0.19 0.14 0.31 0.75 0.25 0.08 0.01 0.00 0.00 0.00 0.00 0.00 0.00 0.00 0.00 0.00 0.00 0.00 0.00 0.00 0.00 0.00 0.00 0.00 0.03 0.02 0.00 0.00 0.00 0.02 0.02 0.05 0.04 0.03 0.00 0.00 0.00 0.00 0.00 0.00
0.00 0.00 0.00 0.00 0.00 0.00 0.00 0.02 0.05 0.06 0.31 1.10 1.00 0.37 0.08 0.02 0.00 0.00 0.00 0.00 0.00 0.00 0.00 0.00 0.00 0.00 0.00 0.00 0.00 0.00 0.00 0.00 0.00 0.00 0.00 0.01 0.00 0.00 0.00 0.00 0.02 0.02 0.03 0.02 0.01 0.00 0.00 0.00 0.00
0.00 0.00 0.00 0.00 0.00 0.00 0.00 0.00 0.00 0.00 0.07 0.64 0.95 0.26 0.04 0.01 0.00 0.00 0.00 0.00 0.00 0.00 0.00 0.00 0.00 0.00 0.00 0.00 0.00 0.00 0.00 0.00 0.00 0.00 0.00 0.02 0.01 0.00 0.00 0.01 0.01 0.02 0.03 0.04 0.03 0.01 0.00 0.01 0.00
0.00 0.00 0.00 0.00 0.00 0.00 0.00 0.00 0.00 0.00 0.00 0.07 0.27 0.22 0.11 0.00 0.00 0.00 0.00 0.00 0.00 0.00 0.00 0.00 0.00 0.00 0.00 0.00 0.00 0.00 0.00 0.00 0.00 0.00 0.00 0.00 0.00 0.01 0.01 0.01 0.01 0.03 0.04 0.07 0.05 0.00 0.00 0.01 0.01
0.00 0.00 0.00 0.00 0.00 0.00 0.00 0.00 0.00 0.00 0.00 0.01 0.07 0.21 0.10 0.05 0.01 0.00 0.00 0.00 0.00 0.00 0.00 0.00 0.00 0.00 0.00 0.00 0.00 0.00 0.00 0.00 0.00 0.00 0.00 0.00 0.00 0.00 0.00 0.01 0.04 0.02 0.02 0.05 0.05 0.04 0.02 0.00 0.00
0.00 0.00 0.00 0.00 0.00 0.00 0.00 0.00 0.00 0.00 0.00 0.01 0.04 0.05 0.10 0.07 0.08 0.04 0.00 0.00 0.00 0.00 0.00 0.00 0.00 0.00 0.00 0.00 0.00 0.00 0.00 0.00 0.00 0.00 0.00 0.00 0.00 0.00 0.00 0.00 0.00 0.01 0.02 0.02 0.04 0.03 0.01 0.00 0.00
0.00 0.00 0.00 0.00 0.00 0.00 0.00 0.00 0.00 0.00 0.00 0.00 0.05 0.08 0.13 0.18 0.15 0.09 0.01 0.01 0.00 0.00 0.00 0.00 0.00 0.00 0.00 0.00 0.00 0.00 0.00 0.00 0.00 0.00 0.00 0.00 0.00 0.00 0.00 0.00 0.00 0.00 0.01 0.01 0.03 0.02 0.03 0.03 0.01
0.00 0.00 0.00 0.00 0.00 0.00 0.00 0.00 0.00 0.00 0.00 0.00 0.00 0.04 0.03 0.30 0.45 0.21 0.08 0.03 0.06 0.02 0.00 0.00 0.00 0.00 0.00 0.00 0.00 0.00 0.00 0.00 0.00 0.00 0.00 0.00 0.00 0.00 0.00 0.00 0.00 0.00 0.00 0.00 0.01 0.00 0.01 0.01 0.00
0.00 0.00 0.00 0.00 0.00 0.00 0.00 0.00 0.00 0.00 0.00 0.00 0.00 0.00 0.00 0.03 0.49 0.83 0.32 0.11 0.04 0.05 0.00 0.00 0.00 0.00 0.00 0.00 0.00 0.00 0.00 0.00 0.00 0.00 0.00 0.00 0.00 0.00 0.00 0.00 0.00 0.00 0.00 0.00 0.00 0.00 0.01 0.01 0.00
0.00 0.00 0.00 0.00 0.00 0.00 0.00 0.00 0.00 0.00 0.00 0.00 0.02 0.02 0.01 0.06 0.13 0.61 0.63 0.15 0.01 0.00 0.00 0.00 0.00 0.00 0.00 0.00 0.00 0.00 0.00 0.00 0.00 0.00 0.00 0.00 0.00 0.00 0.00 0.00 0.00 0.00 0.00 0.00 0.00 0.00 0.00 0.00 0.00

GFSSGP_prec_precacc12_063.txt.gz
Total_Precipitation_Accumulation
0.00 0.00 0.00 0.00 0.03 0.02 0.18 0.39 0.44 0.26 0.04 0.06 0.02 0.00 0.00 0.01 0.05 0.13 0.00 0.00 0.00 0.00 0.00 0.01 0.12 0.11 0.11 0.05 0.05 0.02 0.00 0.00 0.00 0.00 0.00 0.00 0.02 0.02 0.05 0.01 0.03 0.03 0.02 0.02 0.03 0.02 0.01 0.00 0.01
0.00 0.00 0.00 0.08 0.08 0.02 0.30 0.75 0.90 0.32 0.06 0.06 0.01 0.00 0.04 0.02 0.07 0.01 0.00 0.00 0.00 0.00 0.00 0.00 0.05 0.10 0.06 0.02 0.01 0.01 0.00 0.00 0.00 0.01 0.02 0.03 0.04 0.03 0.05 0.04 0.04 0.04 0.05 0.03 0.02 0.01 0.00 0.01 0.01
0.00 0.00 0.02 0.09 0.02 0.12 0.42 0.95 1.41 0.37 0.07 0.03 0.04 0.08 0.07 0.08 0.04 0.00 0.00 0.00 0.00 0.00 0.00 0.00 0.01 0.04 0.01 0.02 0.02 0.01 0.01 0.01 0.01 0.03 0.01 0.02 0.01 0.01 0.01 0.01 0.02 0.01 0.00 0.00 0.00 0.00 0.00 0.00 0.00
0.00 0.04 0.13 0.04 0.13 0.33 0.46 0.53 0.34 0.90 0.30 0.21 0.15 0.10 0.09 0.11 0.01 0.00 0.00 0.00 0.00 0.00 0.00 0.00 0.01 0.01 0.02 0.03 0.02 0.00 0.00 0.00 0.01 0.05 0.02 0.01 0.01 0.06 0.02 0.02 0.03 0.01 0.01 0.01 0.00 0.00 0.00 0.01 0.04
0.00 0.13 0.19 0.20 0.47 0.44 0.53 0.49 0.28 1.04 0.64 0.62 0.09 0.02 0.02 0.02 0.00 0.00 0.00 0.00 0.00 0.00 0.00 0.00 0.01 0.01 0.02 0.03 0.03 0.02 0.01 0.01 0.02 0.03 0.03 0.07 0.02 0.01 0.03 0.03 0.01 0.00 0.01 0.03 0.00 0.00 0.05 0.11 0.15
0.02 0.13 0.31 0.93 0.43 0.36 1.00 1.09 0.40 0.22 0.21 0.11 0.09 0.03 0.00 0.01 0.00 0.00 0.00 0.00 0.00 0.00 0.00 0.00 0.01 0.01 0.03 0.03 0.03 0.02 0.01 0.03 0.01 0.02 0.06 0.02 0.01 0.01 0.01 0.00 0.00 0.00 0.00 0.00 0.00 0.02 0.09 0.10 0.02
0.03 0.22 0.24 0.58 0.31 0.62 0.92 0.71 0.44 0.37 0.26 0.12 0.18 0.03 0.00 0.01 0.00 0.00 0.00 0.00 0.00 0.00 0.00 0.00 0.00 0.01 0.01 0.04 0.05 0.01 0.02 0.00 0.01 0.01 0.01 0.01 0.00 0.00 0.00 0.00 0.00 0.00 0.00 0.00 0.01 0.01 0.01 0.00 0.01
0.00 0.05 0.05 0.24 0.09 0.68 0.72 0.48 0.43 0.30 0.25 0.11 0.04 0.03 0.00 0.00 0.00 0.00 0.00 0.01 0.00 0.00 0.00 0.00 0.00 0.00 0.00 0.02 0.07 0.01 0.00 0.00 0.00 0.00 0.00 0.02 0.00 0.01 0.00 0.02 0.01 0.00 0.00 0.00 0.03 0.05 0.03 0.04 0.05
0.00 0.01 0.05 0.10 0.06 0.66 0.54 0.46 0.31 0.14 0.04 0.02 0.06 0.07 0.00 0.00 0.00 0.00 0.00 0.00 0.00 0.00 0.00 0.00 0.00 0.00 0.00 0.00 0.02 0.00 0.00 0.00 0.00 0.01 0.05 0.13 0.01 0.00 0.00 0.02 0.01 0.00 0.00 0.00 0.01 0.04 0.04 0.05 0.03
0.02 0.06 0.03 0.02 0.05 0.36 1.30 0.36 0.11 0.04 0.15 0.13 0.09 0.05 0.01 0.00 0.00 0.00 0.00 0.00 0.00 0.00 0.00 0.00 0.00 0.00 0.00 0.00 0.00 0.01 0.00 0.02 0.03 0.05 0.07 0.07 0.04 0.02 0.00 0.00 0.00 0.00 0.03 0.05 0.05 0.01 0.18 0.26 0.10
0.00 0.01 0.00 0.02 0.04 0.21 0.82 0.50 0.02 0.10 0.07 0.08 0.07 0.05 0.00 0.00 0.00 0.00 0.00 0.00 0.00 0.00 0.00 0.00 0.00 0.00 0.00 0.00 0.00 0.02 0.01 0.01 0.02 0.04 0.11 0.05 0.02 0.01 0.01 0.01 0.01 0.07 0.07 0.16 0.33 0.05 0.20 0.61 0.21
0.00 0.00 0.00 0.00 0.04 0.17 0.54 1.47 0.20 0.59 1.03 0.24 0.15 0.02 0.00 0.00 0.00 0.00 0.00 0.00 0.00 0.00 0.00 0.00 0.00 0.01 0.15 0.01 0.00 0.09 0.05 0.02 0.00 0.01 0.04 0.04 0.02 0.01 0.02 0.05 0.07 0.15 0.05 0.05 0.21 0.03 0.03 0.17 0.20
0.00 0.00 0.00 0.00 0.03 0.13 0.24 0.40 0.30 0.57 0.46 0.28 0.23 0.02 0.00 0.00 0.00 0.00 0.00 0.00 0.00 0.00 0.00 0.00 0.00 0.04 0.16 0.03 0.05 0.07 0.03 0.05 0.00 0.00 0.04 0.14 0.02 0.01 0.03 0.07 0.07 0.10 0.07 0.04 0.02 0.02 0.02 0.01 0.00
0.00 0.00 0.00 0.00 0.01 0.05 0.10 0.18 0.04 0.10 0.11 0.23 0.17 0.02 0.00 0.00 0.00 0.00 0.00 0.00 0.00 0.00 0.00 0.00 0.00 0.02 0.05 0.03 0.03 0.02 0.01 0.01 0.00 0.00 0.04 0.21 0.08 0.08 0.10 0.09 0.06 0.06 0.06 0.00 0.00 0.01 0.04 0.01 0.00
0.00 0.00 0.00 0.00 0.01 0.04 0.14 0.33 0.15 0.21 0.14 0.19 0.11 0.01 0.00 0.00 0.00 0.00 0.00 0.00 0.00 0.00 0.00 0.00 0.00 0.00 0.01 0.02 0.03 0.01 0.00 0.02 0.00 0.00 0.00 0.02 0.11 0.13 0.09 0.05 0.05 0.09 0.03 0.01 0.00 0.00 0.00 0.00 0.00
0.00 0.00 0.00 0.00 0.01 0.01 0.04 0.20 0.11 0.53 1.29 0.15 0.08 0.01 0.00 0.00 0.00 0.00 0.00 0.00 0.00 0.00 0.00 0.00 0.00 0.00 0.00 0.01 0.01 0.03 0.00 0.00 0.00 0.00 0.01 0.06 0.04 0.07 0.09 0.05 0.05 0.02 0.01 0.00 0.00 0.00 0.00 0.00 0.00
0.00 0.00 0.00 0.00 0.01 0.03 0.07 0.08 0.12 0.28 0.58 0.11 0.05 0.02 0.00 0.00 0.00 0.00 0.00 0.00 0.00 0.00 0.00 0.00 0.00 0.00 0.00 0.00 0.01 0.01 0.00 0.00 0.01 0.00 0.02 0.06 0.01 0.05 0.25 0.19 0.06 0.02 0.05 0.02 0.00 0.00 0.00 0.00 0.00
0.00 0.00 0.00 0.00 0.01 0.01 0.02 0.04 0.29 0.30 0.63 0.19 0.05 0.02 0.00 0.00 0.00 0.00 0.00 0.00 0.00 0.00 0.00 0.00 0.00 0.00 0.00 0.00 0.01 0.00 0.00 0.00 0.00 0.00 0.04 0.07 0.08 0.13 0.22 0.13 0.04 0.04 0.02 0.06 0.02 0.00 0.00 0.00 0.00
0.00 0.00 0.00 0.00 0.00 0.00 0.00 0.04 0.31 0.30 0.23 0.39 0.09 0.04 0.00 0.00 0.00 0.00 0.00 0.00 0.00 0.00 0.00 0.00 0.00 0.00 0.00 0.00 0.00 0.00 0.00 0.00 0.01 0.04 0.05 0.06 0.05 0.04 0.13 0.13 0.04 0.03 0.01 0.01 0.00 0.00 0.00 0.00 0.00
0.00 0.00 0.00 0.00 0.00 0.00 0.00 0.03 0.12 0.18 0.10 0.30 0.49 0.04 0.03 0.00 0.00 0.00 0.00 0.00 0.00 0.00 0.00 0.00 0.00 0.01 0.00 0.00 0.00 0.00 0.00 0.01 0.02 0.06 0.09 0.02 0.07 0.05 0.03 0.04 0.04 0.03 0.00 0.00 0.00 0.00 0.01 0.00 0.00
0.00 0.00 0.00 0.00 0.00 0.00 0.01 0.11 0.21 0.38 0.18 0.31 0.75 0.25 0.08 0.01 0.00 0.00 0.00 0.00 0.00 0.00 0.00 0.00 0.00 0.00 0.00 0.00 0.00 0.00 0.00 0.00 0.01 0.05 0.02 0.00 0.01 0.01 0.02 0.02 0.04 0.04 0.03 0.00 0.00 0.00 0.00 0.00 0.00
0.00 0.00 0.00 0.00 0.00 0.00 0.00 0.03 0.11 0.16 0.31 1.10 1.00 0.37 0.08 0.02 0.00 0.00 0.00 0.00 0.00 0.00 0.00 0.00 0.00 0.00 0.00 0.00 0.00 0.00 0.00 0.00 0.00 0.01 0.01 0.01 0.01 0.00 0.03 0.00 0.02 0.02 0.02 0.02 0.01 0.00 0.00 0.00 0.00
0.00 0.00 0.00 0.00 0.00 0.00 0.00 0.00 0.00 0.01 0.06 0.64 0.95 0.26 0.04 0.01 0.00 0.00 0.00 0.00 0.00 0.00 0.00 0.00 0.00 0.00 0.00 0.00 0.00 0.00 0.00 0.00 0.00 0.00 0.01 0.02 0.02 0.00 0.03 0.04 0.02 0.02 0.03 0.03 0.01 0.00 0.00 0.01 0.00
0.00 0.00 0.00 0.00 0.00 0.00 0.00 0.00 0.00 0.00 0.00 0.07 0.27 0.22 0.11 0.00 0.00 0.00 0.00 0.00 0.00 0.00 0.00 0.00 0.00 0.00 0.00 0.00 0.00 0.00 0.00 0.00 0.00 0.00 0.00 0.00 0.00 0.01 0.02 0.02 0.02 0.03 0.04 0.06 0.03 0.00 0.00 0.01 0.01
0.00 0.00 0.00 0.00 0.00 0.00 0.00 0.00 0.00 0.00 0.00 0.00 0.07 0.21 0.10 0.05 0.01 0.00 0.00 0.00 0.00 0.00 0.00 0.00 0.00 0.00 0.00 0.00 0.00 0.00 0.00 0.00 0.00 0.00 0.00 0.00 0.00 0.00 0.00 0.01 0.03 0.02 0.02 0.05 0.03 0.06 0.02 0.00 0.00
0.00 0.00 0.00 0.00 0.00 0.00 0.00 0.00 0.00 0.00 0.00 0.00 0.03 0.05 0.10 0.07 0.08 0.04 0.00 0.00 0.00 0.00 0.00 0.00 0.00 0.00 0.00 0.00 0.00 0.00 0.00 0.00 0.00 0.00 0.00 0.00 0.00 0.00 0.00 0.00 0.00 0.01 0.02 0.02 0.04 0.03 0.02 0.00 0.00
0.00 0.00 0.00 0.00 0.00 0.00 0.00 0.00 0.00 0.00 0.00 0.00 0.05 0.08 0.13 0.18 0.15 0.09 0.01 0.01 0.00 0.00 0.00 0.00 0.00 0.00 0.00 0.00 0.00 0.00 0.00 0.00 0.00 0.00 0.00 0.00 0.00 0.00 0.00 0.01 0.00 0.00 0.01 0.01 0.03 0.01 0.02 0.02 0.01
0.00 0.00 0.00 0.00 0.00 0.00 0.00 0.00 0.00 0.00 0.00 0.00 0.00 0.04 0.03 0.30 0.45 0.21 0.08 0.03 0.06 0.02 0.00 0.00 0.00 0.00 0.00 0.00 0.00 0.00 0.00 0.00 0.00 0.00 0.00 0.00 0.00 0.00 0.00 0.00 0.02 0.01 0.00 0.00 0.01 0.00 0.01 0.01 0.00
0.00 0.00 0.00 0.00 0.00 0.00 0.00 0.00 0.00 0.00 0.00 0.00 0.00 0.00 0.00 0.03 0.49 0.83 0.33 0.14 0.05 0.05 0.01 0.00 0.00 0.00 0.00 0.00 0.00 0.00 0.00 0.00 0.00 0.00 0.00 0.00 0.00 0.00 0.00 0.00 0.00 0.01 0.00 0.00 0.00 0.00 0.01 0.01 0.00
0.00 0.00 0.00 0.00 0.00 0.00 0.00 0.00 0.00 0.00 0.00 0.00 0.02 0.02 0.01 0.06 0.13 0.61 0.73 0.36 0.14 0.07 0.04 0.03 0.01 0.00 0.00 0.00 0.00 0.00 0.00 0.00 0.00 0.00 0.00 0.00 0.00 0.00 0.01 0.00 0.00 0.00 0.00 0.00 0.00 0.00 0.00 0.00 0.00

GFSSGP_prec_precacc12_066.txt.gz
Total_Precipitation_Accumulation
0.00 0.00 0.00 0.00 0.01 0.01 0.10 0.35 0.42 0.29 0.05 0.06 0.01 0.00 0.00 0.00 0.04 0.08 0.00 0.00 0.00 0.00 0.00 0.02 0.08 0.10 0.13 0.03 0.04 0.02 0.00 0.00 0.00 0.00 0.01 0.01 0.03 0.02 0.05 0.02 0.01 0.02 0.04 0.03 0.03 0.03 0.03 0.04 0.03
0.00 0.00 0.00 0.02 0.02 0.02 0.27 0.82 0.96 0.46 0.11 0.16 0.01 0.00 0.06 0.02 0.07 0.01 0.00 0.00 0.00 0.00 0.00 0.00 0.04 0.11 0.14 0.04 0.02 0.01 0.01 0.00 0.00 0.02 0.01 0.02 0.04 0.02 0.03 0.04 0.03 0.04 0.09 0.13 0.02 0.02 0.03 0.02 0.01
0.00 0.00 0.01 0.04 0.01 0.07 0.34 0.98 1.62 0.62 0.14 0.10 0.05 0.13 0.10 0.14 0.06 0.00 0.00 0.00 0.00 0.00 0.00 0.00 0.02 0.04 0.03 0.04 0.01 0.00 0.01 0.01 0.01 0.03 0.01 0.02 0.01 0.01 0.01 0.02 0.02 0.00 0.00 0.06 0.01 0.01 0.03 0.00 0.01
0.00 0.02 0.06 0.02 0.07 0.32 0.66 0.54 0.42 1.13 0.43 0.30 0.19 0.15 0.16 0.18 0.01 0.00 0.00 0.00 0.00 0.00 0.00 0.00 0.02 0.01 0.01 0.02 0.02 0.01 0.02 0.01 0.03 0.05 0.03 0.01 0.01 0.01 0.02 0.03 0.04 0.01 0.00 0.01 0.01 0.01 0.02 0.03 0.14
0.00 0.03 0.12 0.16 0.49 0.38 0.63 0.49 0.91 1.91 0.87 0.78 0.11 0.04 0.05 0.05 0.00 0.00 0.00 0.00 0.00 0.00 0.00 0.00 0.02 0.01 0.01 0.03 0.05 0.04 0.03 0.01 0.06 0.02 0.01 0.02 0.01 0.04 0.06 0.05 0.08 0.06 0.01 0.00 0.00 0.03 0.07 0.12 0.19
0.00 0.04 0.18 0.65 0.38 0.33 1.03 1.15 0.78 0.39 0.12 0.09 0.07 0.05 0.01 0.01 0.00 0.00 0.00 0.00 0.00 0.00 0.00 0.00 0.01 0.01 0.03 0.02 0.03 0.05 0.02 0.02 0.01 0.01 0.03 0.01 0.02 0.10 0.13 0.05 0.01 0.01 0.00 0.00 0.00 0.03 0.10 0.16 0.07
0.00 0.06 0.13 0.40 0.28 0.56 0.80 0.87 0.57 0.26 0.09 0.03 0.05 0.00 0.01 0.01 0.00 0.00 0.00 0.00 0.00 0.00 0.00 0.00 0.00 0.04 0.01 0.03 0.05 0.08 0.05 0.00 0.00 0.01 0.01 0.00 0.02 0.10 0.13 0.03 0.01 0.00 0.00 0.00 0.01 0.01 0.02 0.03 0.02
0.00 0.00 0.04 0.19 0.07 0.62 0.65 0.45 0.53 0.29 0.17 0.05 0.01 0.01 0.01 0.00 0.00 0.00 0.00 0.01 0.02 0.00 0.00 0.00 0.00 0.01 0.00 0.01 0.03 0.01 0.00 0.00 0.01 0.01 0.00 0.02 0.02 0.07 0.03 0.02 0.04 0.00 0.00 0.00 0.03 0.06 0.03 0.08 0.06
0.00 0.00 0.01 0.05 0.03 0.49 0.49 0.55 0.37 0.18 0.05 0.02 0.05 0.06 0.00 0.00 0.00 0.00 0.00 0.00 0.00 0.00 0.00 0.00 0.00 0.00 0.00 0.00 0.01 0.01 0.00 0.00 0.00 0.01 0.04 0.08 0.01 0.00 0.00 0.02 0.03 0.00 0.00 0.00 0.01 0.06 0.12 0.06 0.03
0.03 0.07 0.03 0.01 0.03 0.28 1.23 0.47 0.21 0.06 0.15 0.12 0.09 0.04 0.01 0.00 0.00 0.00 0.00 0.00 0.00 0.00 0.00 0.00 0.00 0.00 0.00 0.00 0.00 0.00 0.00 0.02 0.03 0.04 0.05 0.03 0.02 0.02 0.02 0.02 0.01 0.00 0.03 0.05 0.04 0.01 0.02 0.01 0.00
0.00 0.01 0.00 0.01 0.02 0.19 0.80 0.52 0.04 0.02 0.04 0.09 0.07 0.05 0.00 0.00 0.00 0.00 0.00 0.00 0.00 0.00 0.00 0.00 0.00 0.00 0.00 0.00 0.00 0.02 0.01 0.01 0.02 0.01 0.03 0.03 0.02 0.00 0.03 0.03 0.01 0.04 0.07 0.12 0.08 0.02 0.01 0.06 0.04
0.00 0.00 0.00 0.00 0.02 0.12 0.45 1.39 0.13 0.13 0.47 0.22 0.17 0.02 0.00 0.00 0.00 0.00 0.00 0.00 0.00 0.00 0.00 0.00 0.00 0.00 0.00 0.01 0.00 0.02 0.01 0.02 0.01 0.01 0.02 0.03 0.02 0.00 0.02 0.03 0.04 0.08 0.04 0.03 0.05 0.02 0.02 0.10 0.05
0.00 0.00 0.00 0.00 0.01 0.12 0.23 0.16 0.08 0.47 0.22 0.27 0.25 0.04 0.01 0.01 0.00 0.01 0.01 0.00 0.00 0.00 0.00 0.00 0.00 0.00 0.00 0.02 0.05 0.03 0.02 0.05 0.00 0.00 0.01 0.02 0.02 0.00 0.03 0.06 0.06 0.08 0.05 0.04 0.01 0.02 0.02 0.01 0.00
0.00 0.00 0.00 0.00 0.01 0.05 0.09 0.14 0.04 0.07 0.15 0.33 0.24 0.03 0.00 0.00 0.00 0.00 0.01 0.00 0.00 0.00 0.00 0.00 0.00 0.00 0.01 0.01 0.01 0.02 0.01 0.01 0.00 0.00 0.05 0.11 0.05 0.14 0.15 0.10 0.06 0.01 0.01 0.00 0.00 0.01 0.04 0.01 0.00
0.00 0.00 0.00 0.00 0.01 0.02 0.14 0.33 0.15 0.19 0.17 0.29 0.12 0.01 0.00 0.00 0.00 0.00 0.00 0.00 0.00 0.00 0.00 0.00 0.00 0.00 0.01 0.02 0.03 0.01 0.00 0.01 0.00 0.01 0.04 0.04 0.14 0.19 0.15 0.08 0.04 0.02 0.01 0.00 0.00 0.00 0.00 0.00 0.00
0.00 0.00 0.00 0.00 0.01 0.01 0.05 0.22 0.13 0.29 0.96 0.20 0.08 0.01 0.00 0.00 0.00 0.00 0.00 0.00 0.00 0.00 0.00 0.00 0.00 0.00 0.00 0.01 0.01 0.00 0.00 0.00 0.00 0.00 0.01 0.15 0.19 0.13 0.08 0.04 0.05 0.02 0.00 0.00 0.00 0.00 0.00 0.00 0.00
0.00 0.00 0.00 0.00 0.01 0.04 0.10 0.09 0.03 0.13 0.32 0.11 0.05 0.02 0.00 0.00 0.00 0.00 0.00 0.00 0.00 0.00 0.00 0.00 0.00 0.00 0.00 0.00 0.01 0.00 0.00 0.00 0.00 0.00 0.03 0.14 0.12 0.08 0.17 0.13 0.06 0.02 0.01 0.00 0.00 0.00 0.00 0.00 0.00
0.00 0.00 0.00 0.00 0.01 0.02 0.01 0.03 0.03 0.13 0.55 0.19 0.05 0.02 0.00 0.00 0.00 0.00 0.00 0.00 0.00 0.00 0.00 0.00 0.00 0.00 0.00 0.00 0.01 0.00 0.00 0.00 0.00 0.00 0.04 0.12 0.12 0.17 0.15 0.06 0.03 0.03 0.00 0.00 0.00 0.00 0.00 0.00 0.00
0.00 0.00 0.00 0.00 0.00 0.00 0.00 0.01 0.01 0.03 0.19 0.38 0.10 0.04 0.00 0.00 0.00 0.00 0.00 0.00 0.00 0.00 0.00 0.00 0.00 0.00 0.00 0.00 0.00 0.00 0.00 0.00 0.00 0.04 0.06 0.09 0.06 0.07 0.06 0.06 0.02 0.04 0.00 0.00 0.00 0.00 0.00 0.00 0.00
0.00 0.00 0.00 0.00 0.00 0.00 0.00 0.01 0.04 0.11 0.13 0.31 0.49 0.04 0.03 0.00 0.00 0.00 0.00 0.00 0.00 0.00 0.00 0.00 0.00 0.00 0.00 0.00 0.00 0.00 0.00 0.01 0.02 0.05 0.09 0.03 0.09 0.13 0.02 0.02 0.02 0.02 0.00 0.00 0.00 0.00 0.00 0.00 0.00
0.00 0.00 0.00 0.00 0.00 0.00 0.01 0.10 0.17 0.33 0.09 0.20 0.74 0.25 0.08 0.01 0.00 0.00 0.00 0.00 0.00 0.00 0.00 0.00 0.00 0.00 0.00 0.00 0.00 0.00 0.00 0.00 0.01 0.04 0.04 0.00 0.01 0.05 0.02 0.01 0.00 0.00 0.00 0.00 0.00 0.00 0.00 0.00 0.00
0.00 0.00 0.00 0.00 0.00 0.00 0.00 0.03 0.10 0.15 0.03 0.47 0.93 0.37 0.08 0.02 0.00 0.00 0.00 0.00 0.00 0.00 0.00 0.00 0.00 0.00 0.00 0.00 0.00 0.00 0.00 0.00 0.00 0.01 0.00 0.01 0.01 0.02 0.05 0.00 0.00 0.00 0.00 0.00 0.00 0.00 0.00 0.00 0.00
0.00 0.00 0.00 0.00 0.00 0.00 0.00 0.00 0.00 0.01 0.01 0.18 0.79 0.24 0.04 0.01 0.00 0.00 0.00 0.00 0.00 0.00 0.00 0.00 0.00 0.00 0.00 0.00 0.00 0.00 0.00 0.00 0.00 0.00 0.01 0.01 0.01 0.00 0.07 0.05 0.07 0.02 0.00 0.00 0.00 0.00 0.00 0.00 0.00
0.00 0.00 0.00 0.00 0.00 0.00 0.00 0.00 0.00 0.00 0.00 0.00 0.05 0.12 0.09 0.00 0.00 0.00 0.00 0.00 0.00 0.00 0.00 0.00 0.00 0.00 0.00 0.00 0.00 0.00 0.00 0.00 0.00 0.00 0.00 0.00 0.01 0.02 0.01 0.02 0.08 0.06 0.00 0.00 0.00 0.00 0.00 0.00 0.00
0.00 0.00 0.00 0.00 0.00 0.00 0.00 0.00 0.00 0.00 0.00 0.00 0.00 0.03 0.08 0.05 0.01 0.00 0.00 0.00 0.00 0.00 0.00 0.00 0.00 0.00 0.00 0.00 0.00 0.00 0.00 0.00 0.00 0.00 0.00 0.00 0.00 0.00 0.00 0.00 0.03 0.03 0.00 0.01 0.01 0.02 0.00 0.00 0.00
0.00 0.00 0.00 0.00 0.00 0.00 0.00 0.00 0.00 0.00 0.00 0.00 0.00 0.02 0.05 0.06 0.08 0.04 0.00 0.00 0.00 0.00 0.00 0.00 0.00 0.00 0.00 0.00 0.00 0.00 0.00 0.00 0.00 0.00 0.00 0.00 0.00 0.00 0.01 0.03 0.02 0.03 0.00 0.00 0.01 0.02 0.02 0.01 0.00
0.00 0.00 0.00 0.00 0.00 0.00 0.00 0.00 0.00 0.00 0.00 0.00 0.01 0.01 0.07 0.14 0.15 0.09 0.01 0.01 0.00 0.00 0.00 0.00 0.00 0.00 0.00 0.00 0.00 0.00 0.00 0.00 0.00 0.00 0.00 0.00 0.00 0.00 0.01 0.04 0.04 0.02 0.01 0.01 0.01 0.01 0.01 0.03 0.00
0.00 0.00 0.00 0.00 0.00 0.00 0.00 0.00 0.00 0.00 0.00 0.00 0.00 0.00 0.00 0.16 0.29 0.19 0.08 0.03 0.06 0.02 0.00 0.00 0.00 0.00 0.00 0.00 0.00 0.00 0.00 0.00 0.00 0.00 0.00 0.00 0.00 0.00 0.00 0.01 0.04 0.04 0.03 0.02 0.00 0.01 0.00 0.00 0.00
0.00 0.00 0.00 0.00 0.00 0.00 0.00 0.00 0.00 0.00 0.00 0.00 0.00 0.00 0.00 0.00 0.25 0.59 0.32 0.17 0.07 0.06 0.01 0.00 0.00 0.00 0.00 0.00 0.00 0.00 0.00 0.00 0.00 0.00 0.00 0.00 0.00 0.00 0.00 0.00 0.02 0.02 0.03 0.02 0.00 0.00 0.00 0.00 0.00
0.00 0.00 0.00 0.00 0.00 0.00 0.00 0.00 0.00 0.00 0.00 0.00 0.02 0.02 0.01 0.05 0.06 0.31 0.50 0.43 0.19 0.09 0.05 0.03 0.01 0.00 0.00 0.00 0.00 0.00 0.00 0.00 0.00 0.00 0.00 0.00 0.00 0.00 0.01 0.00 0.00 0.00 0.00 0.02 0.00 0.01 0.00 0.00 0.00

GFSSGP_prec_precacc12_069.txt.gz
Total_Precipitation_Accumulation
0.00 0.00 0.00 0.00 0.00 0.00 0.04 0.32 0.38 0.38 0.06 0.06 0.01 0.00 0.00 0.00 0.02 0.01 0.00 0.00 0.00 0.00 0.00 0.02 0.07 0.01 0.05 0.01 0.03 0.01 0.00 0.00 0.01 0.01 0.01 0.02 0.03 0.02 0.06 0.02 0.02 0.03 0.04 0.03 0.04 0.05 0.09 0.09 0.08
0.00 0.00 0.00 0.00 0.01 0.01 0.22 0.68 0.90 0.46 0.16 0.16 0.01 0.00 0.06 0.02 0.07 0.01 0.00 0.00 0.00 0.00 0.00 0.00 0.04 0.06 0.09 0.03 0.01 0.01 0.01 0.01 0.01 0.01 0.04 0.04 0.08 0.06 0.08 0.06 0.04 0.04 0.09 0.13 0.02 0.06 0.07 0.06 0.07
0.00 0.00 0.00 0.01 0.01 0.04 0.30 0.73 1.12 0.67 0.21 0.12 0.05 0.12 0.10 0.14 0.06 0.00 0.00 0.00 0.00 0.00 0.00 0.00 0.03 0.05 0.03 0.03 0.00 0.00 0.01 0.00 0.00 0.01 0.03 0.06 0.04 0.03 0.06 0.07 0.04 0.01 0.03 0.09 0.01 0.02 0.04 0.01 0.08
0.00 0.01 0.01 0.00 0.02 0.26 0.69 0.54 0.56 0.96 0.57 0.31 0.19 0.16 0.17 0.18 0.01 0.00 0.00 0.00 0.00 0.00 0.00 0.00 0.01 0.01 0.01 0.01 0.01 0.01 0.02 0.02 0.03 0.04 0.03 0.01 0.01 0.01 0.04 0.06 0.06 0.02 0.02 0.04 0.01 0.02 0.03 0.09 0.20
0.00 0.00 0.03 0.08 0.39 0.32 0.59 0.44 1.52 2.16 0.99 0.65 0.10 0.05 0.06 0.05 0.00 0.00 0.00 0.00 0.00 0.00 0.00 0.00 0.03 0.02 0.01 0.03 0.04 0.03 0.03 0.01 0.05 0.01 0.02 0.02 0.02 0.06 0.16 0.07 0.14 0.11 0.01 0.01 0.00 0.03 0.07 0.16 0.26
0.00 0.01 0.07 0.16 0.29 0.34 0.83 0.72 1.34 0.89 0.14 0.10 0.13 0.06 0.02 0.00 0.00 0.00 0.00 0.00 0.00 0.00 0.00 0.00 0.02 0.02 0.03 0.03 0.02 0.05 0.03 0.02 0.01 0.01 0.04 0.01 0.02 0.12 0.16 0.13 0.05 0.01 0.01 0.00 0.00 0.06 0.15 0.26 0.17
0.00 0.01 0.03 0.16 0.21 0.48 0.73 0.67 0.67 0.29 0.05 0.00 0.04 0.01 0.03 0.00 0.00 0.00 0.00 0.00 0.00 0.00 0.00 0.00 0.00 0.04 0.02 0.05 0.06 0.10 0.08 0.00 0.00 0.01 0.01 0.00 0.03 0.13 0.20 0.07 0.02 0.00 0.01 0.00 0.01 0.10 0.08 0.13 0.09
0.00 0.00 0.02 0.14 0.05 0.46 0.61 0.49 0.55 0.28 0.16 0.02 0.00 0.00 0.01 0.00 0.00 0.00 0.00 0.01 0.02 0.00 0.00 0.00 0.00 0.02 0.02 0.06 0.05 0.04 0.01 0.01 0.01 0.01 0.00 0.03 0.03 0.09 0.05 0.02 0.04 0.01 0.00 0.00 0.04 0.12 0.14 0.25 0.17
0.00 0.00 0.00 0.01 0.01 0.23 0.22 0.56 0.41 0.18 0.05 0.02 0.03 0.01 0.00 0.00 0.00 0.00 0.00 0.01 0.01 0.00 0.00 0.00 0.00 0.00 0.02 0.04 0.04 0.01 0.00 0.00 0.00 0.00 0.02 0.04 0.00 0.00 0.00 0.02 0.04 0.00 0.00 0.00 0.01 0.09 0.20 0.17 0.10
0.04 0.07 0.03 0.01 0.01 0.12 0.13 0.36 0.32 0.07 0.15 0.11 0.07 0.01 0.00 0.00 0.00 0.00 0.00 0.00 0.00 0.00 0.00 0.00 0.00 0.00 0.00 0.01 0.03 0.00 0.00 0.01 0.01 0.01 0.02 0.01 0.00 0.00 0.02 0.03 0.00 0.00 0.01 0.03 0.01 0.02 0.02 0.01 0.02
0.00 0.01 0.00 0.01 0.01 0.11 0.26 0.27 0.08 0.02 0.05 0.08 0.03 0.01 0.00 0.00 0.00 0.00 0.00 0.00 0.00 0.00 0.00 0.00 0.00 0.00 0.00 0.00 0.00 0.00 0.00 0.01 0.01 0.00 0.00 0.00 0.00 0.00 0.03 0.04 0.01 0.02 0.04 0.05 0.00 0.01 0.00 0.00 0.00
0.00 0.00 0.00 0.00 0.02 0.09 0.18 0.57 0.06 0.04 0.08 0.11 0.13 0.01 0.00 0.00 0.00 0.00 0.00 0.00 0.00 0.00 0.00 0.00 0.00 0.00 0.00 0.00 0.00 0.00 0.00 0.01 0.01 0.00 0.01 0.00 0.00 0.00 0.01 0.01 0.00 0.00 0.00 0.00 0.00 0.00 0.01 0.04 0.02
0.00 0.00 0.00 0.00 0.00 0.04 0.16 0.12 0.03 0.10 0.08 0.17 0.20 0.04 0.01 0.01 0.00 0.01 0.01 0.00 0.00 0.00 0.00 0.00 0.00 0.00 0.00 0.00 0.02 0.01 0.00 0.00 0.00 0.00 0.00 0.00 0.01 0.00 0.01 0.01 0.03 0.01 0.01 0.00 0.00 0.00 0.00 0.00 0.00
0.00 0.00 0.00 0.00 0.00 0.03 0.05 0.04 0.03 0.05 0.13 0.34 0.24 0.03 0.00 0.00 0.00 0.00 0.01 0.00 0.00 0.00 0.00 0.00 0.00 0.00 0.00 0.00 0.01 0.01 0.00 0.00 0.00 0.00 0.02 0.01 0.02 0.11 0.08 0.03 0.04 0.00 0.00 0.00 0.00 0.00 0.01 0.00 0.00
0.00 0.00 0.00 0.00 0.01 0.01 0.10 0.23 0.08 0.15 0.22 0.29 0.15 0.02 0.00 0.00 0.00 0.00 0.00 0.00 0.00 0.00 0.00 0.00 0.00 0.00 0.00 0.00 0.00 0.00 0.00 0.01 0.00 0.01 0.04 0.03 0.03 0.12 0.12 0.07 0.04 0.01 0.01 0.00 0.00 0.00 0.00 0.00 0.00
0.00 0.00 0.00 0.00 0.01 0.01 0.05 0.16 0.11 0.15 0.24 0.16 0.10 0.01 0.00 0.00 0.00 0.00 0.00 0.00 0.00 0.00 0.00 0.00 0.00 0.00 0.00 0.00 0.01 0.00 0.00 0.00 0.00 0.00 0.00 0.15 0.17 0.12 0.06 0.06 0.05 0.00 0.00 0.00 0.00 0.00 0.00 0.00 0.00
0.00 0.00 0.00 0.00 0.01 0.04 0.10 0.06 0.03 0.04 0.09 0.07 0.09 0.03 0.00 0.00 0.00 0.00 0.00 0.00 0.00 0.00 0.00 0.00 0.00 0.00 0.00 0.00 0.01 0.00 0.00 0.00 0.00 0.00 0.02 0.14 0.12 0.07 0.14 0.06 0.01 0.00 0.00 0.00 0.00 0.00 0.00 0.00 0.00
0.00 0.00 0.00 0.00 0.01 0.02 0.01 0.01 0.02 0.01 0.01 0.06 0.09 0.02 0.00 0.00 0.00 0.00 0.00 0.00 0.00 0.00 0.00 0.00 0.00 0.00 0.00 0.00 0.01 0.00 0.00 0.00 0.00 0.00 0.04 0.12 0.11 0.15 0.12 0.03 0.00 0.00 0.00 0.00 0.00 0.00 0.00 0.00 0.00
0.00 0.00 0.00 0.00 0.00 0.00 0.00 0.01 0.00 0.02 0.02 0.00 0.02 0.02 0.00 0.00 0.00 0.00 0.00 0.00 0.00 0.00 0.00 0.00 0.00 0.00 0.00 0.00 0.00 0.00 0.00 0.00 0.00 0.04 0.06 0.11 0.06 0.07 0.03 0.04 0.00 0.01 0.00 0.00 0.00 0.00 0.00 0.00 0.00
0.00 0.00 0.00 0.00 0.00 0.00 0.00 0.01 0.03 0.11 0.09 0.02 0.10 0.02 0.03 0.00 0.00 0.00 0.00 0.00 0.00 0.00 0.00 0.00 0.00 0.00 0.00 0.00 0.00 0.00 0.00 0.01 0.02 0.04 0.05 0.04 0.10 0.15 0.00 0.01 0.00 0.00 0.00 0.00 0.00 0.00 0.00 0.00 0.00
0.00 0.00 0.00 0.00 0.00 0.00 0.01 0.10 0.17 0.31 0.08 0.04 0.53 0.17 0.05 0.01 0.00 0.00 0.00 0.00 0.00 0.00 0.00 0.00 0.00 0.00 0.00 0.00 0.00 0.00 0.00 0.00 0.01 0.03 0.02 0.00 0.02 0.07 0.02 0.00 0.00 0.00 0.00 0.00 0.00 0.00 0.00 0.00 0.00
0.00 0.00 0.00 0.00 0.00 0.00 0.00 0.03 0.10 0.13 0.01 0.03 0.17 0.22 0.03 0.00 0.00 0.00 0.00 0.00 0.00 0.00 0.00 0.00 0.00 0.00 0.00 0.00 0.00 0.00 0.00 0.00 0.00 0.01 0.00 0.00 0.01 0.04 0.06 0.00 0.00 0.00 0.00 0.00 0.00 0.00 0.00 0.00 0.00
0.00 0.00 0.00 0.00 0.00 0.00 0.00 0.00 0.00 0.01 0.00 0.01 0.03 0.03 0.01 0.00 0.00 0.00 0.00 0.00 0.00 0.00 0.00 0.00 0.00 0.00 0.00 0.00 0.00 0.00 0.00 0.00 0.00 0.00 0.00 0.00 0.01 0.04 0.07 0.05 0.06 0.01 0.00 0.00 0.00 0.00 0.00 0.00 0.00
0.00 0.00 0.00 0.00 0.00 0.00 0.00 0.00 0.00 0.00 0.00 0.00 0.00 0.00 0.00 0.00 0.00 0.00 0.00 0.00 0.00 0.00 0.00 0.00 0.00 0.00 0.00 0.00 0.00 0.00 0.00 0.00 0.00 0.00 0.00 0.00 0.01 0.07 0.01 0.02 0.09 0.05 0.00 0.01 0.00 0.00 0.00 0.00 0.00
0.00 0.00 0.00 0.00 0.00 0.00 0.00 0.00 0.00 0.00 0.00 0.00 0.00 0.00 0.00 0.00 0.00 0.00 0.00 0.00 0.00 0.00 0.00 0.00 0.00 0.00 0.00 0.00 0.00 0.00 0.00 0.00 0.00 0.00 0.00 0.00 0.00 0.01 0.01 0.00 0.04 0.04 0.01 0.03 0.01 0.02 0.00 0.00 0.00
0.00 0.00 0.00 0.00 0.00 0.00 0.00 0.00 0.00 0.00 0.00 0.00 0.00 0.01 0.03 0.01 0.04 0.03 0.00 0.00 0.00 0.00 0.00 0.00 0.00 0.00 0.00 0.00 0.00 0.00 0.00 0.00 0.00 0.00 0.00 0.00 0.00 0.00 0.02 0.03 0.07 0.06 0.00 0.01 0.02 0.02 0.02 0.01 0.00
0.00 0.00 0.00 0.00 0.00 0.00 0.00 0.00 0.00 0.00 0.00 0.00 0.00 0.00 0.01 0.01 0.02 0.03 0.00 0.00 0.00 0.00 0.00 0.00 0.00 0.00 0.00 0.00 0.00 0.00 0.00 0.00 0.00 0.00 0.00 0.00 0.00 0.00 0.01 0.04 0.04 0.03 0.03 0.02 0.01 0.01 0.01 0.03 0.00
0.00 0.00 0.00 0.00 0.00 0.00 0.00 0.00 0.00 0.00 0.00 0.00 0.00 0.00 0.00 0.00 0.00 0.01 0.01 0.01 0.03 0.02 0.00 0.00 0.00 0.00 0.00 0.00 0.00 0.00 0.00 0.00 0.00 0.00 0.00 0.00 0.00 0.00 0.00 0.01 0.03 0.04 0.04 0.02 0.01 0.01 0.00 0.00 0.00
0.00 0.00 0.00 0.00 0.00 0.00 0.00 0.00 0.00 0.00 0.00 0.00 0.00 0.00 0.00 0.00 0.00 0.01 0.06 0.09 0.06 0.04 0.01 0.00 0.00 0.00 0.00 0.00 0.00 0.00 0.00 0.00 0.00 0.00 0.00 0.00 0.00 0.00 0.00 0.00 0.02 0.02 0.03 0.02 0.02 0.00 0.00 0.00 0.00
0.00 0.00 0.00 0.00 0.00 0.00 0.00 0.00 0.00 0.00 0.00 0.00 0.01 0.01 0.01 0.05 0.05 0.02 0.13 0.33 0.20 0.10 0.05 0.03 0.01 0.00 0.00 0.00 0.00 0.00 0.00 0.00 0.00 0.00 0.00 0.00 0.00 0.00 0.01 0.00 0.00 0.00 0.00 0.02 0.01 0.06 0.00 0.00 0.00

GFSSGP_prec_precacc12_072.txt.gz
Total_Precipitation_Accumulation
0.00 0.00 0.00 0.00 0.00 0.01 0.09 0.27 0.26 0.22 0.05 0.05 0.01 0.00 0.00 0.00 0.02 0.03 0.00 0.00 0.00 0.00 0.00 0.03 0.08 0.01 0.04 0.00 0.00 0.00 0.01 0.01 0.01 0.02 0.02 0.02 0.01 0.01 0.04 0.03 0.03 0.03 0.04 0.04 0.04 0.05 0.14 0.10 0.09
0.00 0.00 0.00 0.00 0.01 0.04 0.24 0.42 0.58 0.47 0.19 0.16 0.01 0.00 0.04 0.02 0.06 0.01 0.00 0.00 0.00 0.00 0.00 0.00 0.04 0.04 0.08 0.02 0.00 0.00 0.01 0.02 0.02 0.02 0.04 0.03 0.06 0.07 0.08 0.05 0.06 0.05 0.08 0.13 0.02 0.07 0.10 0.07 0.09
0.00 0.00 0.01 0.03 0.02 0.05 0.30 0.81 1.05 0.67 0.18 0.11 0.05 0.12 0.10 0.14 0.06 0.00 0.00 0.00 0.00 0.00 0.00 0.00 0.03 0.03 0.02 0.03 0.01 0.00 0.01 0.01 0.01 0.03 0.03 0.05 0.05 0.04 0.08 0.07 0.04 0.02 0.04 0.09 0.01 0.04 0.07 0.12 0.15
0.00 0.03 0.02 0.01 0.08 0.23 0.62 0.64 0.60 0.70 0.45 0.25 0.15 0.16 0.17 0.18 0.01 0.00 0.00 0.00 0.00 0.00 0.00 0.00 0.01 0.01 0.01 0.01 0.01 0.01 0.03 0.03 0.06 0.06 0.03 0.02 0.02 0.02 0.06 0.07 0.06 0.03 0.05 0.05 0.02 0.05 0.11 0.20 0.30
0.01 0.05 0.11 0.18 0.38 0.36 0.39 0.38 1.54 1.81 0.81 0.43 0.04 0.04 0.07 0.05 0.00 0.00 0.00 0.00 0.00 0.00 0.00 0.00 0.06 0.03 0.01 0.03 0.05 0.04 0.04 0.03 0.09 0.03 0.04 0.05 0.05 0.06 0.16 0.08 0.15 0.11 0.05 0.02 0.01 0.04 0.16 0.24 0.32
0.00 0.02 0.17 0.19 0.30 0.29 0.21 0.40 1.25 0.89 0.10 0.06 0.13 0.06 0.02 0.01 0.00 0.00 0.00 0.00 0.00 0.00 0.00 0.00 0.03 0.04 0.03 0.03 0.03 0.05 0.03 0.03 0.02 0.01 0.06 0.02 0.02 0.12 0.16 0.13 0.06 0.01 0.01 0.00 0.01 0.10 0.26 0.38 0.28
0.01 0.08 0.08 0.10 0.21 0.32 0.41 0.46 0.46 0.22 0.02 0.01 0.05 0.01 0.03 0.00 0.00 0.00 0.00 0.00 0.00 0.00 0.00 0.00 0.01 0.04 0.02 0.06 0.08 0.10 0.08 0.00 0.01 0.02 0.02 0.00 0.03 0.13 0.21 0.07 0.02 0.01 0.03 0.09 0.11 0.20 0.24 0.27 0.10
0.00 0.01 0.02 0.07 0.08 0.29 0.29 0.28 0.35 0.20 0.09 0.02 0.00 0.00 0.01 0.00 0.00 0.00 0.00 0.01 0.02 0.00 0.00 0.00 0.00 0.03 0.04 0.08 0.07 0.04 0.02 0.03 0.02 0.01 0.04 0.12 0.06 0.09 0.05 0.02 0.04 0.01 0.07 0.09 0.13 0.17 0.17 0.29 0.16
0.00 0.04 0.01 0.00 0.03 0.17 0.08 0.34 0.33 0.16 0.02 0.00 0.02 0.00 0.00 0.00 0.00 0.00 0.00 0.01 0.01 0.00 0.00 0.00 0.01 0.01 0.08 0.12 0.10 0.02 0.04 0.03 0.00 0.02 0.07 0.08 0.01 0.00 0.01 0.01 0.03 0.00 0.01 0.00 0.04 0.12 0.19 0.20 0.09
0.05 0.16 0.03 0.00 0.01 0.14 0.18 0.34 0.36 0.07 0.08 0.10 0.02 0.00 0.00 0.00 0.00 0.00 0.00 0.00 0.00 0.00 0.00 0.00 0.00 0.00 0.01 0.03 0.06 0.00 0.00 0.00 0.00 0.00 0.02 0.01 0.00 0.00 0.02 0.02 0.00 0.00 0.01 0.04 0.03 0.06 0.04 0.05 0.06
0.00 0.07 0.00 0.00 0.00 0.02 0.19 0.19 0.20 0.04 0.04 0.08 0.01 0.00 0.00 0.00 0.00 0.00 0.00 0.00 0.00 0.00 0.00 0.00 0.00 0.00 0.01 0.03 0.00 0.00 0.00 0.00 0.00 0.00 0.00 0.00 0.00 0.00 0.02 0.04 0.01 0.02 0.04 0.05 0.01 0.01 0.00 0.00 0.00
0.02 0.00 0.00 0.00 0.00 0.01 0.00 0.05 0.11 0.14 0.12 0.08 0.05 0.00 0.00 0.00 0.00 0.00 0.00 0.00 0.00 0.00 0.00 0.00 0.00 0.00 0.00 0.00 0.00 0.00 0.00 0.00 0.00 0.00 0.01 0.00 0.00 0.00 0.00 0.00 0.00 0.00 0.00 0.00 0.00 0.00 0.01 0.02 0.01
0.00 0.00 0.00 0.00 0.00 0.00 0.00 0.01 0.05 0.14 0.07 0.09 0.09 0.02 0.01 0.01 0.00 0.01 0.01 0.00 0.00 0.00 0.00 0.00 0.00 0.00 0.01 0.00 0.00 0.00 0.00 0.00 0.00 0.00 0.00 0.00 0.00 0.00 0.00 0.00 0.01 0.00 0.00 0.00 0.00 0.00 0.00 0.00 0.00
0.00 0.00 0.00 0.00 0.00 0.00 0.00 0.00 0.05 0.09 0.12 0.26 0.19 0.03 0.00 0.00 0.00 0.00 0.01 0.00 0.00 0.00 0.00 0.00 0.00 0.00 0.00 0.00 0.00 0.00 0.00 0.00 0.00 0.00 0.02 0.01 0.02 0.10 0.07 0.03 0.02 0.00 0.00 0.00 0.00 0.00 0.01 0.00 0.00
0.00 0.00 0.00 0.00 0.00 0.00 0.00 0.05 0.07 0.15 0.22 0.24 0.13 0.02 0.00 0.00 0.00 0.00 0.00 0.00 0.00 0.00 0.00 0.00 0.00 0.00 0.00 0.00 0.00 0.00 0.00 0.01 0.00 0.01 0.04 0.03 0.03 0.12 0.09 0.06 0.04 0.00 0.00 0.00 0.00 0.00 0.00 0.00 0.00
0.00 0.00 0.00 0.00 0.00 0.00 0.04 0.17 0.09 0.13 0.20 0.12 0.10 0.01 0.00 0.00 0.00 0.00 0.00 0.00 0.00 0.00 0.00 0.00 0.00 0.00 0.00 0.00 0.00 0.00 0.00 0.00 0.00 0.00 0.00 0.13 0.20 0.18 0.14 0.09 0.07 0.00 0.00 0.00 0.00 0.00 0.00 0.00 0.00
0.00 0.00 0.00 0.00 0.01 0.03 0.06 0.06 0.08 0.03 0.03 0.06 0.09 0.03 0.00 0.00 0.00 0.00 0.00 0.00 0.00 0.00 0.00 0.00 0.00 0.00 0.00 0.00 0.00 0.00 0.00 0.00 0.00 0.00 0.02 0.13 0.14 0.18 0.23 0.11 0.03 0.00 0.00 0.00 0.00 0.00 0.00 0.00 0.00
0.00 0.00 0.00 0.00 0.01 0.02 0.01 0.00 0.00 0.00 0.02 0.05 0.08 0.02 0.00 0.00 0.00 0.00 0.00 0.00 0.00 0.00 0.00 0.00 0.00 0.00 0.00 0.00 0.01 0.00 0.00 0.00 0.00 0.00 0.04 0.13 0.11 0.23 0.19 0.07 0.04 0.00 0.00 0.00 0.00 0.00 0.00 0.00 0.00
0.00 0.00 0.00 0.00 0.00 0.00 0.00 0.00 0.00 0.00 0.01 0.00 0.02 0.01 0.00 0.00 0.00 0.00 0.00 0.00 0.00 0.00 0.00 0.00 0.00 0.00 0.00 0.00 0.00 0.00 0.00 0.00 0.00 0.02 0.05 0.11 0.05 0.08 0.08 0.06 0.02 0.01 0.00 0.00 0.00 0.00 0.00 0.00 0.00
0.00 0.00 0.00 0.00 0.00 0.00 0.00 0.00 0.01 0.07 0.07 0.01 0.00 0.00 0.00 0.00 0.00 0.00 0.00 0.00 0.00 0.00 0.00 0.00 0.00 0.00 0.00 0.00 0.00 0.00 0.00 0.01 0.03 0.02 0.02 0.04 0.10 0.18 0.03 0.03 0.00 0.00 0.00 0.00 0.00 0.00 0.00 0.00 0.00
0.00 0.00 0.00 0.00 0.00 0.00 0.00 0.01 0.07 0.20 0.06 0.01 0.00 0.00 0.00 0.00 0.00 0.00 0.00 0.00 0.00 0.00 0.00 0.00 0.00 0.00 0.00 0.00 0.00 0.00 0.00 0.02 0.07 0.03 0.01 0.01 0.05 0.08 0.02 0.01 0.00 0.00 0.00 0.00 0.00 0.00 0.00 0.00 0.00
0.00 0.00 0.00 0.00 0.00 0.00 0.00 0.01 0.06 0.11 0.01 0.01 0.00 0.00 0.00 0.00 0.00 0.00 0.00 0.00 0.00 0.00 0.00 0.00 0.00 0.00 0.00 0.00 0.00 0.00 0.00 0.00 0.01 0.01 0.00 0.01 0.04 0.05 0.06 0.00 0.00 0.00 0.00 0.00 0.00 0.00 0.00 0.00 0.00
0.00 0.00 0.00 0.00 0.00 0.00 0.00 0.00 0.00 0.01 0.00 0.01 0.01 0.00 0.00 0.00 0.00 0.00 0.00 0.00 0.00 0.00 0.00 0.00 0.00 0.00 0.00 0.00 0.00 0.00 0.00 0.00 0.02 0.01 0.09 0.06 0.06 0.07 0.08 0.05 0.06 0.01 0.00 0.01 0.00 0.00 0.00 0.00 0.00
0.00 0.00 0.00 0.00 0.00 0.00 0.00 0.00 0.00 0.00 0.00 0.00 0.00 0.00 0.00 0.00 0.00 0.00 0.00 0.00 0.00 0.00 0.00 0.00 0.00 0.00 0.00 0.00 0.00 0.00 0.00 0.00 0.00 0.02 0.08 0.05 0.03 0.09 0.04 0.05 0.10 0.06 0.03 0.04 0.01 0.00 0.01 0.01 0.00
0.00 0.00 0.00 0.00 0.00 0.00 0.00 0.00 0.00 0.00 0.00 0.00 0.00 0.00 0.00 0.00 0.00 0.00 0.00 0.00 0.00 0.00 0.00 0.00 0.00 0.00 0.00 0.00 0.00 0.00 0.00 0.01 0.02 0.05 0.02 0.00 0.00 0.00 0.04 0.10 0.18 0.08 0.05 0.07 0.05 0.03 0.00 0.01 0.00
0.00 0.00 0.00 0.00 0.00 0.00 0.00 0.00 0.00 0.00 0.00 0.00 0.00 0.00 0.00 0.00 0.00 0.00 0.00 0.00 0.00 0.00 0.00 0.00 0.00 0.00 0.00 0.00 0.00 0.00 0.00 0.00 0.00 0.00 0.00 0.00 0.00 0.00 0.04 0.10 0.12 0.07 0.01 0.02 0.06 0.03 0.02 0.01 0.00
0.00 0.00 0.00 0.00 0.00 0.00 0.00 0.00 0.00 0.00 0.00 0.00 0.00 0.00 0.00 0.00 0.00 0.00 0.00 0.00 0.00 0.00 0.00 0.00 0.00 0.00 0.00 0.00 0.00 0.00 0.00 0.00 0.00 0.00 0.00 0.00 0.00 0.00 0.01 0.05 0.09 0.06 0.06 0.03 0.03 0.02 0.03 0.03 0.00
0.00 0.00 0.00 0.00 0.00 0.00 0.00 0.00 0.00 0.00 0.00 0.00 0.00 0.00 0.00 0.00 0.00 0.00 0.01 0.01 0.00 0.00 0.00 0.00 0.00 0.00 0.00 0.00 0.00 0.00 0.00 0.00 0.00 0.00 0.00 0.00 0.00 0.00 0.00 0.03 0.08 0.10 0.07 0.07 0.01 0.01 0.00 0.00 0.00
0.00 0.00 0.00 0.00 0.00 0.00 0.00 0.00 0.00 0.00 0.00 0.00 0.00 0.00 0.00 0.00 0.01 0.01 0.08 0.11 0.06 0.01 0.01 0.00 0.00 0.00 0.00 0.00 0.00 0.00 0.00 0.00 0.00 0.00 0.00 0.00 0.00 0.00 0.01 0.06 0.08 0.07 0.05 0.02 0.04 0.02 0.00 0.00 0.00
0.00 0.00 0.00 0.00 0.00 0.00 0.00 0.00 0.00 0.00 0.00 0.00 0.00 0.00 0.00 0.00 0.01 0.02 0.15 0.36 0.22 0.11 0.05 0.03 0.01 0.00 0.00 0.00 0.00 0.00 0.00 0.00 0.00 0.00 0.00 0.00 0.00 0.00 0.02 0.07 0.05 0.05 0.01 0.02 0.05 0.07 0.01 0.01 0.00

GFSSGP_prec_precacc12_075.txt.gz
Total_Precipitation_Accumulation
0.00 0.00 0.00 0.00 0.02 0.04 0.21 0.22 0.35 0.23 0.04 0.02 0.00 0.00 0.00 0.00 0.03 0.07 0.00 0.00 0.00 0.00 0.00 0.02 0.07 0.00 0.04 0.02 0.00 0.00 0.01 0.03 0.10 0.04 0.02 0.03 0.01 0.01 0.06 0.02 0.03 0.03 0.04 0.03 0.03 0.05 0.16 0.10 0.08
0.00 0.00 0.00 0.00 0.03 0.10 0.21 0.31 0.36 0.42 0.18 0.11 0.00 0.00 0.01 0.00 0.00 0.00 0.00 0.00 0.00 0.00 0.00 0.00 0.04 0.03 0.09 0.03 0.00 0.01 0.07 0.06 0.09 0.04 0.05 0.03 0.06 0.07 0.09 0.04 0.05 0.05 0.07 0.13 0.03 0.08 0.11 0.07 0.13
0.00 0.00 0.03 0.08 0.05 0.13 0.29 0.69 0.77 0.49 0.16 0.09 0.02 0.08 0.04 0.06 0.01 0.00 0.00 0.00 0.00 0.00 0.00 0.00 0.03 0.03 0.04 0.05 0.00 0.03 0.06 0.02 0.01 0.03 0.03 0.04 0.04 0.04 0.08 0.07 0.04 0.02 0.05 0.09 0.03 0.06 0.08 0.16 0.20
0.00 0.08 0.10 0.12 0.22 0.20 0.40 0.60 0.53 0.50 0.31 0.13 0.05 0.08 0.08 0.08 0.00 0.00 0.00 0.00 0.00 0.00 0.00 0.00 0.02 0.01 0.01 0.02 0.01 0.03 0.04 0.05 0.06 0.04 0.02 0.02 0.02 0.02 0.06 0.06 0.05 0.02 0.06 0.07 0.05 0.06 0.12 0.22 0.26
0.03 0.19 0.30 0.35 0.53 0.44 0.36 0.31 1.47 1.43 0.53 0.24 0.05 0.04 0.06 0.03 0.00 0.00 0.00 0.00 0.00 0.00 0.00 0.01 0.09 0.05 0.01 0.05 0.14 0.14 0.05 0.04 0.09 0.03 0.04 0.05 0.05 0.06 0.14 0.07 0.15 0.12 0.05 0.02 0.01 0.06 0.16 0.15 0.19
0.06 0.12 0.33 0.20 0.32 0.27 0.18 0.30 1.16 0.82 0.08 0.05 0.14 0.06 0.02 0.01 0.00 0.00 0.00 0.00 0.00 0.00 0.00 0.00 0.05 0.05 0.01 0.03 0.12 0.08 0.03 0.03 0.04 0.01 0.04 0.02 0.01 0.12 0.16 0.13 0.06 0.01 0.00 0.00 0.03 0.13 0.30 0.44 0.29
0.08 0.27 0.16 0.09 0.24 0.30 0.17 0.34 0.27 0.13 0.09 0.07 0.05 0.02 0.03 0.00 0.00 0.00 0.00 0.00 0.00 0.00 0.00 0.00 0.01 0.04 0.02 0.07 0.14 0.13 0.08 0.01 0.01 0.01 0.01 0.00 0.03 0.13 0.20 0.08 0.03 0.03 0.03 0.11 0.13 0.22 0.32 0.34 0.10
0.00 0.09 0.06 0.02 0.19 0.20 0.10 0.20 0.22 0.16 0.12 0.03 0.01 0.03 0.01 0.00 0.00 0.00 0.00 0.00 0.02 0.00 0.00 0.00 0.00 0.03 0.04 0.09 0.11 0.07 0.02 0.04 0.02 0.01 0.06 0.15 0.06 0.09 0.06 0.05 0.08 0.10 0.11 0.12 0.11 0.12 0.17 0.30 0.16
0.01 0.18 0.03 0.01 0.06 0.11 0.06 0.28 0.27 0.10 0.02 0.02 0.02 0.00 0.00 0.00 0.00 0.00 0.00 0.00 0.01 0.01 0.00 0.00 0.01 0.01 0.15 0.15 0.12 0.03 0.08 0.04 0.00 0.03 0.07 0.15 0.02 0.00 0.04 0.03 0.04 0.09 0.10 0.01 0.03 0.09 0.19 0.20 0.09
0.07 0.25 0.02 0.00 0.00 0.06 0.15 0.32 0.35 0.06 0.02 0.02 0.01 0.00 0.00 0.00 0.00 0.00 0.00 0.00 0.00 0.00 0.00 0.00 0.01 0.00 0.01 0.03 0.07 0.00 0.01 0.00 0.00 0.00 0.00 0.03 0.00 0.00 0.02 0.02 0.00 0.01 0.01 0.01 0.02 0.06 0.07 0.08 0.06
0.03 0.13 0.01 0.00 0.00 0.01 0.17 0.19 0.20 0.04 0.05 0.05 0.01 0.00 0.00 0.00 0.00 0.00 0.00 0.00 0.00 0.00 0.00 0.00 0.00 0.01 0.01 0.04 0.00 0.00 0.00 0.00 0.00 0.00 0.00 0.00 0.00 0.00 0.02 0.04 0.01 0.01 0.01 0.00 0.01 0.02 0.00 0.00 0.00
0.05 0.02 0.01 0.00 0.00 0.00 0.00 0.05 0.13 0.16 0.14 0.07 0.03 0.00 0.00 0.00 0.00 0.00 0.00 0.00 0.00 0.00 0.00 0.00 0.00 0.01 0.01 0.00 0.00 0.00 0.00 0.00 0.00 0.00 0.00 0.00 0.00 0.00 0.00 0.00 0.00 0.00 0.00 0.00 0.01 0.00 0.01 0.02 0.01
0.01 0.00 0.00 0.00 0.00 0.00 0.00 0.01 0.08 0.19 0.07 0.02 0.02 0.02 0.01 0.01 0.00 0.00 0.01 0.00 0.00 0.00 0.00 0.00 0.00 0.01 0.01 0.00 0.00 0.00 0.00 0.00 0.00 0.00 0.00 0.00 0.00 0.00 0.00 0.00 0.00 0.00 0.00 0.00 0.00 0.00 0.00 0.00 0.00
0.00 0.00 0.00 0.00 0.00 0.00 0.00 0.01 0.12 0.18 0.08 0.15 0.11 0.02 0.00 0.00 0.00 0.00 0.01 0.00 0.00 0.00 0.00 0.00 0.00 0.00 0.00 0.00 0.00 0.00 0.00 0.00 0.00 0.00 0.02 0.02 0.00 0.08 0.05 0.01 0.00 0.00 0.00 0.00 0.00 0.00 0.01 0.00 0.00
0.00 0.00 0.00 0.00 0.00 0.00 0.01 0.17 0.14 0.07 0.20 0.15 0.06 0.01 0.00 0.00 0.00 0.00 0.00 0.00 0.00 0.00 0.00 0.00 0.00 0.00 0.00 0.00 0.00 0.00 0.00 0.00 0.00 0.02 0.04 0.03 0.06 0.12 0.10 0.05 0.03 0.00 0.00 0.00 0.00 0.00 0.00 0.00 0.00
0.00 0.00 0.00 0.00 0.00 0.00 0.08 0.41 0.15 0.07 0.19 0.08 0.03 0.00 0.00 0.00 0.00 0.00 0.00 0.00 0.00 0.00 0.00 0.00 0.00 0.00 0.00 0.00 0.00 0.00 0.00 0.00 0.00 0.00 0.00 0.09 0.20 0.18 0.13 0.09 0.07 0.00 0.00 0.00 0.00 0.00 0.00 0.00 0.00
0.00 0.00 0.00 0.00 0.00 0.02 0.08 0.15 0.09 0.02 0.03 0.04 0.06 0.02 0.00 0.00 0.00 0.00 0.00 0.00 0.00 0.00 0.00 0.00 0.00 0.00 0.00 0.00 0.00 0.00 0.00 0.00 0.00 0.00 0.00 0.08 0.13 0.17 0.23 0.11 0.03 0.00 0.00 0.00 0.00 0.00 0.00 0.00 0.00
0.00 0.00 0.00 0.00 0.00 0.00 0.01 0.21 0.00 0.00 0.01 0.04 0.05 0.03 0.01 0.00 0.00 0.00 0.00 0.00 0.00 0.00 0.00 0.00 0.00 0.00 0.00 0.00 0.00 0.00 0.00 0.00 0.01 0.00 0.01 0.06 0.07 0.19 0.18 0.07 0.04 0.00 0.00 0.00 0.00 0.00 0.00 0.00 0.00
0.00 0.00 0.00 0.00 0.00 0.00 0.00 0.01 0.00 0.00 0.00 0.00 0.01 0.01 0.01 0.01 0.00 0.00 0.00 0.00 0.00 0.00 0.00 0.00 0.00 0.00 0.00 0.00 0.00 0.00 0.00 0.00 0.00 0.00 0.00 0.05 0.05 0.10 0.08 0.06 0.02 0.01 0.00 0.00 0.00 0.00 0.00 0.00 0.00
0.00 0.00 0.00 0.00 0.00 0.00 0.00 0.00 0.00 0.00 0.04 0.01 0.00 0.03 0.01 0.01 0.00 0.00 0.00 0.00 0.00 0.00 0.00 0.00 0.00 0.00 0.00 0.00 0.00 0.00 0.00 0.00 0.02 0.00 0.01 0.02 0.04 0.15 0.03 0.03 0.00 0.00 0.00 0.00 0.00 0.00 0.00 0.00 0.00
0.00 0.00 0.00 0.00 0.00 0.00 0.00 0.00 0.00 0.00 0.01 0.01 0.01 0.01 0.01 0.01 0.01 0.00 0.00 0.00 0.00 0.00 0.00 0.00 0.00 0.00 0.00 0.00 0.00 0.00 0.02 0.05 0.11 0.03 0.01 0.01 0.13 0.09 0.02 0.01 0.00 0.00 0.00 0.00 0.00 0.00 0.00 0.00 0.00
0.00 0.00 0.00 0.00 0.00 0.00 0.00 0.00 0.00 0.00 0.00 0.01 0.00 0.00 0.01 0.01 0.00 0.00 0.00 0.00 0.00 0.00 0.00 0.00 0.00 0.00 0.00 0.00 0.00 0.00 0.00 0.00 0.01 0.01 0.00 0.01 0.04 0.05 0.03 0.00 0.00 0.00 0.01 0.01 0.00 0.00 0.00 0.00 0.00
0.00 0.00 0.00 0.00 0.00 0.00 0.00 0.00 0.02 0.00 0.01 0.01 0.01 0.01 0.02 0.00 0.00 0.01 0.00 0.00 0.01 0.00 0.00 0.00 0.00 0.00 0.00 0.00 0.01 0.00 0.00 0.01 0.02 0.01 0.10 0.08 0.05 0.07 0.05 0.01 0.05 0.01 0.00 0.01 0.00 0.00 0.00 0.00 0.00
0.00 0.00 0.00 0.00 0.00 0.00 0.00 0.00 0.01 0.01 0.03 0.01 0.00 0.00 0.00 0.02 0.01 0.03 0.00 0.00 0.00 0.00 0.00 0.00 0.00 0.00 0.00 0.00 0.00 0.00 0.00 0.01 0.00 0.07 0.11 0.05 0.03 0.09 0.04 0.03 0.14 0.11 0.05 0.04 0.01 0.00 0.01 0.01 0.00
0.00 0.00 0.00 0.00 0.00 0.00 0.00 0.00 0.00 0.00 0.00 0.00 0.00 0.02 0.01 0.03 0.01 0.01 0.01 0.00 0.00 0.00 0.00 0.00 0.00 0.00 0.00 0.00 0.00 0.00 0.00 0.01 0.03 0.09 0.02 0.00 0.00 0.01 0.04 0.11 0.20 0.10 0.05 0.07 0.05 0.01 0.00 0.01 0.00
0.00 0.00 0.00 0.00 0.00 0.00 0.00 0.00 0.00 0.00 0.00 0.00 0.00 0.00 0.00 0.00 0.00 0.00 0.01 0.00 0.00 0.00 0.00 0.00 0.00 0.00 0.00 0.00 0.00 0.00 0.00 0.00 0.00 0.00 0.00 0.00 0.00 0.01 0.04 0.10 0.12 0.08 0.01 0.02 0.06 0.01 0.01 0.01 0.00
0.00 0.00 0.00 0.00 0.00 0.00 0.00 0.00 0.00 0.00 0.00 0.00 0.00 0.00 0.00 0.01 0.02 0.01 0.00 0.00 0.00 0.00 0.00 0.00 0.00 0.00 0.00 0.00 0.00 0.00 0.00 0.00 0.00 0.00 0.00 0.00 0.00 0.02 0.01 0.05 0.08 0.06 0.06 0.04 0.05 0.04 0.04 0.03 0.00
0.00 0.00 0.00 0.00 0.00 0.00 0.00 0.00 0.00 0.00 0.00 0.00 0.00 0.00 0.01 0.08 0.14 0.18 0.08 0.05 0.01 0.00 0.00 0.00 0.00 0.00 0.00 0.00 0.00 0.00 0.00 0.00 0.00 0.00 0.00 0.00 0.00 0.00 0.05 0.04 0.06 0.09 0.07 0.07 0.02 0.01 0.00 0.00 0.00
0.00 0.00 0.00 0.00 0.00 0.00 0.00 0.00 0.00 0.00 0.00 0.00 0.00 0.00 0.01 0.10 0.17 0.21 0.38 0.28 0.14 0.05 0.02 0.00 0.00 0.00 0.00 0.00 0.00 0.00 0.00 0.00 0.00 0.00 0.00 0.00 0.00 0.00 0.03 0.07 0.08 0.07 0.05 0.02 0.04 0.02 0.00 0.00 0.00
0.00 0.00 0.00 0.00 0.00 0.00 0.00 0.00 0.00 0.00 0.00 0.00 0.00 0.00 0.00 0.05 0.17 0.22 0.37 0.46 0.38 0.20 0.12 0.08 0.01 0.00 0.00 0.00 0.00 0.00 0.00 0.00 0.00 0.00 0.00 0.00 0.00 0.00 0.03 0.07 0.05 0.05 0.01 0.02 0.05 0.07 0.01 0.01 0.00

GFSSGP_prec_precacc12_078.txt.gz
Total_Precipitation_Accumulation
0.00 0.00 0.00 0.00 0.03 0.10 0.40 0.32 0.46 0.22 0.02 0.00 0.00 0.00 0.00 0.01 0.05 0.09 0.00 0.00 0.00 0.00 0.00 0.01 0.03 0.02 0.01 0.02 0.00 0.01 0.03 0.04 0.11 0.04 0.03 0.03 0.01 0.04 0.06 0.01 0.06 0.05 0.03 0.03 0.02 0.04 0.15 0.07 0.06
0.00 0.00 0.00 0.01 0.04 0.31 0.47 0.32 0.40 0.28 0.11 0.00 0.00 0.00 0.00 0.00 0.00 0.00 0.00 0.00 0.00 0.00 0.00 0.00 0.03 0.01 0.02 0.01 0.00 0.02 0.07 0.07 0.12 0.05 0.09 0.06 0.07 0.10 0.09 0.04 0.05 0.06 0.04 0.03 0.04 0.07 0.09 0.05 0.14
0.00 0.00 0.05 0.12 0.09 0.31 0.34 0.56 0.56 0.22 0.08 0.01 0.00 0.01 0.00 0.00 0.00 0.00 0.00 0.00 0.00 0.00 0.00 0.00 0.02 0.01 0.03 0.03 0.01 0.04 0.07 0.09 0.08 0.05 0.04 0.04 0.05 0.04 0.07 0.06 0.04 0.03 0.06 0.05 0.06 0.08 0.06 0.16 0.20
0.00 0.11 0.17 0.26 0.44 0.34 0.22 0.50 0.40 0.26 0.18 0.04 0.01 0.01 0.00 0.00 0.00 0.00 0.00 0.00 0.00 0.00 0.00 0.00 0.01 0.01 0.02 0.02 0.02 0.06 0.03 0.05 0.06 0.05 0.02 0.04 0.06 0.05 0.06 0.05 0.05 0.03 0.07 0.07 0.05 0.06 0.13 0.20 0.16
0.03 0.32 0.53 0.61 0.61 0.47 0.27 0.29 0.85 0.59 0.31 0.09 0.06 0.01 0.01 0.01 0.00 0.00 0.00 0.00 0.00 0.01 0.00 0.00 0.07 0.04 0.02 0.05 0.14 0.14 0.03 0.04 0.06 0.03 0.04 0.05 0.06 0.03 0.10 0.04 0.11 0.07 0.05 0.02 0.01 0.03 0.16 0.14 0.15
0.11 0.30 0.51 0.34 0.33 0.24 0.12 0.24 0.78 0.58 0.11 0.07 0.12 0.01 0.01 0.00 0.00 0.00 0.00 0.00 0.01 0.00 0.00 0.00 0.05 0.05 0.01 0.03 0.15 0.07 0.02 0.02 0.03 0.01 0.04 0.02 0.01 0.03 0.04 0.10 0.06 0.01 0.00 0.01 0.03 0.12 0.30 0.38 0.24
0.17 0.59 0.27 0.33 0.28 0.29 0.15 0.09 0.13 0.06 0.11 0.13 0.04 0.01 0.02 0.00 0.00 0.00 0.00 0.00 0.01 0.00 0.00 0.00 0.01 0.01 0.02 0.09 0.15 0.06 0.04 0.01 0.01 0.00 0.01 0.00 0.01 0.03 0.09 0.06 0.03 0.02 0.03 0.11 0.13 0.22 0.31 0.31 0.09
0.04 0.24 0.12 0.16 0.26 0.16 0.08 0.13 0.11 0.14 0.16 0.05 0.04 0.04 0.01 0.00 0.00 0.00 0.00 0.00 0.00 0.02 0.00 0.00 0.00 0.03 0.05 0.10 0.10 0.06 0.02 0.03 0.01 0.01 0.08 0.19 0.05 0.02 0.04 0.05 0.06 0.10 0.11 0.12 0.11 0.12 0.16 0.26 0.15
0.04 0.28 0.07 0.07 0.06 0.07 0.04 0.16 0.22 0.08 0.05 0.08 0.05 0.01 0.00 0.00 0.00 0.00 0.00 0.00 0.03 0.03 0.01 0.00 0.01 0.02 0.19 0.15 0.11 0.03 0.08 0.04 0.01 0.06 0.16 0.30 0.04 0.00 0.08 0.05 0.02 0.09 0.10 0.01 0.03 0.07 0.11 0.16 0.09
0.23 0.30 0.03 0.04 0.00 0.06 0.13 0.23 0.25 0.05 0.08 0.03 0.06 0.01 0.00 0.00 0.00 0.00 0.00 0.00 0.00 0.00 0.00 0.00 0.01 0.00 0.01 0.03 0.07 0.00 0.01 0.01 0.00 0.02 0.18 0.14 0.01 0.00 0.01 0.00 0.00 0.03 0.01 0.01 0.03 0.06 0.08 0.10 0.05
0.26 0.16 0.03 0.01 0.01 0.01 0.13 0.18 0.18 0.13 0.08 0.04 0.01 0.00 0.00 0.00 0.00 0.00 0.00 0.00 0.00 0.00 0.00 0.00 0.01 0.01 0.02 0.04 0.00 0.00 0.00 0.01 0.00 0.00 0.01 0.00 0.00 0.00 0.00 0.00 0.00 0.00 0.02 0.04 0.04 0.02 0.03 0.00 0.00
0.09 0.02 0.02 0.02 0.00 0.00 0.01 0.05 0.13 0.21 0.15 0.04 0.00 0.00 0.00 0.00 0.00 0.00 0.00 0.00 0.00 0.00 0.00 0.00 0.00 0.01 0.02 0.00 0.00 0.00 0.00 0.00 0.00 0.00 0.00 0.00 0.00 0.00 0.04 0.01 0.03 0.00 0.09 0.47 0.10 0.00 0.00 0.00 0.00
0.10 0.03 0.00 0.00 0.00 0.00 0.03 0.02 0.09 0.22 0.09 0.02 0.00 0.00 0.00 0.00 0.00 0.00 0.00 0.00 0.00 0.00 0.00 0.00 0.00 0.01 0.01 0.00 0.00 0.00 0.00 0.00 0.00 0.00 0.00 0.00 0.00 0.00 0.01 0.04 0.00 0.02 0.04 0.06 0.03 0.01 0.00 0.00 0.00
0.01 0.04 0.00 0.00 0.00 0.00 0.01 0.03 0.17 0.26 0.02 0.06 0.04 0.00 0.00 0.00 0.00 0.00 0.00 0.00 0.00 0.00 0.00 0.00 0.00 0.00 0.00 0.00 0.00 0.00 0.01 0.00 0.00 0.00 0.00 0.03 0.00 0.00 0.01 0.01 0.00 0.00 0.03 0.02 0.02 0.02 0.00 0.00 0.00
0.00 0.01 0.00 0.00 0.00 0.00 0.03 0.25 0.17 0.08 0.14 0.05 0.04 0.01 0.00 0.00 0.00 0.00 0.00 0.00 0.00 0.00 0.00 0.00 0.00 0.00 0.00 0.00 0.00 0.01 0.00 0.00 0.00 0.00 0.05 0.13 0.07 0.06 0.07 0.02 0.02 0.00 0.00 0.00 0.03 0.01 0.00 0.00 0.01
0.00 0.00 0.00 0.00 0.00 0.00 0.11 0.63 0.23 0.08 0.14 0.03 0.02 0.00 0.00 0.00 0.00 0.00 0.00 0.00 0.00 0.00 0.00 0.00 0.00 0.00 0.00 0.00 0.00 0.00 0.00 0.01 0.00 0.01 0.00 0.03 0.10 0.12 0.19 0.08 0.08 0.00 0.00 0.00 0.02 0.01 0.01 0.00 0.00
0.00 0.00 0.00 0.01 0.00 0.00 0.08 0.42 0.21 0.04 0.02 0.04 0.05 0.02 0.00 0.00 0.00 0.00 0.00 0.00 0.00 0.00 0.00 0.00 0.00 0.00 0.00 0.00 0.00 0.00 0.01 0.02 0.01 0.04 0.08 0.02 0.02 0.11 0.13 0.08 0.04 0.00 0.00 0.00 0.02 0.00 0.00 0.00 0.00
0.00 0.00 0.00 0.01 0.00 0.00 0.01 0.64 0.62 0.03 0.02 0.04 0.05 0.03 0.01 0.00 0.00 0.00 0.00 0.00 0.00 0.00 0.00 0.00 0.00 0.00 0.00 0.00 0.00 0.00 0.01 0.05 0.05 0.04 0.14 0.05 0.05 0.10 0.10 0.07 0.04 0.00 0.01 0.00 0.00 0.00 0.01 0.02 0.00
0.00 0.00 0.00 0.00 0.00 0.00 0.01 0.12 0.23 0.01 0.00 0.01 0.01 0.02 0.02 0.01 0.00 0.00 0.00 0.00 0.00 0.00 0.00 0.00 0.00 0.00 0.00 0.00 0.00 0.00 0.00 0.00 0.01 0.04 0.03 0.06 0.09 0.06 0.07 0.05 0.02 0.05 0.05 0.00 0.00 0.00 0.00 0.00 0.00
0.00 0.00 0.00 0.01 0.01 0.00 0.03 0.04 0.15 0.01 0.00 0.00 0.00 0.03 0.02 0.02 0.01 0.00 0.00 0.00 0.01 0.00 0.00 0.00 0.00 0.00 0.00 0.00 0.00 0.00 0.00 0.01 0.03 0.06 0.03 0.02 0.03 0.08 0.04 0.03 0.00 0.03 0.03 0.00 0.00 0.00 0.00 0.00 0.00
0.00 0.00 0.00 0.00 0.02 0.00 0.00 0.01 0.02 0.00 0.00 0.00 0.01 0.02 0.04 0.02 0.03 0.00 0.00 0.00 0.02 0.01 0.00 0.00 0.00 0.00 0.00 0.00 0.00 0.01 0.06 0.12 0.25 0.19 0.03 0.01 0.12 0.04 0.01 0.01 0.00 0.00 0.00 0.00 0.00 0.00 0.02 0.01 0.00
0.00 0.00 0.00 0.00 0.00 0.00 0.00 0.00 0.00 0.00 0.01 0.03 0.02 0.00 0.01 0.01 0.01 0.00 0.00 0.01 0.01 0.01 0.00 0.00 0.00 0.00 0.00 0.00 0.00 0.01 0.02 0.02 0.02 0.01 0.02 0.02 0.04 0.03 0.01 0.00 0.00 0.01 0.04 0.03 0.00 0.00 0.00 0.00 0.00
0.00 0.00 0.00 0.00 0.00 0.00 0.00 0.00 0.02 0.09 0.13 0.07 0.03 0.02 0.05 0.01 0.00 0.01 0.01 0.00 0.01 0.00 0.00 0.00 0.00 0.00 0.00 0.00 0.03 0.01 0.01 0.16 0.13 0.04 0.24 0.15 0.07 0.07 0.01 0.00 0.00 0.01 0.05 0.04 0.01 0.00 0.00 0.00 0.00
0.00 0.00 0.00 0.00 0.00 0.00 0.00 0.00 0.01 0.24 0.35 0.18 0.01 0.01 0.14 0.06 0.03 0.03 0.00 0.01 0.00 0.00 0.00 0.00 0.00 0.00 0.00 0.00 0.01 0.02 0.04 0.20 0.23 0.16 0.19 0.10 0.04 0.08 0.03 0.03 0.08 0.09 0.14 0.07 0.02 0.00 0.01 0.01 0.00
0.00 0.00 0.00 0.00 0.00 0.00 0.00 0.00 0.00 0.06 0.44 0.36 0.02 0.02 0.04 0.05 0.07 0.03 0.01 0.01 0.00 0.00 0.00 0.00 0.00 0.00 0.00 0.00 0.00 0.00 0.02 0.07 0.23 0.33 0.04 0.02 0.03 0.01 0.05 0.12 0.19 0.10 0.10 0.09 0.05 0.02 0.01 0.01 0.00
0.00 0.00 0.00 0.00 0.00 0.00 0.00 0.00 0.00 0.00 0.02 0.06 0.00 0.00 0.00 0.02 0.03 0.12 0.01 0.02 0.00 0.00 0.00 0.00 0.00 0.00 0.00 0.00 0.01 0.02 0.02 0.02 0.02 0.13 0.01 0.04 0.07 0.04 0.11 0.12 0.11 0.05 0.02 0.02 0.06 0.02 0.00 0.00 0.00
0.00 0.00 0.00 0.00 0.00 0.00 0.00 0.00 0.00 0.00 0.00 0.00 0.00 0.00 0.01 0.13 0.14 0.10 0.02 0.02 0.06 0.00 0.00 0.00 0.00 0.00 0.00 0.00 0.00 0.00 0.00 0.00 0.01 0.01 0.00 0.00 0.03 0.11 0.18 0.09 0.06 0.05 0.06 0.04 0.05 0.04 0.04 0.02 0.00
0.00 0.00 0.00 0.00 0.00 0.00 0.00 0.00 0.00 0.00 0.00 0.00 0.00 0.00 0.02 0.13 0.57 0.73 0.29 0.13 0.06 0.01 0.00 0.00 0.00 0.00 0.00 0.00 0.00 0.00 0.00 0.01 0.00 0.01 0.00 0.00 0.02 0.14 0.35 0.37 0.10 0.06 0.05 0.08 0.05 0.02 0.02 0.01 0.01
0.00 0.00 0.00 0.00 0.00 0.00 0.00 0.01 0.00 0.00 0.00 0.00 0.00 0.00 0.01 0.13 0.43 0.94 1.13 0.51 0.29 0.13 0.11 0.08 0.02 0.00 0.00 0.00 0.00 0.00 0.00 0.00 0.00 0.00 0.00 0.00 0.00 0.04 0.24 0.74 0.12 0.12 0.03 0.01 0.05 0.08 0.05 0.03 0.01
0.00 0.00 0.00 0.00 0.00 0.00 0.00 0.03 0.00 0.00 0.00 0.00 0.00 0.00 0.00 0.06 0.26 0.42 0.80 0.82 0.76 0.41 0.25 0.24 0.13 0.04 0.01 0.00 0.01 0.00 0.00 0.00 0.00 0.00 0.00 0.00 0.00 0.00 0.05 0.10 0.12 0.12 0.03 0.05 0.10 0.09 0.04 0.06 0.01

GFSSGP_prec_precacc12_081.txt.gz
Total_Precipitation_Accumulation
0.00 0.00 0.00 0.00 0.03 0.39 1.25 0.36 0.61 0.20 0.04 0.00 0.00 0.00 0.00 0.03 0.07 0.11 0.00 0.00 0.00 0.00 0.00 0.00 0.02 0.02 0.01 0.02 0.00 0.01 0.03 0.04 0.11 0.03 0.02 0.02 0.01 0.03 0.03 0.02 0.05 0.03 0.05 0.05 0.02 0.02 0.08 0.01 0.01
0.00 0.00 0.00 0.01 0.06 0.75 1.04 0.36 0.32 0.21 0.07 0.00 0.01 0.01 0.00 0.01 0.02 0.00 0.00 0.00 0.00 0.00 0.00 0.00 0.01 0.01 0.02 0.02 0.00 0.02 0.07 0.06 0.11 0.05 0.07 0.03 0.02 0.05 0.02 0.01 0.05 0.07 0.10 0.07 0.07 0.03 0.04 0.02 0.08
0.00 0.00 0.06 0.15 0.15 0.82 0.51 0.42 0.38 0.11 0.02 0.00 0.00 0.01 0.00 0.00 0.00 0.00 0.00 0.00 0.00 0.00 0.00 0.00 0.00 0.00 0.03 0.03 0.02 0.04 0.07 0.09 0.08 0.05 0.02 0.01 0.02 0.02 0.03 0.02 0.02 0.08 0.05 0.04 0.12 0.09 0.06 0.15 0.13
0.00 0.12 0.22 0.39 0.70 0.79 0.16 0.21 0.14 0.14 0.02 0.03 0.01 0.00 0.00 0.00 0.00 0.00 0.00 0.00 0.00 0.00 0.00 0.00 0.00 0.00 0.01 0.02 0.03 0.06 0.04 0.07 0.06 0.06 0.04 0.04 0.08 0.05 0.03 0.04 0.03 0.04 0.05 0.04 0.04 0.05 0.12 0.15 0.11
0.03 0.36 0.66 0.77 0.73 0.47 0.17 0.20 0.19 0.20 0.15 0.11 0.06 0.00 0.00 0.00 0.00 0.00 0.00 0.00 0.00 0.01 0.00 0.00 0.07 0.04 0.02 0.05 0.14 0.13 0.03 0.04 0.06 0.04 0.04 0.05 0.06 0.02 0.02 0.03 0.05 0.02 0.05 0.02 0.01 0.03 0.16 0.10 0.08
0.12 0.37 0.62 0.49 0.36 0.17 0.06 0.12 0.17 0.10 0.11 0.05 0.05 0.00 0.00 0.00 0.00 0.00 0.00 0.00 0.01 0.01 0.00 0.00 0.05 0.04 0.01 0.03 0.15 0.06 0.01 0.03 0.05 0.02 0.03 0.02 0.00 0.01 0.01 0.02 0.02 0.01 0.00 0.01 0.03 0.09 0.25 0.28 0.14
0.26 0.77 0.39 0.52 0.29 0.22 0.09 0.02 0.01 0.05 0.14 0.13 0.02 0.01 0.00 0.00 0.00 0.00 0.00 0.00 0.01 0.00 0.00 0.00 0.01 0.01 0.01 0.07 0.13 0.04 0.01 0.02 0.01 0.00 0.01 0.00 0.00 0.01 0.02 0.02 0.02 0.02 0.03 0.11 0.13 0.14 0.26 0.22 0.03
0.09 0.41 0.25 0.24 0.27 0.12 0.05 0.03 0.07 0.17 0.18 0.07 0.06 0.04 0.00 0.00 0.00 0.01 0.00 0.01 0.00 0.02 0.00 0.00 0.00 0.01 0.03 0.06 0.08 0.03 0.02 0.03 0.01 0.02 0.10 0.20 0.04 0.00 0.03 0.03 0.04 0.10 0.11 0.12 0.10 0.06 0.05 0.09 0.04
0.11 0.48 0.13 0.10 0.07 0.05 0.01 0.08 0.20 0.21 0.12 0.16 0.09 0.01 0.00 0.00 0.00 0.00 0.00 0.01 0.03 0.05 0.02 0.00 0.00 0.02 0.17 0.11 0.08 0.02 0.10 0.16 0.14 0.17 0.22 0.39 0.07 0.02 0.07 0.05 0.01 0.09 0.10 0.01 0.03 0.04 0.03 0.05 0.02
0.83 0.38 0.08 0.06 0.01 0.05 0.08 0.12 0.17 0.33 0.14 0.07 0.08 0.01 0.00 0.00 0.00 0.00 0.00 0.00 0.01 0.03 0.03 0.01 0.01 0.00 0.00 0.02 0.04 0.00 0.01 0.06 0.12 0.21 0.33 0.15 0.06 0.01 0.00 0.00 0.00 0.03 0.02 0.06 0.07 0.06 0.07 0.09 0.03
1.02 0.29 0.10 0.03 0.01 0.01 0.09 0.07 0.21 0.37 0.13 0.05 0.01 0.00 0.00 0.00 0.00 0.00 0.00 0.00 0.00 0.00 0.00 0.00 0.01 0.01 0.02 0.03 0.00 0.00 0.00 0.03 0.02 0.01 0.02 0.02 0.04 0.02 0.03 0.04 0.02 0.00 0.04 0.10 0.17 0.15 0.08 0.01 0.00
0.21 0.12 0.07 0.07 0.01 0.00 0.00 0.06 0.17 0.54 0.13 0.02 0.00 0.00 0.00 0.00 0.00 0.00 0.00 0.00 0.00 0.00 0.00 0.00 0.00 0.01 0.02 0.02 0.01 0.00 0.00 0.00 0.00 0.00 0.01 0.01 0.02 0.13 0.16 0.13 0.09 0.03 0.11 0.48 0.14 0.04 0.01 0.01 0.00
0.17 0.09 0.02 0.04 0.02 0.01 0.05 0.03 0.10 0.23 0.06 0.02 0.00 0.00 0.00 0.00 0.00 0.00 0.00 0.00 0.00 0.00 0.00 0.00 0.00 0.01 0.02 0.00 0.00 0.00 0.00 0.00 0.00 0.00 0.02 0.06 0.04 0.03 0.05 0.14 0.12 0.11 0.09 0.09 0.05 0.03 0.01 0.00 0.00
0.08 0.09 0.03 0.04 0.01 0.02 0.05 0.15 0.20 0.24 0.01 0.02 0.00 0.00 0.00 0.00 0.00 0.00 0.00 0.00 0.00 0.00 0.00 0.00 0.00 0.00 0.00 0.00 0.00 0.00 0.01 0.00 0.00 0.01 0.03 0.06 0.03 0.02 0.03 0.07 0.07 0.02 0.09 0.06 0.04 0.02 0.01 0.00 0.00
0.02 0.09 0.03 0.01 0.00 0.00 0.05 0.47 0.26 0.06 0.03 0.03 0.00 0.00 0.00 0.00 0.00 0.00 0.00 0.00 0.00 0.00 0.00 0.00 0.00 0.00 0.00 0.00 0.00 0.01 0.00 0.00 0.01 0.02 0.13 0.18 0.13 0.06 0.09 0.02 0.03 0.05 0.02 0.01 0.08 0.03 0.00 0.00 0.01
0.00 0.01 0.02 0.00 0.00 0.00 0.13 0.81 0.38 0.04 0.05 0.04 0.01 0.00 0.00 0.00 0.00 0.00 0.00 0.00 0.00 0.00 0.00 0.00 0.00 0.00 0.00 0.00 0.00 0.00 0.01 0.02 0.02 0.10 0.06 0.04 0.13 0.12 0.18 0.06 0.04 0.02 0.02 0.02 0.06 0.06 0.03 0.00 0.00
0.00 0.00 0.00 0.03 0.00 0.00 0.08 0.52 0.81 0.10 0.05 0.03 0.02 0.01 0.00 0.00 0.00 0.00 0.00 0.00 0.00 0.00 0.00 0.00 0.00 0.00 0.00 0.00 0.00 0.00 0.02 0.04 0.06 0.11 0.20 0.06 0.03 0.12 0.13 0.07 0.04 0.00 0.01 0.01 0.03 0.00 0.00 0.01 0.00
0.00 0.00 0.00 0.01 0.01 0.00 0.04 0.69 1.35 0.56 0.05 0.04 0.01 0.02 0.01 0.00 0.00 0.00 0.00 0.00 0.00 0.00 0.00 0.00 0.00 0.00 0.00 0.00 0.01 0.01 0.02 0.08 0.09 0.09 0.25 0.10 0.09 0.11 0.11 0.07 0.06 0.04 0.01 0.00 0.01 0.00 0.01 0.03 0.00
0.00 0.00 0.00 0.01 0.01 0.03 0.10 0.19 0.56 0.27 0.03 0.01 0.00 0.01 0.02 0.01 0.00 0.00 0.00 0.00 0.00 0.00 0.00 0.00 0.00 0.00 0.00 0.00 0.00 0.00 0.01 0.00 0.06 0.11 0.16 0.12 0.16 0.07 0.08 0.04 0.04 0.11 0.06 0.00 0.00 0.00 0.00 0.00 0.00
0.00 0.00 0.00 0.02 0.02 0.04 0.08 0.05 0.16 0.02 0.01 0.00 0.00 0.03 0.02 0.02 0.01 0.00 0.00 0.00 0.01 0.00 0.00 0.00 0.00 0.00 0.00 0.00 0.00 0.00 0.01 0.03 0.08 0.18 0.20 0.04 0.07 0.06 0.05 0.07 0.01 0.07 0.04 0.00 0.00 0.00 0.00 0.00 0.00
0.00 0.00 0.00 0.00 0.02 0.04 0.06 0.07 0.08 0.04 0.01 0.01 0.01 0.02 0.04 0.02 0.03 0.00 0.00 0.00 0.02 0.01 0.00 0.00 0.00 0.00 0.00 0.00 0.00 0.03 0.09 0.18 0.33 0.26 0.10 0.05 0.12 0.03 0.01 0.01 0.02 0.00 0.00 0.00 0.00 0.00 0.02 0.01 0.00
0.00 0.00 0.00 0.00 0.00 0.00 0.02 0.05 0.09 0.05 0.03 0.07 0.03 0.01 0.01 0.01 0.02 0.01 0.00 0.01 0.01 0.01 0.00 0.00 0.00 0.00 0.00 0.00 0.01 0.02 0.04 0.06 0.05 0.05 0.08 0.06 0.04 0.02 0.00 0.01 0.02 0.01 0.04 0.03 0.00 0.00 0.00 0.00 0.00
0.00 0.00 0.00 0.00 0.00 0.00 0.00 0.01 0.03 0.16 0.39 0.36 0.13 0.05 0.05 0.01 0.02 0.01 0.01 0.00 0.01 0.00 0.00 0.00 0.00 0.00 0.00 0.00 0.04 0.02 0.01 0.17 0.15 0.09 0.37 0.16 0.08 0.04 0.00 0.00 0.01 0.02 0.05 0.03 0.01 0.00 0.00 0.00 0.00
0.00 0.00 0.00 0.00 0.00 0.00 0.00 0.00 0.02 0.28 0.46 0.55 0.34 0.11 0.14 0.07 0.07 0.04 0.02 0.01 0.00 0.00 0.00 0.00 0.00 0.00 0.00 0.00 0.01 0.03 0.04 0.21 0.26 0.20 0.26 0.11 0.04 0.04 0.03 0.03 0.07 0.10 0.14 0.06 0.01 0.00 0.01 0.01 0.00
0.00 0.00 0.00 0.00 0.00 0.00 0.00 0.00 0.02 0.08 0.49 0.57 0.45 0.14 0.09 0.07 0.13 0.05 0.01 0.02 0.01 0.00 0.00 0.00 0.00 0.00 0.00 0.00 0.00 0.04 0.05 0.11 0.27 0.34 0.04 0.06 0.14 0.06 0.06 0.14 0.20 0.09 0.10 0.06 0.05 0.02 0.01 0.01 0.00
0.00 0.00 0.00 0.00 0.00 0.00 0.00 0.00 0.00 0.00 0.02 0.09 0.06 0.04 0.11 0.10 0.12 0.21 0.10 0.03 0.01 0.03 0.00 0.00 0.00 0.00 0.00 0.00 0.01 0.03 0.07 0.05 0.04 0.15 0.05 0.11 0.16 0.07 0.12 0.14 0.09 0.05 0.02 0.02 0.06 0.02 0.00 0.00 0.00
0.00 0.00 0.00 0.00 0.00 0.00 0.00 0.00 0.02 0.04 0.05 0.02 0.04 0.06 0.07 0.31 0.39 0.26 0.13 0.05 0.08 0.06 0.00 0.00 0.00 0.00 0.00 0.00 0.01 0.01 0.01 0.02 0.02 0.04 0.05 0.02 0.08 0.12 0.19 0.12 0.09 0.07 0.07 0.03 0.06 0.04 0.04 0.02 0.00
0.00 0.00 0.00 0.00 0.00 0.00 0.02 0.03 0.09 0.08 0.06 0.05 0.01 0.00 0.03 0.21 0.96 1.24 0.81 0.28 0.16 0.14 0.05 0.09 0.04 0.01 0.01 0.00 0.01 0.03 0.01 0.03 0.03 0.05 0.03 0.01 0.05 0.21 0.41 0.43 0.13 0.09 0.06 0.08 0.04 0.04 0.03 0.02 0.01
0.00 0.00 0.00 0.00 0.00 0.00 0.03 0.07 0.08 0.10 0.05 0.01 0.00 0.00 0.02 0.16 0.57 1.35 1.67 1.32 0.49 0.35 0.20 0.33 0.33 0.24 0.11 0.04 0.05 0.05 0.05 0.02 0.02 0.03 0.02 0.04 0.06 0.12 0.27 0.80 0.13 0.14 0.06 0.02 0.04 0.09 0.05 0.03 0.01
0.00 0.00 0.00 0.00 0.00 0.00 0.02 0.06 0.05 0.08 0.02 0.00 0.01 0.00 0.01 0.09 0.31 0.45 0.85 0.94 1.03 0.87 0.49 0.59 0.99 0.42 0.23 0.16 0.16 0.09 0.05 0.05 0.07 0.02 0.01 0.00 0.02 0.03 0.07 0.10 0.12 0.13 0.05 0.08 0.12 0.04 0.04 0.07 0.01

GFSSGP_prec_precacc12_084.txt.gz
Total_Precipitation_Accumulation
0.00 0.00 0.00 0.00 0.03 0.58 1.51 0.43 0.68 0.24 0.07 0.00 0.01 0.00 0.00 0.03 0.06 0.09 0.00 0.00 0.00 0.00 0.00 0.01 0.01 0.02 0.01 0.02 0.01 0.01 0.02 0.03 0.10 0.02 0.01 0.02 0.03 0.04 0.04 0.02 0.04 0.05 0.07 0.05 0.02 0.01 0.03 0.02 0.04
0.00 0.00 0.00 0.01 0.06 1.02 1.59 0.36 0.35 0.25 0.09 0.01 0.04 0.01 0.01 0.01 0.03 0.00 0.00 0.00 0.00 0.00 0.00 0.00 0.01 0.01 0.02 0.02 0.00 0.02 0.06 0.05 0.10 0.04 0.06 0.03 0.02 0.04 0.03 0.02 0.03 0.06 0.11 0.07 0.07 0.02 0.02 0.02 0.08
0.00 0.00 0.05 0.15 0.24 1.25 0.56 0.10 0.21 0.17 0.06 0.00 0.00 0.01 0.00 0.00 0.00 0.00 0.00 0.00 0.00 0.00 0.00 0.00 0.00 0.00 0.03 0.03 0.01 0.04 0.07 0.09 0.07 0.03 0.01 0.01 0.02 0.01 0.02 0.03 0.03 0.07 0.04 0.04 0.12 0.07 0.03 0.05 0.09
0.00 0.09 0.23 0.62 0.88 1.77 0.30 0.05 0.17 0.15 0.03 0.03 0.01 0.00 0.00 0.00 0.00 0.00 0.00 0.00 0.00 0.00 0.00 0.00 0.00 0.00 0.01 0.02 0.03 0.06 0.02 0.05 0.03 0.03 0.03 0.03 0.07 0.04 0.02 0.03 0.03 0.03 0.02 0.02 0.03 0.02 0.04 0.03 0.05
0.02 0.32 0.59 0.75 0.75 0.45 0.16 0.15 0.17 0.13 0.10 0.10 0.05 0.00 0.00 0.00 0.00 0.00 0.00 0.00 0.00 0.01 0.00 0.00 0.04 0.02 0.02 0.04 0.13 0.12 0.02 0.02 0.02 0.03 0.03 0.03 0.03 0.01 0.02 0.02 0.04 0.02 0.01 0.01 0.01 0.02 0.09 0.07 0.09
0.14 0.36 0.54 0.60 0.32 0.13 0.06 0.14 0.16 0.09 0.09 0.05 0.05 0.00 0.00 0.00 0.00 0.00 0.00 0.00 0.01 0.01 0.00 0.00 0.03 0.02 0.01 0.03 0.13 0.05 0.01 0.04 0.04 0.01 0.01 0.01 0.01 0.02 0.01 0.02 0.02 0.00 0.00 0.01 0.02 0.05 0.16 0.20 0.09
0.27 0.70 0.37 0.56 0.21 0.15 0.04 0.03 0.07 0.05 0.13 0.12 0.01 0.01 0.00 0.00 0.00 0.00 0.00 0.00 0.01 0.00 0.00 0.00 0.00 0.01 0.00 0.06 0.11 0.03 0.01 0.02 0.00 0.00 0.00 0.00 0.01 0.01 0.01 0.02 0.02 0.02 0.00 0.02 0.04 0.03 0.09 0.08 0.00
0.12 0.42 0.29 0.30 0.24 0.08 0.03 0.03 0.10 0.13 0.17 0.07 0.06 0.03 0.00 0.00 0.00 0.01 0.00 0.01 0.00 0.02 0.00 0.00 0.00 0.00 0.01 0.03 0.06 0.03 0.01 0.01 0.00 0.01 0.07 0.10 0.01 0.00 0.03 0.03 0.04 0.09 0.05 0.03 0.01 0.00 0.00 0.00 0.00
0.16 0.53 0.16 0.18 0.05 0.01 0.00 0.11 0.22 0.20 0.12 0.16 0.09 0.01 0.00 0.00 0.00 0.01 0.00 0.01 0.03 0.04 0.02 0.00 0.00 0.01 0.11 0.03 0.02 0.02 0.07 0.14 0.15 0.15 0.16 0.34 0.06 0.03 0.07 0.05 0.01 0.08 0.09 0.00 0.00 0.00 0.01 0.00 0.00
0.91 0.35 0.11 0.12 0.03 0.00 0.00 0.05 0.19 0.38 0.23 0.12 0.08 0.01 0.00 0.00 0.00 0.00 0.00 0.00 0.01 0.03 0.03 0.00 0.01 0.00 0.00 0.00 0.01 0.00 0.01 0.06 0.12 0.21 0.32 0.15 0.06 0.02 0.00 0.00 0.01 0.03 0.02 0.05 0.05 0.03 0.06 0.06 0.00
1.07 0.32 0.13 0.04 0.01 0.00 0.00 0.03 0.15 0.45 0.28 0.08 0.01 0.00 0.00 0.00 0.00 0.00 0.00 0.00 0.00 0.00 0.00 0.00 0.01 0.01 0.01 0.00 0.00 0.00 0.00 0.03 0.02 0.01 0.02 0.02 0.04 0.03 0.06 0.09 0.09 0.05 0.04 0.10 0.17 0.15 0.08 0.01 0.00
0.20 0.23 0.20 0.10 0.01 0.00 0.01 0.06 0.12 0.60 0.16 0.02 0.00 0.00 0.00 0.00 0.00 0.00 0.00 0.00 0.00 0.00 0.00 0.01 0.00 0.01 0.01 0.01 0.01 0.00 0.00 0.00 0.00 0.00 0.01 0.01 0.02 0.13 0.19 0.14 0.10 0.04 0.11 0.48 0.14 0.04 0.01 0.01 0.00
0.21 0.13 0.18 0.07 0.03 0.01 0.11 0.09 0.08 0.17 0.10 0.02 0.00 0.00 0.00 0.00 0.00 0.00 0.00 0.00 0.00 0.00 0.01 0.01 0.00 0.00 0.01 0.00 0.00 0.00 0.00 0.00 0.00 0.01 0.04 0.07 0.04 0.03 0.07 0.15 0.13 0.11 0.10 0.11 0.05 0.03 0.01 0.00 0.00
0.11 0.11 0.26 0.23 0.12 0.06 0.12 0.20 0.17 0.22 0.02 0.02 0.00 0.00 0.00 0.00 0.00 0.00 0.00 0.00 0.00 0.00 0.00 0.00 0.00 0.00 0.00 0.00 0.00 0.00 0.01 0.00 0.00 0.01 0.03 0.06 0.03 0.03 0.04 0.08 0.07 0.02 0.09 0.06 0.05 0.02 0.01 0.00 0.00
0.04 0.09 0.06 0.07 0.11 0.08 0.13 0.52 0.25 0.05 0.01 0.02 0.00 0.00 0.00 0.00 0.00 0.00 0.00 0.00 0.00 0.00 0.00 0.00 0.00 0.00 0.00 0.00 0.00 0.01 0.00 0.00 0.01 0.02 0.15 0.20 0.13 0.04 0.08 0.02 0.04 0.09 0.04 0.01 0.09 0.03 0.00 0.00 0.01
0.05 0.02 0.05 0.02 0.01 0.01 0.15 0.84 0.53 0.11 0.05 0.05 0.00 0.00 0.00 0.00 0.00 0.00 0.00 0.00 0.00 0.00 0.00 0.00 0.00 0.00 0.00 0.00 0.00 0.00 0.01 0.02 0.03 0.11 0.07 0.06 0.14 0.03 0.10 0.02 0.02 0.05 0.05 0.04 0.06 0.06 0.03 0.00 0.00
0.00 0.00 0.01 0.06 0.02 0.02 0.16 0.62 1.29 0.22 0.09 0.07 0.01 0.00 0.00 0.00 0.00 0.00 0.00 0.00 0.00 0.00 0.00 0.00 0.00 0.00 0.00 0.00 0.00 0.00 0.02 0.04 0.07 0.13 0.21 0.06 0.03 0.02 0.06 0.06 0.02 0.01 0.02 0.01 0.03 0.00 0.00 0.01 0.00
0.00 0.00 0.00 0.03 0.04 0.11 0.13 0.72 1.44 0.68 0.11 0.06 0.01 0.02 0.01 0.00 0.00 0.00 0.00 0.00 0.00 0.00 0.00 0.00 0.00 0.00 0.00 0.00 0.01 0.01 0.02 0.08 0.10 0.10 0.27 0.19 0.13 0.02 0.07 0.04 0.03 0.04 0.01 0.00 0.01 0.01 0.01 0.03 0.00
0.00 0.00 0.00 0.01 0.03 0.10 0.19 0.22 0.56 0.27 0.03 0.02 0.00 0.01 0.02 0.01 0.00 0.00 0.00 0.00 0.00 0.00 0.00 0.00 0.00 0.00 0.00 0.00 0.00 0.00 0.04 0.00 0.07 0.13 0.20 0.22 0.21 0.07 0.08 0.04 0.04 0.11 0.06 0.00 0.01 0.01 0.00 0.00 0.00
0.00 0.00 0.00 0.02 0.02 0.04 0.18 0.14 0.17 0.06 0.08 0.07 0.01 0.03 0.02 0.02 0.01 0.00 0.00 0.00 0.01 0.00 0.00 0.00 0.00 0.00 0.00 0.00 0.01 0.01 0.02 0.04 0.09 0.19 0.22 0.10 0.08 0.04 0.04 0.06 0.02 0.07 0.04 0.01 0.01 0.00 0.00 0.00 0.00
0.00 0.00 0.00 0.00 0.02 0.04 0.10 0.11 0.09 0.07 0.09 0.11 0.03 0.02 0.05 0.02 0.04 0.00 0.00 0.00 0.02 0.01 0.00 0.00 0.00 0.00 0.00 0.00 0.01 0.04 0.10 0.17 0.30 0.25 0.10 0.05 0.09 0.04 0.08 0.01 0.02 0.01 0.01 0.01 0.01 0.01 0.02 0.01 0.00
0.00 0.00 0.00 0.00 0.00 0.00 0.04 0.09 0.13 0.10 0.09 0.13 0.05 0.01 0.02 0.02 0.04 0.03 0.00 0.01 0.01 0.01 0.00 0.00 0.00 0.00 0.00 0.00 0.01 0.02 0.05 0.07 0.04 0.05 0.08 0.05 0.02 0.02 0.03 0.03 0.04 0.02 0.04 0.03 0.00 0.01 0.00 0.00 0.00
0.00 0.00 0.00 0.00 0.00 0.00 0.00 0.03 0.04 0.27 0.51 0.50 0.21 0.08 0.09 0.03 0.06 0.04 0.02 0.01 0.01 0.00 0.00 0.00 0.00 0.00 0.00 0.00 0.04 0.02 0.01 0.18 0.14 0.09 0.35 0.11 0.04 0.01 0.01 0.02 0.02 0.02 0.05 0.03 0.01 0.00 0.00 0.00 0.00
0.00 0.00 0.00 0.00 0.00 0.00 0.00 0.00 0.02 0.29 0.47 0.62 0.40 0.18 0.19 0.08 0.09 0.06 0.03 0.01 0.01 0.00 0.00 0.00 0.00 0.00 0.00 0.00 0.01 0.03 0.04 0.21 0.28 0.19 0.29 0.12 0.02 0.01 0.01 0.01 0.06 0.09 0.11 0.03 0.00 0.01 0.00 0.00 0.00
0.00 0.00 0.00 0.00 0.00 0.00 0.00 0.00 0.02 0.08 0.49 0.58 0.46 0.14 0.09 0.07 0.14 0.05 0.02 0.02 0.01 0.00 0.00 0.00 0.00 0.00 0.00 0.00 0.00 0.04 0.05 0.10 0.24 0.32 0.03 0.07 0.14 0.06 0.03 0.03 0.06 0.05 0.05 0.02 0.01 0.01 0.00 0.00 0.00
0.00 0.00 0.00 0.00 0.00 0.00 0.00 0.00 0.00 0.02 0.11 0.18 0.09 0.04 0.11 0.12 0.16 0.26 0.13 0.04 0.02 0.06 0.00 0.00 0.00 0.00 0.00 0.00 0.01 0.03 0.07 0.06 0.05 0.15 0.05 0.11 0.18 0.08 0.10 0.07 0.05 0.04 0.01 0.01 0.01 0.01 0.00 0.00 0.00
0.00 0.00 0.00 0.00 0.00 0.00 0.00 0.00 0.02 0.07 0.13 0.03 0.04 0.06 0.07 0.32 0.40 0.32 0.18 0.11 0.16 0.13 0.02 0.00 0.00 0.00 0.00 0.00 0.01 0.01 0.01 0.02 0.02 0.04 0.07 0.03 0.10 0.12 0.19 0.10 0.04 0.04 0.03 0.02 0.04 0.03 0.02 0.02 0.00
0.00 0.00 0.00 0.00 0.00 0.00 0.07 0.07 0.12 0.10 0.08 0.06 0.02 0.01 0.04 0.24 0.97 1.36 0.96 0.38 0.20 0.24 0.15 0.17 0.07 0.01 0.02 0.01 0.02 0.03 0.02 0.03 0.03 0.06 0.03 0.03 0.05 0.21 0.41 0.41 0.09 0.04 0.03 0.03 0.04 0.04 0.03 0.02 0.01
0.00 0.00 0.00 0.00 0.00 0.00 0.05 0.10 0.12 0.15 0.10 0.05 0.03 0.04 0.05 0.25 0.65 1.44 1.76 1.53 0.66 0.50 0.44 0.69 0.55 0.42 0.26 0.16 0.13 0.11 0.08 0.03 0.02 0.03 0.03 0.06 0.07 0.12 0.26 0.77 0.06 0.09 0.04 0.02 0.02 0.08 0.05 0.03 0.01
0.00 0.00 0.00 0.00 0.00 0.00 0.02 0.07 0.08 0.23 0.16 0.07 0.03 0.03 0.05 0.17 0.40 0.53 0.91 0.99 1.07 0.95 0.66 0.87 1.39 0.60 0.31 0.19 0.21 0.19 0.20 0.17 0.12 0.02 0.01 0.04 0.02 0.03 0.06 0.04 0.08 0.08 0.04 0.08 0.08 0.03 0.04 0.06 0.01

GFSSGP_prec_precacc12_087.txt.gz
Total_Precipitation_Accumulation
0.00 0.00 0.00 0.00 0.02 0.58 1.45 0.43 0.60 0.23 0.07 0.00 0.01 0.00 0.00 0.03 0.04 0.05 0.00 0.00 0.00 0.00 0.00 0.02 0.02 0.02 0.01 0.02 0.01 0.04 0.04 0.02 0.01 0.00 0.01 0.01 0.04 0.05 0.03 0.04 0.08 0.09 0.07 0.04 0.02 0.01 0.03 0.04 0.06
0.00 0.00 0.00 0.01 0.05 1.11 1.78 0.40 0.36 0.23 0.09 0.02 0.04 0.01 0.01 0.01 0.03 0.00 0.00 0.00 0.00 0.00 0.00 0.00 0.01 0.01 0.04 0.04 0.01 0.02 0.04 0.05 0.05 0.03 0.05 0.03 0.04 0.05 0.04 0.03 0.04 0.09 0.13 0.07 0.06 0.02 0.02 0.04 0.05
0.00 0.00 0.03 0.12 0.26 1.26 0.58 0.19 0.35 0.17 0.07 0.00 0.00 0.01 0.01 0.00 0.00 0.00 0.00 0.00 0.00 0.00 0.00 0.00 0.01 0.03 0.04 0.03 0.03 0.02 0.02 0.08 0.10 0.06 0.03 0.08 0.04 0.02 0.02 0.02 0.04 0.08 0.04 0.04 0.13 0.07 0.04 0.01 0.04
0.00 0.05 0.20 0.71 1.24 1.75 0.32 0.06 0.23 0.30 0.04 0.02 0.01 0.00 0.00 0.00 0.00 0.00 0.00 0.00 0.00 0.00 0.00 0.00 0.00 0.00 0.01 0.01 0.03 0.04 0.02 0.07 0.04 0.07 0.03 0.04 0.12 0.05 0.02 0.04 0.03 0.05 0.02 0.01 0.01 0.03 0.04 0.01 0.05
0.01 0.21 0.44 1.09 0.84 0.30 0.11 0.14 0.22 0.19 0.08 0.08 0.04 0.00 0.00 0.00 0.00 0.00 0.00 0.00 0.00 0.01 0.00 0.00 0.01 0.01 0.02 0.00 0.03 0.02 0.02 0.03 0.03 0.09 0.04 0.03 0.05 0.02 0.04 0.02 0.04 0.02 0.01 0.00 0.01 0.00 0.05 0.06 0.11
0.08 0.29 0.44 1.17 0.26 0.06 0.03 0.11 0.12 0.09 0.08 0.05 0.04 0.00 0.00 0.00 0.00 0.00 0.00 0.00 0.01 0.00 0.00 0.00 0.01 0.01 0.00 0.01 0.04 0.01 0.01 0.04 0.02 0.02 0.04 0.02 0.02 0.04 0.01 0.01 0.01 0.00 0.00 0.01 0.01 0.04 0.04 0.09 0.08
0.20 0.54 0.33 0.53 0.08 0.05 0.02 0.06 0.07 0.05 0.05 0.05 0.00 0.00 0.00 0.00 0.00 0.00 0.00 0.00 0.01 0.00 0.00 0.00 0.00 0.00 0.00 0.02 0.03 0.01 0.00 0.02 0.00 0.01 0.02 0.02 0.02 0.01 0.02 0.06 0.09 0.00 0.00 0.01 0.04 0.04 0.04 0.07 0.07
0.12 0.35 0.31 0.32 0.11 0.03 0.02 0.08 0.11 0.06 0.09 0.06 0.05 0.00 0.00 0.00 0.00 0.01 0.00 0.01 0.00 0.02 0.00 0.00 0.00 0.00 0.01 0.02 0.02 0.00 0.00 0.00 0.00 0.01 0.05 0.07 0.01 0.00 0.04 0.06 0.08 0.01 0.00 0.00 0.01 0.05 0.10 0.10 0.10
0.15 0.39 0.15 0.17 0.01 0.00 0.01 0.13 0.19 0.19 0.11 0.15 0.07 0.00 0.00 0.00 0.00 0.01 0.00 0.01 0.03 0.04 0.02 0.00 0.00 0.01 0.04 0.00 0.00 0.00 0.02 0.13 0.15 0.15 0.16 0.26 0.05 0.12 0.07 0.04 0.00 0.00 0.00 0.00 0.00 0.00 0.01 0.01 0.02
0.87 0.19 0.09 0.12 0.03 0.00 0.00 0.08 0.16 0.38 0.21 0.11 0.08 0.01 0.00 0.00 0.00 0.00 0.00 0.00 0.01 0.03 0.03 0.00 0.01 0.00 0.00 0.00 0.02 0.06 0.01 0.06 0.12 0.21 0.32 0.12 0.06 0.02 0.00 0.00 0.01 0.02 0.02 0.05 0.05 0.03 0.03 0.03 0.00
1.05 0.25 0.12 0.04 0.01 0.00 0.00 0.08 0.19 0.47 0.28 0.07 0.01 0.00 0.00 0.00 0.00 0.00 0.00 0.00 0.00 0.00 0.00 0.00 0.01 0.00 0.01 0.00 0.00 0.00 0.00 0.03 0.02 0.01 0.02 0.02 0.04 0.03 0.06 0.10 0.10 0.08 0.05 0.10 0.17 0.15 0.08 0.01 0.00
0.18 0.24 0.22 0.09 0.01 0.01 0.01 0.07 0.14 0.60 0.17 0.02 0.00 0.00 0.00 0.00 0.00 0.00 0.00 0.00 0.00 0.00 0.00 0.01 0.00 0.00 0.01 0.01 0.01 0.00 0.00 0.00 0.00 0.00 0.01 0.01 0.02 0.13 0.19 0.14 0.10 0.04 0.11 0.48 0.13 0.05 0.05 0.03 0.00
0.22 0.14 0.19 0.07 0.04 0.04 0.15 0.11 0.06 0.13 0.09 0.02 0.00 0.00 0.00 0.00 0.00 0.00 0.00 0.00 0.00 0.00 0.01 0.01 0.00 0.00 0.00 0.00 0.00 0.00 0.00 0.00 0.00 0.01 0.04 0.07 0.04 0.03 0.10 0.15 0.14 0.11 0.10 0.11 0.07 0.03 0.01 0.00 0.00
0.20 0.14 0.34 0.28 0.14 0.15 0.21 0.23 0.13 0.13 0.02 0.02 0.00 0.00 0.00 0.00 0.00 0.00 0.00 0.00 0.00 0.00 0.00 0.00 0.00 0.00 0.00 0.00 0.00 0.00 0.01 0.00 0.00 0.01 0.03 0.06 0.03 0.03 0.04 0.08 0.07 0.02 0.09 0.08 0.08 0.02 0.01 0.00 0.00
0.04 0.09 0.08 0.15 0.18 0.21 0.19 0.58 0.25 0.05 0.01 0.02 0.00 0.00 0.00 0.00 0.00 0.00 0.00 0.00 0.00 0.00 0.00 0.00 0.00 0.00 0.00 0.00 0.00 0.01 0.00 0.00 0.01 0.02 0.15 0.21 0.11 0.04 0.08 0.01 0.04 0.09 0.04 0.02 0.09 0.03 0.00 0.00 0.00
0.05 0.02 0.06 0.10 0.21 0.22 0.23 0.72 0.56 0.12 0.05 0.05 0.00 0.00 0.00 0.00 0.00 0.00 0.00 0.00 0.00 0.00 0.00 0.00 0.00 0.00 0.00 0.00 0.00 0.00 0.00 0.02 0.03 0.11 0.07 0.06 0.13 0.04 0.11 0.03 0.02 0.05 0.05 0.04 0.06 0.06 0.03 0.00 0.00
0.00 0.02 0.01 0.13 0.10 0.17 0.25 0.57 1.46 0.24 0.09 0.07 0.01 0.00 0.00 0.00 0.00 0.00 0.00 0.00 0.00 0.00 0.00 0.00 0.00 0.00 0.00 0.00 0.00 0.00 0.02 0.04 0.07 0.12 0.21 0.06 0.03 0.02 0.07 0.06 0.03 0.01 0.02 0.02 0.03 0.00 0.00 0.01 0.00
0.02 0.03 0.00 0.05 0.14 0.40 0.28 0.52 1.44 0.68 0.11 0.07 0.01 0.00 0.00 0.00 0.00 0.00 0.00 0.00 0.00 0.00 0.00 0.00 0.00 0.00 0.00 0.00 0.01 0.01 0.03 0.08 0.10 0.09 0.26 0.19 0.13 0.04 0.09 0.04 0.04 0.05 0.02 0.00 0.02 0.01 0.01 0.03 0.00
0.00 0.00 0.00 0.01 0.06 0.34 0.29 0.24 0.56 0.27 0.03 0.02 0.00 0.00 0.01 0.00 0.00 0.00 0.00 0.00 0.00 0.00 0.00 0.00 0.00 0.00 0.00 0.00 0.00 0.01 0.09 0.03 0.08 0.13 0.20 0.22 0.22 0.11 0.08 0.04 0.05 0.12 0.08 0.00 0.03 0.01 0.00 0.00 0.00
0.00 0.00 0.00 0.03 0.12 0.16 0.26 0.20 0.18 0.06 0.12 0.10 0.01 0.00 0.01 0.01 0.01 0.00 0.00 0.00 0.00 0.00 0.00 0.00 0.00 0.00 0.00 0.00 0.01 0.01 0.05 0.04 0.08 0.19 0.23 0.10 0.08 0.08 0.04 0.06 0.02 0.07 0.04 0.01 0.01 0.00 0.00 0.00 0.00
0.00 0.00 0.00 0.02 0.08 0.10 0.17 0.16 0.09 0.07 0.16 0.22 0.04 0.01 0.04 0.01 0.03 0.00 0.00 0.00 0.01 0.01 0.00 0.00 0.00 0.00 0.00 0.00 0.01 0.03 0.08 0.15 0.26 0.24 0.10 0.05 0.01 0.03 0.10 0.01 0.03 0.02 0.01 0.01 0.01 0.01 0.02 0.00 0.00
0.00 0.00 0.00 0.00 0.01 0.01 0.04 0.09 0.13 0.10 0.12 0.18 0.14 0.01 0.02 0.03 0.04 0.04 0.00 0.00 0.01 0.01 0.00 0.00 0.00 0.00 0.00 0.00 0.01 0.03 0.05 0.07 0.05 0.05 0.08 0.05 0.02 0.03 0.04 0.03 0.04 0.02 0.04 0.03 0.00 0.01 0.00 0.00 0.00
0.00 0.00 0.00 0.00 0.00 0.00 0.00 0.02 0.02 0.26 0.50 0.51 0.25 0.08 0.07 0.03 0.06 0.04 0.01 0.03 0.03 0.00 0.00 0.00 0.00 0.00 0.00 0.00 0.03 0.02 0.01 0.17 0.14 0.08 0.34 0.10 0.04 0.02 0.05 0.02 0.02 0.02 0.05 0.03 0.02 0.01 0.00 0.00 0.00
0.00 0.00 0.00 0.00 0.00 0.00 0.00 0.00 0.01 0.28 0.43 0.62 0.41 0.19 0.20 0.07 0.10 0.05 0.04 0.04 0.04 0.01 0.00 0.00 0.00 0.00 0.00 0.00 0.01 0.03 0.04 0.20 0.28 0.15 0.28 0.12 0.02 0.02 0.03 0.01 0.02 0.06 0.09 0.03 0.01 0.01 0.00 0.00 0.00
0.00 0.00 0.00 0.00 0.00 0.00 0.00 0.00 0.02 0.08 0.49 0.58 0.46 0.17 0.15 0.10 0.16 0.07 0.03 0.04 0.06 0.01 0.00 0.00 0.00 0.00 0.00 0.00 0.00 0.04 0.05 0.10 0.24 0.29 0.03 0.08 0.15 0.05 0.03 0.03 0.04 0.03 0.05 0.02 0.01 0.01 0.00 0.00 0.00
0.00 0.00 0.00 0.00 0.00 0.00 0.00 0.00 0.00 0.03 0.14 0.21 0.17 0.06 0.13 0.14 0.17 0.26 0.18 0.10 0.11 0.10 0.00 0.00 0.00 0.00 0.00 0.00 0.01 0.03 0.07 0.06 0.05 0.15 0.05 0.12 0.18 0.07 0.10 0.07 0.05 0.04 0.01 0.01 0.01 0.01 0.00 0.00 0.00
0.00 0.00 0.00 0.00 0.00 0.00 0.00 0.00 0.02 0.10 0.17 0.07 0.07 0.07 0.08 0.32 0.38 0.32 0.19 0.15 0.18 0.18 0.02 0.00 0.00 0.00 0.00 0.00 0.01 0.01 0.01 0.02 0.02 0.04 0.07 0.05 0.10 0.11 0.20 0.10 0.04 0.04 0.03 0.01 0.02 0.01 0.02 0.02 0.00
0.00 0.00 0.00 0.00 0.00 0.00 0.07 0.07 0.12 0.13 0.12 0.12 0.11 0.09 0.05 0.17 0.84 1.19 0.90 0.36 0.24 0.37 0.20 0.19 0.08 0.02 0.03 0.01 0.02 0.03 0.02 0.03 0.03 0.06 0.03 0.08 0.09 0.25 0.36 0.41 0.09 0.05 0.03 0.03 0.03 0.03 0.03 0.02 0.01
0.00 0.00 0.00 0.00 0.00 0.00 0.05 0.11 0.12 0.16 0.13 0.07 0.05 0.09 0.09 0.18 0.56 1.38 1.58 1.47 0.62 0.62 0.55 0.77 0.65 0.54 0.40 0.18 0.14 0.11 0.08 0.03 0.05 0.03 0.03 0.07 0.12 0.16 0.25 0.77 0.07 0.09 0.04 0.02 0.02 0.07 0.05 0.02 0.01
0.00 0.00 0.00 0.00 0.00 0.00 0.02 0.07 0.08 0.24 0.16 0.08 0.04 0.05 0.07 0.18 0.32 0.43 0.71 0.91 0.96 0.89 0.66 0.92 1.62 0.81 0.44 0.24 0.22 0.19 0.20 0.17 0.15 0.06 0.03 0.07 0.03 0.05 0.12 0.05 0.07 0.08 0.04 0.08 0.08 0.03 0.04 0.06 0.01

GFSSGP_prec_precacc12_090.txt.gz
Total_Precipitation_Accumulation
0.00 0.00 0.00 0.00 0.01 0.52 1.27 0.31 0.43 0.20 0.07 0.00 0.01 0.00 0.00 0.01 0.01 0.02 0.00 0.00 0.00 0.00 0.00 0.11 0.10 0.00 0.01 0.03 0.02 0.07 0.02 0.01 0.00 0.04 0.01 0.03 0.07 0.05 0.05 0.04 0.05 0.08 0.06 0.05 0.02 0.01 0.03 0.04 0.06
0.00 0.00 0.00 0.01 0.07 0.96 1.47 0.31 0.27 0.21 0.09 0.02 0.04 0.00 0.01 0.01 0.03 0.00 0.00 0.00 0.00 0.00 0.00 0.00 0.01 0.03 0.06 0.06 0.02 0.03 0.05 0.07 0.02 0.03 0.02 0.02 0.06 0.03 0.04 0.05 0.09 0.14 0.18 0.10 0.05 0.02 0.02 0.04 0.03
0.00 0.00 0.01 0.08 0.26 1.15 0.50 0.25 0.36 0.17 0.08 0.00 0.03 0.00 0.02 0.01 0.00 0.00 0.00 0.00 0.00 0.00 0.00 0.00 0.02 0.05 0.04 0.04 0.06 0.01 0.01 0.01 0.04 0.04 0.04 0.09 0.04 0.04 0.04 0.14 0.14 0.17 0.12 0.06 0.12 0.05 0.03 0.01 0.03
0.00 0.02 0.16 0.81 1.29 1.56 0.32 0.11 0.20 0.29 0.04 0.02 0.01 0.00 0.00 0.00 0.00 0.00 0.00 0.00 0.00 0.00 0.00 0.00 0.01 0.01 0.01 0.01 0.02 0.01 0.02 0.06 0.05 0.07 0.05 0.03 0.08 0.04 0.06 0.09 0.08 0.09 0.04 0.02 0.02 0.03 0.01 0.00 0.05
0.01 0.12 0.46 1.12 0.69 0.18 0.14 0.14 0.24 0.17 0.06 0.05 0.01 0.01 0.00 0.00 0.00 0.00 0.00 0.00 0.00 0.00 0.00 0.00 0.03 0.03 0.04 0.03 0.04 0.06 0.03 0.04 0.03 0.09 0.08 0.05 0.06 0.05 0.09 0.07 0.06 0.02 0.01 0.00 0.00 0.00 0.03 0.07 0.11
0.04 0.15 0.33 1.01 0.17 0.03 0.07 0.11 0.14 0.06 0.04 0.01 0.00 0.00 0.00 0.00 0.00 0.00 0.00 0.00 0.00 0.00 0.00 0.00 0.05 0.03 0.03 0.03 0.06 0.07 0.06 0.07 0.06 0.05 0.09 0.06 0.05 0.06 0.02 0.01 0.01 0.01 0.00 0.01 0.02 0.03 0.03 0.11 0.08
0.11 0.25 0.32 0.32 0.03 0.03 0.03 0.09 0.12 0.07 0.03 0.00 0.00 0.00 0.01 0.00 0.00 0.00 0.00 0.00 0.00 0.00 0.00 0.00 0.00 0.01 0.02 0.01 0.05 0.06 0.02 0.02 0.03 0.06 0.04 0.06 0.05 0.05 0.09 0.12 0.11 0.00 0.00 0.04 0.05 0.06 0.08 0.16 0.11
0.10 0.24 0.31 0.20 0.03 0.02 0.03 0.12 0.12 0.04 0.03 0.02 0.02 0.00 0.00 0.00 0.00 0.01 0.00 0.01 0.00 0.00 0.00 0.00 0.00 0.00 0.00 0.00 0.01 0.01 0.01 0.01 0.01 0.03 0.07 0.06 0.03 0.10 0.10 0.13 0.13 0.01 0.00 0.02 0.04 0.11 0.15 0.15 0.12
0.16 0.31 0.13 0.13 0.00 0.00 0.01 0.13 0.18 0.17 0.07 0.08 0.04 0.00 0.00 0.00 0.00 0.01 0.00 0.01 0.00 0.01 0.01 0.00 0.00 0.00 0.00 0.00 0.00 0.00 0.02 0.14 0.15 0.17 0.13 0.11 0.05 0.25 0.10 0.01 0.01 0.00 0.00 0.07 0.10 0.07 0.10 0.09 0.07
0.70 0.15 0.09 0.09 0.03 0.00 0.01 0.08 0.16 0.37 0.15 0.08 0.02 0.00 0.00 0.00 0.00 0.00 0.00 0.00 0.01 0.02 0.03 0.00 0.00 0.00 0.00 0.02 0.04 0.06 0.01 0.05 0.12 0.19 0.15 0.01 0.05 0.03 0.00 0.00 0.00 0.00 0.01 0.06 0.08 0.03 0.01 0.01 0.05
0.83 0.23 0.10 0.03 0.01 0.00 0.00 0.09 0.19 0.37 0.25 0.05 0.00 0.00 0.00 0.00 0.00 0.00 0.00 0.00 0.00 0.00 0.00 0.00 0.00 0.00 0.00 0.02 0.00 0.00 0.00 0.01 0.02 0.01 0.01 0.02 0.04 0.03 0.06 0.11 0.10 0.08 0.04 0.07 0.14 0.14 0.05 0.00 0.00
0.14 0.24 0.21 0.08 0.01 0.01 0.01 0.09 0.15 0.57 0.15 0.01 0.00 0.00 0.00 0.00 0.00 0.00 0.00 0.00 0.00 0.00 0.00 0.01 0.00 0.00 0.00 0.01 0.01 0.00 0.00 0.00 0.00 0.00 0.01 0.01 0.02 0.12 0.15 0.14 0.07 0.04 0.02 0.02 0.07 0.09 0.06 0.03 0.00
0.13 0.18 0.20 0.07 0.04 0.04 0.13 0.10 0.04 0.12 0.10 0.01 0.00 0.00 0.00 0.00 0.00 0.00 0.00 0.00 0.00 0.00 0.01 0.01 0.00 0.00 0.00 0.00 0.00 0.00 0.00 0.00 0.00 0.01 0.04 0.07 0.04 0.05 0.11 0.11 0.13 0.10 0.06 0.05 0.07 0.05 0.01 0.00 0.00
0.20 0.18 0.40 0.28 0.18 0.22 0.25 0.26 0.09 0.08 0.18 0.03 0.00 0.00 0.00 0.00 0.00 0.00 0.00 0.00 0.00 0.00 0.00 0.00 0.00 0.00 0.00 0.00 0.00 0.00 0.00 0.00 0.00 0.01 0.02 0.05 0.03 0.03 0.04 0.07 0.07 0.02 0.07 0.06 0.08 0.01 0.01 0.00 0.00
0.05 0.09 0.11 0.17 0.29 0.47 0.27 0.63 0.28 0.08 0.10 0.03 0.00 0.00 0.00 0.00 0.00 0.00 0.00 0.00 0.00 0.00 0.00 0.00 0.00 0.00 0.00 0.00 0.00 0.00 0.00 0.00 0.01 0.02 0.10 0.08 0.07 0.02 0.05 0.01 0.04 0.09 0.04 0.03 0.09 0.03 0.00 0.00 0.00
0.05 0.02 0.07 0.16 0.33 0.50 0.40 0.63 0.50 0.16 0.08 0.05 0.00 0.00 0.00 0.00 0.00 0.00 0.00 0.00 0.00 0.00 0.00 0.00 0.00 0.00 0.00 0.00 0.00 0.00 0.00 0.01 0.03 0.10 0.07 0.04 0.08 0.03 0.02 0.01 0.01 0.05 0.06 0.07 0.05 0.05 0.02 0.00 0.00
0.02 0.06 0.02 0.22 0.23 0.31 0.27 0.38 1.35 0.25 0.09 0.07 0.01 0.00 0.00 0.01 0.00 0.00 0.00 0.00 0.00 0.00 0.00 0.00 0.00 0.00 0.00 0.00 0.00 0.00 0.01 0.02 0.06 0.08 0.13 0.05 0.03 0.02 0.06 0.05 0.01 0.01 0.02 0.03 0.02 0.00 0.00 0.01 0.00
0.04 0.11 0.05 0.08 0.18 0.53 0.39 0.16 0.83 0.65 0.11 0.06 0.01 0.00 0.01 0.00 0.00 0.00 0.00 0.00 0.00 0.00 0.00 0.00 0.00 0.00 0.00 0.00 0.00 0.00 0.02 0.07 0.08 0.05 0.14 0.15 0.11 0.05 0.08 0.03 0.04 0.05 0.01 0.00 0.02 0.01 0.00 0.01 0.00
0.00 0.02 0.03 0.02 0.07 0.52 0.47 0.31 0.37 0.26 0.03 0.02 0.00 0.00 0.00 0.00 0.00 0.00 0.00 0.00 0.00 0.00 0.00 0.00 0.00 0.00 0.00 0.00 0.00 0.01 0.09 0.04 0.09 0.09 0.18 0.21 0.18 0.11 0.06 0.03 0.05 0.07 0.02 0.00 0.03 0.01 0.00 0.00 0.00
0.00 0.00 0.01 0.06 0.24 0.35 0.58 0.33 0.11 0.06 0.12 0.10 0.01 0.00 0.00 0.00 0.00 0.00 0.00 0.00 0.00 0.00 0.00 0.00 0.00 0.00 0.00 0.00 0.01 0.01 0.04 0.03 0.07 0.14 0.20 0.10 0.07 0.07 0.03 0.05 0.02 0.04 0.01 0.00 0.01 0.00 0.00 0.00 0.00
0.00 0.00 0.00 0.03 0.14 0.26 0.40 0.28 0.11 0.08 0.17 0.27 0.04 0.01 0.01 0.01 0.01 0.00 0.00 0.00 0.00 0.00 0.00 0.00 0.00 0.00 0.00 0.00 0.01 0.03 0.04 0.08 0.12 0.07 0.07 0.05 0.01 0.03 0.09 0.00 0.03 0.01 0.00 0.01 0.01 0.01 0.00 0.00 0.00
0.00 0.00 0.00 0.00 0.01 0.05 0.13 0.15 0.13 0.10 0.13 0.16 0.12 0.01 0.02 0.03 0.03 0.03 0.00 0.00 0.00 0.00 0.00 0.00 0.00 0.00 0.00 0.00 0.01 0.03 0.04 0.06 0.04 0.05 0.07 0.05 0.02 0.03 0.04 0.03 0.04 0.01 0.01 0.01 0.00 0.01 0.00 0.00 0.00
0.00 0.00 0.00 0.00 0.00 0.00 0.02 0.03 0.01 0.17 0.38 0.45 0.24 0.07 0.04 0.03 0.06 0.04 0.01 0.03 0.03 0.00 0.00 0.00 0.00 0.00 0.00 0.00 0.01 0.01 0.01 0.02 0.04 0.06 0.20 0.02 0.03 0.02 0.05 0.02 0.02 0.00 0.00 0.00 0.00 0.01 0.00 0.00 0.00
0.00 0.00 0.00 0.00 0.00 0.00 0.00 0.00 0.01 0.04 0.12 0.45 0.40 0.18 0.06 0.03 0.08 0.06 0.04 0.04 0.04 0.01 0.00 0.00 0.00 0.00 0.00 0.00 0.00 0.01 0.01 0.02 0.05 0.05 0.21 0.08 0.02 0.02 0.03 0.00 0.02 0.02 0.00 0.00 0.00 0.01 0.00 0.00 0.00
0.00 0.00 0.00 0.00 0.00 0.00 0.00 0.00 0.02 0.02 0.05 0.22 0.44 0.18 0.16 0.08 0.12 0.06 0.05 0.06 0.08 0.02 0.00 0.00 0.00 0.00 0.00 0.00 0.00 0.04 0.03 0.04 0.05 0.04 0.04 0.08 0.12 0.05 0.01 0.02 0.02 0.00 0.00 0.00 0.00 0.00 0.00 0.00 0.00
0.00 0.00 0.00 0.00 0.00 0.00 0.00 0.00 0.00 0.03 0.12 0.15 0.16 0.10 0.17 0.16 0.17 0.17 0.20 0.13 0.19 0.14 0.00 0.00 0.00 0.00 0.00 0.00 0.00 0.01 0.05 0.03 0.03 0.03 0.05 0.09 0.11 0.04 0.01 0.03 0.05 0.03 0.00 0.00 0.00 0.00 0.00 0.00 0.00
0.00 0.00 0.00 0.00 0.00 0.00 0.00 0.00 0.02 0.10 0.17 0.07 0.07 0.08 0.10 0.24 0.28 0.24 0.18 0.20 0.23 0.24 0.04 0.00 0.00 0.00 0.01 0.00 0.01 0.01 0.01 0.02 0.01 0.03 0.07 0.05 0.06 0.02 0.02 0.07 0.10 0.06 0.03 0.00 0.00 0.00 0.00 0.00 0.00
0.00 0.00 0.00 0.00 0.00 0.00 0.07 0.07 0.12 0.13 0.12 0.14 0.13 0.11 0.10 0.17 0.44 0.65 0.77 0.35 0.32 0.50 0.24 0.19 0.08 0.04 0.07 0.03 0.02 0.03 0.02 0.03 0.03 0.05 0.05 0.10 0.07 0.13 0.12 0.09 0.06 0.13 0.04 0.02 0.00 0.01 0.01 0.00 0.00
0.00 0.00 0.00 0.00 0.00 0.00 0.05 0.10 0.12 0.16 0.13 0.07 0.06 0.17 0.17 0.22 0.33 0.67 0.89 1.23 0.60 0.73 0.47 0.70 0.68 0.65 0.60 0.36 0.16 0.11 0.08 0.03 0.05 0.03 0.03 0.07 0.15 0.16 0.16 0.17 0.01 0.05 0.07 0.02 0.00 0.01 0.00 0.00 0.00
0.00 0.00 0.00 0.00 0.00 0.00 0.01 0.04 0.08 0.24 0.16 0.08 0.05 0.09 0.13 0.22 0.25 0.23 0.26 0.47 0.62 0.86 0.61 0.80 1.59 0.93 0.73 0.50 0.31 0.21 0.20 0.17 0.18 0.08 0.06 0.08 0.08 0.15 0.23 0.09 0.04 0.02 0.03 0.03 0.02 0.02 0.04 0.03 0.01

GFSSGP_prec_precacc12_093.txt.gz
Total_Precipitation_Accumulation
0.00 0.00 0.00 0.00 0.01 0.23 0.43 0.21 0.16 0.11 0.03 0.00 0.00 0.00 0.00 0.00 0.00 0.00 0.00 0.00 0.00 0.00 0.00 0.11 0.11 0.00 0.01 0.04 0.03 0.08 0.02 0.01 0.01 0.06 0.03 0.03 0.08 0.07 0.09 0.10 0.09 0.09 0.05 0.03 0.02 0.01 0.03 0.06 0.08
0.00 0.00 0.00 0.01 0.07 0.54 0.87 0.20 0.24 0.21 0.05 0.02 0.03 0.00 0.01 0.01 0.01 0.00 0.00 0.00 0.00 0.00 0.00 0.00 0.00 0.02 0.06 0.05 0.03 0.04 0.07 0.07 0.04 0.07 0.03 0.04 0.09 0.07 0.08 0.06 0.09 0.12 0.11 0.05 0.01 0.01 0.03 0.04 0.03
0.00 0.00 0.01 0.06 0.23 0.65 0.26 0.21 0.37 0.16 0.07 0.00 0.03 0.00 0.02 0.02 0.01 0.00 0.00 0.00 0.00 0.00 0.00 0.00 0.02 0.05 0.04 0.07 0.10 0.06 0.05 0.02 0.07 0.10 0.06 0.14 0.07 0.09 0.06 0.13 0.13 0.12 0.12 0.04 0.09 0.11 0.06 0.02 0.04
0.00 0.02 0.16 0.72 1.05 1.10 0.28 0.11 0.19 0.26 0.04 0.00 0.01 0.00 0.00 0.00 0.00 0.00 0.00 0.00 0.00 0.00 0.00 0.01 0.01 0.01 0.01 0.02 0.04 0.02 0.04 0.07 0.07 0.08 0.06 0.06 0.11 0.05 0.09 0.10 0.08 0.10 0.06 0.08 0.12 0.18 0.10 0.01 0.04
0.01 0.14 0.84 1.06 0.57 0.09 0.12 0.11 0.24 0.14 0.01 0.00 0.01 0.01 0.00 0.00 0.00 0.00 0.00 0.00 0.00 0.00 0.00 0.01 0.03 0.02 0.03 0.03 0.04 0.09 0.06 0.07 0.06 0.14 0.12 0.09 0.09 0.08 0.17 0.13 0.09 0.04 0.02 0.01 0.04 0.05 0.09 0.09 0.12
0.03 0.13 0.33 0.86 0.13 0.02 0.07 0.10 0.13 0.04 0.01 0.00 0.00 0.00 0.01 0.00 0.00 0.00 0.00 0.00 0.00 0.00 0.00 0.01 0.08 0.05 0.04 0.03 0.07 0.10 0.07 0.08 0.05 0.08 0.11 0.08 0.10 0.13 0.12 0.13 0.07 0.01 0.00 0.01 0.04 0.06 0.05 0.11 0.08
0.05 0.13 0.31 0.14 0.01 0.02 0.03 0.09 0.12 0.04 0.00 0.00 0.00 0.00 0.01 0.01 0.00 0.00 0.00 0.00 0.00 0.00 0.00 0.02 0.04 0.04 0.04 0.04 0.07 0.08 0.03 0.02 0.03 0.08 0.06 0.12 0.15 0.22 0.21 0.22 0.11 0.00 0.00 0.04 0.05 0.06 0.08 0.17 0.12
0.07 0.15 0.27 0.12 0.03 0.03 0.03 0.14 0.09 0.01 0.00 0.00 0.00 0.00 0.01 0.00 0.00 0.00 0.00 0.00 0.00 0.00 0.00 0.00 0.01 0.02 0.03 0.03 0.05 0.01 0.01 0.04 0.01 0.04 0.09 0.08 0.06 0.14 0.15 0.18 0.15 0.01 0.00 0.02 0.04 0.11 0.17 0.17 0.12
0.13 0.15 0.12 0.12 0.00 0.00 0.01 0.13 0.16 0.04 0.00 0.01 0.00 0.00 0.00 0.00 0.00 0.01 0.00 0.00 0.00 0.00 0.00 0.00 0.00 0.00 0.02 0.02 0.02 0.01 0.01 0.05 0.03 0.06 0.10 0.02 0.03 0.27 0.19 0.03 0.01 0.00 0.00 0.07 0.10 0.08 0.13 0.11 0.08
0.09 0.06 0.04 0.07 0.02 0.00 0.01 0.07 0.13 0.09 0.10 0.05 0.00 0.00 0.00 0.00 0.00 0.00 0.00 0.00 0.00 0.00 0.00 0.00 0.00 0.00 0.02 0.06 0.05 0.06 0.00 0.00 0.00 0.00 0.00 0.00 0.03 0.07 0.01 0.00 0.00 0.01 0.03 0.03 0.03 0.05 0.02 0.01 0.08
0.07 0.10 0.03 0.01 0.01 0.00 0.00 0.08 0.11 0.12 0.18 0.03 0.00 0.00 0.00 0.00 0.00 0.00 0.00 0.00 0.00 0.00 0.00 0.00 0.00 0.00 0.08 0.10 0.00 0.00 0.00 0.00 0.00 0.00 0.00 0.00 0.00 0.01 0.03 0.07 0.09 0.09 0.03 0.01 0.00 0.01 0.00 0.00 0.00
0.01 0.15 0.16 0.03 0.00 0.01 0.02 0.07 0.09 0.24 0.11 0.01 0.00 0.00 0.00 0.00 0.00 0.00 0.00 0.00 0.00 0.00 0.00 0.01 0.00 0.00 0.01 0.00 0.00 0.00 0.00 0.00 0.00 0.00 0.00 0.00 0.00 0.00 0.04 0.01 0.01 0.01 0.00 0.01 0.03 0.05 0.05 0.02 0.00
0.07 0.14 0.18 0.03 0.02 0.03 0.12 0.11 0.03 0.11 0.07 0.00 0.00 0.00 0.00 0.00 0.00 0.00 0.00 0.00 0.00 0.00 0.01 0.01 0.00 0.00 0.00 0.00 0.00 0.00 0.00 0.00 0.00 0.01 0.02 0.01 0.00 0.02 0.06 0.01 0.02 0.01 0.02 0.02 0.05 0.03 0.00 0.00 0.00
0.15 0.14 0.37 0.24 0.17 0.21 0.25 0.17 0.07 0.10 0.21 0.03 0.00 0.00 0.00 0.00 0.00 0.00 0.00 0.00 0.00 0.00 0.00 0.00 0.00 0.00 0.00 0.00 0.00 0.00 0.00 0.00 0.00 0.00 0.00 0.01 0.00 0.01 0.01 0.00 0.00 0.00 0.01 0.02 0.06 0.01 0.00 0.00 0.00
0.07 0.03 0.08 0.20 0.39 0.62 0.35 0.47 0.21 0.08 0.14 0.01 0.00 0.00 0.00 0.00 0.00 0.00 0.00 0.00 0.00 0.00 0.00 0.00 0.00 0.00 0.00 0.00 0.00 0.00 0.00 0.00 0.00 0.00 0.02 0.02 0.01 0.02 0.02 0.00 0.01 0.04 0.02 0.02 0.03 0.00 0.00 0.00 0.00
0.14 0.01 0.06 0.21 0.43 0.75 0.51 0.59 0.36 0.16 0.12 0.01 0.00 0.00 0.00 0.00 0.00 0.00 0.00 0.00 0.00 0.00 0.00 0.00 0.00 0.00 0.00 0.00 0.00 0.00 0.00 0.00 0.01 0.01 0.01 0.02 0.05 0.02 0.01 0.00 0.01 0.03 0.03 0.06 0.01 0.00 0.00 0.00 0.00
0.07 0.09 0.07 0.28 0.40 0.43 0.40 0.50 0.80 0.35 0.15 0.05 0.00 0.00 0.00 0.01 0.00 0.00 0.00 0.00 0.00 0.00 0.00 0.00 0.00 0.00 0.00 0.00 0.00 0.00 0.00 0.00 0.01 0.01 0.02 0.00 0.02 0.00 0.03 0.04 0.01 0.01 0.02 0.02 0.00 0.00 0.00 0.00 0.00
0.06 0.12 0.07 0.15 0.24 0.57 0.52 0.20 0.14 0.25 0.11 0.03 0.00 0.00 0.01 0.00 0.00 0.00 0.00 0.00 0.00 0.00 0.00 0.00 0.00 0.00 0.00 0.00 0.00 0.00 0.01 0.04 0.04 0.00 0.02 0.10 0.07 0.04 0.06 0.02 0.02 0.01 0.01 0.00 0.01 0.01 0.00 0.00 0.00
0.01 0.03 0.09 0.06 0.08 0.60 0.54 0.34 0.12 0.03 0.02 0.01 0.00 0.00 0.00 0.00 0.00 0.00 0.00 0.00 0.00 0.00 0.00 0.00 0.00 0.00 0.00 0.00 0.00 0.01 0.08 0.04 0.03 0.02 0.05 0.13 0.09 0.09 0.05 0.01 0.02 0.01 0.02 0.00 0.03 0.01 0.00 0.00 0.00
0.00 0.00 0.01 0.10 0.30 0.44 0.79 0.52 0.18 0.11 0.15 0.10 0.01 0.00 0.00 0.00 0.00 0.00 0.00 0.00 0.00 0.00 0.00 0.00 0.00 0.00 0.00 0.00 0.00 0.01 0.03 0.01 0.02 0.01 0.03 0.06 0.02 0.07 0.02 0.01 0.01 0.00 0.00 0.00 0.01 0.00 0.00 0.00 0.00
0.00 0.00 0.00 0.06 0.28 0.45 0.53 0.50 0.10 0.08 0.19 0.27 0.04 0.01 0.01 0.01 0.01 0.00 0.00 0.00 0.00 0.00 0.00 0.00 0.00 0.00 0.00 0.00 0.00 0.01 0.00 0.02 0.04 0.01 0.00 0.01 0.01 0.03 0.09 0.00 0.01 0.01 0.00 0.01 0.01 0.01 0.00 0.00 0.00
0.00 0.00 0.00 0.00 0.03 0.16 0.19 0.26 0.06 0.05 0.12 0.13 0.11 0.01 0.02 0.03 0.03 0.03 0.00 0.00 0.00 0.00 0.00 0.00 0.00 0.00 0.00 0.00 0.00 0.05 0.04 0.06 0.03 0.00 0.01 0.01 0.02 0.03 0.04 0.02 0.02 0.01 0.01 0.01 0.00 0.01 0.00 0.00 0.00
0.00 0.00 0.00 0.00 0.00 0.04 0.07 0.07 0.02 0.11 0.12 0.16 0.14 0.03 0.04 0.02 0.04 0.04 0.01 0.03 0.03 0.00 0.00 0.00 0.00 0.00 0.00 0.00 0.00 0.01 0.04 0.03 0.02 0.00 0.07 0.01 0.02 0.02 0.05 0.01 0.01 0.00 0.00 0.00 0.00 0.01 0.00 0.00 0.00
0.00 0.00 0.00 0.00 0.00 0.00 0.00 0.00 0.00 0.00 0.01 0.08 0.07 0.09 0.06 0.01 0.04 0.04 0.03 0.04 0.04 0.01 0.00 0.00 0.00 0.00 0.00 0.00 0.00 0.00 0.02 0.06 0.04 0.05 0.14 0.06 0.01 0.02 0.03 0.00 0.01 0.01 0.00 0.00 0.00 0.01 0.00 0.00 0.00
0.00 0.00 0.00 0.00 0.00 0.00 0.00 0.00 0.00 0.00 0.00 0.01 0.01 0.06 0.12 0.06 0.06 0.04 0.04 0.05 0.08 0.02 0.00 0.00 0.00 0.00 0.00 0.00 0.00 0.00 0.00 0.01 0.11 0.11 0.04 0.04 0.04 0.03 0.00 0.01 0.01 0.00 0.00 0.00 0.00 0.01 0.02 0.00 0.00
0.00 0.00 0.00 0.00 0.00 0.00 0.00 0.00 0.00 0.03 0.12 0.12 0.11 0.06 0.08 0.12 0.08 0.07 0.12 0.13 0.20 0.12 0.01 0.00 0.00 0.00 0.00 0.00 0.00 0.00 0.00 0.00 0.05 0.06 0.05 0.03 0.07 0.06 0.04 0.06 0.06 0.02 0.00 0.00 0.00 0.00 0.00 0.00 0.00
0.00 0.00 0.00 0.00 0.00 0.00 0.00 0.00 0.00 0.05 0.12 0.05 0.03 0.03 0.04 0.08 0.08 0.12 0.09 0.16 0.21 0.22 0.04 0.00 0.00 0.00 0.01 0.00 0.00 0.02 0.00 0.00 0.00 0.01 0.02 0.03 0.02 0.01 0.02 0.09 0.14 0.06 0.01 0.00 0.00 0.00 0.00 0.00 0.00
0.00 0.00 0.00 0.00 0.00 0.00 0.05 0.04 0.03 0.05 0.06 0.09 0.11 0.11 0.09 0.09 0.05 0.19 0.29 0.21 0.22 0.40 0.27 0.13 0.05 0.05 0.11 0.04 0.06 0.12 0.08 0.05 0.01 0.03 0.03 0.10 0.04 0.07 0.08 0.04 0.05 0.13 0.03 0.03 0.01 0.00 0.00 0.00 0.00
0.00 0.00 0.00 0.00 0.00 0.00 0.02 0.03 0.04 0.06 0.08 0.06 0.06 0.16 0.16 0.19 0.19 0.28 0.39 0.44 0.40 0.54 0.41 0.48 0.39 0.41 0.52 0.47 0.18 0.11 0.10 0.07 0.06 0.02 0.01 0.05 0.12 0.09 0.15 0.12 0.00 0.05 0.12 0.04 0.05 0.03 0.01 0.00 0.00
0.00 0.00 0.00 0.00 0.00 0.00 0.00 0.01 0.03 0.16 0.15 0.08 0.04 0.10 0.13 0.19 0.21 0.24 0.24 0.36 0.34 0.42 0.38 0.47 0.75 0.63 0.59 0.48 0.45 0.25 0.22 0.18 0.16 0.08 0.05 0.08 0.07 0.12 0.21 0.10 0.04 0.06 0.11 0.08 0.05 0.04 0.05 0.06 0.03

GFSSGP_prec_precacc12_099.txt.gz
Total_Precipitation_Accumulation
0.00 0.00 0.00 0.00 0.07 0.03 0.02 0.00 0.00 0.00 0.00 0.00 0.00 0.00 0.00 0.00 0.00 0.00 0.00 0.00 0.00 0.00 0.00 0.11 0.11 0.00 0.05 0.10 0.04 0.04 0.01 0.01 0.01 0.07 0.05 0.03 0.05 0.08 0.09 0.08 0.10 0.06 0.04 0.06 0.07 0.08 0.04 0.03 0.04
0.00 0.00 0.00 0.01 0.16 0.12 0.02 0.02 0.02 0.00 0.00 0.00 0.00 0.00 0.01 0.02 0.00 0.00 0.00 0.00 0.01 0.02 0.01 0.00 0.02 0.07 0.12 0.07 0.04 0.03 0.03 0.05 0.04 0.08 0.04 0.05 0.08 0.08 0.07 0.05 0.10 0.14 0.10 0.06 0.01 0.00 0.01 0.01 0.00
0.00 0.00 0.03 0.02 0.15 0.14 0.06 0.07 0.05 0.01 0.01 0.00 0.03 0.01 0.02 0.03 0.00 0.00 0.00 0.00 0.02 0.04 0.00 0.01 0.08 0.11 0.07 0.08 0.13 0.07 0.05 0.03 0.07 0.09 0.05 0.07 0.10 0.16 0.07 0.15 0.17 0.18 0.22 0.18 0.22 0.18 0.05 0.02 0.01
0.00 0.02 0.11 0.31 0.40 0.04 0.05 0.05 0.01 0.01 0.00 0.00 0.02 0.05 0.00 0.00 0.00 0.00 0.00 0.02 0.02 0.01 0.00 0.03 0.11 0.16 0.13 0.07 0.05 0.02 0.05 0.04 0.06 0.05 0.07 0.08 0.10 0.06 0.14 0.16 0.16 0.18 0.13 0.11 0.15 0.18 0.09 0.01 0.00
0.00 0.12 0.82 0.45 0.16 0.00 0.06 0.09 0.07 0.03 0.00 0.01 0.04 0.10 0.00 0.00 0.00 0.00 0.01 0.02 0.00 0.00 0.01 0.03 0.13 0.07 0.07 0.04 0.04 0.10 0.07 0.05 0.05 0.11 0.13 0.17 0.20 0.19 0.26 0.19 0.19 0.17 0.09 0.05 0.07 0.05 0.07 0.04 0.01
0.04 0.33 0.33 0.07 0.01 0.00 0.05 0.03 0.03 0.01 0.01 0.00 0.01 0.00 0.00 0.00 0.01 0.01 0.00 0.00 0.00 0.00 0.01 0.01 0.09 0.06 0.06 0.04 0.08 0.11 0.08 0.06 0.05 0.12 0.20 0.22 0.41 0.18 0.19 0.18 0.10 0.03 0.01 0.03 0.04 0.05 0.02 0.02 0.00
0.19 0.41 0.44 0.07 0.00 0.01 0.02 0.03 0.05 0.03 0.00 0.00 0.00 0.00 0.01 0.01 0.01 0.00 0.00 0.00 0.00 0.00 0.01 0.02 0.04 0.07 0.07 0.08 0.11 0.09 0.06 0.07 0.04 0.12 0.12 0.14 0.18 0.24 0.24 0.20 0.04 0.01 0.01 0.03 0.01 0.02 0.05 0.10 0.05
0.15 0.50 0.30 0.04 0.00 0.02 0.02 0.07 0.01 0.00 0.00 0.00 0.00 0.00 0.00 0.00 0.00 0.00 0.00 0.00 0.00 0.00 0.01 0.01 0.02 0.07 0.06 0.05 0.09 0.04 0.03 0.10 0.05 0.05 0.11 0.12 0.06 0.14 0.18 0.17 0.08 0.00 0.00 0.02 0.03 0.05 0.08 0.07 0.03
0.11 0.53 0.21 0.06 0.00 0.00 0.00 0.01 0.01 0.01 0.00 0.00 0.00 0.00 0.00 0.00 0.00 0.00 0.00 0.00 0.00 0.00 0.00 0.00 0.00 0.01 0.06 0.05 0.05 0.02 0.03 0.08 0.08 0.08 0.19 0.26 0.06 0.24 0.28 0.07 0.01 0.00 0.00 0.07 0.10 0.08 0.12 0.11 0.06
0.14 0.35 0.16 0.05 0.01 0.00 0.00 0.00 0.00 0.00 0.00 0.00 0.00 0.00 0.00 0.00 0.00 0.00 0.00 0.00 0.00 0.00 0.00 0.00 0.00 0.00 0.02 0.06 0.04 0.01 0.03 0.01 0.04 0.01 0.04 0.08 0.05 0.20 0.01 0.00 0.00 0.01 0.03 0.03 0.04 0.05 0.02 0.03 0.09
0.06 0.35 0.13 0.02 0.01 0.00 0.00 0.01 0.00 0.00 0.01 0.00 0.00 0.00 0.00 0.00 0.00 0.00 0.00 0.00 0.00 0.00 0.00 0.00 0.00 0.00 0.08 0.10 0.00 0.00 0.00 0.00 0.00 0.04 0.06 0.00 0.00 0.00 0.00 0.01 0.01 0.02 0.02 0.02 0.00 0.00 0.00 0.00 0.00
0.02 0.04 0.03 0.02 0.00 0.00 0.02 0.02 0.00 0.02 0.00 0.00 0.00 0.00 0.00 0.00 0.00 0.00 0.00 0.00 0.00 0.00 0.00 0.00 0.00 0.03 0.01 0.00 0.00 0.00 0.00 0.00 0.00 0.00 0.00 0.00 0.00 0.00 0.00 0.00 0.00 0.00 0.00 0.01 0.03 0.04 0.01 0.00 0.00
0.04 0.13 0.03 0.03 0.01 0.02 0.03 0.02 0.00 0.03 0.03 0.00 0.00 0.00 0.00 0.00 0.00 0.00 0.00 0.00 0.00 0.00 0.00 0.00 0.00 0.02 0.00 0.00 0.00 0.00 0.00 0.00 0.00 0.00 0.00 0.00 0.00 0.02 0.02 0.00 0.00 0.01 0.01 0.01 0.03 0.03 0.00 0.00 0.00
0.07 0.12 0.08 0.04 0.07 0.09 0.09 0.07 0.03 0.06 0.19 0.03 0.00 0.00 0.00 0.00 0.00 0.00 0.00 0.00 0.00 0.00 0.00 0.00 0.00 0.00 0.00 0.00 0.00 0.00 0.00 0.00 0.00 0.00 0.00 0.00 0.00 0.00 0.00 0.00 0.00 0.00 0.00 0.00 0.03 0.00 0.00 0.00 0.00
0.19 0.06 0.10 0.19 0.27 0.47 0.22 0.23 0.11 0.06 0.14 0.01 0.00 0.00 0.00 0.00 0.00 0.00 0.00 0.00 0.00 0.00 0.00 0.00 0.00 0.00 0.00 0.00 0.00 0.00 0.00 0.00 0.00 0.00 0.00 0.00 0.00 0.01 0.02 0.01 0.00 0.00 0.00 0.01 0.02 0.00 0.00 0.00 0.00
0.27 0.17 0.18 0.34 0.35 0.65 0.44 0.44 0.16 0.10 0.10 0.00 0.00 0.00 0.00 0.00 0.00 0.00 0.00 0.00 0.00 0.00 0.00 0.00 0.00 0.00 0.00 0.00 0.00 0.00 0.00 0.00 0.00 0.00 0.00 0.00 0.00 0.00 0.00 0.00 0.00 0.00 0.00 0.03 0.01 0.00 0.00 0.00 0.00
0.35 0.36 0.33 0.43 0.49 0.51 0.57 0.56 0.32 0.32 0.14 0.01 0.00 0.00 0.00 0.01 0.00 0.00 0.00 0.00 0.00 0.00 0.00 0.00 0.00 0.00 0.00 0.00 0.00 0.00 0.00 0.00 0.00 0.00 0.00 0.00 0.00 0.00 0.00 0.00 0.00 0.00 0.00 0.01 0.00 0.00 0.00 0.00 0.00
0.14 0.33 0.29 0.34 0.27 0.40 0.73 0.49 0.29 0.45 0.20 0.02 0.00 0.00 0.01 0.00 0.00 0.00 0.00 0.00 0.00 0.00 0.00 0.00 0.00 0.00 0.03 0.03 0.00 0.00 0.00 0.04 0.02 0.00 0.00 0.00 0.00 0.00 0.01 0.00 0.00 0.00 0.00 0.00 0.00 0.00 0.00 0.00 0.00
0.07 0.29 0.61 0.23 0.10 0.82 0.87 0.72 0.55 0.47 0.32 0.05 0.00 0.00 0.00 0.00 0.00 0.00 0.00 0.00 0.00 0.00 0.00 0.00 0.00 0.04 0.09 0.05 0.00 0.00 0.00 0.02 0.01 0.00 0.01 0.02 0.00 0.00 0.00 0.00 0.00 0.00 0.00 0.00 0.00 0.00 0.00 0.00 0.00
0.00 0.15 0.78 0.46 0.39 0.53 1.02 0.70 0.62 0.88 0.50 0.07 0.01 0.00 0.00 0.00 0.00 0.00 0.00 0.00 0.00 0.00 0.00 0.00 0.00 0.04 0.05 0.03 0.04 0.03 0.01 0.00 0.00 0.00 0.00 0.00 0.00 0.00 0.00 0.00 0.00 0.00 0.00 0.00 0.00 0.00 0.00 0.00 0.00
0.00 0.04 0.53 0.58 0.38 0.58 0.75 0.78 0.34 0.52 0.78 0.28 0.02 0.00 0.00 0.00 0.00 0.00 0.00 0.00 0.00 0.00 0.00 0.00 0.00 0.02 0.01 0.02 0.06 0.21 0.13 0.14 0.08 0.01 0.00 0.00 0.00 0.00 0.00 0.00 0.01 0.00 0.00 0.00 0.00 0.00 0.00 0.00 0.00
0.00 0.01 0.29 0.39 0.09 0.35 0.31 0.39 0.16 0.12 0.59 0.34 0.07 0.00 0.00 0.01 0.00 0.00 0.00 0.00 0.00 0.00 0.00 0.00 0.00 0.01 0.01 0.00 0.03 0.15 0.35 0.38 0.22 0.03 0.04 0.01 0.00 0.00 0.00 0.00 0.00 0.00 0.01 0.00 0.00 0.00 0.00 0.00 0.00
0.00 0.00 0.12 0.11 0.04 0.10 0.12 0.11 0.09 0.05 0.23 0.29 0.02 0.01 0.00 0.01 0.00 0.01 0.00 0.00 0.00 0.00 0.00 0.00 0.00 0.00 0.00 0.00 0.04 0.06 0.08 0.13 0.08 0.09 0.17 0.10 0.03 0.00 0.00 0.00 0.00 0.00 0.00 0.00 0.00 0.00 0.00 0.00 0.00
0.00 0.00 0.00 0.00 0.01 0.07 0.02 0.01 0.02 0.01 0.08 0.19 0.05 0.03 0.01 0.01 0.00 0.01 0.00 0.00 0.00 0.00 0.00 0.00 0.00 0.00 0.00 0.00 0.01 0.04 0.18 0.16 0.33 0.43 0.23 0.01 0.01 0.00 0.00 0.00 0.00 0.00 0.00 0.00 0.00 0.01 0.00 0.00 0.00
0.00 0.00 0.00 0.00 0.02 0.00 0.00 0.00 0.00 0.00 0.01 0.06 0.03 0.02 0.05 0.03 0.02 0.01 0.01 0.03 0.02 0.00 0.00 0.00 0.00 0.00 0.00 0.00 0.00 0.00 0.07 0.18 0.23 0.30 0.20 0.11 0.15 0.13 0.04 0.08 0.07 0.00 0.00 0.00 0.00 0.05 0.05 0.00 0.00
0.00 0.00 0.00 0.00 0.00 0.00 0.00 0.00 0.00 0.00 0.00 0.00 0.00 0.05 0.06 0.08 0.04 0.02 0.03 0.08 0.12 0.06 0.01 0.00 0.00 0.00 0.00 0.02 0.02 0.01 0.02 0.04 0.14 0.13 0.18 0.10 0.16 0.08 0.09 0.09 0.05 0.01 0.00 0.00 0.00 0.00 0.01 0.02 0.01
0.00 0.00 0.00 0.00 0.00 0.01 0.00 0.00 0.00 0.00 0.00 0.00 0.00 0.01 0.03 0.06 0.09 0.06 0.02 0.08 0.12 0.11 0.03 0.02 0.00 0.01 0.03 0.03 0.03 0.10 0.13 0.05 0.08 0.25 0.11 0.10 0.13 0.19 0.09 0.10 0.15 0.08 0.02 0.00 0.00 0.00 0.00 0.02 0.00
0.00 0.00 0.00 0.00 0.00 0.00 0.00 0.00 0.00 0.00 0.00 0.02 0.01 0.02 0.05 0.04 0.05 0.09 0.13 0.09 0.14 0.18 0.21 0.07 0.02 0.05 0.11 0.06 0.10 0.21 0.13 0.10 0.06 0.08 0.12 0.14 0.04 0.40 0.36 0.11 0.09 0.13 0.05 0.09 0.06 0.00 0.00 0.01 0.00
0.00 0.00 0.00 0.00 0.00 0.00 0.00 0.00 0.00 0.00 0.00 0.00 0.01 0.07 0.08 0.06 0.03 0.06 0.16 0.07 0.18 0.23 0.08 0.17 0.16 0.16 0.26 0.37 0.16 0.25 0.14 0.08 0.06 0.08 0.09 0.10 0.11 0.15 0.27 0.20 0.08 0.17 0.22 0.12 0.15 0.09 0.03 0.01 0.01
0.00 0.00 0.00 0.00 0.00 0.00 0.00 0.01 0.00 0.00 0.00 0.00 0.01 0.05 0.06 0.09 0.07 0.05 0.10 0.06 0.11 0.26 0.11 0.09 0.24 0.44 0.46 0.47 0.47 0.25 0.11 0.12 0.11 0.07 0.09 0.09 0.14 0.21 0.30 0.20 0.26 0.27 0.13 0.12 0.15 0.08 0.09 0.08 0.04

GFSSGP_prec_precacc12_102.txt.gz
Total_Precipitation_Accumulation
0.00 0.00 0.00 0.02 0.18 0.13 0.00 0.00 0.00 0.00 0.00 0.00 0.00 0.00 0.00 0.00 0.00 0.00 0.01 0.02 0.00 0.00 0.00 0.02 0.03 0.00 0.09 0.11 0.04 0.04 0.03 0.02 0.03 0.05 0.05 0.03 0.01 0.06 0.08 0.14 0.15 0.08 0.07 0.07 0.09 0.09 0.04 0.03 0.05
0.00 0.00 0.00 0.13 0.23 0.10 0.01 0.00 0.00 0.00 0.00 0.00 0.00 0.00 0.01 0.02 0.00 0.00 0.00 0.00 0.02 0.03 0.01 0.00 0.02 0.08 0.11 0.05 0.06 0.04 0.05 0.05 0.06 0.09 0.05 0.07 0.09 0.10 0.09 0.07 0.07 0.09 0.05 0.02 0.01 0.00 0.01 0.01 0.00
0.00 0.00 0.05 0.08 0.13 0.07 0.01 0.00 0.00 0.00 0.00 0.00 0.08 0.02 0.00 0.02 0.00 0.00 0.00 0.00 0.02 0.05 0.00 0.01 0.08 0.10 0.07 0.08 0.11 0.09 0.08 0.04 0.09 0.10 0.06 0.08 0.12 0.17 0.08 0.08 0.11 0.11 0.15 0.16 0.21 0.18 0.05 0.03 0.01
0.00 0.03 0.08 0.15 0.16 0.02 0.01 0.00 0.00 0.00 0.00 0.00 0.01 0.05 0.00 0.00 0.00 0.00 0.00 0.03 0.03 0.01 0.00 0.03 0.11 0.16 0.14 0.07 0.04 0.02 0.09 0.06 0.05 0.04 0.07 0.09 0.12 0.06 0.16 0.11 0.13 0.13 0.11 0.10 0.16 0.17 0.10 0.01 0.00
0.00 0.09 0.59 0.32 0.10 0.00 0.01 0.03 0.03 0.01 0.00 0.01 0.03 0.09 0.00 0.00 0.00 0.00 0.01 0.02 0.00 0.00 0.01 0.03 0.12 0.06 0.05 0.02 0.01 0.04 0.07 0.06 0.05 0.10 0.11 0.21 0.21 0.17 0.21 0.14 0.16 0.16 0.08 0.05 0.08 0.06 0.06 0.03 0.01
0.06 0.31 0.34 0.16 0.01 0.00 0.00 0.01 0.00 0.00 0.01 0.01 0.00 0.00 0.00 0.00 0.02 0.01 0.01 0.04 0.01 0.00 0.01 0.00 0.05 0.04 0.02 0.03 0.03 0.05 0.04 0.04 0.01 0.08 0.15 0.19 0.47 0.17 0.21 0.19 0.10 0.02 0.00 0.03 0.03 0.05 0.02 0.00 0.00
0.30 0.53 0.46 0.07 0.00 0.00 0.00 0.00 0.00 0.00 0.00 0.01 0.00 0.00 0.01 0.01 0.01 0.01 0.02 0.01 0.01 0.00 0.01 0.02 0.03 0.06 0.05 0.07 0.08 0.05 0.04 0.06 0.01 0.07 0.10 0.10 0.16 0.20 0.17 0.13 0.01 0.00 0.01 0.00 0.00 0.00 0.01 0.02 0.00
0.26 0.81 0.43 0.13 0.00 0.01 0.01 0.03 0.00 0.00 0.01 0.00 0.00 0.00 0.00 0.00 0.00 0.00 0.00 0.00 0.00 0.00 0.03 0.02 0.02 0.07 0.06 0.05 0.09 0.03 0.03 0.09 0.05 0.04 0.12 0.11 0.04 0.08 0.12 0.09 0.02 0.00 0.00 0.00 0.00 0.00 0.02 0.02 0.00
0.14 1.53 0.45 0.32 0.01 0.01 0.00 0.01 0.00 0.01 0.00 0.00 0.00 0.00 0.00 0.00 0.00 0.00 0.00 0.00 0.00 0.00 0.00 0.01 0.00 0.02 0.06 0.05 0.04 0.02 0.04 0.11 0.08 0.03 0.14 0.36 0.03 0.10 0.25 0.10 0.01 0.00 0.00 0.00 0.00 0.01 0.04 0.03 0.01
0.26 0.69 0.27 0.14 0.03 0.01 0.00 0.00 0.00 0.01 0.01 0.01 0.00 0.00 0.00 0.00 0.00 0.00 0.00 0.00 0.00 0.00 0.00 0.00 0.00 0.00 0.02 0.04 0.02 0.01 0.05 0.04 0.08 0.06 0.08 0.13 0.05 0.19 0.01 0.00 0.00 0.01 0.03 0.02 0.01 0.04 0.06 0.28 0.15
0.11 1.07 0.41 0.13 0.06 0.01 0.00 0.01 0.00 0.00 0.01 0.00 0.00 0.00 0.00 0.00 0.00 0.00 0.00 0.00 0.00 0.00 0.00 0.00 0.00 0.01 0.08 0.08 0.00 0.00 0.00 0.01 0.10 0.15 0.09 0.01 0.00 0.00 0.00 0.00 0.02 0.04 0.06 0.16 0.02 0.00 0.01 0.12 0.06
0.05 0.10 0.08 0.08 0.06 0.01 0.03 0.00 0.00 0.01 0.00 0.00 0.00 0.00 0.00 0.00 0.00 0.00 0.00 0.00 0.00 0.00 0.00 0.00 0.00 0.03 0.01 0.00 0.00 0.00 0.00 0.00 0.16 0.14 0.00 0.00 0.00 0.00 0.00 0.00 0.21 0.25 0.08 0.48 0.02 0.00 0.00 0.00 0.00
0.08 0.08 0.05 0.12 0.05 0.02 0.02 0.02 0.00 0.02 0.00 0.00 0.00 0.00 0.00 0.00 0.00 0.00 0.00 0.00 0.00 0.00 0.00 0.00 0.00 0.02 0.00 0.00 0.00 0.00 0.00 0.00 0.00 0.00 0.00 0.00 0.00 0.00 0.01 0.02 0.07 0.11 0.04 0.04 0.00 0.01 0.01 0.00 0.00
0.07 0.08 0.06 0.06 0.08 0.04 0.06 0.02 0.01 0.03 0.03 0.00 0.00 0.00 0.00 0.00 0.00 0.00 0.00 0.00 0.00 0.00 0.00 0.00 0.00 0.00 0.00 0.00 0.00 0.00 0.00 0.00 0.00 0.00 0.01 0.06 0.00 0.01 0.03 0.08 0.01 0.05 0.01 0.00 0.00 0.09 0.06 0.00 0.00
0.19 0.08 0.13 0.28 0.23 0.23 0.14 0.11 0.04 0.02 0.05 0.00 0.00 0.00 0.00 0.00 0.00 0.00 0.00 0.00 0.00 0.00 0.00 0.00 0.00 0.00 0.00 0.00 0.00 0.00 0.00 0.00 0.00 0.00 0.02 0.08 0.00 0.07 0.17 0.06 0.00 0.00 0.00 0.00 0.00 0.00 0.00 0.00 0.00
0.32 0.23 0.25 0.43 0.29 0.37 0.26 0.37 0.12 0.04 0.07 0.00 0.00 0.00 0.00 0.00 0.00 0.00 0.00 0.00 0.00 0.00 0.00 0.00 0.00 0.00 0.00 0.00 0.01 0.00 0.00 0.00 0.00 0.00 0.00 0.00 0.00 0.04 0.03 0.00 0.00 0.00 0.00 0.00 0.00 0.00 0.00 0.00 0.00
0.47 0.42 0.40 0.48 0.41 0.37 0.55 0.58 0.33 0.30 0.13 0.01 0.00 0.00 0.00 0.00 0.00 0.00 0.00 0.00 0.00 0.00 0.00 0.00 0.00 0.00 0.00 0.00 0.00 0.00 0.00 0.00 0.00 0.00 0.00 0.00 0.00 0.01 0.00 0.01 0.00 0.00 0.01 0.00 0.00 0.00 0.00 0.00 0.00
0.31 0.45 0.37 0.46 0.46 0.28 0.63 0.54 0.32 0.45 0.20 0.02 0.00 0.00 0.00 0.00 0.00 0.00 0.00 0.00 0.00 0.00 0.00 0.00 0.00 0.00 0.04 0.03 0.00 0.00 0.02 0.01 0.00 0.00 0.00 0.00 0.00 0.00 0.01 0.01 0.00 0.01 0.01 0.01 0.00 0.00 0.00 0.00 0.00
0.38 0.52 0.91 0.65 0.31 0.64 0.69 0.62 0.63 0.49 0.32 0.05 0.00 0.00 0.00 0.00 0.00 0.00 0.00 0.00 0.00 0.00 0.00 0.00 0.01 0.04 0.10 0.05 0.01 0.00 0.00 0.00 0.00 0.00 0.00 0.00 0.00 0.00 0.00 0.00 0.00 0.18 0.04 0.00 0.00 0.00 0.00 0.00 0.00
0.03 0.24 1.17 1.29 0.79 0.57 0.69 0.54 0.62 1.21 0.55 0.09 0.01 0.00 0.00 0.00 0.00 0.00 0.00 0.00 0.00 0.00 0.00 0.00 0.03 0.06 0.06 0.04 0.06 0.07 0.02 0.01 0.01 0.00 0.00 0.00 0.00 0.00 0.00 0.01 0.02 0.05 0.00 0.00 0.00 0.00 0.00 0.00 0.00
0.00 0.05 0.82 1.77 1.37 0.91 0.56 0.75 0.47 0.84 1.10 0.31 0.04 0.00 0.02 0.00 0.00 0.00 0.00 0.00 0.00 0.00 0.00 0.00 0.02 0.07 0.03 0.08 0.10 0.28 0.21 0.22 0.15 0.05 0.02 0.00 0.00 0.00 0.00 0.03 0.22 0.05 0.08 0.03 0.00 0.00 0.00 0.00 0.00
0.01 0.07 0.34 1.12 1.24 0.70 0.27 0.39 0.34 0.31 0.78 0.53 0.10 0.00 0.01 0.01 0.00 0.00 0.00 0.00 0.00 0.00 0.00 0.00 0.01 0.08 0.04 0.06 0.09 0.19 0.40 0.44 0.27 0.13 0.28 0.17 0.00 0.00 0.00 0.00 0.05 0.07 0.31 0.25 0.01 0.00 0.00 0.00 0.00
0.00 0.00 0.17 0.62 0.83 0.51 0.15 0.13 0.12 0.07 0.26 0.48 0.10 0.04 0.01 0.01 0.01 0.01 0.00 0.00 0.00 0.00 0.00 0.00 0.00 0.01 0.02 0.03 0.18 0.12 0.10 0.15 0.14 0.19 0.42 0.23 0.06 0.01 0.00 0.00 0.00 0.02 0.10 0.09 0.08 0.01 0.00 0.00 0.01
0.00 0.00 0.00 0.24 0.82 0.32 0.04 0.02 0.05 0.01 0.08 0.28 0.12 0.19 0.04 0.02 0.01 0.01 0.00 0.00 0.00 0.00 0.00 0.00 0.00 0.00 0.01 0.01 0.03 0.14 0.24 0.23 0.41 0.67 0.39 0.13 0.10 0.02 0.00 0.00 0.00 0.01 0.21 0.18 0.01 0.01 0.00 0.00 0.01
0.00 0.00 0.02 0.11 0.31 0.18 0.06 0.01 0.01 0.00 0.01 0.08 0.05 0.12 0.07 0.05 0.02 0.01 0.01 0.00 0.00 0.00 0.00 0.00 0.00 0.00 0.00 0.00 0.00 0.01 0.11 0.24 0.31 0.38 0.23 0.18 0.30 0.37 0.09 0.11 0.08 0.01 0.02 0.03 0.02 0.08 0.05 0.00 0.00
0.00 0.00 0.00 0.02 0.04 0.11 0.07 0.03 0.00 0.00 0.00 0.00 0.00 0.02 0.22 0.09 0.05 0.04 0.03 0.06 0.05 0.02 0.01 0.06 0.02 0.02 0.00 0.02 0.02 0.01 0.03 0.04 0.16 0.18 0.26 0.30 0.35 0.37 0.19 0.16 0.07 0.02 0.01 0.00 0.00 0.00 0.01 0.03 0.01
0.00 0.00 0.00 0.00 0.01 0.03 0.07 0.07 0.00 0.00 0.00 0.00 0.00 0.00 0.08 0.06 0.12 0.07 0.03 0.07 0.29 0.14 0.15 0.04 0.08 0.06 0.05 0.03 0.03 0.10 0.13 0.05 0.10 0.28 0.12 0.13 0.23 0.45 0.64 0.17 0.11 0.06 0.02 0.00 0.01 0.00 0.01 0.10 0.18
0.00 0.00 0.00 0.00 0.00 0.02 0.03 0.04 0.01 0.00 0.00 0.00 0.00 0.00 0.00 0.02 0.09 0.13 0.10 0.08 0.11 0.16 0.59 0.25 0.05 0.06 0.14 0.04 0.09 0.21 0.13 0.10 0.06 0.08 0.11 0.19 0.30 1.42 1.06 0.19 0.10 0.06 0.04 0.08 0.06 0.00 0.01 0.02 0.06
0.00 0.00 0.00 0.00 0.00 0.00 0.02 0.05 0.01 0.00 0.00 0.00 0.00 0.00 0.00 0.00 0.04 0.11 0.13 0.12 0.04 0.05 0.10 0.18 0.12 0.06 0.07 0.19 0.22 0.36 0.20 0.09 0.07 0.09 0.09 0.11 0.15 0.39 0.27 0.28 0.13 0.17 0.19 0.12 0.16 0.10 0.06 0.06 0.04
0.00 0.00 0.00 0.00 0.00 0.00 0.00 0.05 0.11 0.11 0.01 0.00 0.00 0.01 0.00 0.04 0.05 0.12 0.14 0.19 0.04 0.07 0.04 0.05 0.15 0.27 0.16 0.22 0.39 0.27 0.41 0.25 0.12 0.11 0.12 0.10 0.10 0.14 0.24 0.20 0.31 0.34 0.17 0.21 0.21 0.07 0.07 0.10 0.06

GFSSGP_prec_precacc12_105.txt.gz
Total_Precipitation_Accumulation
0.00 0.00 0.02 0.13 0.24 0.17 0.00 0.00 0.00 0.00 0.00 0.00 0.00 0.00 0.00 0.01 0.00 0.00 0.05 0.12 0.01 0.00 0.00 0.02 0.02 0.00 0.09 0.10 0.02 0.03 0.03 0.02 0.03 0.03 0.04 0.03 0.00 0.04 0.03 0.08 0.13 0.09 0.06 0.07 0.09 0.09 0.03 0.01 0.02
0.00 0.02 0.05 0.62 0.29 0.09 0.00 0.00 0.00 0.00 0.00 0.00 0.00 0.00 0.01 0.02 0.00 0.00 0.01 0.01 0.02 0.04 0.01 0.00 0.02 0.08 0.11 0.05 0.05 0.02 0.04 0.04 0.05 0.05 0.05 0.06 0.07 0.07 0.06 0.06 0.07 0.09 0.05 0.02 0.01 0.00 0.00 0.00 0.00
0.00 0.03 0.10 0.38 0.11 0.06 0.00 0.00 0.00 0.00 0.00 0.00 0.08 0.02 0.00 0.01 0.00 0.00 0.01 0.01 0.04 0.07 0.00 0.01 0.08 0.10 0.07 0.06 0.07 0.04 0.05 0.05 0.07 0.05 0.04 0.06 0.09 0.13 0.06 0.08 0.12 0.12 0.15 0.16 0.18 0.10 0.02 0.01 0.01
0.00 0.04 0.03 0.12 0.13 0.02 0.00 0.00 0.00 0.00 0.00 0.00 0.01 0.05 0.00 0.00 0.00 0.00 0.03 0.03 0.03 0.01 0.00 0.03 0.11 0.16 0.14 0.07 0.05 0.04 0.09 0.04 0.05 0.04 0.07 0.07 0.09 0.04 0.13 0.10 0.12 0.11 0.09 0.04 0.06 0.03 0.01 0.01 0.00
0.00 0.03 0.14 0.28 0.08 0.00 0.00 0.01 0.00 0.00 0.00 0.01 0.03 0.09 0.00 0.00 0.00 0.00 0.02 0.03 0.00 0.00 0.00 0.03 0.12 0.08 0.06 0.04 0.06 0.04 0.05 0.04 0.06 0.07 0.08 0.18 0.18 0.14 0.11 0.08 0.12 0.14 0.08 0.04 0.04 0.02 0.01 0.00 0.00
0.06 0.27 0.49 0.32 0.01 0.00 0.00 0.00 0.00 0.00 0.01 0.01 0.00 0.00 0.00 0.00 0.02 0.01 0.04 0.07 0.01 0.00 0.01 0.00 0.02 0.02 0.02 0.03 0.04 0.04 0.04 0.04 0.03 0.06 0.13 0.18 0.43 0.10 0.13 0.08 0.05 0.02 0.00 0.02 0.01 0.03 0.00 0.00 0.00
0.32 0.58 0.52 0.09 0.00 0.00 0.00 0.00 0.00 0.00 0.00 0.01 0.00 0.00 0.00 0.00 0.01 0.02 0.03 0.05 0.01 0.00 0.00 0.00 0.00 0.03 0.03 0.05 0.06 0.03 0.03 0.05 0.02 0.05 0.08 0.04 0.07 0.04 0.06 0.03 0.01 0.00 0.01 0.00 0.00 0.00 0.00 0.00 0.00
0.32 1.09 0.73 0.27 0.00 0.00 0.00 0.00 0.00 0.00 0.01 0.00 0.00 0.00 0.00 0.00 0.00 0.00 0.02 0.02 0.01 0.00 0.03 0.01 0.01 0.05 0.03 0.02 0.04 0.02 0.02 0.06 0.04 0.03 0.13 0.11 0.05 0.10 0.16 0.11 0.02 0.00 0.00 0.00 0.00 0.00 0.00 0.00 0.00
0.21 1.65 0.66 0.80 0.01 0.00 0.00 0.01 0.00 0.01 0.00 0.00 0.00 0.00 0.00 0.00 0.00 0.00 0.00 0.00 0.00 0.00 0.00 0.01 0.00 0.01 0.03 0.03 0.03 0.02 0.03 0.09 0.11 0.08 0.22 0.46 0.07 0.07 0.18 0.13 0.03 0.00 0.00 0.00 0.00 0.00 0.01 0.01 0.00
0.45 1.29 0.58 0.46 0.08 0.01 0.00 0.00 0.00 0.01 0.01 0.01 0.00 0.00 0.00 0.00 0.00 0.00 0.00 0.00 0.00 0.01 0.03 0.01 0.00 0.00 0.00 0.00 0.02 0.01 0.08 0.11 0.23 0.17 0.18 0.17 0.08 0.16 0.01 0.04 0.09 0.11 0.09 0.11 0.10 0.07 0.07 0.29 0.12
0.24 1.82 0.76 0.26 0.24 0.02 0.00 0.01 0.00 0.00 0.01 0.00 0.00 0.00 0.00 0.00 0.00 0.00 0.00 0.00 0.00 0.00 0.01 0.00 0.00 0.01 0.00 0.00 0.00 0.00 0.01 0.03 0.15 0.27 0.18 0.07 0.06 0.01 0.02 0.10 0.17 0.16 0.16 0.23 0.08 0.07 0.04 0.13 0.06
0.09 0.17 0.77 0.55 0.46 0.03 0.02 0.00 0.00 0.00 0.00 0.00 0.00 0.00 0.00 0.00 0.00 0.00 0.00 0.00 0.00 0.00 0.00 0.00 0.00 0.03 0.00 0.00 0.00 0.00 0.00 0.00 0.18 0.15 0.04 0.03 0.00 0.08 0.15 0.08 0.51 0.46 0.32 0.58 0.05 0.02 0.00 0.00 0.00
0.10 0.08 0.28 0.57 0.22 0.07 0.02 0.00 0.00 0.01 0.00 0.00 0.00 0.00 0.00 0.00 0.00 0.00 0.00 0.00 0.00 0.00 0.00 0.00 0.00 0.02 0.00 0.00 0.00 0.00 0.01 0.00 0.01 0.04 0.04 0.06 0.03 0.13 0.13 0.08 0.41 0.28 0.11 0.11 0.02 0.01 0.01 0.00 0.00
0.11 0.15 0.13 0.46 0.59 0.16 0.02 0.02 0.00 0.00 0.00 0.00 0.00 0.00 0.00 0.00 0.00 0.00 0.00 0.00 0.00 0.00 0.00 0.00 0.00 0.00 0.00 0.00 0.00 0.00 0.00 0.00 0.00 0.07 0.09 0.07 0.02 0.04 0.07 0.12 0.07 0.11 0.06 0.01 0.01 0.09 0.07 0.00 0.00
0.19 0.13 0.16 0.31 0.45 0.16 0.07 0.05 0.02 0.00 0.00 0.00 0.00 0.00 0.00 0.00 0.00 0.00 0.00 0.00 0.00 0.00 0.00 0.00 0.00 0.00 0.00 0.00 0.00 0.00 0.00 0.00 0.00 0.00 0.05 0.17 0.02 0.07 0.20 0.10 0.03 0.03 0.04 0.01 0.00 0.00 0.00 0.00 0.00
0.25 0.28 0.39 0.60 0.70 0.21 0.15 0.23 0.09 0.02 0.00 0.00 0.00 0.00 0.00 0.00 0.00 0.00 0.00 0.00 0.00 0.00 0.00 0.00 0.00 0.00 0.00 0.00 0.01 0.00 0.00 0.00 0.00 0.00 0.01 0.02 0.02 0.06 0.07 0.01 0.00 0.02 0.01 0.03 0.00 0.00 0.00 0.00 0.01
0.53 0.50 0.53 0.77 0.94 0.43 0.43 0.36 0.25 0.12 0.03 0.00 0.00 0.00 0.00 0.00 0.00 0.00 0.00 0.00 0.00 0.00 0.00 0.00 0.00 0.00 0.00 0.00 0.01 0.03 0.02 0.00 0.00 0.00 0.00 0.00 0.00 0.04 0.01 0.01 0.00 0.00 0.01 0.03 0.00 0.00 0.00 0.00 0.00
0.35 0.61 0.57 0.71 1.16 0.77 0.56 0.49 0.31 0.32 0.16 0.02 0.00 0.00 0.00 0.00 0.00 0.00 0.00 0.00 0.00 0.00 0.00 0.00 0.00 0.00 0.04 0.06 0.04 0.05 0.04 0.01 0.00 0.00 0.00 0.00 0.00 0.01 0.01 0.03 0.03 0.02 0.03 0.02 0.00 0.00 0.00 0.00 0.00
0.38 0.61 0.99 1.04 1.50 1.34 0.70 0.56 0.61 0.48 0.31 0.05 0.00 0.00 0.00 0.00 0.00 0.00 0.00 0.00 0.00 0.00 0.00 0.00 0.01 0.04 0.10 0.06 0.01 0.01 0.01 0.00 0.00 0.00 0.00 0.00 0.00 0.00 0.01 0.05 0.05 0.40 0.06 0.00 0.00 0.00 0.00 0.00 0.00
0.06 0.29 1.30 1.44 1.44 1.04 0.70 0.40 0.59 1.18 0.52 0.09 0.01 0.01 0.00 0.00 0.00 0.00 0.00 0.00 0.00 0.00 0.00 0.00 0.03 0.06 0.06 0.05 0.07 0.08 0.03 0.02 0.01 0.01 0.00 0.00 0.00 0.00 0.01 0.06 0.06 0.11 0.04 0.00 0.00 0.00 0.01 0.00 0.00
0.03 0.08 0.84 1.85 1.48 1.35 0.84 0.61 0.47 0.84 1.10 0.31 0.04 0.00 0.02 0.00 0.00 0.00 0.00 0.00 0.00 0.00 0.00 0.00 0.02 0.09 0.04 0.09 0.10 0.29 0.21 0.23 0.20 0.09 0.07 0.01 0.00 0.00 0.00 0.09 0.29 0.09 0.11 0.04 0.01 0.02 0.01 0.01 0.00
0.08 0.13 0.38 1.14 1.36 1.24 1.01 0.55 0.43 0.36 0.81 0.55 0.10 0.00 0.01 0.02 0.00 0.00 0.00 0.00 0.00 0.00 0.00 0.00 0.01 0.10 0.07 0.07 0.09 0.17 0.38 0.43 0.28 0.15 0.31 0.18 0.01 0.00 0.00 0.02 0.07 0.10 0.35 0.26 0.02 0.02 0.01 0.01 0.00
0.03 0.03 0.18 0.62 0.93 0.85 0.62 0.43 0.22 0.10 0.28 0.48 0.10 0.04 0.02 0.02 0.01 0.02 0.00 0.00 0.00 0.00 0.00 0.00 0.00 0.03 0.03 0.04 0.19 0.15 0.09 0.17 0.19 0.21 0.44 0.23 0.07 0.01 0.00 0.00 0.01 0.05 0.14 0.10 0.09 0.03 0.01 0.02 0.02
0.01 0.03 0.03 0.25 0.90 0.54 0.18 0.17 0.12 0.02 0.08 0.28 0.12 0.19 0.04 0.03 0.02 0.03 0.00 0.00 0.00 0.00 0.00 0.00 0.00 0.00 0.01 0.01 0.05 0.16 0.25 0.23 0.45 0.66 0.41 0.15 0.14 0.03 0.02 0.00 0.01 0.03 0.22 0.21 0.04 0.02 0.01 0.01 0.03
0.00 0.01 0.10 0.16 0.45 0.42 0.11 0.12 0.17 0.00 0.01 0.08 0.05 0.12 0.08 0.05 0.02 0.03 0.02 0.02 0.00 0.00 0.00 0.00 0.00 0.00 0.00 0.00 0.00 0.01 0.14 0.27 0.25 0.31 0.26 0.22 0.32 0.45 0.16 0.16 0.08 0.03 0.03 0.05 0.05 0.08 0.03 0.00 0.00
0.00 0.00 0.01 0.04 0.09 0.16 0.13 0.31 0.09 0.01 0.00 0.00 0.00 0.04 0.22 0.06 0.04 0.04 0.03 0.08 0.09 0.01 0.01 0.06 0.02 0.02 0.00 0.02 0.02 0.01 0.03 0.05 0.15 0.15 0.41 0.41 0.42 0.60 0.22 0.20 0.07 0.05 0.04 0.02 0.01 0.00 0.00 0.03 0.01
0.00 0.00 0.00 0.01 0.04 0.07 0.23 0.40 0.10 0.02 0.00 0.00 0.00 0.00 0.08 0.04 0.07 0.03 0.02 0.19 0.51 0.24 0.20 0.07 0.08 0.07 0.05 0.03 0.03 0.08 0.13 0.06 0.10 0.31 0.26 0.29 0.36 0.60 0.68 0.18 0.05 0.04 0.03 0.00 0.01 0.01 0.01 0.10 0.18
0.00 0.00 0.00 0.00 0.00 0.05 0.18 0.57 0.22 0.01 0.00 0.00 0.00 0.00 0.00 0.01 0.09 0.09 0.06 0.12 0.37 0.51 0.70 0.43 0.12 0.09 0.10 0.03 0.05 0.10 0.05 0.06 0.06 0.11 0.20 0.25 0.37 1.44 1.05 0.21 0.13 0.03 0.03 0.07 0.05 0.01 0.01 0.03 0.06
0.00 0.00 0.00 0.00 0.00 0.00 0.06 0.10 0.05 0.02 0.00 0.00 0.00 0.01 0.00 0.00 0.05 0.13 0.09 0.14 0.14 0.20 0.21 0.79 0.17 0.09 0.05 0.05 0.26 0.46 0.18 0.06 0.05 0.09 0.10 0.12 0.19 0.41 0.28 0.31 0.22 0.16 0.12 0.10 0.11 0.07 0.06 0.06 0.04
0.00 0.00 0.00 0.00 0.00 0.00 0.00 0.08 0.16 0.15 0.02 0.01 0.02 0.04 0.05 0.05 0.07 0.13 0.13 0.35 0.21 0.10 0.10 0.15 0.19 0.28 0.21 0.21 0.29 0.25 0.45 0.36 0.16 0.14 0.14 0.13 0.12 0.15 0.25 0.20 0.33 0.32 0.11 0.14 0.16 0.06 0.07 0.09 0.05

GFSSGP_prec_precacc12_108.txt.gz
Total_Precipitation_Accumulation
0.00 0.00 0.04 0.18 0.25 0.17 0.00 0.00 0.00 0.00 0.00 0.00 0.00 0.00 0.00 0.01 0.00 0.00 0.07 0.14 0.01 0.00 0.00 0.00 0.00 0.00 0.07 0.04 0.02 0.06 0.05 0.06 0.06 0.03 0.04 0.03 0.01 0.05 0.03 0.09 0.10 0.06 0.04 0.04 0.06 0.07 0.03 0.00 0.01
0.00 0.06 0.08 0.65 0.28 0.07 0.00 0.00 0.00 0.00 0.00 0.00 0.00 0.00 0.01 0.00 0.00 0.00 0.02 0.01 0.02 0.02 0.01 0.00 0.00 0.07 0.10 0.04 0.05 0.03 0.06 0.05 0.04 0.03 0.05 0.06 0.09 0.09 0.05 0.06 0.04 0.04 0.02 0.01 0.01 0.00 0.00 0.00 0.00
0.00 0.06 0.10 0.42 0.09 0.03 0.00 0.00 0.00 0.00 0.00 0.00 0.08 0.02 0.00 0.00 0.00 0.00 0.03 0.04 0.06 0.05 0.00 0.00 0.04 0.06 0.06 0.05 0.07 0.04 0.06 0.05 0.05 0.04 0.06 0.08 0.12 0.13 0.07 0.07 0.09 0.09 0.12 0.10 0.07 0.04 0.02 0.01 0.00
0.00 0.04 0.00 0.11 0.11 0.02 0.00 0.00 0.00 0.00 0.00 0.00 0.01 0.01 0.00 0.00 0.00 0.01 0.07 0.09 0.04 0.01 0.00 0.01 0.05 0.07 0.08 0.03 0.04 0.04 0.08 0.05 0.05 0.04 0.07 0.08 0.08 0.04 0.10 0.05 0.08 0.05 0.04 0.01 0.05 0.02 0.01 0.01 0.00
0.00 0.01 0.10 0.28 0.07 0.00 0.00 0.00 0.00 0.00 0.00 0.01 0.02 0.03 0.00 0.01 0.00 0.00 0.03 0.03 0.00 0.00 0.00 0.02 0.09 0.05 0.05 0.03 0.06 0.04 0.05 0.05 0.06 0.05 0.06 0.14 0.08 0.03 0.03 0.06 0.10 0.10 0.03 0.03 0.02 0.01 0.00 0.00 0.00
0.03 0.11 0.47 0.33 0.01 0.00 0.00 0.00 0.00 0.00 0.01 0.01 0.00 0.00 0.00 0.00 0.02 0.01 0.04 0.07 0.01 0.01 0.00 0.00 0.02 0.02 0.01 0.02 0.04 0.04 0.04 0.04 0.02 0.03 0.04 0.06 0.22 0.06 0.10 0.07 0.05 0.01 0.00 0.01 0.00 0.00 0.00 0.00 0.00
0.27 0.44 0.49 0.10 0.00 0.00 0.00 0.00 0.00 0.00 0.00 0.01 0.00 0.00 0.00 0.00 0.02 0.02 0.04 0.05 0.01 0.00 0.00 0.00 0.00 0.01 0.02 0.02 0.04 0.03 0.03 0.04 0.02 0.03 0.03 0.06 0.05 0.01 0.04 0.01 0.00 0.00 0.01 0.00 0.00 0.00 0.00 0.00 0.00
0.31 0.97 0.76 0.30 0.00 0.00 0.00 0.00 0.00 0.00 0.01 0.00 0.00 0.00 0.00 0.00 0.02 0.00 0.02 0.03 0.01 0.00 0.03 0.01 0.01 0.03 0.01 0.01 0.03 0.02 0.01 0.03 0.01 0.04 0.12 0.14 0.06 0.10 0.12 0.08 0.01 0.00 0.00 0.00 0.00 0.00 0.00 0.00 0.00
0.30 1.59 0.71 0.85 0.01 0.00 0.00 0.02 0.00 0.01 0.00 0.00 0.00 0.00 0.00 0.00 0.00 0.00 0.00 0.01 0.08 0.01 0.00 0.00 0.00 0.01 0.00 0.00 0.01 0.04 0.06 0.11 0.11 0.09 0.24 0.47 0.08 0.05 0.11 0.12 0.04 0.00 0.01 0.02 0.00 0.00 0.01 0.01 0.00
0.56 1.90 0.92 0.50 0.09 0.01 0.00 0.01 0.00 0.01 0.01 0.01 0.00 0.00 0.00 0.00 0.00 0.00 0.00 0.00 0.06 0.02 0.03 0.00 0.00 0.00 0.00 0.00 0.03 0.02 0.09 0.15 0.23 0.18 0.19 0.16 0.09 0.11 0.07 0.12 0.12 0.11 0.09 0.12 0.10 0.07 0.07 0.28 0.11
0.39 2.05 0.90 0.30 0.26 0.02 0.00 0.01 0.00 0.01 0.01 0.00 0.00 0.00 0.00 0.00 0.00 0.00 0.00 0.00 0.01 0.00 0.01 0.00 0.00 0.00 0.00 0.00 0.00 0.00 0.01 0.04 0.15 0.29 0.19 0.07 0.08 0.02 0.04 0.11 0.17 0.16 0.16 0.23 0.08 0.07 0.04 0.14 0.06
0.22 0.32 0.83 0.57 0.49 0.05 0.03 0.00 0.00 0.01 0.01 0.00 0.00 0.00 0.00 0.00 0.00 0.00 0.00 0.00 0.00 0.00 0.00 0.00 0.00 0.01 0.00 0.00 0.00 0.00 0.01 0.02 0.19 0.22 0.07 0.05 0.00 0.08 0.15 0.08 0.51 0.46 0.32 0.58 0.07 0.03 0.00 0.00 0.00
0.17 0.23 0.51 0.74 0.26 0.15 0.08 0.00 0.00 0.01 0.01 0.00 0.00 0.00 0.00 0.00 0.00 0.00 0.00 0.00 0.00 0.00 0.00 0.00 0.00 0.01 0.01 0.04 0.02 0.05 0.03 0.00 0.02 0.05 0.08 0.08 0.03 0.14 0.13 0.08 0.42 0.29 0.11 0.12 0.02 0.01 0.01 0.00 0.00
0.10 0.22 0.43 1.05 0.80 0.39 0.10 0.05 0.01 0.01 0.00 0.00 0.00 0.00 0.00 0.00 0.00 0.00 0.00 0.00 0.00 0.00 0.00 0.00 0.00 0.00 0.00 0.01 0.01 0.03 0.02 0.00 0.00 0.08 0.13 0.08 0.03 0.05 0.07 0.13 0.08 0.12 0.07 0.01 0.01 0.10 0.07 0.00 0.00
0.12 0.32 0.52 0.79 1.09 0.76 0.25 0.14 0.03 0.00 0.01 0.00 0.00 0.00 0.00 0.00 0.00 0.00 0.00 0.00 0.00 0.00 0.00 0.00 0.00 0.00 0.00 0.00 0.04 0.01 0.01 0.00 0.02 0.02 0.10 0.20 0.02 0.08 0.20 0.10 0.05 0.08 0.08 0.03 0.02 0.01 0.00 0.00 0.00
0.17 0.35 0.55 0.75 0.98 0.92 0.33 0.26 0.06 0.00 0.00 0.00 0.00 0.00 0.00 0.00 0.00 0.00 0.00 0.00 0.00 0.00 0.00 0.00 0.00 0.00 0.00 0.00 0.00 0.00 0.00 0.00 0.00 0.01 0.02 0.03 0.03 0.07 0.08 0.05 0.11 0.25 0.68 0.11 0.05 0.02 0.00 0.00 0.01
0.43 0.49 0.56 1.26 1.37 1.29 0.46 0.36 0.14 0.01 0.01 0.00 0.00 0.00 0.00 0.00 0.00 0.00 0.00 0.00 0.00 0.00 0.00 0.00 0.00 0.00 0.00 0.00 0.02 0.03 0.03 0.01 0.00 0.00 0.00 0.00 0.01 0.06 0.02 0.04 0.05 0.15 0.09 0.08 0.02 0.02 0.00 0.00 0.00
0.33 0.60 0.65 0.85 1.69 1.18 0.60 0.41 0.17 0.04 0.01 0.00 0.00 0.00 0.00 0.00 0.00 0.00 0.00 0.00 0.00 0.00 0.00 0.00 0.00 0.00 0.03 0.05 0.06 0.08 0.04 0.00 0.00 0.00 0.00 0.00 0.00 0.02 0.06 0.05 0.04 0.05 0.04 0.03 0.00 0.00 0.00 0.00 0.00
0.38 0.66 1.05 1.16 1.74 1.63 1.03 0.45 0.51 0.33 0.15 0.01 0.00 0.00 0.00 0.00 0.00 0.00 0.00 0.00 0.00 0.00 0.00 0.00 0.00 0.03 0.06 0.05 0.02 0.02 0.02 0.00 0.01 0.03 0.00 0.00 0.00 0.01 0.04 0.05 0.05 0.40 0.06 0.00 0.00 0.00 0.00 0.00 0.00
0.11 0.36 1.33 1.42 1.41 1.16 1.11 0.54 0.54 1.01 0.40 0.07 0.01 0.01 0.00 0.00 0.00 0.00 0.00 0.00 0.00 0.00 0.00 0.00 0.03 0.06 0.04 0.03 0.04 0.06 0.03 0.02 0.02 0.05 0.03 0.01 0.00 0.00 0.03 0.07 0.06 0.11 0.04 0.01 0.00 0.00 0.01 0.00 0.00
0.07 0.11 0.87 1.81 1.42 1.30 0.90 1.01 0.48 0.73 0.83 0.22 0.03 0.00 0.02 0.00 0.00 0.00 0.00 0.00 0.00 0.00 0.00 0.00 0.02 0.09 0.04 0.09 0.08 0.11 0.15 0.20 0.19 0.12 0.08 0.01 0.02 0.02 0.03 0.11 0.30 0.10 0.11 0.04 0.02 0.03 0.01 0.01 0.00
0.10 0.14 0.40 1.14 1.33 1.16 1.10 0.83 0.72 0.37 0.64 0.46 0.08 0.00 0.01 0.02 0.00 0.00 0.00 0.00 0.00 0.00 0.00 0.00 0.01 0.10 0.07 0.07 0.08 0.09 0.23 0.28 0.18 0.17 0.31 0.18 0.02 0.02 0.00 0.02 0.07 0.10 0.35 0.26 0.03 0.06 0.03 0.01 0.00
0.04 0.03 0.18 0.62 0.93 0.82 0.69 0.65 0.47 0.30 0.28 0.47 0.09 0.04 0.02 0.02 0.01 0.02 0.00 0.00 0.00 0.00 0.00 0.00 0.00 0.03 0.03 0.04 0.19 0.13 0.05 0.07 0.15 0.20 0.36 0.18 0.05 0.01 0.01 0.00 0.01 0.05 0.14 0.10 0.09 0.05 0.06 0.02 0.02
0.01 0.04 0.04 0.25 0.90 0.54 0.24 0.33 0.31 0.21 0.11 0.28 0.12 0.19 0.04 0.03 0.02 0.03 0.00 0.00 0.00 0.00 0.00 0.00 0.00 0.00 0.01 0.01 0.04 0.14 0.17 0.15 0.30 0.51 0.33 0.14 0.13 0.03 0.02 0.00 0.01 0.03 0.22 0.21 0.04 0.01 0.02 0.03 0.04
0.00 0.01 0.11 0.18 0.46 0.43 0.12 0.15 0.28 0.02 0.02 0.08 0.05 0.13 0.09 0.05 0.02 0.03 0.02 0.02 0.00 0.00 0.00 0.00 0.00 0.00 0.00 0.00 0.00 0.01 0.10 0.15 0.16 0.17 0.14 0.19 0.23 0.37 0.16 0.11 0.05 0.03 0.03 0.05 0.05 0.04 0.01 0.00 0.03
0.00 0.00 0.01 0.05 0.11 0.19 0.17 0.34 0.13 0.01 0.00 0.00 0.00 0.04 0.22 0.06 0.04 0.04 0.04 0.08 0.09 0.01 0.01 0.06 0.02 0.02 0.00 0.01 0.02 0.01 0.03 0.02 0.05 0.08 0.29 0.33 0.37 0.57 0.19 0.17 0.06 0.05 0.04 0.02 0.01 0.01 0.00 0.01 0.01
0.00 0.00 0.00 0.01 0.04 0.08 0.27 0.45 0.13 0.03 0.00 0.00 0.00 0.00 0.08 0.04 0.07 0.03 0.02 0.19 0.51 0.24 0.21 0.07 0.08 0.07 0.05 0.02 0.03 0.06 0.05 0.02 0.06 0.14 0.18 0.21 0.25 0.58 0.63 0.17 0.04 0.02 0.01 0.00 0.01 0.01 0.01 0.09 0.18
0.00 0.00 0.00 0.01 0.00 0.05 0.19 0.70 0.30 0.01 0.00 0.00 0.00 0.00 0.00 0.03 0.08 0.06 0.06 0.12 0.37 0.71 0.74 0.47 0.14 0.07 0.09 0.03 0.02 0.02 0.00 0.00 0.01 0.04 0.11 0.19 0.37 1.39 0.92 0.13 0.07 0.01 0.00 0.01 0.03 0.02 0.01 0.03 0.06
0.00 0.00 0.00 0.00 0.00 0.00 0.06 0.15 0.06 0.02 0.00 0.00 0.00 0.01 0.00 0.00 0.06 0.13 0.09 0.17 0.15 0.58 0.42 0.84 0.19 0.06 0.05 0.06 0.27 0.38 0.11 0.04 0.02 0.02 0.02 0.04 0.16 0.39 0.19 0.19 0.15 0.03 0.02 0.01 0.01 0.01 0.05 0.06 0.03
0.00 0.00 0.00 0.00 0.00 0.00 0.00 0.08 0.16 0.15 0.02 0.01 0.02 0.04 0.05 0.05 0.08 0.12 0.09 0.35 0.22 0.19 0.21 0.22 0.23 0.35 0.38 0.44 0.59 0.43 0.53 0.41 0.20 0.15 0.10 0.05 0.04 0.05 0.16 0.16 0.23 0.12 0.10 0.11 0.12 0.04 0.05 0.07 0.05

GFSSGP_prec_precacc12_111.txt.gz
Total_Precipitation_Accumulation
0.00 0.00 0.04 0.19 0.20 0.17 0.00 0.00 0.00 0.00 0.00 0.00 0.00 0.00 0.00 0.01 0.00 0.00 0.07 0.14 0.01 0.00 0.00 0.00 0.02 0.01 0.05 0.02 0.03 0.07 0.07 0.08 0.08 0.05 0.05 0.03 0.02 0.04 0.08 0.11 0.09 0.05 0.03 0.03 0.03 0.03 0.03 0.02 0.01
0.00 0.06 0.08 0.64 0.20 0.06 0.00 0.00 0.00 0.00 0.00 0.00 0.00 0.00 0.00 0.00 0.00 0.00 0.02 0.01 0.01 0.01 0.01 0.00 0.00 0.02 0.02 0.02 0.04 0.03 0.07 0.06 0.04 0.04 0.05 0.07 0.11 0.14 0.07 0.06 0.03 0.03 0.02 0.00 0.00 0.01 0.02 0.01 0.02
0.00 0.06 0.09 0.41 0.03 0.01 0.00 0.00 0.00 0.00 0.00 0.00 0.08 0.01 0.00 0.00 0.00 0.00 0.03 0.04 0.04 0.02 0.00 0.00 0.00 0.02 0.02 0.02 0.03 0.05 0.09 0.08 0.06 0.05 0.08 0.10 0.12 0.08 0.06 0.06 0.07 0.05 0.03 0.02 0.01 0.00 0.02 0.00 0.00
0.00 0.03 0.00 0.09 0.03 0.00 0.00 0.00 0.00 0.00 0.00 0.00 0.01 0.00 0.00 0.00 0.00 0.01 0.07 0.06 0.01 0.00 0.00 0.00 0.00 0.01 0.02 0.02 0.05 0.07 0.11 0.07 0.08 0.05 0.08 0.08 0.07 0.03 0.07 0.02 0.03 0.01 0.01 0.01 0.01 0.01 0.01 0.00 0.00
0.00 0.01 0.10 0.24 0.05 0.00 0.00 0.00 0.00 0.00 0.00 0.00 0.00 0.01 0.00 0.01 0.00 0.00 0.02 0.01 0.00 0.00 0.00 0.00 0.02 0.03 0.03 0.03 0.10 0.06 0.06 0.06 0.07 0.06 0.04 0.08 0.05 0.02 0.01 0.02 0.02 0.02 0.01 0.01 0.01 0.01 0.00 0.00 0.03
0.03 0.03 0.42 0.29 0.00 0.00 0.00 0.00 0.00 0.00 0.00 0.01 0.00 0.00 0.00 0.00 0.01 0.00 0.04 0.07 0.01 0.01 0.00 0.00 0.01 0.02 0.04 0.02 0.05 0.04 0.04 0.06 0.03 0.04 0.03 0.05 0.13 0.03 0.06 0.04 0.02 0.00 0.00 0.00 0.00 0.00 0.00 0.02 0.08
0.15 0.27 0.34 0.07 0.00 0.00 0.00 0.00 0.00 0.00 0.00 0.00 0.00 0.00 0.00 0.01 0.04 0.02 0.04 0.05 0.01 0.00 0.00 0.00 0.00 0.01 0.02 0.01 0.04 0.04 0.02 0.03 0.03 0.03 0.02 0.06 0.04 0.01 0.03 0.01 0.00 0.00 0.00 0.00 0.00 0.00 0.00 0.00 0.01
0.21 0.75 0.67 0.28 0.00 0.00 0.00 0.00 0.00 0.00 0.01 0.00 0.00 0.00 0.00 0.00 0.13 0.07 0.02 0.03 0.03 0.05 0.03 0.01 0.00 0.00 0.00 0.00 0.02 0.01 0.01 0.01 0.00 0.04 0.12 0.12 0.06 0.10 0.11 0.07 0.01 0.00 0.00 0.00 0.00 0.00 0.00 0.00 0.00
0.32 1.28 0.65 0.84 0.01 0.00 0.00 0.02 0.00 0.00 0.00 0.00 0.00 0.00 0.00 0.00 0.04 0.02 0.00 0.01 0.09 0.03 0.01 0.00 0.00 0.01 0.00 0.00 0.02 0.13 0.07 0.09 0.08 0.11 0.21 0.33 0.07 0.05 0.09 0.10 0.04 0.00 0.01 0.02 0.00 0.00 0.01 0.01 0.00
0.49 1.71 0.86 0.49 0.08 0.01 0.00 0.01 0.00 0.01 0.01 0.01 0.00 0.00 0.00 0.00 0.00 0.01 0.01 0.00 0.09 0.03 0.03 0.00 0.00 0.00 0.00 0.00 0.02 0.08 0.09 0.15 0.21 0.19 0.17 0.10 0.09 0.06 0.07 0.12 0.12 0.11 0.09 0.12 0.11 0.10 0.11 0.28 0.11
0.36 1.88 0.90 0.30 0.26 0.02 0.01 0.01 0.00 0.01 0.00 0.00 0.00 0.00 0.00 0.00 0.00 0.01 0.02 0.01 0.02 0.01 0.01 0.00 0.00 0.00 0.00 0.00 0.00 0.00 0.01 0.04 0.16 0.26 0.13 0.07 0.08 0.02 0.04 0.11 0.17 0.16 0.16 0.23 0.08 0.07 0.05 0.14 0.06
0.24 0.38 0.88 0.58 0.49 0.05 0.05 0.02 0.00 0.01 0.01 0.00 0.00 0.00 0.00 0.00 0.00 0.01 0.00 0.00 0.00 0.00 0.00 0.00 0.00 0.00 0.00 0.00 0.03 0.01 0.02 0.02 0.18 0.22 0.07 0.05 0.00 0.08 0.15 0.08 0.51 0.46 0.32 0.58 0.07 0.03 0.00 0.00 0.00
0.20 0.30 0.58 0.73 0.26 0.15 0.09 0.03 0.00 0.01 0.01 0.00 0.00 0.00 0.00 0.00 0.00 0.00 0.00 0.00 0.00 0.00 0.00 0.00 0.00 0.00 0.00 0.04 0.02 0.12 0.06 0.00 0.02 0.06 0.08 0.08 0.04 0.14 0.13 0.08 0.42 0.29 0.11 0.13 0.03 0.01 0.01 0.00 0.00
0.08 0.25 0.51 1.06 0.80 0.38 0.11 0.09 0.03 0.01 0.01 0.00 0.00 0.00 0.00 0.00 0.00 0.00 0.01 0.00 0.00 0.00 0.00 0.00 0.00 0.00 0.00 0.04 0.08 0.06 0.02 0.00 0.00 0.11 0.13 0.10 0.05 0.05 0.07 0.12 0.08 0.13 0.08 0.01 0.01 0.10 0.07 0.00 0.00
0.06 0.36 0.60 0.86 1.22 0.89 0.37 0.19 0.03 0.02 0.04 0.00 0.00 0.00 0.00 0.00 0.00 0.00 0.00 0.00 0.00 0.00 0.00 0.00 0.00 0.00 0.00 0.02 0.04 0.02 0.01 0.01 0.02 0.04 0.10 0.21 0.03 0.08 0.22 0.12 0.07 0.08 0.08 0.03 0.02 0.01 0.00 0.00 0.00
0.11 0.33 0.64 0.72 1.16 1.21 0.49 0.28 0.03 0.03 0.02 0.00 0.00 0.00 0.00 0.00 0.00 0.00 0.00 0.00 0.00 0.00 0.00 0.00 0.00 0.00 0.00 0.00 0.00 0.00 0.00 0.03 0.00 0.01 0.02 0.03 0.03 0.07 0.08 0.06 0.12 0.25 0.68 0.11 0.05 0.02 0.00 0.00 0.01
0.28 0.34 0.52 1.89 1.85 1.72 0.81 0.80 0.10 0.05 0.03 0.01 0.00 0.00 0.00 0.00 0.00 0.00 0.00 0.00 0.00 0.00 0.00 0.00 0.00 0.00 0.00 0.00 0.02 0.03 0.03 0.02 0.00 0.00 0.03 0.00 0.01 0.08 0.03 0.04 0.08 0.16 0.09 0.09 0.02 0.04 0.00 0.00 0.00
0.26 0.45 0.56 1.11 2.48 1.87 1.00 0.83 0.17 0.05 0.05 0.01 0.00 0.00 0.00 0.00 0.00 0.00 0.00 0.00 0.00 0.00 0.00 0.00 0.00 0.00 0.01 0.03 0.06 0.09 0.05 0.01 0.00 0.02 0.02 0.01 0.02 0.04 0.08 0.06 0.06 0.08 0.07 0.04 0.01 0.00 0.00 0.00 0.00
0.32 0.42 0.63 1.11 1.98 2.01 1.49 0.75 0.49 0.10 0.03 0.01 0.00 0.00 0.00 0.00 0.00 0.00 0.00 0.00 0.00 0.00 0.00 0.00 0.00 0.00 0.00 0.01 0.02 0.03 0.02 0.00 0.02 0.06 0.06 0.04 0.04 0.05 0.07 0.06 0.05 0.41 0.07 0.00 0.00 0.00 0.00 0.00 0.00
0.11 0.23 0.60 1.11 1.47 1.21 1.25 0.83 0.72 0.50 0.12 0.02 0.01 0.01 0.00 0.00 0.00 0.00 0.00 0.00 0.00 0.00 0.00 0.00 0.03 0.02 0.00 0.02 0.03 0.06 0.03 0.03 0.03 0.07 0.07 0.04 0.03 0.03 0.04 0.07 0.06 0.11 0.04 0.01 0.01 0.00 0.01 0.00 0.00
0.12 0.09 0.35 1.32 1.35 1.18 0.72 1.06 0.64 0.51 0.42 0.10 0.02 0.01 0.02 0.00 0.00 0.00 0.00 0.00 0.00 0.00 0.00 0.00 0.02 0.06 0.03 0.08 0.04 0.08 0.08 0.11 0.13 0.11 0.08 0.03 0.02 0.02 0.03 0.11 0.28 0.10 0.11 0.04 0.03 0.03 0.01 0.01 0.00
0.15 0.14 0.11 0.76 1.29 1.06 0.98 0.89 0.91 0.44 0.33 0.22 0.04 0.01 0.01 0.01 0.00 0.00 0.00 0.00 0.00 0.00 0.00 0.00 0.01 0.09 0.06 0.06 0.06 0.05 0.06 0.10 0.09 0.18 0.30 0.17 0.02 0.02 0.01 0.03 0.07 0.10 0.35 0.25 0.03 0.06 0.03 0.01 0.00
0.04 0.04 0.06 0.50 0.89 0.80 0.67 0.62 0.52 0.47 0.16 0.21 0.08 0.03 0.02 0.01 0.00 0.01 0.00 0.00 0.00 0.00 0.00 0.00 0.00 0.03 0.03 0.04 0.16 0.10 0.04 0.06 0.12 0.13 0.28 0.13 0.05 0.01 0.01 0.00 0.01 0.05 0.14 0.10 0.08 0.05 0.06 0.02 0.02
0.01 0.04 0.04 0.25 0.88 0.49 0.23 0.33 0.31 0.28 0.12 0.09 0.08 0.17 0.03 0.02 0.02 0.03 0.00 0.00 0.00 0.00 0.00 0.00 0.00 0.00 0.01 0.01 0.04 0.11 0.09 0.12 0.18 0.31 0.18 0.14 0.13 0.03 0.02 0.00 0.01 0.03 0.22 0.21 0.04 0.03 0.03 0.03 0.04
0.00 0.02 0.11 0.18 0.44 0.42 0.11 0.15 0.28 0.03 0.05 0.08 0.05 0.13 0.08 0.02 0.01 0.02 0.02 0.02 0.00 0.00 0.00 0.00 0.00 0.00 0.00 0.00 0.00 0.01 0.08 0.10 0.13 0.10 0.10 0.12 0.19 0.34 0.13 0.08 0.03 0.03 0.03 0.05 0.05 0.04 0.01 0.00 0.03
0.00 0.00 0.01 0.05 0.11 0.21 0.18 0.35 0.14 0.01 0.00 0.03 0.03 0.05 0.23 0.06 0.04 0.04 0.04 0.05 0.07 0.01 0.01 0.06 0.02 0.01 0.00 0.00 0.00 0.00 0.02 0.02 0.05 0.08 0.29 0.32 0.31 0.57 0.16 0.17 0.06 0.05 0.04 0.02 0.01 0.01 0.00 0.01 0.01
0.01 0.00 0.00 0.01 0.04 0.07 0.27 0.45 0.13 0.03 0.00 0.00 0.01 0.00 0.10 0.05 0.08 0.03 0.03 0.18 0.50 0.23 0.21 0.05 0.08 0.06 0.03 0.00 0.00 0.00 0.00 0.01 0.02 0.07 0.22 0.26 0.24 0.42 0.60 0.17 0.04 0.02 0.01 0.00 0.00 0.01 0.01 0.07 0.18
0.00 0.00 0.00 0.01 0.00 0.05 0.18 0.70 0.30 0.01 0.00 0.00 0.00 0.00 0.00 0.03 0.08 0.06 0.06 0.12 0.37 0.69 0.70 0.46 0.14 0.07 0.08 0.01 0.01 0.01 0.00 0.00 0.01 0.04 0.13 0.24 0.39 1.07 0.76 0.13 0.07 0.01 0.00 0.00 0.02 0.02 0.01 0.02 0.05
0.00 0.00 0.00 0.00 0.00 0.00 0.06 0.15 0.06 0.02 0.00 0.00 0.00 0.01 0.00 0.00 0.07 0.13 0.09 0.17 0.15 0.58 0.39 0.82 0.17 0.06 0.03 0.03 0.21 0.27 0.11 0.04 0.02 0.02 0.02 0.04 0.15 0.31 0.14 0.19 0.15 0.03 0.02 0.01 0.01 0.01 0.04 0.05 0.03
0.00 0.00 0.00 0.00 0.00 0.00 0.00 0.06 0.16 0.15 0.02 0.01 0.02 0.04 0.05 0.02 0.05 0.12 0.09 0.35 0.21 0.16 0.21 0.23 0.20 0.26 0.39 0.48 0.66 0.49 0.63 0.47 0.19 0.14 0.10 0.05 0.04 0.04 0.08 0.08 0.12 0.11 0.10 0.12 0.07 0.03 0.05 0.07 0.05

GFSSGP_prec_precacc12_114.txt.gz
Total_Precipitation_Accumulation
0.00 0.00 0.04 0.17 0.09 0.07 0.00 0.00 0.00 0.00 0.00 0.00 0.00 0.00 0.00 0.00 0.00 0.00 0.06 0.12 0.01 0.00 0.03 0.26 0.23 0.26 0.21 0.05 0.03 0.04 0.05 0.07 0.06 0.04 0.03 0.01 0.01 0.03 0.09 0.07 0.08 0.05 0.02 0.03 0.02 0.03 0.03 0.02 0.00
0.00 0.09 0.08 0.52 0.09 0.01 0.00 0.00 0.00 0.00 0.00 0.00 0.00 0.00 0.00 0.00 0.00 0.00 0.01 0.01 0.00 0.00 0.02 0.10 0.08 0.07 0.04 0.02 0.02 0.02 0.05 0.05 0.02 0.02 0.03 0.04 0.13 0.15 0.07 0.01 0.00 0.01 0.01 0.04 0.03 0.07 0.07 0.06 0.12
0.00 0.06 0.06 0.34 0.01 0.00 0.00 0.00 0.00 0.00 0.00 0.00 0.00 0.00 0.00 0.00 0.00 0.00 0.03 0.04 0.04 0.01 0.00 0.00 0.00 0.01 0.01 0.02 0.01 0.04 0.06 0.05 0.04 0.03 0.06 0.10 0.13 0.07 0.03 0.01 0.02 0.02 0.02 0.01 0.02 0.08 0.27 0.17 0.23
0.00 0.01 0.00 0.01 0.00 0.00 0.00 0.00 0.00 0.00 0.00 0.00 0.00 0.00 0.00 0.00 0.00 0.01 0.07 0.06 0.01 0.00 0.00 0.00 0.01 0.01 0.01 0.03 0.05 0.07 0.07 0.05 0.07 0.05 0.07 0.07 0.04 0.02 0.03 0.03 0.02 0.01 0.00 0.01 0.01 0.03 0.07 0.12 0.07
0.00 0.00 0.07 0.07 0.00 0.00 0.00 0.00 0.00 0.00 0.00 0.00 0.00 0.01 0.01 0.01 0.00 0.00 0.02 0.01 0.00 0.00 0.00 0.00 0.09 0.06 0.04 0.04 0.11 0.07 0.06 0.05 0.08 0.06 0.03 0.02 0.02 0.01 0.03 0.05 0.04 0.02 0.01 0.01 0.00 0.00 0.01 0.04 0.05
0.01 0.02 0.32 0.18 0.00 0.00 0.00 0.00 0.00 0.00 0.00 0.00 0.00 0.00 0.00 0.00 0.00 0.00 0.03 0.03 0.00 0.01 0.00 0.00 0.10 0.09 0.11 0.04 0.05 0.05 0.04 0.08 0.04 0.05 0.03 0.04 0.04 0.03 0.05 0.05 0.02 0.01 0.00 0.00 0.00 0.00 0.00 0.06 0.12
0.04 0.12 0.21 0.05 0.00 0.00 0.00 0.00 0.00 0.00 0.00 0.00 0.00 0.00 0.00 0.01 0.03 0.01 0.02 0.04 0.00 0.01 0.00 0.00 0.01 0.02 0.07 0.01 0.04 0.03 0.03 0.04 0.03 0.04 0.04 0.07 0.05 0.01 0.02 0.01 0.00 0.00 0.00 0.00 0.00 0.00 0.00 0.01 0.03
0.08 0.41 0.47 0.18 0.00 0.00 0.00 0.00 0.00 0.00 0.00 0.00 0.00 0.00 0.00 0.00 0.13 0.07 0.01 0.03 0.04 0.07 0.01 0.00 0.00 0.00 0.00 0.02 0.05 0.01 0.02 0.02 0.01 0.04 0.07 0.10 0.06 0.07 0.10 0.07 0.01 0.00 0.00 0.00 0.00 0.00 0.00 0.00 0.00
0.26 0.27 0.39 0.55 0.01 0.00 0.00 0.02 0.00 0.00 0.00 0.00 0.00 0.00 0.00 0.00 0.04 0.02 0.00 0.01 0.09 0.03 0.01 0.00 0.00 0.00 0.01 0.04 0.11 0.18 0.07 0.07 0.09 0.14 0.24 0.25 0.06 0.05 0.05 0.07 0.04 0.00 0.01 0.02 0.01 0.00 0.00 0.00 0.00
0.38 1.37 0.77 0.41 0.06 0.00 0.00 0.01 0.00 0.00 0.00 0.00 0.00 0.00 0.00 0.00 0.00 0.01 0.01 0.00 0.09 0.03 0.03 0.00 0.00 0.00 0.01 0.08 0.11 0.14 0.09 0.18 0.21 0.16 0.14 0.05 0.09 0.06 0.07 0.12 0.12 0.11 0.09 0.12 0.12 0.11 0.06 0.02 0.00
0.36 1.18 0.66 0.20 0.21 0.05 0.05 0.01 0.00 0.01 0.00 0.00 0.00 0.00 0.00 0.00 0.00 0.01 0.02 0.01 0.02 0.01 0.01 0.00 0.00 0.00 0.04 0.04 0.00 0.00 0.02 0.04 0.07 0.15 0.10 0.06 0.08 0.02 0.04 0.11 0.15 0.14 0.11 0.08 0.06 0.07 0.04 0.02 0.00
0.25 0.36 0.86 0.79 0.53 0.06 0.06 0.02 0.00 0.01 0.01 0.00 0.00 0.00 0.00 0.00 0.00 0.01 0.00 0.00 0.00 0.00 0.00 0.00 0.00 0.00 0.02 0.01 0.06 0.02 0.02 0.02 0.03 0.08 0.07 0.06 0.00 0.08 0.14 0.08 0.30 0.21 0.24 0.10 0.05 0.03 0.00 0.00 0.00
0.18 0.34 0.62 0.82 0.23 0.14 0.12 0.03 0.01 0.00 0.01 0.00 0.00 0.00 0.00 0.00 0.01 0.01 0.00 0.00 0.00 0.00 0.00 0.00 0.00 0.00 0.00 0.04 0.02 0.12 0.06 0.00 0.03 0.06 0.09 0.09 0.04 0.14 0.12 0.06 0.35 0.18 0.08 0.09 0.03 0.01 0.00 0.00 0.00
0.07 0.23 0.52 1.05 0.75 0.38 0.12 0.10 0.05 0.01 0.01 0.00 0.00 0.00 0.00 0.00 0.00 0.00 0.01 0.00 0.00 0.00 0.00 0.00 0.00 0.00 0.00 0.04 0.08 0.06 0.02 0.01 0.02 0.11 0.12 0.04 0.05 0.04 0.04 0.05 0.07 0.08 0.06 0.01 0.01 0.01 0.00 0.00 0.00
0.07 0.36 0.73 0.86 1.18 0.90 0.41 0.23 0.14 0.03 0.04 0.00 0.00 0.00 0.00 0.00 0.00 0.00 0.00 0.00 0.00 0.00 0.00 0.00 0.00 0.00 0.00 0.02 0.04 0.02 0.01 0.01 0.02 0.04 0.08 0.13 0.03 0.02 0.07 0.06 0.07 0.08 0.08 0.03 0.02 0.01 0.00 0.00 0.00
0.06 0.29 0.63 0.63 1.19 1.28 0.54 0.26 0.15 0.05 0.02 0.00 0.00 0.00 0.00 0.00 0.00 0.00 0.00 0.00 0.00 0.00 0.00 0.00 0.00 0.00 0.00 0.01 0.00 0.00 0.00 0.05 0.00 0.01 0.02 0.03 0.03 0.03 0.07 0.06 0.12 0.25 0.68 0.11 0.05 0.02 0.00 0.00 0.01
0.13 0.24 0.48 1.75 1.97 1.98 0.99 0.80 0.17 0.12 0.05 0.02 0.00 0.00 0.00 0.00 0.00 0.00 0.00 0.00 0.00 0.00 0.00 0.00 0.00 0.00 0.00 0.00 0.02 0.03 0.03 0.04 0.00 0.01 0.03 0.00 0.02 0.08 0.04 0.04 0.08 0.16 0.08 0.08 0.02 0.05 0.00 0.00 0.00
0.07 0.25 0.44 0.99 2.36 2.09 1.33 0.98 0.31 0.10 0.09 0.04 0.00 0.00 0.00 0.00 0.00 0.00 0.00 0.00 0.00 0.00 0.00 0.00 0.00 0.00 0.01 0.03 0.06 0.09 0.04 0.03 0.00 0.03 0.05 0.04 0.04 0.05 0.07 0.04 0.06 0.07 0.06 0.03 0.01 0.00 0.00 0.00 0.00
0.01 0.17 0.31 0.69 1.78 2.16 1.73 0.97 0.55 0.10 0.05 0.03 0.00 0.00 0.00 0.00 0.00 0.00 0.00 0.00 0.00 0.00 0.00 0.00 0.00 0.00 0.00 0.01 0.01 0.02 0.02 0.01 0.02 0.07 0.08 0.10 0.07 0.06 0.07 0.06 0.05 0.23 0.03 0.00 0.00 0.00 0.00 0.00 0.00
0.08 0.14 0.20 0.24 0.95 1.00 1.40 1.04 0.88 0.30 0.10 0.01 0.00 0.00 0.00 0.00 0.00 0.00 0.00 0.00 0.00 0.00 0.00 0.00 0.00 0.00 0.00 0.01 0.01 0.01 0.02 0.02 0.03 0.09 0.09 0.06 0.10 0.07 0.05 0.06 0.04 0.05 0.03 0.01 0.01 0.00 0.00 0.00 0.00
0.12 0.09 0.05 0.11 0.27 0.68 0.69 1.06 0.83 0.40 0.20 0.02 0.00 0.01 0.00 0.00 0.00 0.00 0.00 0.00 0.00 0.00 0.00 0.00 0.00 0.02 0.01 0.01 0.00 0.00 0.00 0.03 0.06 0.07 0.08 0.05 0.06 0.09 0.05 0.08 0.08 0.05 0.03 0.00 0.03 0.03 0.01 0.01 0.00
0.14 0.08 0.06 0.03 0.15 0.67 0.94 0.83 0.94 0.61 0.29 0.07 0.01 0.00 0.00 0.00 0.00 0.00 0.00 0.00 0.00 0.00 0.00 0.00 0.00 0.02 0.03 0.00 0.01 0.01 0.01 0.03 0.04 0.09 0.07 0.02 0.02 0.05 0.03 0.02 0.02 0.03 0.04 0.00 0.02 0.06 0.03 0.00 0.00
0.04 0.06 0.05 0.00 0.11 0.38 0.61 0.60 0.55 0.77 0.36 0.06 0.01 0.00 0.01 0.01 0.00 0.00 0.00 0.00 0.00 0.00 0.00 0.00 0.00 0.01 0.01 0.01 0.02 0.04 0.03 0.03 0.06 0.03 0.03 0.00 0.01 0.01 0.01 0.00 0.01 0.03 0.04 0.01 0.01 0.04 0.06 0.02 0.02
0.01 0.05 0.05 0.01 0.08 0.24 0.21 0.32 0.29 0.39 0.25 0.05 0.03 0.01 0.00 0.00 0.01 0.01 0.00 0.00 0.00 0.00 0.00 0.00 0.00 0.00 0.00 0.00 0.02 0.02 0.03 0.05 0.10 0.06 0.02 0.02 0.04 0.02 0.02 0.01 0.01 0.02 0.01 0.03 0.03 0.02 0.03 0.03 0.03
0.00 0.02 0.11 0.08 0.15 0.25 0.05 0.14 0.27 0.03 0.09 0.07 0.04 0.03 0.02 0.00 0.01 0.02 0.01 0.01 0.00 0.00 0.00 0.00 0.00 0.00 0.00 0.00 0.00 0.01 0.04 0.04 0.05 0.01 0.05 0.03 0.04 0.11 0.07 0.06 0.02 0.02 0.01 0.03 0.03 0.01 0.00 0.00 0.03
0.01 0.01 0.02 0.03 0.07 0.10 0.12 0.32 0.13 0.01 0.00 0.03 0.02 0.03 0.04 0.02 0.01 0.01 0.01 0.02 0.06 0.00 0.00 0.00 0.00 0.00 0.00 0.00 0.00 0.00 0.02 0.01 0.02 0.03 0.20 0.11 0.12 0.28 0.06 0.10 0.05 0.04 0.03 0.02 0.01 0.00 0.00 0.00 0.01
0.02 0.01 0.02 0.02 0.03 0.05 0.20 0.38 0.13 0.03 0.00 0.00 0.02 0.02 0.02 0.02 0.03 0.00 0.01 0.12 0.23 0.14 0.07 0.03 0.01 0.01 0.00 0.00 0.00 0.00 0.00 0.01 0.00 0.04 0.21 0.26 0.24 0.18 0.04 0.06 0.01 0.03 0.01 0.01 0.00 0.01 0.00 0.00 0.00
0.00 0.03 0.02 0.02 0.03 0.04 0.16 0.65 0.29 0.01 0.00 0.00 0.01 0.02 0.00 0.02 0.02 0.01 0.01 0.06 0.27 0.58 0.27 0.28 0.10 0.04 0.01 0.00 0.00 0.01 0.01 0.01 0.07 0.04 0.12 0.23 0.22 0.06 0.06 0.08 0.05 0.03 0.00 0.00 0.01 0.01 0.00 0.00 0.00
0.00 0.01 0.02 0.01 0.01 0.01 0.04 0.10 0.05 0.02 0.00 0.00 0.00 0.01 0.00 0.00 0.03 0.05 0.02 0.10 0.16 0.57 0.36 0.79 0.16 0.05 0.02 0.02 0.12 0.15 0.05 0.03 0.03 0.03 0.10 0.08 0.08 0.03 0.02 0.05 0.10 0.10 0.02 0.01 0.00 0.02 0.01 0.00 0.00
0.00 0.00 0.00 0.00 0.00 0.00 0.00 0.03 0.05 0.03 0.01 0.01 0.02 0.04 0.05 0.02 0.04 0.05 0.03 0.21 0.21 0.14 0.19 0.23 0.20 0.26 0.39 0.48 0.65 0.44 0.33 0.34 0.16 0.08 0.07 0.07 0.04 0.00 0.00 0.01 0.02 0.07 0.07 0.04 0.02 0.04 0.04 0.03 0.03

GFSSGP_prec_precacc12_117.txt.gz
Total_Precipitation_Accumulation
0.00 0.00 0.04 0.07 0.03 0.02 0.00 0.00 0.00 0.00 0.00 0.00 0.00 0.00 0.00 0.00 0.00 0.00 0.02 0.02 0.00 0.00 0.04 0.29 0.24 0.28 0.30 0.15 0.04 0.06 0.05 0.08 0.06 0.04 0.03 0.02 0.03 0.05 0.16 0.11 0.07 0.04 0.03 0.05 0.03 0.03 0.03 0.02 0.01
0.00 0.07 0.03 0.03 0.00 0.00 0.00 0.00 0.00 0.00 0.00 0.00 0.00 0.00 0.00 0.00 0.00 0.00 0.01 0.00 0.00 0.00 0.03 0.15 0.12 0.16 0.25 0.11 0.05 0.02 0.05 0.06 0.02 0.02 0.03 0.06 0.17 0.16 0.08 0.02 0.01 0.02 0.05 0.12 0.12 0.12 0.14 0.09 0.12
0.00 0.04 0.01 0.04 0.00 0.00 0.00 0.00 0.00 0.00 0.00 0.00 0.00 0.00 0.00 0.00 0.00 0.00 0.02 0.03 0.02 0.00 0.00 0.04 0.03 0.05 0.09 0.03 0.02 0.04 0.06 0.04 0.03 0.04 0.09 0.16 0.22 0.09 0.02 0.01 0.01 0.02 0.05 0.12 0.20 0.24 0.40 0.27 0.31
0.00 0.01 0.00 0.00 0.00 0.00 0.00 0.00 0.00 0.00 0.00 0.00 0.00 0.00 0.00 0.00 0.00 0.01 0.04 0.06 0.00 0.00 0.00 0.00 0.00 0.02 0.02 0.02 0.03 0.05 0.04 0.04 0.04 0.04 0.06 0.07 0.03 0.03 0.05 0.06 0.03 0.01 0.00 0.06 0.08 0.10 0.12 0.18 0.09
0.00 0.00 0.00 0.00 0.00 0.00 0.00 0.00 0.00 0.00 0.00 0.00 0.00 0.01 0.01 0.01 0.00 0.00 0.01 0.00 0.00 0.00 0.00 0.00 0.09 0.05 0.04 0.02 0.05 0.05 0.05 0.07 0.09 0.11 0.08 0.05 0.05 0.03 0.05 0.07 0.04 0.02 0.00 0.04 0.05 0.01 0.02 0.05 0.05
0.00 0.00 0.05 0.01 0.00 0.00 0.00 0.00 0.00 0.00 0.00 0.00 0.00 0.00 0.00 0.00 0.00 0.00 0.00 0.00 0.00 0.01 0.00 0.00 0.11 0.10 0.10 0.04 0.06 0.05 0.03 0.10 0.08 0.07 0.03 0.05 0.08 0.07 0.07 0.08 0.02 0.01 0.00 0.00 0.00 0.04 0.05 0.07 0.12
0.00 0.01 0.07 0.01 0.00 0.00 0.00 0.00 0.00 0.00 0.00 0.00 0.00 0.00 0.00 0.01 0.03 0.00 0.01 0.00 0.00 0.01 0.00 0.00 0.03 0.05 0.08 0.04 0.07 0.05 0.03 0.06 0.08 0.08 0.05 0.08 0.08 0.03 0.01 0.00 0.00 0.00 0.00 0.00 0.00 0.01 0.00 0.01 0.03
0.01 0.06 0.09 0.03 0.00 0.00 0.00 0.00 0.00 0.00 0.00 0.00 0.00 0.00 0.00 0.00 0.13 0.06 0.00 0.01 0.04 0.07 0.01 0.00 0.00 0.02 0.01 0.06 0.12 0.03 0.03 0.05 0.04 0.06 0.07 0.13 0.06 0.00 0.00 0.00 0.00 0.00 0.00 0.00 0.00 0.00 0.00 0.00 0.00
0.15 0.11 0.14 0.06 0.00 0.00 0.00 0.01 0.00 0.01 0.00 0.00 0.00 0.00 0.00 0.00 0.04 0.02 0.00 0.01 0.10 0.03 0.02 0.00 0.00 0.00 0.10 0.09 0.20 0.27 0.15 0.09 0.06 0.11 0.17 0.16 0.03 0.04 0.02 0.02 0.01 0.00 0.00 0.02 0.00 0.00 0.00 0.00 0.00
0.20 0.78 0.47 0.11 0.01 0.01 0.01 0.01 0.00 0.00 0.00 0.00 0.00 0.00 0.00 0.00 0.00 0.01 0.01 0.00 0.10 0.02 0.00 0.00 0.00 0.00 0.10 0.14 0.19 0.25 0.12 0.13 0.06 0.05 0.04 0.00 0.04 0.04 0.06 0.08 0.03 0.00 0.00 0.00 0.02 0.04 0.04 0.01 0.00
0.27 0.51 0.31 0.10 0.04 0.11 0.10 0.01 0.00 0.00 0.00 0.00 0.00 0.00 0.00 0.00 0.00 0.01 0.01 0.00 0.02 0.01 0.00 0.00 0.00 0.00 0.05 0.06 0.01 0.04 0.02 0.02 0.02 0.03 0.01 0.00 0.02 0.00 0.02 0.01 0.00 0.00 0.00 0.00 0.00 0.00 0.01 0.00 0.00
0.27 0.31 0.20 0.41 0.24 0.08 0.13 0.04 0.00 0.01 0.01 0.00 0.00 0.00 0.00 0.00 0.00 0.01 0.00 0.00 0.00 0.00 0.00 0.00 0.00 0.00 0.04 0.02 0.06 0.02 0.01 0.01 0.01 0.07 0.03 0.03 0.00 0.00 0.00 0.00 0.00 0.00 0.00 0.00 0.01 0.00 0.00 0.00 0.00
0.15 0.33 0.42 0.38 0.08 0.10 0.15 0.11 0.04 0.00 0.01 0.00 0.00 0.00 0.00 0.00 0.01 0.01 0.00 0.00 0.00 0.00 0.00 0.00 0.00 0.00 0.00 0.04 0.02 0.12 0.04 0.00 0.02 0.02 0.05 0.03 0.01 0.00 0.00 0.00 0.01 0.01 0.00 0.01 0.01 0.00 0.00 0.00 0.00
0.02 0.16 0.45 0.65 0.24 0.27 0.18 0.15 0.11 0.04 0.01 0.00 0.00 0.00 0.00 0.00 0.00 0.00 0.01 0.00 0.00 0.00 0.00 0.00 0.00 0.00 0.00 0.04 0.08 0.05 0.02 0.01 0.01 0.04 0.04 0.03 0.03 0.00 0.00 0.00 0.01 0.02 0.02 0.00 0.00 0.00 0.00 0.00 0.00
0.03 0.31 0.70 0.79 0.87 0.84 0.43 0.27 0.21 0.07 0.05 0.00 0.00 0.00 0.00 0.00 0.00 0.00 0.00 0.00 0.00 0.00 0.00 0.00 0.00 0.00 0.00 0.02 0.04 0.02 0.01 0.01 0.02 0.04 0.06 0.03 0.02 0.00 0.02 0.03 0.04 0.05 0.04 0.02 0.01 0.01 0.00 0.00 0.00
0.05 0.25 0.48 0.42 0.69 1.24 0.54 0.32 0.24 0.08 0.03 0.01 0.00 0.00 0.00 0.00 0.00 0.00 0.00 0.00 0.00 0.00 0.00 0.00 0.00 0.00 0.00 0.01 0.00 0.00 0.00 0.04 0.01 0.01 0.01 0.01 0.00 0.01 0.02 0.04 0.12 0.23 0.67 0.09 0.05 0.02 0.00 0.00 0.00
0.03 0.14 0.31 1.38 1.30 1.85 1.02 0.85 0.29 0.20 0.06 0.02 0.00 0.00 0.00 0.00 0.00 0.00 0.00 0.00 0.00 0.00 0.00 0.00 0.00 0.00 0.00 0.00 0.01 0.00 0.01 0.04 0.00 0.01 0.03 0.00 0.02 0.05 0.03 0.03 0.07 0.16 0.08 0.05 0.02 0.05 0.00 0.00 0.00
0.00 0.08 0.23 0.67 1.60 1.56 1.32 1.03 0.34 0.18 0.11 0.04 0.01 0.00 0.00 0.00 0.00 0.00 0.00 0.00 0.00 0.00 0.00 0.00 0.00 0.00 0.00 0.01 0.03 0.05 0.02 0.03 0.00 0.03 0.05 0.04 0.04 0.04 0.07 0.02 0.03 0.06 0.04 0.02 0.01 0.00 0.00 0.00 0.00
0.00 0.07 0.16 0.26 0.60 1.35 1.56 0.98 0.71 0.14 0.07 0.04 0.01 0.00 0.00 0.00 0.00 0.00 0.00 0.00 0.00 0.00 0.00 0.00 0.00 0.00 0.00 0.00 0.01 0.02 0.02 0.00 0.02 0.07 0.08 0.10 0.07 0.06 0.06 0.01 0.00 0.01 0.01 0.00 0.00 0.00 0.00 0.00 0.00
0.05 0.08 0.07 0.04 0.23 0.40 1.12 1.01 0.96 0.42 0.11 0.01 0.00 0.01 0.00 0.00 0.00 0.00 0.00 0.00 0.00 0.00 0.00 0.00 0.00 0.00 0.00 0.00 0.00 0.00 0.00 0.01 0.02 0.08 0.09 0.06 0.10 0.07 0.04 0.00 0.00 0.00 0.00 0.00 0.01 0.00 0.00 0.00 0.00
0.10 0.05 0.03 0.01 0.02 0.02 0.22 0.94 0.85 0.48 0.21 0.02 0.00 0.01 0.00 0.00 0.00 0.00 0.00 0.00 0.00 0.00 0.00 0.00 0.00 0.00 0.00 0.00 0.00 0.00 0.00 0.05 0.01 0.03 0.03 0.07 0.06 0.09 0.05 0.02 0.00 0.01 0.00 0.00 0.02 0.01 0.00 0.00 0.00
0.07 0.03 0.02 0.01 0.00 0.01 0.12 0.52 0.84 0.58 0.28 0.06 0.02 0.00 0.00 0.00 0.00 0.00 0.00 0.00 0.00 0.00 0.00 0.00 0.00 0.00 0.00 0.00 0.00 0.03 0.02 0.01 0.05 0.12 0.07 0.00 0.02 0.05 0.03 0.00 0.00 0.00 0.00 0.00 0.01 0.03 0.01 0.00 0.00
0.01 0.04 0.06 0.01 0.00 0.01 0.10 0.25 0.44 0.74 0.36 0.06 0.01 0.00 0.00 0.00 0.00 0.00 0.00 0.00 0.00 0.00 0.00 0.00 0.00 0.00 0.00 0.00 0.01 0.03 0.03 0.01 0.02 0.04 0.05 0.00 0.00 0.01 0.01 0.00 0.00 0.00 0.00 0.00 0.00 0.02 0.05 0.01 0.00
0.00 0.02 0.05 0.04 0.01 0.02 0.07 0.17 0.22 0.38 0.25 0.05 0.03 0.01 0.00 0.00 0.00 0.00 0.00 0.00 0.00 0.00 0.00 0.00 0.00 0.00 0.00 0.00 0.00 0.00 0.04 0.03 0.07 0.08 0.02 0.02 0.01 0.00 0.00 0.01 0.00 0.00 0.00 0.00 0.00 0.02 0.02 0.02 0.01
0.00 0.01 0.05 0.06 0.03 0.01 0.01 0.03 0.12 0.03 0.09 0.08 0.04 0.02 0.01 0.00 0.01 0.00 0.00 0.00 0.00 0.00 0.00 0.00 0.00 0.00 0.00 0.00 0.00 0.00 0.02 0.01 0.04 0.06 0.05 0.03 0.03 0.02 0.03 0.05 0.02 0.02 0.00 0.00 0.00 0.00 0.00 0.00 0.03
0.01 0.01 0.01 0.01 0.02 0.05 0.06 0.04 0.05 0.00 0.00 0.03 0.02 0.02 0.02 0.01 0.01 0.01 0.00 0.00 0.00 0.00 0.00 0.00 0.00 0.00 0.00 0.00 0.00 0.00 0.01 0.00 0.00 0.03 0.05 0.01 0.00 0.01 0.00 0.01 0.06 0.06 0.02 0.00 0.00 0.00 0.00 0.00 0.01
0.02 0.01 0.02 0.03 0.03 0.03 0.05 0.05 0.03 0.00 0.00 0.00 0.02 0.02 0.01 0.01 0.02 0.00 0.00 0.00 0.00 0.00 0.01 0.00 0.00 0.00 0.00 0.00 0.00 0.00 0.00 0.01 0.00 0.00 0.07 0.10 0.12 0.03 0.00 0.00 0.00 0.03 0.00 0.01 0.00 0.00 0.00 0.00 0.00
0.00 0.04 0.06 0.05 0.07 0.02 0.01 0.13 0.08 0.00 0.00 0.00 0.01 0.02 0.00 0.02 0.01 0.00 0.00 0.00 0.00 0.20 0.08 0.08 0.02 0.00 0.00 0.00 0.00 0.00 0.00 0.02 0.10 0.01 0.04 0.17 0.15 0.04 0.05 0.06 0.00 0.02 0.00 0.00 0.02 0.02 0.00 0.00 0.00
0.00 0.02 0.05 0.03 0.02 0.02 0.01 0.04 0.01 0.00 0.00 0.00 0.00 0.00 0.00 0.00 0.03 0.01 0.01 0.04 0.04 0.39 0.22 0.16 0.09 0.02 0.00 0.00 0.01 0.00 0.00 0.00 0.04 0.05 0.10 0.10 0.04 0.00 0.00 0.01 0.00 0.08 0.00 0.00 0.00 0.05 0.04 0.01 0.01
0.00 0.00 0.00 0.00 0.00 0.00 0.00 0.00 0.00 0.00 0.00 0.00 0.00 0.00 0.00 0.01 0.02 0.01 0.02 0.02 0.02 0.09 0.12 0.11 0.14 0.18 0.27 0.34 0.46 0.34 0.22 0.17 0.08 0.03 0.04 0.04 0.03 0.00 0.00 0.00 0.00 0.03 0.05 0.03 0.02 0.03 0.05 0.07 0.07

GFSSGP_prec_precacc12_123.txt.gz
Total_Precipitation_Accumulation
0.00 0.00 0.02 0.01 0.04 0.00 0.00 0.00 0.00 0.00 0.00 0.00 0.00 0.00 0.00 0.00 0.00 0.00 0.00 0.00 0.00 0.00 0.04 0.29 0.23 0.32 0.37 0.33 0.29 0.09 0.03 0.05 0.04 0.04 0.03 0.03 0.04 0.03 0.11 0.09 0.08 0.09 0.05 0.07 0.06 0.05 0.06 0.07 0.05
0.00 0.03 0.00 0.00 0.02 0.00 0.00 0.00 0.00 0.00 0.00 0.00 0.00 0.01 0.00 0.00 0.00 0.00 0.00 0.00 0.00 0.00 0.02 0.15 0.14 0.19 0.30 0.29 0.20 0.06 0.04 0.05 0.04 0.02 0.03 0.07 0.13 0.09 0.04 0.01 0.05 0.12 0.09 0.13 0.13 0.15 0.16 0.17 0.17
0.00 0.00 0.00 0.00 0.00 0.00 0.00 0.00 0.00 0.00 0.00 0.02 0.01 0.01 0.00 0.00 0.00 0.00 0.00 0.00 0.00 0.00 0.00 0.04 0.04 0.05 0.15 0.15 0.14 0.07 0.05 0.02 0.04 0.04 0.07 0.11 0.16 0.05 0.01 0.04 0.07 0.14 0.13 0.16 0.22 0.25 0.41 0.31 0.34
0.00 0.00 0.00 0.00 0.00 0.00 0.00 0.00 0.00 0.00 0.00 0.00 0.00 0.00 0.00 0.00 0.00 0.00 0.00 0.00 0.00 0.01 0.01 0.00 0.00 0.02 0.03 0.05 0.04 0.07 0.04 0.06 0.05 0.03 0.03 0.04 0.03 0.04 0.06 0.08 0.06 0.04 0.07 0.14 0.15 0.12 0.15 0.19 0.10
0.00 0.00 0.00 0.00 0.00 0.00 0.00 0.00 0.00 0.00 0.00 0.00 0.00 0.00 0.00 0.00 0.00 0.00 0.00 0.00 0.00 0.00 0.00 0.00 0.08 0.05 0.04 0.05 0.09 0.13 0.09 0.12 0.13 0.13 0.08 0.06 0.05 0.03 0.06 0.07 0.03 0.01 0.01 0.05 0.05 0.01 0.02 0.04 0.02
0.00 0.02 0.04 0.00 0.00 0.00 0.00 0.00 0.00 0.00 0.00 0.00 0.00 0.00 0.00 0.00 0.00 0.00 0.00 0.00 0.00 0.00 0.00 0.00 0.10 0.10 0.08 0.10 0.19 0.13 0.17 0.16 0.20 0.08 0.02 0.04 0.07 0.05 0.07 0.08 0.02 0.00 0.00 0.00 0.00 0.04 0.05 0.05 0.05
0.00 0.03 0.12 0.00 0.00 0.00 0.00 0.00 0.00 0.00 0.00 0.00 0.00 0.00 0.00 0.00 0.00 0.00 0.00 0.00 0.00 0.00 0.00 0.00 0.03 0.04 0.07 0.11 0.18 0.16 0.12 0.16 0.15 0.07 0.04 0.04 0.07 0.03 0.02 0.00 0.00 0.01 0.03 0.00 0.00 0.01 0.00 0.01 0.02
0.00 0.01 0.01 0.01 0.00 0.00 0.00 0.00 0.00 0.00 0.00 0.00 0.00 0.00 0.00 0.00 0.00 0.00 0.00 0.00 0.02 0.03 0.01 0.01 0.01 0.02 0.02 0.07 0.30 0.22 0.11 0.11 0.07 0.06 0.08 0.11 0.06 0.00 0.00 0.00 0.00 0.01 0.01 0.00 0.00 0.00 0.00 0.00 0.00
0.00 0.09 0.03 0.01 0.01 0.00 0.00 0.00 0.00 0.01 0.00 0.00 0.00 0.00 0.00 0.00 0.00 0.00 0.00 0.00 0.01 0.01 0.02 0.01 0.01 0.02 0.16 0.15 0.27 0.30 0.22 0.06 0.05 0.11 0.16 0.05 0.00 0.00 0.00 0.00 0.00 0.00 0.00 0.00 0.00 0.00 0.00 0.00 0.00
0.06 0.21 0.09 0.06 0.01 0.02 0.01 0.00 0.00 0.00 0.00 0.00 0.00 0.00 0.00 0.00 0.00 0.00 0.00 0.00 0.00 0.00 0.01 0.02 0.00 0.00 0.10 0.14 0.23 0.33 0.11 0.09 0.05 0.03 0.00 0.00 0.00 0.00 0.00 0.00 0.01 0.00 0.00 0.00 0.01 0.01 0.00 0.00 0.00
0.13 0.28 0.06 0.03 0.02 0.11 0.10 0.01 0.00 0.00 0.00 0.00 0.00 0.00 0.00 0.00 0.00 0.00 0.00 0.00 0.00 0.00 0.00 0.00 0.00 0.00 0.06 0.06 0.01 0.05 0.01 0.01 0.01 0.00 0.00 0.00 0.00 0.00 0.00 0.00 0.00 0.00 0.00 0.00 0.00 0.00 0.00 0.00 0.00
0.18 0.10 0.05 0.36 0.21 0.08 0.14 0.08 0.00 0.00 0.01 0.00 0.00 0.00 0.00 0.00 0.00 0.00 0.00 0.00 0.00 0.00 0.00 0.00 0.00 0.00 0.04 0.02 0.03 0.01 0.00 0.00 0.00 0.00 0.00 0.01 0.00 0.00 0.00 0.00 0.00 0.00 0.00 0.00 0.00 0.00 0.00 0.00 0.00
0.04 0.09 0.10 0.19 0.04 0.04 0.09 0.14 0.07 0.00 0.00 0.00 0.00 0.00 0.00 0.00 0.01 0.01 0.00 0.00 0.00 0.00 0.00 0.00 0.00 0.01 0.00 0.00 0.00 0.00 0.00 0.00 0.00 0.00 0.00 0.01 0.00 0.00 0.00 0.00 0.00 0.00 0.00 0.00 0.00 0.00 0.00 0.00 0.00
0.01 0.02 0.05 0.01 0.01 0.04 0.15 0.17 0.11 0.03 0.00 0.00 0.00 0.00 0.00 0.00 0.00 0.00 0.00 0.00 0.00 0.00 0.00 0.00 0.00 0.00 0.00 0.00 0.00 0.00 0.00 0.00 0.01 0.00 0.00 0.00 0.00 0.00 0.00 0.00 0.00 0.00 0.00 0.00 0.00 0.00 0.00 0.00 0.00
0.01 0.05 0.20 0.13 0.05 0.08 0.18 0.29 0.37 0.06 0.01 0.00 0.00 0.00 0.00 0.00 0.00 0.00 0.00 0.00 0.00 0.00 0.00 0.00 0.00 0.00 0.00 0.01 0.02 0.00 0.00 0.01 0.00 0.00 0.00 0.00 0.00 0.00 0.00 0.00 0.00 0.00 0.00 0.00 0.00 0.00 0.00 0.00 0.00
0.02 0.03 0.15 0.10 0.12 0.12 0.15 0.39 0.44 0.08 0.01 0.01 0.00 0.00 0.00 0.00 0.00 0.00 0.00 0.00 0.00 0.00 0.00 0.00 0.00 0.00 0.00 0.02 0.01 0.00 0.00 0.02 0.01 0.00 0.00 0.00 0.00 0.00 0.01 0.00 0.00 0.00 0.00 0.00 0.00 0.00 0.00 0.00 0.00
0.00 0.00 0.04 0.03 0.19 0.32 0.31 0.39 0.28 0.17 0.04 0.03 0.00 0.00 0.00 0.00 0.00 0.00 0.00 0.00 0.00 0.00 0.00 0.00 0.00 0.00 0.01 0.01 0.00 0.00 0.00 0.02 0.01 0.01 0.00 0.00 0.01 0.02 0.00 0.00 0.00 0.00 0.00 0.00 0.00 0.01 0.00 0.00 0.00
0.00 0.00 0.01 0.07 0.12 0.25 0.46 0.49 0.25 0.16 0.08 0.11 0.01 0.00 0.00 0.00 0.00 0.00 0.00 0.00 0.00 0.00 0.00 0.00 0.00 0.00 0.02 0.03 0.01 0.00 0.01 0.02 0.00 0.01 0.03 0.02 0.02 0.01 0.00 0.00 0.00 0.00 0.00 0.00 0.00 0.00 0.00 0.00 0.00
0.00 0.00 0.00 0.01 0.03 0.16 0.27 0.42 0.43 0.11 0.08 0.06 0.04 0.01 0.00 0.00 0.00 0.00 0.00 0.00 0.00 0.00 0.00 0.00 0.00 0.02 0.00 0.00 0.00 0.00 0.05 0.01 0.00 0.00 0.02 0.05 0.03 0.01 0.00 0.00 0.00 0.00 0.02 0.08 0.00 0.00 0.00 0.00 0.00
0.00 0.00 0.00 0.01 0.00 0.02 0.16 0.26 0.37 0.31 0.05 0.02 0.04 0.03 0.00 0.00 0.00 0.00 0.00 0.00 0.00 0.00 0.00 0.00 0.00 0.04 0.06 0.01 0.02 0.02 0.00 0.00 0.00 0.02 0.02 0.02 0.07 0.03 0.01 0.00 0.00 0.00 0.00 0.00 0.00 0.06 0.03 0.00 0.00
0.01 0.00 0.00 0.02 0.02 0.00 0.01 0.11 0.41 0.34 0.16 0.01 0.00 0.04 0.00 0.00 0.00 0.00 0.00 0.00 0.00 0.00 0.00 0.00 0.00 0.03 0.09 0.05 0.01 0.05 0.11 0.12 0.05 0.02 0.02 0.05 0.03 0.07 0.02 0.00 0.00 0.00 0.00 0.00 0.00 0.00 0.00 0.10 0.00
0.00 0.01 0.00 0.03 0.04 0.03 0.00 0.01 0.23 0.39 0.21 0.04 0.01 0.02 0.01 0.00 0.00 0.00 0.00 0.00 0.00 0.00 0.00 0.00 0.00 0.05 0.04 0.00 0.06 0.17 0.10 0.03 0.10 0.11 0.11 0.07 0.03 0.03 0.02 0.00 0.00 0.00 0.00 0.00 0.00 0.00 0.00 0.00 0.00
0.00 0.03 0.07 0.04 0.03 0.02 0.01 0.00 0.06 0.32 0.25 0.04 0.00 0.00 0.01 0.00 0.00 0.00 0.00 0.00 0.00 0.00 0.00 0.00 0.00 0.09 0.04 0.05 0.23 0.06 0.04 0.04 0.05 0.07 0.06 0.06 0.06 0.01 0.00 0.00 0.00 0.00 0.00 0.00 0.00 0.00 0.00 0.00 0.00
0.00 0.01 0.05 0.06 0.06 0.02 0.00 0.00 0.00 0.12 0.14 0.04 0.01 0.00 0.00 0.00 0.00 0.00 0.00 0.00 0.00 0.00 0.00 0.00 0.00 0.01 0.02 0.11 0.08 0.07 0.07 0.08 0.13 0.13 0.07 0.06 0.02 0.00 0.00 0.01 0.00 0.00 0.00 0.00 0.00 0.00 0.00 0.00 0.00
0.00 0.01 0.04 0.05 0.03 0.00 0.00 0.01 0.00 0.02 0.05 0.02 0.01 0.00 0.00 0.00 0.00 0.00 0.00 0.00 0.00 0.00 0.00 0.00 0.00 0.00 0.00 0.06 0.06 0.06 0.04 0.04 0.11 0.12 0.11 0.12 0.08 0.04 0.08 0.07 0.04 0.02 0.01 0.00 0.00 0.00 0.01 0.01 0.01
0.01 0.00 0.01 0.00 0.01 0.02 0.01 0.00 0.00 0.01 0.00 0.00 0.00 0.00 0.00 0.00 0.01 0.01 0.00 0.00 0.00 0.00 0.00 0.00 0.00 0.00 0.00 0.00 0.00 0.02 0.05 0.07 0.05 0.08 0.16 0.12 0.09 0.07 0.04 0.05 0.10 0.08 0.04 0.02 0.00 0.00 0.00 0.00 0.00
0.02 0.01 0.02 0.03 0.03 0.04 0.01 0.00 0.00 0.01 0.01 0.00 0.02 0.02 0.00 0.00 0.00 0.01 0.00 0.00 0.00 0.00 0.00 0.00 0.00 0.00 0.00 0.00 0.00 0.00 0.01 0.04 0.01 0.04 0.18 0.10 0.20 0.09 0.05 0.04 0.04 0.05 0.04 0.03 0.01 0.00 0.00 0.00 0.00
0.00 0.06 0.07 0.05 0.07 0.02 0.00 0.00 0.00 0.01 0.00 0.00 0.01 0.02 0.00 0.00 0.00 0.00 0.00 0.00 0.00 0.00 0.00 0.00 0.00 0.00 0.00 0.00 0.00 0.00 0.00 0.02 0.10 0.04 0.12 0.09 0.18 0.14 0.10 0.09 0.03 0.05 0.08 0.06 0.08 0.03 0.00 0.00 0.00
0.00 0.02 0.05 0.04 0.03 0.02 0.02 0.01 0.05 0.00 0.00 0.00 0.01 0.00 0.00 0.00 0.00 0.00 0.02 0.01 0.02 0.01 0.00 0.00 0.00 0.00 0.00 0.00 0.00 0.00 0.00 0.00 0.04 0.06 0.18 0.24 0.16 0.09 0.05 0.04 0.08 0.15 0.10 0.09 0.14 0.15 0.05 0.06 0.05
0.00 0.00 0.00 0.02 0.01 0.02 0.01 0.04 0.02 0.00 0.00 0.00 0.02 0.00 0.00 0.00 0.01 0.01 0.03 0.02 0.02 0.00 0.00 0.00 0.00 0.00 0.00 0.00 0.00 0.00 0.00 0.00 0.00 0.05 0.08 0.17 0.15 0.17 0.09 0.09 0.06 0.09 0.08 0.09 0.15 0.20 0.09 0.13 0.11

GFSSGP_prec_precacc12_126.txt.gz
Total_Precipitation_Accumulation
0.00 0.00 0.02 0.05 0.34 0.07 0.00 0.00 0.00 0.00 0.00 0.00 0.00 0.00 0.00 0.01 0.01 0.01 0.00 0.00 0.00 0.00 0.01 0.03 0.05 0.07 0.18 0.30 0.34 0.21 0.07 0.05 0.06 0.09 0.06 0.05 0.04 0.04 0.11 0.10 0.06 0.09 0.09 0.08 0.13 0.18 0.16 0.14 0.07
0.00 0.01 0.00 0.10 0.25 0.02 0.00 0.00 0.00 0.00 0.00 0.00 0.00 0.01 0.00 0.00 0.00 0.00 0.00 0.00 0.00 0.00 0.01 0.04 0.09 0.12 0.26 0.30 0.24 0.11 0.07 0.07 0.05 0.06 0.03 0.07 0.08 0.06 0.04 0.03 0.05 0.12 0.10 0.14 0.20 0.17 0.20 0.15 0.08
0.00 0.00 0.02 0.41 0.09 0.00 0.00 0.00 0.00 0.00 0.01 0.07 0.01 0.01 0.00 0.00 0.00 0.00 0.00 0.00 0.00 0.00 0.00 0.04 0.04 0.05 0.16 0.17 0.17 0.09 0.06 0.03 0.05 0.05 0.06 0.09 0.13 0.06 0.03 0.04 0.07 0.14 0.15 0.17 0.24 0.19 0.16 0.14 0.12
0.00 0.00 0.02 0.00 0.00 0.00 0.00 0.00 0.00 0.00 0.00 0.01 0.01 0.00 0.00 0.00 0.00 0.00 0.00 0.00 0.00 0.16 0.01 0.00 0.00 0.03 0.04 0.08 0.06 0.16 0.09 0.08 0.09 0.07 0.03 0.03 0.04 0.07 0.09 0.09 0.07 0.05 0.11 0.15 0.17 0.10 0.08 0.08 0.02
0.00 0.15 0.34 0.02 0.00 0.00 0.00 0.00 0.00 0.00 0.00 0.00 0.00 0.00 0.00 0.00 0.00 0.00 0.00 0.00 0.04 0.54 0.00 0.00 0.01 0.01 0.02 0.07 0.14 0.18 0.12 0.12 0.13 0.15 0.08 0.07 0.06 0.02 0.04 0.03 0.01 0.00 0.02 0.05 0.05 0.01 0.01 0.01 0.00
0.01 1.01 0.64 0.02 0.01 0.00 0.00 0.00 0.00 0.00 0.00 0.00 0.00 0.00 0.00 0.00 0.00 0.00 0.02 0.01 0.01 0.09 0.00 0.00 0.01 0.03 0.02 0.09 0.21 0.14 0.17 0.16 0.20 0.07 0.02 0.04 0.06 0.04 0.06 0.06 0.01 0.00 0.01 0.01 0.00 0.04 0.05 0.01 0.00
0.02 0.53 0.45 0.02 0.01 0.00 0.00 0.01 0.01 0.00 0.00 0.00 0.00 0.00 0.00 0.00 0.00 0.00 0.03 0.02 0.00 0.00 0.00 0.00 0.02 0.03 0.02 0.11 0.17 0.17 0.13 0.16 0.15 0.06 0.02 0.03 0.05 0.02 0.02 0.01 0.00 0.02 0.03 0.00 0.00 0.01 0.00 0.00 0.00
0.01 0.17 0.14 0.06 0.02 0.00 0.00 0.00 0.00 0.00 0.00 0.00 0.02 0.01 0.00 0.00 0.00 0.00 0.00 0.00 0.01 0.09 0.01 0.02 0.01 0.02 0.01 0.06 0.27 0.22 0.10 0.10 0.07 0.06 0.08 0.10 0.06 0.00 0.00 0.02 0.00 0.01 0.02 0.00 0.00 0.00 0.00 0.00 0.00
0.00 0.23 0.13 0.14 0.05 0.25 0.00 0.00 0.00 0.00 0.00 0.00 0.00 0.00 0.00 0.00 0.00 0.00 0.00 0.00 0.01 0.13 0.04 0.02 0.03 0.04 0.16 0.11 0.18 0.25 0.21 0.05 0.03 0.09 0.13 0.04 0.00 0.00 0.00 0.00 0.00 0.00 0.00 0.00 0.00 0.00 0.00 0.00 0.00
0.06 0.43 0.23 0.24 0.05 0.16 0.01 0.02 0.00 0.00 0.00 0.00 0.00 0.00 0.00 0.00 0.00 0.00 0.00 0.00 0.00 0.02 0.23 0.11 0.02 0.05 0.10 0.06 0.17 0.33 0.19 0.06 0.01 0.00 0.00 0.02 0.00 0.00 0.00 0.00 0.01 0.00 0.00 0.00 0.00 0.00 0.00 0.00 0.00
0.08 0.36 0.12 0.02 0.02 0.07 0.06 0.04 0.00 0.00 0.01 0.00 0.00 0.00 0.00 0.00 0.00 0.00 0.00 0.00 0.00 0.00 0.02 0.07 0.01 0.04 0.05 0.02 0.03 0.21 0.24 0.01 0.00 0.00 0.00 0.00 0.00 0.00 0.00 0.00 0.00 0.00 0.00 0.00 0.00 0.00 0.00 0.00 0.00
0.16 0.06 0.02 0.08 0.11 0.07 0.12 0.16 0.03 0.01 0.07 0.00 0.00 0.00 0.00 0.00 0.00 0.00 0.00 0.01 0.00 0.01 0.02 0.01 0.00 0.18 0.21 0.01 0.07 0.01 0.00 0.00 0.00 0.00 0.00 0.00 0.00 0.00 0.00 0.00 0.00 0.00 0.00 0.00 0.00 0.00 0.00 0.00 0.00
0.02 0.02 0.02 0.01 0.03 0.03 0.05 0.18 0.14 0.01 0.00 0.00 0.00 0.00 0.00 0.00 0.00 0.00 0.00 0.00 0.00 0.00 0.01 0.00 0.00 0.03 0.02 0.05 0.02 0.00 0.00 0.00 0.00 0.00 0.00 0.00 0.00 0.00 0.00 0.00 0.00 0.00 0.00 0.00 0.00 0.00 0.00 0.00 0.00
0.03 0.01 0.00 0.00 0.01 0.02 0.14 0.18 0.16 0.04 0.00 0.00 0.00 0.00 0.00 0.00 0.00 0.00 0.00 0.00 0.00 0.00 0.00 0.00 0.00 0.00 0.00 0.03 0.01 0.00 0.07 0.00 0.00 0.00 0.00 0.00 0.00 0.00 0.00 0.00 0.00 0.00 0.00 0.00 0.00 0.00 0.00 0.00 0.00
0.00 0.02 0.01 0.02 0.03 0.05 0.12 0.26 0.42 0.13 0.01 0.00 0.00 0.00 0.00 0.00 0.00 0.00 0.00 0.00 0.00 0.00 0.00 0.00 0.00 0.00 0.00 0.01 0.02 0.00 0.10 0.00 0.00 0.01 0.00 0.00 0.00 0.00 0.00 0.00 0.00 0.00 0.00 0.00 0.00 0.00 0.00 0.00 0.00
0.01 0.02 0.12 0.06 0.03 0.05 0.11 0.47 0.76 0.44 0.02 0.01 0.00 0.00 0.00 0.00 0.00 0.00 0.00 0.00 0.00 0.00 0.00 0.00 0.00 0.01 0.00 0.00 0.01 0.00 0.00 0.01 0.01 0.04 0.00 0.00 0.00 0.00 0.00 0.00 0.00 0.00 0.00 0.00 0.00 0.00 0.00 0.00 0.00
0.00 0.00 0.06 0.13 0.02 0.05 0.14 0.55 0.44 0.26 0.04 0.05 0.00 0.00 0.00 0.00 0.00 0.00 0.00 0.00 0.00 0.00 0.00 0.00 0.00 0.00 0.01 0.01 0.00 0.00 0.00 0.01 0.07 0.04 0.01 0.00 0.00 0.00 0.01 0.01 0.00 0.00 0.00 0.00 0.00 0.00 0.00 0.00 0.00
0.00 0.00 0.01 0.05 0.02 0.02 0.13 0.29 0.09 0.12 0.05 0.18 0.07 0.00 0.00 0.00 0.00 0.00 0.00 0.00 0.00 0.00 0.00 0.00 0.00 0.00 0.02 0.03 0.02 0.00 0.01 0.03 0.01 0.01 0.00 0.00 0.00 0.00 0.04 0.05 0.00 0.02 0.08 0.04 0.09 0.00 0.00 0.00 0.00
0.00 0.00 0.00 0.01 0.00 0.02 0.01 0.12 0.25 0.08 0.07 0.14 0.20 0.01 0.00 0.00 0.00 0.00 0.00 0.00 0.00 0.00 0.00 0.00 0.00 0.03 0.01 0.01 0.01 0.02 0.05 0.01 0.00 0.01 0.00 0.00 0.00 0.00 0.02 0.03 0.00 0.08 0.45 0.50 0.07 0.01 0.00 0.00 0.00
0.00 0.00 0.00 0.01 0.00 0.00 0.00 0.03 0.14 0.18 0.02 0.01 0.09 0.10 0.01 0.00 0.00 0.00 0.00 0.00 0.00 0.00 0.00 0.00 0.02 0.06 0.07 0.01 0.04 0.03 0.01 0.01 0.01 0.00 0.00 0.00 0.00 0.00 0.01 0.00 0.03 0.22 0.28 0.05 0.08 0.34 0.20 0.50 0.00
0.00 0.00 0.00 0.02 0.02 0.00 0.00 0.01 0.07 0.12 0.05 0.00 0.01 0.17 0.04 0.00 0.00 0.00 0.00 0.00 0.00 0.00 0.00 0.00 0.03 0.06 0.10 0.05 0.02 0.06 0.14 0.13 0.11 0.04 0.01 0.02 0.00 0.00 0.00 0.00 0.04 0.13 0.05 0.07 0.02 0.06 0.13 0.41 0.04
0.00 0.00 0.00 0.02 0.04 0.03 0.01 0.01 0.00 0.03 0.04 0.01 0.00 0.02 0.03 0.00 0.00 0.00 0.00 0.00 0.00 0.00 0.00 0.00 0.01 0.07 0.06 0.03 0.08 0.20 0.11 0.04 0.10 0.11 0.10 0.07 0.02 0.00 0.00 0.00 0.00 0.01 0.07 0.36 0.01 0.01 0.08 0.14 0.32
0.00 0.01 0.03 0.04 0.03 0.02 0.01 0.00 0.00 0.01 0.02 0.00 0.00 0.00 0.03 0.00 0.00 0.00 0.00 0.00 0.00 0.00 0.00 0.00 0.00 0.12 0.09 0.15 0.28 0.08 0.04 0.05 0.06 0.09 0.08 0.07 0.07 0.01 0.00 0.00 0.00 0.00 0.00 0.01 0.00 0.01 0.01 0.03 0.14
0.00 0.00 0.04 0.06 0.06 0.02 0.00 0.00 0.00 0.01 0.02 0.03 0.01 0.00 0.01 0.01 0.00 0.00 0.00 0.00 0.00 0.00 0.00 0.00 0.00 0.04 0.09 0.16 0.11 0.09 0.08 0.10 0.19 0.18 0.13 0.06 0.02 0.00 0.00 0.01 0.00 0.00 0.00 0.00 0.00 0.01 0.00 0.00 0.02
0.00 0.00 0.02 0.04 0.03 0.00 0.00 0.01 0.00 0.02 0.05 0.02 0.02 0.00 0.00 0.01 0.00 0.00 0.00 0.00 0.00 0.00 0.00 0.00 0.00 0.01 0.04 0.10 0.07 0.10 0.06 0.08 0.14 0.14 0.12 0.12 0.08 0.04 0.09 0.08 0.05 0.02 0.02 0.01 0.00 0.01 0.02 0.02 0.02
0.00 0.00 0.00 0.00 0.01 0.02 0.01 0.01 0.00 0.01 0.01 0.00 0.03 0.01 0.00 0.00 0.00 0.00 0.00 0.00 0.00 0.00 0.00 0.00 0.00 0.00 0.01 0.06 0.04 0.07 0.10 0.08 0.06 0.09 0.16 0.12 0.09 0.07 0.05 0.05 0.10 0.08 0.05 0.02 0.01 0.00 0.00 0.00 0.00
0.00 0.00 0.00 0.02 0.03 0.04 0.01 0.00 0.00 0.01 0.05 0.01 0.00 0.00 0.00 0.00 0.00 0.00 0.00 0.00 0.00 0.00 0.00 0.00 0.00 0.00 0.00 0.01 0.03 0.05 0.06 0.06 0.02 0.05 0.18 0.07 0.09 0.06 0.05 0.04 0.05 0.04 0.04 0.03 0.02 0.00 0.01 0.01 0.01
0.00 0.02 0.06 0.04 0.05 0.02 0.00 0.00 0.01 0.01 0.00 0.00 0.00 0.00 0.00 0.00 0.00 0.02 0.01 0.00 0.00 0.00 0.00 0.00 0.00 0.00 0.00 0.00 0.00 0.00 0.01 0.02 0.06 0.09 0.16 0.05 0.12 0.11 0.09 0.06 0.06 0.04 0.09 0.08 0.09 0.03 0.01 0.02 0.01
0.00 0.01 0.02 0.03 0.02 0.02 0.02 0.03 0.09 0.08 0.00 0.00 0.04 0.03 0.01 0.00 0.00 0.02 0.07 0.03 0.04 0.00 0.00 0.00 0.00 0.00 0.00 0.00 0.00 0.00 0.00 0.00 0.02 0.08 0.13 0.27 0.24 0.14 0.13 0.06 0.09 0.11 0.14 0.13 0.18 0.15 0.11 0.12 0.09
0.00 0.00 0.00 0.01 0.01 0.02 0.01 0.05 0.02 0.00 0.00 0.00 0.17 0.13 0.01 0.04 0.04 0.01 0.12 0.16 0.07 0.05 0.01 0.00 0.00 0.00 0.00 0.00 0.00 0.00 0.00 0.00 0.00 0.05 0.06 0.18 0.31 0.27 0.13 0.18 0.16 0.12 0.15 0.21 0.17 0.23 0.17 0.18 0.17

GFSSGP_prec_precacc12_129.txt.gz
Total_Precipitation_Accumulation
0.02 0.08 0.10 0.26 1.02 0.18 0.01 0.00 0.00 0.00 0.00 0.00 0.00 0.00 0.00 0.04 0.03 0.01 0.01 0.05 0.01 0.00 0.00 0.01 0.07 0.05 0.08 0.20 0.35 0.23 0.16 0.10 0.09 0.13 0.06 0.04 0.05 0.03 0.04 0.09 0.07 0.17 0.15 0.10 0.14 0.18 0.16 0.14 0.07
0.05 0.06 0.11 0.34 0.42 0.06 0.01 0.00 0.00 0.00 0.00 0.00 0.00 0.01 0.00 0.00 0.00 0.00 0.01 0.04 0.00 0.00 0.00 0.00 0.04 0.04 0.05 0.20 0.22 0.15 0.09 0.07 0.07 0.09 0.04 0.06 0.03 0.04 0.03 0.02 0.08 0.12 0.08 0.08 0.12 0.13 0.13 0.13 0.10
0.03 0.08 0.66 0.64 0.13 0.04 0.00 0.00 0.00 0.00 0.01 0.07 0.01 0.01 0.00 0.00 0.00 0.00 0.02 0.00 0.00 0.01 0.00 0.00 0.01 0.01 0.07 0.15 0.16 0.10 0.05 0.04 0.07 0.05 0.03 0.03 0.04 0.05 0.04 0.04 0.08 0.13 0.11 0.07 0.06 0.03 0.03 0.05 0.03
0.03 0.06 0.11 0.14 0.06 0.01 0.00 0.00 0.00 0.00 0.00 0.01 0.01 0.00 0.00 0.00 0.00 0.00 0.00 0.00 0.03 0.19 0.01 0.00 0.00 0.02 0.03 0.08 0.06 0.17 0.11 0.09 0.08 0.06 0.02 0.05 0.06 0.11 0.14 0.13 0.07 0.05 0.11 0.11 0.11 0.03 0.03 0.01 0.01
0.05 0.28 0.55 0.10 0.03 0.00 0.00 0.00 0.00 0.00 0.00 0.00 0.00 0.00 0.00 0.00 0.00 0.00 0.00 0.01 0.07 0.58 0.04 0.00 0.00 0.01 0.02 0.07 0.17 0.20 0.15 0.10 0.08 0.07 0.01 0.04 0.04 0.02 0.03 0.02 0.01 0.01 0.02 0.01 0.00 0.00 0.00 0.00 0.00
0.04 1.28 0.79 0.14 0.05 0.00 0.00 0.00 0.00 0.00 0.00 0.00 0.00 0.00 0.00 0.00 0.00 0.00 0.02 0.03 0.21 0.18 0.02 0.01 0.00 0.02 0.01 0.08 0.20 0.14 0.18 0.14 0.14 0.04 0.01 0.02 0.02 0.01 0.02 0.02 0.00 0.00 0.01 0.01 0.00 0.00 0.00 0.00 0.00
0.07 1.11 0.58 0.14 0.14 0.00 0.00 0.01 0.01 0.00 0.00 0.00 0.00 0.00 0.00 0.00 0.00 0.01 0.09 0.05 0.07 0.04 0.02 0.00 0.00 0.01 0.00 0.08 0.16 0.16 0.13 0.14 0.10 0.02 0.01 0.01 0.01 0.00 0.01 0.01 0.00 0.02 0.03 0.00 0.00 0.00 0.00 0.00 0.00
0.16 0.72 0.70 0.29 0.15 0.04 0.00 0.01 0.00 0.00 0.00 0.00 0.02 0.01 0.00 0.00 0.01 0.02 0.05 0.08 0.19 0.19 0.06 0.02 0.00 0.01 0.01 0.05 0.20 0.20 0.09 0.07 0.03 0.02 0.03 0.04 0.02 0.00 0.00 0.02 0.00 0.01 0.02 0.00 0.00 0.00 0.00 0.00 0.00
0.18 0.89 0.75 0.29 0.20 0.32 0.01 0.00 0.00 0.00 0.00 0.00 0.00 0.00 0.00 0.00 0.00 0.00 0.01 0.02 0.06 0.27 0.10 0.05 0.03 0.07 0.09 0.06 0.09 0.15 0.12 0.03 0.05 0.07 0.09 0.04 0.00 0.00 0.00 0.00 0.00 0.00 0.00 0.00 0.00 0.00 0.00 0.00 0.00
0.21 0.62 0.51 0.29 0.10 0.16 0.02 0.02 0.00 0.00 0.00 0.00 0.00 0.00 0.00 0.00 0.00 0.00 0.00 0.01 0.01 0.06 0.33 0.22 0.09 0.09 0.01 0.00 0.09 0.23 0.18 0.05 0.03 0.03 0.01 0.02 0.00 0.00 0.00 0.00 0.01 0.00 0.00 0.00 0.00 0.00 0.00 0.00 0.00
0.06 0.45 0.34 0.02 0.04 0.01 0.01 0.07 0.01 0.00 0.01 0.00 0.00 0.00 0.00 0.00 0.00 0.00 0.00 0.01 0.01 0.06 0.06 0.23 0.07 0.22 0.07 0.00 0.03 0.20 0.24 0.01 0.00 0.00 0.00 0.00 0.00 0.00 0.00 0.00 0.00 0.00 0.00 0.00 0.00 0.00 0.00 0.00 0.00
0.18 0.04 0.03 0.00 0.00 0.02 0.05 0.18 0.06 0.01 0.07 0.00 0.00 0.00 0.00 0.00 0.00 0.00 0.00 0.01 0.01 0.04 0.05 0.09 0.06 0.23 0.27 0.18 0.16 0.04 0.02 0.00 0.00 0.00 0.00 0.00 0.00 0.00 0.00 0.00 0.00 0.00 0.00 0.00 0.00 0.00 0.00 0.00 0.00
0.05 0.01 0.00 0.00 0.01 0.02 0.02 0.11 0.16 0.02 0.01 0.00 0.00 0.00 0.00 0.00 0.00 0.00 0.00 0.00 0.00 0.01 0.02 0.03 0.04 0.11 0.18 0.37 0.11 0.04 0.00 0.00 0.00 0.00 0.00 0.00 0.00 0.00 0.00 0.00 0.00 0.00 0.00 0.00 0.00 0.00 0.00 0.00 0.00
0.04 0.01 0.00 0.00 0.02 0.00 0.07 0.12 0.10 0.08 0.01 0.00 0.00 0.00 0.00 0.00 0.00 0.00 0.00 0.00 0.00 0.01 0.00 0.01 0.02 0.07 0.20 0.52 0.24 0.06 0.10 0.00 0.00 0.00 0.00 0.00 0.00 0.00 0.00 0.00 0.00 0.00 0.00 0.00 0.00 0.00 0.00 0.00 0.00
0.00 0.01 0.01 0.02 0.03 0.02 0.07 0.24 0.43 0.15 0.00 0.00 0.00 0.00 0.00 0.00 0.00 0.00 0.00 0.00 0.00 0.00 0.00 0.00 0.01 0.05 0.05 0.16 0.09 0.03 0.13 0.02 0.00 0.01 0.00 0.00 0.00 0.00 0.00 0.00 0.00 0.00 0.00 0.00 0.00 0.00 0.00 0.00 0.00
0.00 0.01 0.20 0.76 0.15 0.05 0.11 0.46 0.96 0.52 0.04 0.00 0.00 0.00 0.00 0.00 0.00 0.00 0.00 0.00 0.00 0.00 0.00 0.00 0.00 0.01 0.02 0.03 0.02 0.03 0.03 0.01 0.01 0.06 0.00 0.00 0.00 0.00 0.00 0.00 0.00 0.00 0.00 0.00 0.00 0.00 0.00 0.00 0.00
0.00 0.00 0.06 0.22 0.05 0.02 0.10 0.49 0.40 0.24 0.14 0.06 0.00 0.00 0.00 0.00 0.00 0.00 0.00 0.00 0.00 0.00 0.00 0.00 0.00 0.00 0.01 0.01 0.01 0.05 0.01 0.03 0.08 0.06 0.01 0.00 0.00 0.00 0.02 0.01 0.00 0.00 0.00 0.01 0.00 0.00 0.00 0.00 0.00
0.00 0.00 0.00 0.05 0.06 0.02 0.06 0.21 0.05 0.05 0.13 0.27 0.07 0.00 0.00 0.00 0.00 0.00 0.00 0.00 0.00 0.00 0.00 0.00 0.01 0.00 0.02 0.03 0.04 0.02 0.01 0.04 0.01 0.02 0.01 0.00 0.00 0.00 0.05 0.06 0.03 0.04 0.17 0.07 0.10 0.01 0.00 0.00 0.00
0.00 0.00 0.00 0.01 0.00 0.02 0.01 0.07 0.04 0.03 0.06 0.17 0.20 0.00 0.00 0.00 0.00 0.00 0.00 0.00 0.00 0.00 0.00 0.00 0.00 0.03 0.01 0.01 0.03 0.03 0.06 0.02 0.02 0.03 0.00 0.00 0.01 0.00 0.02 0.09 0.05 0.09 0.47 0.64 0.12 0.06 0.03 0.01 0.00
0.00 0.00 0.00 0.01 0.00 0.00 0.00 0.00 0.00 0.02 0.01 0.02 0.09 0.09 0.02 0.00 0.00 0.00 0.00 0.00 0.00 0.00 0.00 0.00 0.03 0.06 0.07 0.02 0.04 0.03 0.03 0.03 0.02 0.03 0.01 0.00 0.00 0.00 0.02 0.09 0.07 0.23 0.29 0.17 0.19 0.36 0.24 0.55 0.03
0.00 0.00 0.00 0.01 0.02 0.00 0.00 0.00 0.00 0.01 0.02 0.00 0.01 0.17 0.05 0.00 0.00 0.00 0.00 0.00 0.00 0.00 0.00 0.00 0.03 0.06 0.10 0.07 0.03 0.08 0.17 0.12 0.12 0.09 0.01 0.00 0.00 0.00 0.01 0.05 0.08 0.21 0.21 0.20 0.08 0.08 0.18 0.46 0.08
0.00 0.00 0.00 0.02 0.04 0.03 0.01 0.01 0.00 0.00 0.03 0.01 0.00 0.02 0.03 0.00 0.00 0.00 0.00 0.00 0.00 0.00 0.00 0.00 0.01 0.07 0.07 0.05 0.12 0.18 0.10 0.04 0.07 0.06 0.07 0.07 0.02 0.00 0.00 0.01 0.00 0.16 0.53 0.52 0.13 0.18 0.17 0.20 0.39
0.00 0.00 0.00 0.03 0.03 0.02 0.01 0.00 0.00 0.00 0.00 0.01 0.02 0.00 0.03 0.00 0.01 0.00 0.00 0.00 0.00 0.00 0.00 0.00 0.00 0.13 0.10 0.16 0.30 0.06 0.02 0.05 0.04 0.08 0.06 0.06 0.07 0.01 0.00 0.00 0.00 0.04 0.05 0.04 0.05 0.11 0.11 0.11 0.21
0.00 0.00 0.01 0.03 0.06 0.02 0.00 0.00 0.00 0.01 0.01 0.04 0.09 0.01 0.01 0.01 0.01 0.02 0.00 0.00 0.00 0.00 0.00 0.00 0.00 0.04 0.09 0.16 0.11 0.09 0.06 0.07 0.17 0.14 0.11 0.04 0.01 0.00 0.00 0.00 0.00 0.00 0.00 0.01 0.01 0.01 0.02 0.03 0.07
0.00 0.00 0.01 0.01 0.01 0.00 0.00 0.01 0.00 0.02 0.05 0.02 0.04 0.02 0.00 0.01 0.01 0.05 0.01 0.00 0.00 0.00 0.00 0.00 0.00 0.01 0.04 0.10 0.07 0.10 0.07 0.07 0.11 0.08 0.08 0.09 0.05 0.02 0.05 0.03 0.03 0.01 0.01 0.01 0.01 0.01 0.02 0.02 0.03
0.00 0.00 0.00 0.00 0.00 0.01 0.01 0.01 0.00 0.01 0.01 0.00 0.03 0.03 0.00 0.01 0.02 0.01 0.00 0.00 0.00 0.00 0.00 0.00 0.00 0.00 0.01 0.06 0.04 0.07 0.10 0.09 0.07 0.06 0.12 0.11 0.08 0.07 0.05 0.04 0.05 0.02 0.04 0.02 0.01 0.00 0.00 0.00 0.01
0.00 0.00 0.00 0.00 0.00 0.01 0.01 0.00 0.00 0.01 0.05 0.01 0.00 0.00 0.00 0.00 0.02 0.00 0.02 0.03 0.00 0.00 0.00 0.00 0.00 0.00 0.00 0.01 0.03 0.06 0.06 0.07 0.03 0.05 0.17 0.07 0.09 0.06 0.06 0.05 0.05 0.03 0.05 0.03 0.02 0.00 0.01 0.01 0.01
0.00 0.02 0.01 0.00 0.00 0.00 0.00 0.00 0.01 0.01 0.00 0.00 0.01 0.02 0.02 0.01 0.01 0.02 0.03 0.03 0.00 0.00 0.00 0.00 0.00 0.00 0.00 0.00 0.00 0.00 0.01 0.01 0.02 0.09 0.15 0.04 0.12 0.12 0.09 0.05 0.08 0.05 0.10 0.08 0.08 0.02 0.01 0.02 0.01
0.00 0.00 0.00 0.01 0.01 0.01 0.02 0.04 0.09 0.08 0.00 0.00 0.05 0.05 0.09 0.03 0.06 0.07 0.08 0.06 0.05 0.03 0.00 0.00 0.00 0.00 0.00 0.00 0.00 0.00 0.00 0.00 0.00 0.05 0.12 0.22 0.22 0.14 0.14 0.07 0.14 0.15 0.17 0.15 0.18 0.12 0.08 0.11 0.09
0.00 0.00 0.00 0.01 0.01 0.02 0.01 0.05 0.02 0.00 0.00 0.00 0.17 0.13 0.09 0.05 0.07 0.11 0.18 0.24 0.09 0.13 0.06 0.03 0.01 0.00 0.00 0.00 0.00 0.00 0.00 0.00 0.00 0.05 0.06 0.18 0.30 0.27 0.16 0.23 0.24 0.24 0.20 0.24 0.18 0.30 0.24 0.18 0.14

GFSSGP_prec_precacc12_132.txt.gz
Total_Precipitation_Accumulation
0.03 0.08 0.10 0.26 1.02 0.19 0.01 0.00 0.00 0.01 0.00 0.00 0.00 0.01 0.00 0.05 0.05 0.02 0.01 0.05 0.01 0.00 0.00 0.02 0.10 0.05 0.01 0.05 0.24 0.20 0.18 0.11 0.09 0.13 0.07 0.04 0.04 0.03 0.04 0.09 0.07 0.14 0.15 0.09 0.14 0.18 0.20 0.15 0.07
0.07 0.06 0.11 0.34 0.43 0.11 0.02 0.00 0.00 0.00 0.00 0.00 0.00 0.01 0.00 0.00 0.00 0.00 0.01 0.04 0.00 0.00 0.01 0.02 0.10 0.08 0.03 0.13 0.19 0.14 0.11 0.08 0.07 0.10 0.05 0.05 0.04 0.04 0.03 0.02 0.06 0.05 0.04 0.07 0.11 0.12 0.13 0.09 0.09
0.06 0.08 0.67 0.65 0.14 0.06 0.01 0.00 0.00 0.00 0.01 0.07 0.01 0.01 0.00 0.00 0.00 0.00 0.02 0.00 0.00 0.01 0.01 0.01 0.05 0.03 0.07 0.16 0.20 0.16 0.10 0.06 0.06 0.04 0.03 0.03 0.04 0.05 0.04 0.04 0.05 0.08 0.04 0.02 0.04 0.03 0.03 0.03 0.01
0.06 0.12 0.22 0.20 0.09 0.01 0.00 0.00 0.00 0.00 0.00 0.01 0.01 0.00 0.00 0.00 0.00 0.00 0.00 0.00 0.03 0.19 0.01 0.00 0.00 0.01 0.02 0.08 0.08 0.21 0.18 0.10 0.07 0.07 0.03 0.09 0.08 0.10 0.14 0.13 0.06 0.03 0.05 0.06 0.08 0.03 0.02 0.01 0.01
0.08 0.31 0.59 0.16 0.10 0.00 0.00 0.00 0.00 0.00 0.00 0.00 0.00 0.00 0.00 0.00 0.00 0.00 0.00 0.01 0.07 0.58 0.04 0.00 0.00 0.00 0.01 0.04 0.15 0.16 0.13 0.05 0.05 0.07 0.05 0.07 0.06 0.02 0.02 0.02 0.01 0.00 0.02 0.01 0.00 0.00 0.00 0.00 0.02
0.05 1.29 0.83 0.26 0.18 0.00 0.00 0.00 0.00 0.00 0.00 0.00 0.00 0.00 0.00 0.00 0.00 0.00 0.03 0.03 0.22 0.18 0.02 0.01 0.00 0.00 0.01 0.04 0.13 0.14 0.12 0.09 0.07 0.04 0.06 0.03 0.02 0.01 0.01 0.01 0.00 0.00 0.01 0.01 0.00 0.00 0.00 0.00 0.00
0.10 1.27 0.70 0.37 0.22 0.01 0.00 0.02 0.01 0.00 0.00 0.00 0.00 0.00 0.00 0.00 0.00 0.02 0.11 0.08 0.09 0.06 0.05 0.00 0.00 0.00 0.00 0.06 0.09 0.05 0.05 0.05 0.03 0.01 0.01 0.00 0.00 0.00 0.00 0.01 0.00 0.02 0.03 0.00 0.00 0.00 0.00 0.00 0.00
0.31 0.87 0.97 0.56 0.31 0.09 0.00 0.01 0.00 0.00 0.00 0.00 0.02 0.01 0.00 0.00 0.01 0.17 0.26 0.16 0.23 0.22 0.12 0.07 0.00 0.01 0.01 0.05 0.09 0.10 0.03 0.02 0.01 0.01 0.01 0.00 0.00 0.00 0.00 0.02 0.00 0.01 0.02 0.00 0.00 0.00 0.00 0.00 0.00
0.52 1.22 0.98 0.55 0.30 0.35 0.05 0.00 0.00 0.00 0.00 0.00 0.00 0.00 0.00 0.00 0.00 0.03 0.04 0.12 0.10 0.30 0.15 0.19 0.08 0.06 0.05 0.01 0.02 0.04 0.01 0.01 0.02 0.03 0.03 0.02 0.00 0.00 0.00 0.00 0.00 0.00 0.00 0.00 0.00 0.00 0.00 0.00 0.00
0.37 0.60 0.54 0.33 0.11 0.16 0.06 0.03 0.00 0.00 0.00 0.00 0.00 0.00 0.00 0.00 0.00 0.00 0.00 0.02 0.05 0.12 0.36 0.35 0.12 0.09 0.00 0.00 0.07 0.13 0.17 0.07 0.04 0.03 0.01 0.02 0.00 0.00 0.00 0.00 0.01 0.00 0.00 0.00 0.00 0.00 0.00 0.00 0.00
0.27 0.47 0.36 0.03 0.03 0.01 0.04 0.10 0.02 0.00 0.01 0.00 0.00 0.00 0.00 0.00 0.00 0.00 0.00 0.01 0.02 0.06 0.09 0.31 0.09 0.22 0.07 0.00 0.04 0.21 0.25 0.02 0.00 0.00 0.00 0.00 0.00 0.00 0.00 0.00 0.00 0.00 0.00 0.00 0.00 0.00 0.00 0.00 0.00
0.15 0.07 0.09 0.01 0.00 0.01 0.03 0.18 0.06 0.03 0.07 0.00 0.00 0.00 0.00 0.00 0.00 0.00 0.00 0.01 0.03 0.04 0.06 0.11 0.11 0.23 0.27 0.24 0.22 0.08 0.03 0.00 0.00 0.00 0.00 0.00 0.00 0.00 0.00 0.00 0.00 0.00 0.00 0.00 0.00 0.00 0.00 0.00 0.00
0.05 0.00 0.01 0.00 0.00 0.01 0.00 0.08 0.17 0.02 0.02 0.01 0.00 0.00 0.00 0.00 0.00 0.00 0.00 0.02 0.02 0.02 0.04 0.06 0.04 0.12 0.19 0.38 0.12 0.09 0.01 0.00 0.00 0.00 0.00 0.00 0.00 0.00 0.00 0.00 0.00 0.00 0.00 0.00 0.00 0.00 0.00 0.00 0.00
0.04 0.05 0.04 0.03 0.02 0.00 0.00 0.04 0.09 0.08 0.01 0.00 0.00 0.00 0.00 0.00 0.00 0.00 0.00 0.01 0.02 0.02 0.00 0.03 0.04 0.07 0.21 0.53 0.24 0.07 0.11 0.00 0.00 0.00 0.01 0.00 0.00 0.00 0.00 0.00 0.00 0.00 0.00 0.00 0.00 0.00 0.00 0.00 0.00
0.00 0.02 0.09 0.13 0.08 0.03 0.02 0.12 0.29 0.16 0.01 0.00 0.00 0.00 0.00 0.00 0.00 0.00 0.00 0.00 0.00 0.00 0.00 0.00 0.01 0.05 0.11 0.18 0.08 0.05 0.16 0.02 0.00 0.02 0.02 0.00 0.00 0.00 0.00 0.00 0.00 0.00 0.00 0.00 0.00 0.00 0.00 0.00 0.00
0.00 0.02 0.25 0.92 0.22 0.06 0.09 0.36 0.82 0.51 0.04 0.00 0.00 0.00 0.00 0.00 0.00 0.00 0.00 0.00 0.00 0.00 0.00 0.00 0.00 0.02 0.08 0.07 0.02 0.04 0.05 0.01 0.01 0.07 0.01 0.00 0.00 0.00 0.00 0.00 0.00 0.00 0.00 0.00 0.00 0.00 0.00 0.00 0.00
0.00 0.00 0.05 0.21 0.08 0.04 0.10 0.47 0.38 0.24 0.14 0.06 0.00 0.00 0.00 0.00 0.00 0.00 0.00 0.00 0.00 0.00 0.00 0.01 0.00 0.01 0.04 0.03 0.06 0.10 0.01 0.03 0.08 0.08 0.01 0.00 0.00 0.00 0.02 0.01 0.00 0.00 0.00 0.01 0.00 0.00 0.00 0.00 0.00
0.00 0.00 0.00 0.04 0.06 0.03 0.05 0.18 0.05 0.04 0.12 0.27 0.07 0.00 0.00 0.00 0.00 0.00 0.00 0.00 0.00 0.00 0.00 0.00 0.01 0.00 0.01 0.02 0.10 0.05 0.04 0.04 0.02 0.03 0.01 0.00 0.00 0.00 0.06 0.07 0.03 0.04 0.17 0.07 0.10 0.01 0.00 0.00 0.00
0.00 0.00 0.00 0.00 0.00 0.02 0.01 0.05 0.02 0.00 0.02 0.17 0.20 0.00 0.00 0.00 0.00 0.00 0.00 0.00 0.00 0.00 0.00 0.00 0.00 0.01 0.00 0.01 0.04 0.04 0.04 0.03 0.03 0.04 0.00 0.00 0.01 0.00 0.03 0.11 0.05 0.09 0.47 0.63 0.12 0.06 0.03 0.01 0.00
0.00 0.00 0.00 0.00 0.00 0.01 0.00 0.00 0.00 0.00 0.00 0.02 0.08 0.08 0.02 0.00 0.00 0.00 0.00 0.00 0.00 0.00 0.00 0.00 0.02 0.03 0.04 0.01 0.02 0.02 0.03 0.03 0.04 0.03 0.01 0.00 0.00 0.01 0.04 0.10 0.07 0.23 0.29 0.17 0.19 0.36 0.24 0.55 0.03
0.00 0.00 0.00 0.00 0.01 0.00 0.00 0.00 0.00 0.00 0.01 0.00 0.01 0.16 0.05 0.00 0.00 0.00 0.00 0.00 0.00 0.00 0.00 0.00 0.03 0.04 0.02 0.06 0.04 0.05 0.11 0.06 0.12 0.08 0.01 0.00 0.00 0.00 0.02 0.05 0.09 0.21 0.21 0.20 0.08 0.08 0.18 0.46 0.08
0.00 0.00 0.00 0.00 0.00 0.02 0.01 0.01 0.00 0.00 0.02 0.01 0.00 0.02 0.03 0.00 0.00 0.00 0.00 0.00 0.00 0.00 0.00 0.00 0.01 0.04 0.04 0.06 0.09 0.07 0.04 0.02 0.02 0.01 0.01 0.00 0.00 0.00 0.00 0.02 0.01 0.16 0.53 0.52 0.13 0.18 0.17 0.20 0.39
0.00 0.00 0.00 0.00 0.00 0.00 0.00 0.00 0.00 0.00 0.00 0.01 0.02 0.00 0.03 0.00 0.01 0.00 0.00 0.00 0.00 0.00 0.00 0.00 0.00 0.06 0.07 0.15 0.21 0.06 0.01 0.03 0.02 0.04 0.05 0.01 0.00 0.00 0.00 0.00 0.00 0.04 0.05 0.04 0.05 0.11 0.11 0.11 0.21
0.00 0.00 0.00 0.00 0.00 0.00 0.00 0.00 0.00 0.01 0.01 0.04 0.09 0.01 0.01 0.01 0.01 0.02 0.00 0.00 0.00 0.00 0.00 0.00 0.00 0.04 0.09 0.13 0.04 0.03 0.04 0.03 0.11 0.07 0.08 0.01 0.00 0.00 0.00 0.00 0.00 0.00 0.00 0.01 0.01 0.02 0.03 0.03 0.07
0.00 0.00 0.00 0.00 0.00 0.00 0.00 0.00 0.00 0.02 0.05 0.02 0.04 0.02 0.00 0.01 0.01 0.06 0.01 0.00 0.00 0.00 0.00 0.00 0.00 0.01 0.04 0.07 0.02 0.05 0.03 0.04 0.06 0.04 0.00 0.00 0.00 0.00 0.01 0.01 0.01 0.00 0.01 0.01 0.01 0.01 0.02 0.02 0.03
0.00 0.00 0.00 0.00 0.00 0.00 0.00 0.00 0.00 0.01 0.01 0.00 0.03 0.03 0.00 0.01 0.02 0.01 0.00 0.01 0.02 0.00 0.00 0.00 0.00 0.00 0.01 0.06 0.04 0.05 0.05 0.03 0.02 0.01 0.00 0.00 0.00 0.00 0.01 0.00 0.01 0.01 0.01 0.00 0.01 0.00 0.00 0.00 0.01
0.00 0.00 0.00 0.00 0.00 0.00 0.00 0.00 0.00 0.01 0.05 0.01 0.00 0.00 0.00 0.00 0.02 0.01 0.02 0.03 0.02 0.00 0.00 0.00 0.00 0.00 0.00 0.01 0.03 0.06 0.04 0.04 0.02 0.04 0.05 0.01 0.01 0.00 0.01 0.01 0.01 0.01 0.01 0.00 0.01 0.00 0.01 0.01 0.01
0.00 0.02 0.00 0.00 0.00 0.00 0.00 0.01 0.01 0.01 0.00 0.00 0.01 0.02 0.02 0.02 0.05 0.08 0.12 0.06 0.00 0.00 0.00 0.00 0.00 0.00 0.00 0.00 0.00 0.00 0.01 0.01 0.02 0.09 0.10 0.03 0.10 0.07 0.09 0.05 0.08 0.04 0.04 0.05 0.03 0.01 0.00 0.02 0.01
0.00 0.00 0.00 0.00 0.01 0.00 0.01 0.03 0.09 0.08 0.00 0.00 0.05 0.05 0.09 0.05 0.08 0.09 0.15 0.10 0.07 0.03 0.00 0.00 0.00 0.00 0.00 0.00 0.00 0.00 0.00 0.00 0.00 0.04 0.09 0.13 0.16 0.12 0.14 0.07 0.16 0.18 0.13 0.13 0.16 0.07 0.08 0.09 0.07
0.00 0.00 0.00 0.00 0.00 0.02 0.00 0.04 0.02 0.00 0.00 0.00 0.17 0.13 0.11 0.07 0.08 0.14 0.24 0.31 0.09 0.14 0.07 0.03 0.01 0.00 0.00 0.00 0.00 0.00 0.00 0.00 0.00 0.00 0.03 0.13 0.25 0.19 0.16 0.23 0.28 0.26 0.23 0.28 0.16 0.19 0.23 0.17 0.14

GFSSGP_prec_precacc12_135.txt.gz
Total_Precipitation_Accumulation
0.03 0.08 0.10 0.26 0.98 0.18 0.01 0.00 0.00 0.01 0.00 0.00 0.00 0.01 0.01 0.05 0.05 0.01 0.01 0.05 0.01 0.00 0.00 0.10 0.15 0.02 0.07 0.10 0.17 0.16 0.17 0.10 0.10 0.11 0.05 0.03 0.05 0.04 0.02 0.09 0.06 0.13 0.14 0.08 0.11 0.16 0.17 0.11 0.04
0.07 0.06 0.11 0.34 0.41 0.12 0.03 0.00 0.00 0.00 0.00 0.00 0.00 0.01 0.00 0.00 0.02 0.00 0.01 0.04 0.00 0.00 0.02 0.08 0.14 0.13 0.07 0.04 0.10 0.15 0.12 0.11 0.08 0.12 0.04 0.03 0.02 0.03 0.04 0.05 0.10 0.05 0.05 0.08 0.11 0.10 0.10 0.04 0.04
0.06 0.08 0.67 0.65 0.14 0.06 0.01 0.00 0.00 0.00 0.01 0.05 0.00 0.00 0.00 0.00 0.00 0.00 0.02 0.00 0.00 0.02 0.05 0.07 0.08 0.10 0.04 0.12 0.16 0.21 0.18 0.12 0.13 0.07 0.03 0.03 0.04 0.04 0.07 0.05 0.04 0.07 0.05 0.04 0.06 0.02 0.00 0.01 0.04
0.06 0.13 0.24 0.20 0.11 0.01 0.00 0.00 0.00 0.00 0.00 0.01 0.00 0.00 0.00 0.00 0.00 0.00 0.00 0.00 0.03 0.19 0.05 0.05 0.05 0.08 0.08 0.15 0.13 0.22 0.20 0.13 0.09 0.08 0.04 0.09 0.08 0.11 0.15 0.12 0.05 0.03 0.05 0.04 0.04 0.01 0.01 0.03 0.03
0.09 0.31 0.60 0.19 0.11 0.00 0.00 0.00 0.00 0.00 0.00 0.00 0.00 0.00 0.00 0.00 0.00 0.00 0.00 0.01 0.07 0.58 0.09 0.07 0.08 0.07 0.10 0.12 0.15 0.17 0.12 0.05 0.03 0.09 0.12 0.10 0.07 0.04 0.02 0.02 0.01 0.01 0.02 0.01 0.00 0.01 0.01 0.03 0.04
0.05 1.27 0.82 0.37 0.27 0.03 0.00 0.00 0.00 0.00 0.00 0.00 0.00 0.00 0.00 0.00 0.00 0.00 0.03 0.03 0.22 0.18 0.03 0.02 0.01 0.04 0.05 0.07 0.10 0.10 0.04 0.04 0.03 0.10 0.20 0.15 0.13 0.10 0.02 0.01 0.00 0.00 0.01 0.01 0.00 0.00 0.00 0.02 0.00
0.10 1.26 0.67 0.63 0.37 0.13 0.01 0.03 0.01 0.00 0.00 0.00 0.00 0.00 0.00 0.00 0.01 0.02 0.11 0.08 0.09 0.06 0.05 0.01 0.00 0.01 0.00 0.07 0.06 0.04 0.02 0.02 0.01 0.04 0.11 0.05 0.04 0.00 0.01 0.01 0.00 0.00 0.00 0.00 0.00 0.00 0.00 0.00 0.00
0.30 0.88 1.10 0.94 0.40 0.17 0.01 0.01 0.00 0.00 0.00 0.00 0.02 0.01 0.00 0.00 0.03 0.18 0.26 0.17 0.27 0.22 0.13 0.06 0.02 0.01 0.05 0.05 0.01 0.01 0.00 0.00 0.01 0.02 0.00 0.00 0.00 0.00 0.00 0.02 0.00 0.00 0.00 0.00 0.00 0.00 0.00 0.00 0.00
0.52 1.16 1.03 0.60 0.31 0.39 0.11 0.01 0.00 0.00 0.00 0.00 0.00 0.00 0.00 0.00 0.01 0.04 0.04 0.13 0.11 0.30 0.14 0.21 0.15 0.08 0.13 0.05 0.01 0.00 0.01 0.01 0.02 0.02 0.01 0.02 0.04 0.02 0.00 0.00 0.00 0.00 0.00 0.00 0.00 0.00 0.00 0.00 0.00
0.38 0.47 0.49 0.32 0.11 0.17 0.13 0.05 0.00 0.00 0.00 0.00 0.00 0.00 0.00 0.00 0.00 0.00 0.00 0.03 0.05 0.12 0.35 0.32 0.14 0.11 0.03 0.01 0.03 0.06 0.16 0.07 0.04 0.03 0.01 0.03 0.01 0.00 0.00 0.00 0.00 0.00 0.00 0.00 0.00 0.00 0.00 0.00 0.00
0.29 0.41 0.34 0.03 0.03 0.01 0.05 0.11 0.02 0.00 0.01 0.00 0.00 0.00 0.00 0.00 0.00 0.00 0.00 0.01 0.02 0.06 0.09 0.31 0.09 0.22 0.07 0.00 0.04 0.20 0.25 0.03 0.02 0.02 0.00 0.00 0.00 0.00 0.00 0.00 0.00 0.00 0.00 0.00 0.00 0.00 0.00 0.00 0.00
0.15 0.09 0.10 0.01 0.00 0.02 0.03 0.14 0.06 0.03 0.06 0.00 0.00 0.00 0.00 0.00 0.00 0.00 0.00 0.01 0.03 0.04 0.06 0.11 0.11 0.23 0.27 0.24 0.22 0.08 0.03 0.00 0.00 0.00 0.00 0.00 0.00 0.00 0.00 0.00 0.00 0.00 0.00 0.00 0.00 0.00 0.00 0.00 0.00
0.06 0.01 0.03 0.01 0.00 0.01 0.01 0.07 0.13 0.02 0.02 0.01 0.00 0.00 0.00 0.00 0.00 0.00 0.00 0.03 0.02 0.02 0.04 0.06 0.04 0.12 0.19 0.38 0.13 0.09 0.01 0.00 0.00 0.00 0.00 0.00 0.00 0.00 0.00 0.00 0.00 0.00 0.00 0.00 0.00 0.00 0.00 0.00 0.00
0.04 0.07 0.06 0.02 0.02 0.00 0.00 0.03 0.08 0.08 0.01 0.00 0.00 0.00 0.00 0.00 0.00 0.00 0.00 0.02 0.03 0.02 0.00 0.03 0.04 0.10 0.22 0.53 0.24 0.07 0.11 0.00 0.00 0.00 0.01 0.00 0.00 0.00 0.00 0.00 0.00 0.00 0.00 0.00 0.00 0.00 0.00 0.00 0.00
0.00 0.04 0.09 0.12 0.07 0.01 0.00 0.06 0.23 0.14 0.01 0.00 0.00 0.00 0.00 0.00 0.00 0.00 0.00 0.00 0.00 0.00 0.00 0.00 0.01 0.09 0.12 0.18 0.09 0.05 0.16 0.02 0.00 0.02 0.02 0.00 0.00 0.00 0.00 0.00 0.00 0.00 0.00 0.00 0.00 0.00 0.00 0.00 0.00
0.05 0.05 0.20 0.89 0.22 0.06 0.05 0.21 0.74 0.50 0.04 0.00 0.00 0.00 0.00 0.00 0.00 0.00 0.00 0.00 0.00 0.00 0.00 0.00 0.00 0.01 0.08 0.06 0.01 0.05 0.05 0.01 0.01 0.09 0.02 0.00 0.00 0.00 0.00 0.00 0.00 0.00 0.00 0.00 0.00 0.00 0.00 0.00 0.00
0.04 0.01 0.05 0.21 0.08 0.04 0.05 0.30 0.33 0.22 0.13 0.05 0.00 0.00 0.00 0.00 0.00 0.00 0.00 0.00 0.00 0.00 0.00 0.01 0.00 0.00 0.04 0.03 0.06 0.11 0.01 0.03 0.07 0.08 0.02 0.00 0.00 0.00 0.02 0.01 0.00 0.00 0.00 0.01 0.00 0.00 0.00 0.00 0.00
0.00 0.00 0.00 0.03 0.06 0.02 0.03 0.08 0.04 0.02 0.11 0.20 0.07 0.00 0.00 0.00 0.00 0.00 0.00 0.00 0.00 0.00 0.00 0.00 0.01 0.00 0.01 0.02 0.09 0.05 0.03 0.04 0.03 0.04 0.01 0.01 0.00 0.00 0.06 0.07 0.03 0.04 0.17 0.07 0.10 0.01 0.00 0.00 0.00
0.00 0.00 0.00 0.00 0.00 0.01 0.00 0.00 0.02 0.00 0.01 0.15 0.17 0.00 0.00 0.00 0.00 0.00 0.00 0.00 0.00 0.00 0.00 0.00 0.00 0.01 0.00 0.01 0.04 0.04 0.04 0.05 0.03 0.04 0.00 0.00 0.01 0.00 0.03 0.11 0.05 0.09 0.46 0.57 0.12 0.06 0.03 0.01 0.00
0.00 0.00 0.00 0.00 0.00 0.01 0.00 0.00 0.00 0.00 0.00 0.01 0.05 0.08 0.02 0.00 0.00 0.00 0.00 0.00 0.00 0.00 0.00 0.00 0.02 0.02 0.00 0.01 0.02 0.02 0.03 0.03 0.05 0.03 0.01 0.00 0.00 0.01 0.04 0.10 0.07 0.23 0.29 0.17 0.19 0.30 0.22 0.55 0.03
0.00 0.00 0.00 0.00 0.01 0.02 0.00 0.00 0.00 0.00 0.01 0.00 0.01 0.14 0.05 0.00 0.00 0.00 0.00 0.00 0.00 0.00 0.00 0.00 0.03 0.04 0.01 0.03 0.03 0.05 0.08 0.06 0.13 0.09 0.03 0.00 0.00 0.00 0.02 0.06 0.09 0.21 0.21 0.20 0.08 0.08 0.18 0.36 0.08
0.00 0.00 0.00 0.00 0.00 0.01 0.01 0.01 0.00 0.00 0.02 0.01 0.00 0.00 0.02 0.00 0.01 0.00 0.00 0.00 0.00 0.00 0.00 0.00 0.01 0.03 0.04 0.05 0.06 0.05 0.03 0.02 0.01 0.01 0.00 0.00 0.00 0.00 0.01 0.04 0.01 0.16 0.53 0.52 0.13 0.18 0.17 0.20 0.39
0.00 0.00 0.00 0.00 0.00 0.00 0.00 0.00 0.00 0.00 0.00 0.01 0.02 0.00 0.02 0.00 0.01 0.00 0.00 0.00 0.00 0.00 0.00 0.00 0.00 0.04 0.06 0.11 0.08 0.06 0.01 0.02 0.02 0.04 0.04 0.01 0.00 0.00 0.03 0.05 0.03 0.04 0.05 0.04 0.05 0.11 0.11 0.11 0.21
0.00 0.00 0.00 0.00 0.00 0.00 0.00 0.00 0.00 0.00 0.01 0.04 0.09 0.01 0.01 0.01 0.01 0.02 0.01 0.00 0.00 0.00 0.00 0.00 0.00 0.03 0.07 0.05 0.03 0.03 0.03 0.03 0.06 0.05 0.06 0.00 0.00 0.00 0.00 0.03 0.03 0.02 0.00 0.01 0.02 0.02 0.03 0.03 0.07
0.00 0.00 0.00 0.00 0.00 0.00 0.00 0.00 0.00 0.00 0.04 0.02 0.04 0.02 0.00 0.01 0.01 0.06 0.02 0.03 0.01 0.00 0.00 0.00 0.00 0.01 0.04 0.04 0.01 0.05 0.03 0.04 0.04 0.02 0.00 0.00 0.00 0.00 0.01 0.02 0.03 0.05 0.01 0.01 0.01 0.01 0.02 0.01 0.02
0.00 0.00 0.00 0.00 0.00 0.00 0.00 0.00 0.00 0.00 0.01 0.00 0.03 0.03 0.00 0.01 0.02 0.01 0.00 0.05 0.08 0.01 0.00 0.00 0.00 0.00 0.01 0.06 0.04 0.05 0.05 0.02 0.02 0.02 0.00 0.00 0.00 0.00 0.01 0.01 0.03 0.04 0.03 0.00 0.01 0.00 0.00 0.00 0.01
0.00 0.00 0.00 0.00 0.00 0.00 0.00 0.00 0.00 0.00 0.04 0.01 0.00 0.00 0.00 0.01 0.02 0.00 0.02 0.03 0.07 0.05 0.01 0.00 0.00 0.00 0.00 0.01 0.03 0.05 0.04 0.04 0.02 0.03 0.00 0.00 0.00 0.00 0.01 0.01 0.01 0.03 0.05 0.01 0.01 0.00 0.01 0.01 0.01
0.00 0.00 0.00 0.00 0.00 0.00 0.00 0.01 0.01 0.01 0.00 0.00 0.01 0.02 0.02 0.03 0.05 0.08 0.13 0.07 0.01 0.06 0.02 0.00 0.00 0.00 0.00 0.00 0.00 0.00 0.01 0.01 0.02 0.06 0.04 0.02 0.03 0.02 0.04 0.03 0.07 0.04 0.04 0.05 0.02 0.00 0.00 0.02 0.01
0.00 0.00 0.00 0.00 0.00 0.00 0.00 0.02 0.03 0.07 0.00 0.00 0.03 0.05 0.09 0.05 0.09 0.10 0.16 0.15 0.11 0.07 0.05 0.02 0.00 0.00 0.00 0.00 0.00 0.00 0.00 0.00 0.00 0.03 0.04 0.07 0.09 0.05 0.09 0.04 0.08 0.13 0.13 0.10 0.05 0.02 0.08 0.07 0.05
0.00 0.00 0.00 0.00 0.00 0.00 0.00 0.01 0.00 0.00 0.00 0.00 0.16 0.13 0.11 0.07 0.09 0.14 0.27 0.36 0.13 0.16 0.12 0.08 0.01 0.00 0.00 0.02 0.01 0.00 0.00 0.00 0.00 0.00 0.02 0.06 0.19 0.11 0.07 0.17 0.25 0.29 0.24 0.25 0.08 0.13 0.21 0.12 0.09

GFSSGP_prec_precacc12_138.txt.gz
Total_Precipitation_Accumulation
0.03 0.08 0.09 0.21 0.68 0.12 0.01 0.00 0.00 0.01 0.00 0.00 0.00 0.00 0.01 0.04 0.04 0.00 0.00 0.04 0.01 0.00 0.00 0.21 0.21 0.13 0.20 0.14 0.12 0.10 0.22 0.16 0.14 0.10 0.02 0.02 0.05 0.04 0.00 0.05 0.03 0.12 0.12 0.05 0.03 0.18 0.10 0.06 0.02
0.07 0.06 0.11 0.25 0.17 0.10 0.03 0.00 0.00 0.00 0.00 0.00 0.00 0.00 0.00 0.00 0.03 0.00 0.01 0.04 0.00 0.00 0.02 0.10 0.16 0.20 0.14 0.16 0.17 0.22 0.25 0.22 0.19 0.12 0.06 0.04 0.02 0.01 0.02 0.04 0.12 0.11 0.06 0.05 0.07 0.07 0.02 0.01 0.04
0.06 0.08 0.65 0.24 0.05 0.06 0.01 0.00 0.00 0.00 0.00 0.00 0.00 0.00 0.00 0.00 0.00 0.00 0.02 0.00 0.00 0.01 0.05 0.07 0.11 0.21 0.16 0.25 0.25 0.25 0.32 0.28 0.26 0.19 0.06 0.03 0.02 0.04 0.07 0.07 0.07 0.17 0.09 0.12 0.06 0.00 0.00 0.01 0.04
0.06 0.12 0.22 0.20 0.12 0.01 0.00 0.00 0.00 0.00 0.00 0.00 0.00 0.00 0.00 0.00 0.00 0.00 0.00 0.00 0.03 0.04 0.04 0.07 0.11 0.18 0.20 0.22 0.18 0.17 0.26 0.26 0.22 0.13 0.04 0.09 0.10 0.13 0.23 0.33 0.26 0.16 0.16 0.08 0.01 0.03 0.05 0.06 0.06
0.09 0.16 0.26 0.17 0.13 0.01 0.00 0.00 0.00 0.00 0.00 0.00 0.00 0.00 0.00 0.00 0.00 0.00 0.00 0.01 0.04 0.04 0.09 0.11 0.14 0.14 0.19 0.18 0.22 0.21 0.23 0.18 0.18 0.14 0.14 0.10 0.10 0.08 0.09 0.11 0.11 0.10 0.04 0.01 0.01 0.08 0.08 0.05 0.07
0.04 0.28 0.23 0.37 0.28 0.03 0.00 0.00 0.00 0.00 0.00 0.00 0.00 0.00 0.00 0.00 0.00 0.00 0.01 0.02 0.20 0.09 0.05 0.10 0.11 0.15 0.14 0.15 0.19 0.22 0.16 0.14 0.18 0.12 0.20 0.17 0.17 0.19 0.09 0.04 0.05 0.00 0.00 0.00 0.00 0.01 0.02 0.05 0.01
0.08 0.76 0.34 0.66 0.43 0.42 0.05 0.02 0.00 0.00 0.00 0.00 0.00 0.00 0.00 0.00 0.01 0.02 0.08 0.07 0.09 0.06 0.09 0.09 0.10 0.13 0.11 0.18 0.14 0.10 0.03 0.05 0.07 0.07 0.18 0.13 0.10 0.04 0.00 0.00 0.00 0.00 0.00 0.00 0.00 0.00 0.00 0.00 0.00
0.30 0.72 0.99 0.95 0.42 0.29 0.03 0.01 0.00 0.00 0.00 0.00 0.00 0.00 0.00 0.00 0.03 0.18 0.26 0.17 0.26 0.14 0.14 0.07 0.07 0.09 0.12 0.12 0.05 0.02 0.01 0.00 0.07 0.07 0.02 0.00 0.00 0.00 0.00 0.01 0.00 0.00 0.00 0.00 0.00 0.00 0.00 0.00 0.00
0.52 1.02 0.94 0.49 0.28 0.16 0.12 0.01 0.00 0.00 0.00 0.00 0.00 0.00 0.00 0.00 0.01 0.04 0.04 0.13 0.11 0.18 0.11 0.20 0.16 0.09 0.15 0.12 0.04 0.03 0.01 0.01 0.04 0.02 0.01 0.02 0.06 0.02 0.00 0.00 0.00 0.00 0.00 0.00 0.00 0.00 0.00 0.00 0.00
0.37 0.24 0.33 0.14 0.06 0.03 0.12 0.03 0.00 0.00 0.00 0.00 0.00 0.00 0.00 0.00 0.00 0.00 0.00 0.03 0.05 0.11 0.14 0.24 0.11 0.07 0.03 0.01 0.01 0.01 0.04 0.04 0.04 0.03 0.00 0.01 0.02 0.00 0.00 0.00 0.00 0.00 0.00 0.00 0.00 0.00 0.00 0.00 0.00
0.28 0.30 0.26 0.03 0.03 0.01 0.05 0.08 0.02 0.00 0.00 0.00 0.00 0.00 0.00 0.00 0.00 0.00 0.00 0.01 0.02 0.06 0.07 0.25 0.09 0.18 0.03 0.00 0.02 0.04 0.01 0.02 0.02 0.02 0.00 0.00 0.00 0.00 0.00 0.00 0.02 0.01 0.00 0.00 0.00 0.00 0.00 0.00 0.00
0.14 0.09 0.10 0.01 0.00 0.02 0.02 0.05 0.04 0.02 0.01 0.00 0.00 0.00 0.00 0.00 0.00 0.00 0.00 0.00 0.02 0.03 0.04 0.11 0.11 0.06 0.08 0.24 0.15 0.08 0.02 0.00 0.00 0.00 0.00 0.00 0.00 0.00 0.00 0.00 0.00 0.00 0.00 0.00 0.00 0.00 0.00 0.00 0.00
0.06 0.01 0.03 0.01 0.00 0.01 0.00 0.03 0.05 0.01 0.02 0.01 0.00 0.00 0.00 0.00 0.00 0.00 0.00 0.03 0.02 0.01 0.03 0.06 0.04 0.09 0.17 0.33 0.11 0.09 0.01 0.00 0.00 0.00 0.00 0.00 0.00 0.00 0.00 0.00 0.00 0.00 0.00 0.00 0.00 0.00 0.00 0.00 0.00
0.02 0.08 0.07 0.02 0.02 0.00 0.00 0.01 0.01 0.08 0.01 0.00 0.00 0.00 0.00 0.00 0.00 0.00 0.00 0.02 0.03 0.02 0.00 0.03 0.04 0.09 0.22 0.49 0.23 0.07 0.04 0.00 0.00 0.00 0.01 0.00 0.00 0.00 0.00 0.00 0.00 0.00 0.00 0.00 0.00 0.00 0.00 0.00 0.00
0.01 0.05 0.09 0.12 0.07 0.01 0.00 0.03 0.08 0.07 0.01 0.00 0.00 0.00 0.00 0.00 0.00 0.00 0.00 0.00 0.00 0.00 0.00 0.00 0.01 0.09 0.12 0.18 0.09 0.05 0.05 0.02 0.00 0.01 0.02 0.00 0.00 0.00 0.00 0.00 0.00 0.00 0.00 0.00 0.00 0.00 0.00 0.00 0.00
0.08 0.05 0.17 0.87 0.22 0.05 0.02 0.07 0.31 0.12 0.03 0.00 0.00 0.00 0.00 0.00 0.00 0.00 0.00 0.00 0.00 0.00 0.00 0.00 0.00 0.01 0.08 0.06 0.01 0.05 0.05 0.01 0.00 0.06 0.02 0.00 0.00 0.00 0.00 0.00 0.00 0.00 0.00 0.00 0.00 0.00 0.00 0.00 0.00
0.07 0.01 0.00 0.09 0.07 0.05 0.01 0.01 0.08 0.07 0.11 0.02 0.00 0.00 0.00 0.00 0.00 0.00 0.00 0.00 0.00 0.00 0.00 0.01 0.00 0.00 0.03 0.03 0.06 0.10 0.01 0.02 0.00 0.04 0.01 0.00 0.00 0.00 0.02 0.01 0.00 0.00 0.00 0.01 0.00 0.00 0.00 0.00 0.00
0.00 0.00 0.00 0.01 0.05 0.02 0.00 0.00 0.02 0.01 0.11 0.10 0.01 0.00 0.00 0.00 0.00 0.00 0.00 0.00 0.00 0.00 0.00 0.00 0.01 0.00 0.01 0.01 0.08 0.05 0.03 0.01 0.02 0.03 0.01 0.01 0.01 0.00 0.04 0.01 0.03 0.02 0.09 0.02 0.01 0.01 0.00 0.00 0.00
0.00 0.00 0.00 0.00 0.00 0.01 0.00 0.00 0.01 0.00 0.01 0.05 0.01 0.00 0.00 0.00 0.00 0.00 0.00 0.00 0.00 0.00 0.00 0.00 0.00 0.00 0.00 0.00 0.03 0.03 0.04 0.05 0.03 0.03 0.00 0.00 0.02 0.00 0.02 0.09 0.05 0.02 0.02 0.14 0.05 0.05 0.03 0.01 0.00
0.00 0.00 0.00 0.00 0.00 0.01 0.00 0.00 0.00 0.00 0.00 0.01 0.00 0.00 0.01 0.01 0.00 0.00 0.00 0.00 0.00 0.00 0.00 0.00 0.00 0.00 0.00 0.01 0.00 0.01 0.02 0.02 0.03 0.03 0.01 0.00 0.00 0.01 0.04 0.09 0.04 0.01 0.01 0.12 0.11 0.02 0.04 0.05 0.03
0.00 0.00 0.00 0.00 0.01 0.04 0.01 0.00 0.00 0.00 0.01 0.00 0.00 0.00 0.02 0.02 0.01 0.00 0.00 0.00 0.00 0.00 0.00 0.00 0.00 0.00 0.00 0.03 0.02 0.03 0.05 0.04 0.07 0.06 0.03 0.00 0.00 0.00 0.07 0.07 0.04 0.09 0.16 0.13 0.06 0.02 0.04 0.05 0.04
0.00 0.00 0.00 0.00 0.00 0.01 0.00 0.00 0.00 0.00 0.02 0.01 0.00 0.00 0.00 0.02 0.02 0.03 0.00 0.00 0.00 0.00 0.00 0.00 0.00 0.00 0.01 0.03 0.04 0.02 0.01 0.01 0.00 0.00 0.00 0.01 0.00 0.00 0.03 0.07 0.02 0.15 0.47 0.16 0.12 0.17 0.09 0.06 0.06
0.00 0.00 0.00 0.00 0.00 0.00 0.00 0.00 0.00 0.00 0.00 0.01 0.02 0.00 0.00 0.01 0.03 0.03 0.00 0.00 0.00 0.00 0.00 0.00 0.00 0.00 0.01 0.01 0.03 0.04 0.01 0.02 0.00 0.01 0.02 0.00 0.00 0.00 0.03 0.11 0.06 0.04 0.04 0.03 0.05 0.10 0.10 0.08 0.08
0.00 0.00 0.00 0.01 0.03 0.00 0.00 0.00 0.00 0.00 0.00 0.00 0.07 0.01 0.00 0.00 0.01 0.03 0.02 0.00 0.00 0.00 0.00 0.00 0.00 0.00 0.00 0.00 0.00 0.01 0.02 0.01 0.00 0.00 0.00 0.00 0.00 0.00 0.00 0.05 0.07 0.02 0.00 0.01 0.02 0.03 0.03 0.03 0.05
0.00 0.00 0.00 0.00 0.01 0.00 0.00 0.00 0.00 0.00 0.00 0.00 0.03 0.02 0.00 0.00 0.01 0.06 0.02 0.03 0.01 0.00 0.00 0.00 0.00 0.00 0.00 0.00 0.00 0.00 0.01 0.00 0.00 0.00 0.00 0.00 0.00 0.00 0.00 0.02 0.13 0.06 0.01 0.00 0.03 0.04 0.04 0.05 0.04
0.00 0.00 0.00 0.00 0.00 0.00 0.00 0.00 0.00 0.00 0.00 0.00 0.00 0.02 0.00 0.01 0.02 0.01 0.01 0.06 0.08 0.01 0.00 0.00 0.00 0.00 0.00 0.00 0.00 0.00 0.00 0.01 0.01 0.01 0.00 0.00 0.00 0.00 0.00 0.01 0.05 0.05 0.04 0.03 0.04 0.03 0.00 0.00 0.00
0.00 0.00 0.00 0.00 0.00 0.00 0.00 0.00 0.00 0.00 0.00 0.00 0.00 0.00 0.00 0.01 0.04 0.02 0.04 0.03 0.08 0.05 0.02 0.00 0.00 0.00 0.00 0.00 0.00 0.00 0.00 0.01 0.01 0.02 0.00 0.00 0.00 0.00 0.00 0.00 0.00 0.03 0.06 0.01 0.01 0.00 0.00 0.00 0.00
0.00 0.00 0.00 0.00 0.00 0.00 0.00 0.01 0.00 0.00 0.00 0.00 0.01 0.02 0.02 0.03 0.05 0.07 0.12 0.07 0.02 0.08 0.05 0.03 0.00 0.00 0.00 0.00 0.00 0.00 0.00 0.00 0.00 0.00 0.00 0.00 0.00 0.01 0.01 0.02 0.05 0.02 0.03 0.04 0.01 0.00 0.00 0.00 0.00
0.00 0.00 0.00 0.00 0.00 0.00 0.00 0.00 0.00 0.00 0.00 0.00 0.00 0.02 0.08 0.05 0.08 0.08 0.10 0.14 0.16 0.14 0.09 0.03 0.00 0.00 0.01 0.00 0.00 0.00 0.00 0.00 0.00 0.00 0.00 0.00 0.01 0.00 0.01 0.01 0.08 0.10 0.09 0.07 0.02 0.01 0.02 0.01 0.01
0.00 0.00 0.00 0.00 0.00 0.00 0.00 0.00 0.00 0.00 0.00 0.00 0.00 0.00 0.10 0.03 0.05 0.14 0.17 0.21 0.07 0.13 0.17 0.10 0.02 0.00 0.02 0.05 0.06 0.00 0.00 0.00 0.00 0.00 0.00 0.00 0.02 0.02 0.04 0.08 0.15 0.21 0.15 0.15 0.05 0.10 0.17 0.09 0.04